<?xml version="1.0" encoding="UTF-8" standalone="no" ?>
<gpx xmlns="http://www.topografix.com/GPX/1/1" xmlns:xsi="http://www.w3.org/2001/XMLSchema-instance" xsi:schemaLocation="http://www.topografix.com/GPX/1/1 http://www.topografix.com/GPX/1/1/gpx.xsd" version="1.1" creator="VisuGPX - https://www.visugpx.com">
  <metadata>
    <name>Roc d'Azur 2012...</name>
    <desc><![CDATA[Le must de la randonnée/course de fin de saison dans le massif de l'Argens.
Le dénivelé n'est pas bon car il y a effectivement 1800 mètres de D  , mon GPS a du bugger sévère !!!
GPS Nature

[url]http://www.gps-nature.com/[/url]]]></desc>
  </metadata>
  <trk>
    <name><![CDATA[ROC 2012]]></name>
    <desc><![CDATA[14 oct. 2012  9:44 am]]></desc>
    <trkseg>
      <trkpt lat="43.41856" lon="6.73708">
        <ele>1.018</ele>
        <time>2012-10-14T07:45:06.967Z</time>
      </trkpt>
      <trkpt lat="43.41856" lon="6.73708">
        <ele>1.018</ele>
        <time>2012-10-14T07:45:07.067Z</time>
      </trkpt>
      <trkpt lat="43.41835" lon="6.73703">
        <ele>1.018</ele>
        <time>2012-10-14T07:45:19.906Z</time>
      </trkpt>
      <trkpt lat="43.41824" lon="6.73702">
        <ele>1.018</ele>
        <time>2012-10-14T07:45:23.503Z</time>
      </trkpt>
      <trkpt lat="43.41813" lon="6.737">
        <ele>1.018</ele>
        <time>2012-10-14T07:45:26.794Z</time>
      </trkpt>
      <trkpt lat="43.418" lon="6.73697">
        <ele>1.018</ele>
        <time>2012-10-14T07:45:30.044Z</time>
      </trkpt>
      <trkpt lat="43.41788" lon="6.73694">
        <ele>1.043</ele>
        <time>2012-10-14T07:45:33.013Z</time>
      </trkpt>
      <trkpt lat="43.41775" lon="6.73691">
        <ele>1.389</ele>
        <time>2012-10-14T07:45:35.949Z</time>
      </trkpt>
      <trkpt lat="43.41761" lon="6.73687">
        <ele>2.185</ele>
        <time>2012-10-14T07:45:39.046Z</time>
      </trkpt>
      <trkpt lat="43.41747" lon="6.73684">
        <ele>2.965</ele>
        <time>2012-10-14T07:45:42.120Z</time>
      </trkpt>
      <trkpt lat="43.41738" lon="6.73681">
        <ele>3.325</ele>
        <time>2012-10-14T07:45:44.144Z</time>
      </trkpt>
      <trkpt lat="43.41725" lon="6.73677">
        <ele>3.217</ele>
        <time>2012-10-14T07:45:46.892Z</time>
      </trkpt>
      <trkpt lat="43.41712" lon="6.73673">
        <ele>2.671</ele>
        <time>2012-10-14T07:45:49.659Z</time>
      </trkpt>
      <trkpt lat="43.41698" lon="6.73667">
        <ele>1.916</ele>
        <time>2012-10-14T07:45:52.781Z</time>
      </trkpt>
      <trkpt lat="43.41687" lon="6.73659">
        <ele>1.272</ele>
        <time>2012-10-14T07:45:55.435Z</time>
      </trkpt>
      <trkpt lat="43.41679" lon="6.73652">
        <ele>0.917</ele>
        <time>2012-10-14T07:45:57.429Z</time>
      </trkpt>
      <trkpt lat="43.41668" lon="6.73638">
        <ele>0.727</ele>
        <time>2012-10-14T07:46:00.630Z</time>
      </trkpt>
      <trkpt lat="43.41661" lon="6.73628">
        <ele>0.486</ele>
        <time>2012-10-14T07:46:02.620Z</time>
      </trkpt>
      <trkpt lat="43.41652" lon="6.73614">
        <ele>0.245</ele>
        <time>2012-10-14T07:46:05.416Z</time>
      </trkpt>
      <trkpt lat="43.41646" lon="6.73605">
        <ele>0.133</ele>
        <time>2012-10-14T07:46:07.350Z</time>
      </trkpt>
      <trkpt lat="43.41637" lon="6.73588">
        <ele>0.163</ele>
        <time>2012-10-14T07:46:10.438Z</time>
      </trkpt>
      <trkpt lat="43.41629" lon="6.73573">
        <ele>0.293</ele>
        <time>2012-10-14T07:46:13.259Z</time>
      </trkpt>
      <trkpt lat="43.41625" lon="6.73561">
        <ele>0.42</ele>
        <time>2012-10-14T07:46:15.349Z</time>
      </trkpt>
      <trkpt lat="43.41622" lon="6.73549">
        <ele>0.533</ele>
        <time>2012-10-14T07:46:17.315Z</time>
      </trkpt>
      <trkpt lat="43.41622" lon="6.7353">
        <ele>0.751</ele>
        <time>2012-10-14T07:46:20.217Z</time>
      </trkpt>
      <trkpt lat="43.41623" lon="6.73511">
        <ele>1.311</ele>
        <time>2012-10-14T07:46:23.050Z</time>
      </trkpt>
      <trkpt lat="43.41631" lon="6.73497">
        <ele>2.282</ele>
        <time>2012-10-14T07:46:25.579Z</time>
      </trkpt>
      <trkpt lat="43.41645" lon="6.73491">
        <ele>3.29</ele>
        <time>2012-10-14T07:46:28.327Z</time>
      </trkpt>
      <trkpt lat="43.4166" lon="6.73487">
        <ele>3.922</ele>
        <time>2012-10-14T07:46:31.239Z</time>
      </trkpt>
      <trkpt lat="43.4167" lon="6.73484">
        <ele>4.148</ele>
        <time>2012-10-14T07:46:33.139Z</time>
      </trkpt>
      <trkpt lat="43.41685" lon="6.73481">
        <ele>4.137</ele>
        <time>2012-10-14T07:46:36.119Z</time>
      </trkpt>
      <trkpt lat="43.41695" lon="6.73479">
        <ele>3.984</ele>
        <time>2012-10-14T07:46:38.025Z</time>
      </trkpt>
      <trkpt lat="43.41705" lon="6.73477">
        <ele>3.693</ele>
        <time>2012-10-14T07:46:39.985Z</time>
      </trkpt>
      <trkpt lat="43.41719" lon="6.73475">
        <ele>3.361</ele>
        <time>2012-10-14T07:46:42.860Z</time>
      </trkpt>
      <trkpt lat="43.41732" lon="6.73472">
        <ele>3.041</ele>
        <time>2012-10-14T07:46:45.498Z</time>
      </trkpt>
      <trkpt lat="43.41745" lon="6.7347">
        <ele>2.666</ele>
        <time>2012-10-14T07:46:48.221Z</time>
      </trkpt>
      <trkpt lat="43.41759" lon="6.73466">
        <ele>2.295</ele>
        <time>2012-10-14T07:46:50.930Z</time>
      </trkpt>
      <trkpt lat="43.41772" lon="6.73461">
        <ele>2.073</ele>
        <time>2012-10-14T07:46:53.701Z</time>
      </trkpt>
      <trkpt lat="43.41781" lon="6.73457">
        <ele>2.011</ele>
        <time>2012-10-14T07:46:55.575Z</time>
      </trkpt>
      <trkpt lat="43.41794" lon="6.73448">
        <ele>2.059</ele>
        <time>2012-10-14T07:46:58.427Z</time>
      </trkpt>
      <trkpt lat="43.41801" lon="6.73441">
        <ele>2.189</ele>
        <time>2012-10-14T07:47:00.291Z</time>
      </trkpt>
      <trkpt lat="43.41812" lon="6.73429">
        <ele>2.347</ele>
        <time>2012-10-14T07:47:03.107Z</time>
      </trkpt>
      <trkpt lat="43.41818" lon="6.73418">
        <ele>2.468</ele>
        <time>2012-10-14T07:47:04.957Z</time>
      </trkpt>
      <trkpt lat="43.41825" lon="6.73401">
        <ele>2.642</ele>
        <time>2012-10-14T07:47:07.770Z</time>
      </trkpt>
      <trkpt lat="43.41828" lon="6.73389">
        <ele>2.953</ele>
        <time>2012-10-14T07:47:09.591Z</time>
      </trkpt>
      <trkpt lat="43.41832" lon="6.7337">
        <ele>3.296</ele>
        <time>2012-10-14T07:47:12.493Z</time>
      </trkpt>
      <trkpt lat="43.41834" lon="6.73357">
        <ele>3.56</ele>
        <time>2012-10-14T07:47:14.384Z</time>
      </trkpt>
      <trkpt lat="43.41835" lon="6.73337">
        <ele>3.733</ele>
        <time>2012-10-14T07:47:17.200Z</time>
      </trkpt>
      <trkpt lat="43.41834" lon="6.73324">
        <ele>3.833</ele>
        <time>2012-10-14T07:47:19.102Z</time>
      </trkpt>
      <trkpt lat="43.41832" lon="6.73303">
        <ele>3.957</ele>
        <time>2012-10-14T07:47:21.967Z</time>
      </trkpt>
      <trkpt lat="43.41829" lon="6.73291">
        <ele>4.189</ele>
        <time>2012-10-14T07:47:23.803Z</time>
      </trkpt>
      <trkpt lat="43.41823" lon="6.73273">
        <ele>4.461</ele>
        <time>2012-10-14T07:47:26.642Z</time>
      </trkpt>
      <trkpt lat="43.41818" lon="6.73262">
        <ele>4.641</ele>
        <time>2012-10-14T07:47:28.527Z</time>
      </trkpt>
      <trkpt lat="43.41811" lon="6.73244">
        <ele>4.698</ele>
        <time>2012-10-14T07:47:31.379Z</time>
      </trkpt>
      <trkpt lat="43.41803" lon="6.73227">
        <ele>4.635</ele>
        <time>2012-10-14T07:47:34.202Z</time>
      </trkpt>
      <trkpt lat="43.41799" lon="6.73216">
        <ele>4.471</ele>
        <time>2012-10-14T07:47:36.033Z</time>
      </trkpt>
      <trkpt lat="43.41794" lon="6.73205">
        <ele>4.307</ele>
        <time>2012-10-14T07:47:37.916Z</time>
      </trkpt>
      <trkpt lat="43.41787" lon="6.73188">
        <ele>4.221</ele>
        <time>2012-10-14T07:47:40.712Z</time>
      </trkpt>
      <trkpt lat="43.41781" lon="6.73173">
        <ele>4.192</ele>
        <time>2012-10-14T07:47:43.324Z</time>
      </trkpt>
      <trkpt lat="43.41775" lon="6.73156">
        <ele>4.186</ele>
        <time>2012-10-14T07:47:46.144Z</time>
      </trkpt>
      <trkpt lat="43.41769" lon="6.7314">
        <ele>4.184</ele>
        <time>2012-10-14T07:47:48.883Z</time>
      </trkpt>
      <trkpt lat="43.41762" lon="6.73123">
        <ele>4.181</ele>
        <time>2012-10-14T07:47:51.697Z</time>
      </trkpt>
      <trkpt lat="43.41758" lon="6.73112">
        <ele>4.179</ele>
        <time>2012-10-14T07:47:53.576Z</time>
      </trkpt>
      <trkpt lat="43.41751" lon="6.73095">
        <ele>4.175</ele>
        <time>2012-10-14T07:47:56.426Z</time>
      </trkpt>
      <trkpt lat="43.41745" lon="6.73077">
        <ele>4.163</ele>
        <time>2012-10-14T07:47:59.327Z</time>
      </trkpt>
      <trkpt lat="43.41738" lon="6.73059">
        <ele>4.138</ele>
        <time>2012-10-14T07:48:02.213Z</time>
      </trkpt>
      <trkpt lat="43.41734" lon="6.73048">
        <ele>4.101</ele>
        <time>2012-10-14T07:48:04.089Z</time>
      </trkpt>
      <trkpt lat="43.41727" lon="6.73031">
        <ele>4.067</ele>
        <time>2012-10-14T07:48:06.845Z</time>
      </trkpt>
      <trkpt lat="43.4172" lon="6.73016">
        <ele>4.048</ele>
        <time>2012-10-14T07:48:09.534Z</time>
      </trkpt>
      <trkpt lat="43.41714" lon="6.73">
        <ele>4.044</ele>
        <time>2012-10-14T07:48:12.267Z</time>
      </trkpt>
      <trkpt lat="43.41707" lon="6.72984">
        <ele>4.055</ele>
        <time>2012-10-14T07:48:15.062Z</time>
      </trkpt>
      <trkpt lat="43.417" lon="6.72968">
        <ele>4.092</ele>
        <time>2012-10-14T07:48:17.744Z</time>
      </trkpt>
      <trkpt lat="43.41694" lon="6.72953">
        <ele>4.149</ele>
        <time>2012-10-14T07:48:20.479Z</time>
      </trkpt>
      <trkpt lat="43.41687" lon="6.72937">
        <ele>4.193</ele>
        <time>2012-10-14T07:48:23.268Z</time>
      </trkpt>
      <trkpt lat="43.4168" lon="6.72922">
        <ele>4.2</ele>
        <time>2012-10-14T07:48:26.064Z</time>
      </trkpt>
      <trkpt lat="43.41674" lon="6.72905">
        <ele>4.171</ele>
        <time>2012-10-14T07:48:28.967Z</time>
      </trkpt>
      <trkpt lat="43.4167" lon="6.72894">
        <ele>4.131</ele>
        <time>2012-10-14T07:48:30.917Z</time>
      </trkpt>
      <trkpt lat="43.41664" lon="6.72876">
        <ele>4.1</ele>
        <time>2012-10-14T07:48:33.795Z</time>
      </trkpt>
      <trkpt lat="43.41661" lon="6.72864">
        <ele>4.081</ele>
        <time>2012-10-14T07:48:35.704Z</time>
      </trkpt>
      <trkpt lat="43.41658" lon="6.72852">
        <ele>4.074</ele>
        <time>2012-10-14T07:48:37.601Z</time>
      </trkpt>
      <trkpt lat="43.4165" lon="6.72836">
        <ele>4.069</ele>
        <time>2012-10-14T07:48:40.559Z</time>
      </trkpt>
      <trkpt lat="43.41638" lon="6.72824">
        <ele>4.059</ele>
        <time>2012-10-14T07:48:43.521Z</time>
      </trkpt>
      <trkpt lat="43.41627" lon="6.72815">
        <ele>4.043</ele>
        <time>2012-10-14T07:48:46.263Z</time>
      </trkpt>
      <trkpt lat="43.41614" lon="6.72812">
        <ele>4.024</ele>
        <time>2012-10-14T07:48:49.124Z</time>
      </trkpt>
      <trkpt lat="43.41603" lon="6.72812">
        <ele>4.01</ele>
        <time>2012-10-14T07:48:51.480Z</time>
      </trkpt>
      <trkpt lat="43.41593" lon="6.72815">
        <ele>4.004</ele>
        <time>2012-10-14T07:48:53.560Z</time>
      </trkpt>
      <trkpt lat="43.41584" lon="6.7282">
        <ele>4.26</ele>
        <time>2012-10-14T07:48:55.622Z</time>
      </trkpt>
      <trkpt lat="43.41571" lon="6.72827">
        <ele>5.227</ele>
        <time>2012-10-14T07:48:58.679Z</time>
      </trkpt>
      <trkpt lat="43.41561" lon="6.72833">
        <ele>6.763</ele>
        <time>2012-10-14T07:49:00.866Z</time>
      </trkpt>
      <trkpt lat="43.41546" lon="6.72843">
        <ele>8.078</ele>
        <time>2012-10-14T07:49:04.366Z</time>
      </trkpt>
      <trkpt lat="43.41532" lon="6.72851">
        <ele>8.705</ele>
        <time>2012-10-14T07:49:07.423Z</time>
      </trkpt>
      <trkpt lat="43.41517" lon="6.72861">
        <ele>8.801</ele>
        <time>2012-10-14T07:49:10.729Z</time>
      </trkpt>
      <trkpt lat="43.41505" lon="6.72876">
        <ele>8.324</ele>
        <time>2012-10-14T07:49:13.971Z</time>
      </trkpt>
      <trkpt lat="43.41496" lon="6.72888">
        <ele>7.13</ele>
        <time>2012-10-14T07:49:16.250Z</time>
      </trkpt>
      <trkpt lat="43.41487" lon="6.72902">
        <ele>5.768</ele>
        <time>2012-10-14T07:49:18.672Z</time>
      </trkpt>
      <trkpt lat="43.4148" lon="6.72913">
        <ele>4.961</ele>
        <time>2012-10-14T07:49:20.713Z</time>
      </trkpt>
      <trkpt lat="43.41472" lon="6.72924">
        <ele>4.791</ele>
        <time>2012-10-14T07:49:22.741Z</time>
      </trkpt>
      <trkpt lat="43.4146" lon="6.7294">
        <ele>5.012</ele>
        <time>2012-10-14T07:49:25.683Z</time>
      </trkpt>
      <trkpt lat="43.41452" lon="6.72949">
        <ele>5.373</ele>
        <time>2012-10-14T07:49:27.481Z</time>
      </trkpt>
      <trkpt lat="43.41445" lon="6.72957">
        <ele>5.727</ele>
        <time>2012-10-14T07:49:29.266Z</time>
      </trkpt>
      <trkpt lat="43.41429" lon="6.72975">
        <ele>6.021</ele>
        <time>2012-10-14T07:49:32.888Z</time>
      </trkpt>
      <trkpt lat="43.4142" lon="6.72992">
        <ele>6.219</ele>
        <time>2012-10-14T07:49:35.382Z</time>
      </trkpt>
      <trkpt lat="43.41406" lon="6.73016">
        <ele>6.309</ele>
        <time>2012-10-14T07:49:38.699Z</time>
      </trkpt>
      <trkpt lat="43.41394" lon="6.73035">
        <ele>6.32</ele>
        <time>2012-10-14T07:49:41.585Z</time>
      </trkpt>
      <trkpt lat="43.41381" lon="6.73055">
        <ele>6.254</ele>
        <time>2012-10-14T07:49:44.457Z</time>
      </trkpt>
      <trkpt lat="43.41373" lon="6.73066">
        <ele>5.81</ele>
        <time>2012-10-14T07:49:46.364Z</time>
      </trkpt>
      <trkpt lat="43.41364" lon="6.73077">
        <ele>4.883</ele>
        <time>2012-10-14T07:49:48.291Z</time>
      </trkpt>
      <trkpt lat="43.41355" lon="6.73087">
        <ele>3.966</ele>
        <time>2012-10-14T07:49:50.102Z</time>
      </trkpt>
      <trkpt lat="43.41341" lon="6.73107">
        <ele>3.406</ele>
        <time>2012-10-14T07:49:53.201Z</time>
      </trkpt>
      <trkpt lat="43.4133" lon="6.7313">
        <ele>3.051</ele>
        <time>2012-10-14T07:49:56.307Z</time>
      </trkpt>
      <trkpt lat="43.41326" lon="6.73154">
        <ele>2.719</ele>
        <time>2012-10-14T07:49:59.452Z</time>
      </trkpt>
      <trkpt lat="43.41318" lon="6.73169">
        <ele>2.36</ele>
        <time>2012-10-14T07:50:02.463Z</time>
      </trkpt>
      <trkpt lat="43.41309" lon="6.73172">
        <ele>2.048</ele>
        <time>2012-10-14T07:50:05.345Z</time>
      </trkpt>
      <trkpt lat="43.41299" lon="6.73174">
        <ele>1.808</ele>
        <time>2012-10-14T07:50:09.511Z</time>
      </trkpt>
      <trkpt lat="43.41291" lon="6.73183">
        <ele>1.588</ele>
        <time>2012-10-14T07:50:14.848Z</time>
      </trkpt>
      <trkpt lat="43.41284" lon="6.73192">
        <ele>1.222</ele>
        <time>2012-10-14T07:50:20.339Z</time>
      </trkpt>
      <trkpt lat="43.41277" lon="6.732">
        <ele>0.647</ele>
        <time>2012-10-14T07:50:26.109Z</time>
      </trkpt>
      <trkpt lat="43.41268" lon="6.73203">
        <ele>0.139</ele>
        <time>2012-10-14T07:50:32.978Z</time>
      </trkpt>
      <trkpt lat="43.41268" lon="6.73203">
        <ele>1.3</ele>
        <time>2012-10-14T07:50:37.968Z</time>
      </trkpt>
      <trkpt lat="43.41268" lon="6.73203">
        <ele>1.3</ele>
        <time>2012-10-14T07:50:38.068Z</time>
      </trkpt>
      <trkpt lat="43.41246" lon="6.73192">
        <ele>1.1</ele>
        <time>2012-10-14T07:51:04.396Z</time>
      </trkpt>
      <trkpt lat="43.41237" lon="6.73193">
        <ele>0.008</ele>
        <time>2012-10-14T07:51:13.536Z</time>
      </trkpt>
      <trkpt lat="43.41228" lon="6.73195">
        <ele>0.63</ele>
        <time>2012-10-14T07:51:20.880Z</time>
      </trkpt>
      <trkpt lat="43.4122" lon="6.73187">
        <ele>2.186</ele>
        <time>2012-10-14T07:51:27.321Z</time>
      </trkpt>
      <trkpt lat="43.41213" lon="6.73178">
        <ele>3.785</ele>
        <time>2012-10-14T07:51:33.194Z</time>
      </trkpt>
      <trkpt lat="43.41206" lon="6.7317">
        <ele>4.492</ele>
        <time>2012-10-14T07:51:39.071Z</time>
      </trkpt>
      <trkpt lat="43.41199" lon="6.7316">
        <ele>4.506</ele>
        <time>2012-10-14T07:51:45.064Z</time>
      </trkpt>
      <trkpt lat="43.41192" lon="6.73149">
        <ele>4.316</ele>
        <time>2012-10-14T07:51:50.297Z</time>
      </trkpt>
      <trkpt lat="43.41186" lon="6.73138">
        <ele>4.169</ele>
        <time>2012-10-14T07:51:53.831Z</time>
      </trkpt>
      <trkpt lat="43.41178" lon="6.73126">
        <ele>4.2</ele>
        <time>2012-10-14T07:51:56.883Z</time>
      </trkpt>
      <trkpt lat="43.41178" lon="6.73109">
        <ele>4.427</ele>
        <time>2012-10-14T07:51:59.687Z</time>
      </trkpt>
      <trkpt lat="43.41183" lon="6.73093">
        <ele>4.692</ele>
        <time>2012-10-14T07:52:02.312Z</time>
      </trkpt>
      <trkpt lat="43.41191" lon="6.73073">
        <ele>4.855</ele>
        <time>2012-10-14T07:52:05.430Z</time>
      </trkpt>
      <trkpt lat="43.412" lon="6.73063">
        <ele>5.016</ele>
        <time>2012-10-14T07:52:07.558Z</time>
      </trkpt>
      <trkpt lat="43.41208" lon="6.73055">
        <ele>5.175</ele>
        <time>2012-10-14T07:52:09.265Z</time>
      </trkpt>
      <trkpt lat="43.41221" lon="6.73039">
        <ele>5.164</ele>
        <time>2012-10-14T07:52:12.223Z</time>
      </trkpt>
      <trkpt lat="43.41234" lon="6.73022">
        <ele>5.012</ele>
        <time>2012-10-14T07:52:15.170Z</time>
      </trkpt>
      <trkpt lat="43.41242" lon="6.73011">
        <ele>4.901</ele>
        <time>2012-10-14T07:52:17.110Z</time>
      </trkpt>
      <trkpt lat="43.41252" lon="6.72997">
        <ele>4.969</ele>
        <time>2012-10-14T07:52:20.111Z</time>
      </trkpt>
      <trkpt lat="43.41256" lon="6.72986">
        <ele>5.423</ele>
        <time>2012-10-14T07:52:22.323Z</time>
      </trkpt>
      <trkpt lat="43.41251" lon="6.72973">
        <ele>6.203</ele>
        <time>2012-10-14T07:52:24.792Z</time>
      </trkpt>
      <trkpt lat="43.41248" lon="6.72959">
        <ele>6.89</ele>
        <time>2012-10-14T07:52:26.933Z</time>
      </trkpt>
      <trkpt lat="43.41246" lon="6.72944">
        <ele>7.217</ele>
        <time>2012-10-14T07:52:28.945Z</time>
      </trkpt>
      <trkpt lat="43.41244" lon="6.72924">
        <ele>7.235</ele>
        <time>2012-10-14T07:52:31.600Z</time>
      </trkpt>
      <trkpt lat="43.41243" lon="6.7291">
        <ele>7.012</ele>
        <time>2012-10-14T07:52:33.523Z</time>
      </trkpt>
      <trkpt lat="43.41241" lon="6.72897">
        <ele>6.61</ele>
        <time>2012-10-14T07:52:35.255Z</time>
      </trkpt>
      <trkpt lat="43.41233" lon="6.72879">
        <ele>6.174</ele>
        <time>2012-10-14T07:52:38.045Z</time>
      </trkpt>
      <trkpt lat="43.41221" lon="6.72864">
        <ele>5.758</ele>
        <time>2012-10-14T07:52:40.866Z</time>
      </trkpt>
      <trkpt lat="43.41207" lon="6.72851">
        <ele>5.039</ele>
        <time>2012-10-14T07:52:43.702Z</time>
      </trkpt>
      <trkpt lat="43.41198" lon="6.72842">
        <ele>3.933</ele>
        <time>2012-10-14T07:52:45.477Z</time>
      </trkpt>
      <trkpt lat="43.41189" lon="6.72837">
        <ele>2.988</ele>
        <time>2012-10-14T07:52:47.192Z</time>
      </trkpt>
      <trkpt lat="43.41179" lon="6.72832">
        <ele>2.592</ele>
        <time>2012-10-14T07:52:49.045Z</time>
      </trkpt>
      <trkpt lat="43.41175" lon="6.72818">
        <ele>2.664</ele>
        <time>2012-10-14T07:52:51.338Z</time>
      </trkpt>
      <trkpt lat="43.41175" lon="6.72802">
        <ele>3.17</ele>
        <time>2012-10-14T07:52:54.053Z</time>
      </trkpt>
      <trkpt lat="43.41179" lon="6.72784">
        <ele>3.997</ele>
        <time>2012-10-14T07:52:57.174Z</time>
      </trkpt>
      <trkpt lat="43.41187" lon="6.72763">
        <ele>4.804</ele>
        <time>2012-10-14T07:53:00.761Z</time>
      </trkpt>
      <trkpt lat="43.41194" lon="6.72746">
        <ele>5.98</ele>
        <time>2012-10-14T07:53:03.785Z</time>
      </trkpt>
      <trkpt lat="43.41199" lon="6.72733">
        <ele>8.096</ele>
        <time>2012-10-14T07:53:06.099Z</time>
      </trkpt>
      <trkpt lat="43.412" lon="6.72719">
        <ele>10.366</ele>
        <time>2012-10-14T07:53:08.359Z</time>
      </trkpt>
      <trkpt lat="43.41197" lon="6.72702">
        <ele>11.653</ele>
        <time>2012-10-14T07:53:11.065Z</time>
      </trkpt>
      <trkpt lat="43.41189" lon="6.7269">
        <ele>11.974</ele>
        <time>2012-10-14T07:53:13.537Z</time>
      </trkpt>
      <trkpt lat="43.4118" lon="6.72675">
        <ele>11.825</ele>
        <time>2012-10-14T07:53:16.474Z</time>
      </trkpt>
      <trkpt lat="43.41171" lon="6.72661">
        <ele>11.197</ele>
        <time>2012-10-14T07:53:19.306Z</time>
      </trkpt>
      <trkpt lat="43.41161" lon="6.72648">
        <ele>9.708</ele>
        <time>2012-10-14T07:53:22.273Z</time>
      </trkpt>
      <trkpt lat="43.41149" lon="6.72633">
        <ele>7.747</ele>
        <time>2012-10-14T07:53:25.680Z</time>
      </trkpt>
      <trkpt lat="43.41136" lon="6.72619">
        <ele>6.102</ele>
        <time>2012-10-14T07:53:28.824Z</time>
      </trkpt>
      <trkpt lat="43.4113" lon="6.7261">
        <ele>4.991</ele>
        <time>2012-10-14T07:53:30.715Z</time>
      </trkpt>
      <trkpt lat="43.41124" lon="6.72599">
        <ele>4.624</ele>
        <time>2012-10-14T07:53:33.174Z</time>
      </trkpt>
      <trkpt lat="43.41129" lon="6.72583">
        <ele>5.097</ele>
        <time>2012-10-14T07:53:36.634Z</time>
      </trkpt>
      <trkpt lat="43.41137" lon="6.72572">
        <ele>5.867</ele>
        <time>2012-10-14T07:53:40.748Z</time>
      </trkpt>
      <trkpt lat="43.41144" lon="6.72562">
        <ele>6.497</ele>
        <time>2012-10-14T07:53:46.796Z</time>
      </trkpt>
      <trkpt lat="43.41147" lon="6.7255">
        <ele>6.938</ele>
        <time>2012-10-14T07:53:52.524Z</time>
      </trkpt>
      <trkpt lat="43.41146" lon="6.72536">
        <ele>7.164</ele>
        <time>2012-10-14T07:53:58.972Z</time>
      </trkpt>
      <trkpt lat="43.41146" lon="6.72536">
        <ele>7.213</ele>
        <time>2012-10-14T07:54:00.970Z</time>
      </trkpt>
      <trkpt lat="43.41146" lon="6.72536">
        <ele>7.192</ele>
        <time>2012-10-14T07:54:05.993Z</time>
      </trkpt>
      <trkpt lat="43.41147" lon="6.72506">
        <ele>7.163</ele>
        <time>2012-10-14T07:54:33.564Z</time>
      </trkpt>
      <trkpt lat="43.4115" lon="6.72493">
        <ele>6.845</ele>
        <time>2012-10-14T07:54:40.972Z</time>
      </trkpt>
      <trkpt lat="43.4115" lon="6.72493">
        <ele>6.064</ele>
        <time>2012-10-14T07:54:52.992Z</time>
      </trkpt>
      <trkpt lat="43.4115" lon="6.72493">
        <ele>5.419</ele>
        <time>2012-10-14T07:54:53.092Z</time>
      </trkpt>
      <trkpt lat="43.41156" lon="6.7247">
        <ele>5.537</ele>
        <time>2012-10-14T07:55:16.974Z</time>
      </trkpt>
      <trkpt lat="43.41156" lon="6.7247">
        <ele>6.047</ele>
        <time>2012-10-14T07:55:24.017Z</time>
      </trkpt>
      <trkpt lat="43.41156" lon="6.7247">
        <ele>6.303</ele>
        <time>2012-10-14T07:55:39.440Z</time>
      </trkpt>
      <trkpt lat="43.41174" lon="6.7246">
        <ele>6.241</ele>
        <time>2012-10-14T07:56:26.830Z</time>
      </trkpt>
      <trkpt lat="43.41183" lon="6.72459">
        <ele>6.122</ele>
        <time>2012-10-14T07:56:34.970Z</time>
      </trkpt>
      <trkpt lat="43.41183" lon="6.72459">
        <ele>6.054</ele>
        <time>2012-10-14T07:56:55.981Z</time>
      </trkpt>
      <trkpt lat="43.41183" lon="6.72459">
        <ele>6.034</ele>
        <time>2012-10-14T07:56:56.081Z</time>
      </trkpt>
      <trkpt lat="43.41187" lon="6.72488">
        <ele>6.037</ele>
        <time>2012-10-14T07:57:42.800Z</time>
      </trkpt>
      <trkpt lat="43.41183" lon="6.72499">
        <ele>6.052</ele>
        <time>2012-10-14T07:57:50.985Z</time>
      </trkpt>
      <trkpt lat="43.41183" lon="6.72499">
        <ele>6.081</ele>
        <time>2012-10-14T07:58:04.989Z</time>
      </trkpt>
      <trkpt lat="43.41183" lon="6.72499">
        <ele>6.102</ele>
        <time>2012-10-14T07:58:05.089Z</time>
      </trkpt>
      <trkpt lat="43.41161" lon="6.72507">
        <ele>6.104</ele>
        <time>2012-10-14T07:58:34.658Z</time>
      </trkpt>
      <trkpt lat="43.4115" lon="6.725">
        <ele>6.293</ele>
        <time>2012-10-14T07:58:39.909Z</time>
      </trkpt>
      <trkpt lat="43.4114" lon="6.72494">
        <ele>6.788</ele>
        <time>2012-10-14T07:58:43.914Z</time>
      </trkpt>
      <trkpt lat="43.41132" lon="6.72489">
        <ele>7.199</ele>
        <time>2012-10-14T07:58:46.795Z</time>
      </trkpt>
      <trkpt lat="43.41123" lon="6.72483">
        <ele>7.192</ele>
        <time>2012-10-14T07:58:49.647Z</time>
      </trkpt>
      <trkpt lat="43.41114" lon="6.72477">
        <ele>7.066</ele>
        <time>2012-10-14T07:58:52.446Z</time>
      </trkpt>
      <trkpt lat="43.41102" lon="6.7247">
        <ele>7.145</ele>
        <time>2012-10-14T07:58:55.453Z</time>
      </trkpt>
      <trkpt lat="43.4109" lon="6.72462">
        <ele>7.24</ele>
        <time>2012-10-14T07:58:58.111Z</time>
      </trkpt>
      <trkpt lat="43.41079" lon="6.72453">
        <ele>7.086</ele>
        <time>2012-10-14T07:59:00.565Z</time>
      </trkpt>
      <trkpt lat="43.4107" lon="6.72444">
        <ele>6.823</ele>
        <time>2012-10-14T07:59:02.538Z</time>
      </trkpt>
      <trkpt lat="43.41061" lon="6.72435">
        <ele>6.789</ele>
        <time>2012-10-14T07:59:04.509Z</time>
      </trkpt>
      <trkpt lat="43.41046" lon="6.72422">
        <ele>7.001</ele>
        <time>2012-10-14T07:59:07.543Z</time>
      </trkpt>
      <trkpt lat="43.41027" lon="6.72417">
        <ele>7.104</ele>
        <time>2012-10-14T07:59:10.691Z</time>
      </trkpt>
      <trkpt lat="43.41014" lon="6.72415">
        <ele>6.924</ele>
        <time>2012-10-14T07:59:12.826Z</time>
      </trkpt>
      <trkpt lat="43.40996" lon="6.72414">
        <ele>6.744</ele>
        <time>2012-10-14T07:59:15.799Z</time>
      </trkpt>
      <trkpt lat="43.40979" lon="6.72413">
        <ele>6.789</ele>
        <time>2012-10-14T07:59:18.655Z</time>
      </trkpt>
      <trkpt lat="43.4096" lon="6.72414">
        <ele>6.922</ele>
        <time>2012-10-14T07:59:21.828Z</time>
      </trkpt>
      <trkpt lat="43.40947" lon="6.72416">
        <ele>6.926</ele>
        <time>2012-10-14T07:59:23.976Z</time>
      </trkpt>
      <trkpt lat="43.40935" lon="6.7242">
        <ele>6.783</ele>
        <time>2012-10-14T07:59:25.937Z</time>
      </trkpt>
      <trkpt lat="43.40924" lon="6.72422">
        <ele>6.675</ele>
        <time>2012-10-14T07:59:27.722Z</time>
      </trkpt>
      <trkpt lat="43.4091" lon="6.72409">
        <ele>6.742</ele>
        <time>2012-10-14T07:59:30.423Z</time>
      </trkpt>
      <trkpt lat="43.40907" lon="6.7239">
        <ele>6.984</ele>
        <time>2012-10-14T07:59:32.631Z</time>
      </trkpt>
      <trkpt lat="43.40903" lon="6.72372">
        <ele>7.312</ele>
        <time>2012-10-14T07:59:34.812Z</time>
      </trkpt>
      <trkpt lat="43.40891" lon="6.72355">
        <ele>7.634</ele>
        <time>2012-10-14T07:59:37.559Z</time>
      </trkpt>
      <trkpt lat="43.40874" lon="6.72342">
        <ele>7.944</ele>
        <time>2012-10-14T07:59:40.485Z</time>
      </trkpt>
      <trkpt lat="43.40856" lon="6.72333">
        <ele>8.214</ele>
        <time>2012-10-14T07:59:43.437Z</time>
      </trkpt>
      <trkpt lat="43.40843" lon="6.72332">
        <ele>8.362</ele>
        <time>2012-10-14T07:59:45.435Z</time>
      </trkpt>
      <trkpt lat="43.40829" lon="6.72333">
        <ele>8.364</ele>
        <time>2012-10-14T07:59:47.369Z</time>
      </trkpt>
      <trkpt lat="43.4081" lon="6.7233">
        <ele>8.167</ele>
        <time>2012-10-14T07:59:50.138Z</time>
      </trkpt>
      <trkpt lat="43.40798" lon="6.72325">
        <ele>7.758</ele>
        <time>2012-10-14T07:59:52.014Z</time>
      </trkpt>
      <trkpt lat="43.40778" lon="6.72317">
        <ele>7.262</ele>
        <time>2012-10-14T07:59:55.227Z</time>
      </trkpt>
      <trkpt lat="43.40757" lon="6.72308">
        <ele>6.824</ele>
        <time>2012-10-14T07:59:58.693Z</time>
      </trkpt>
      <trkpt lat="43.40745" lon="6.72301">
        <ele>6.449</ele>
        <time>2012-10-14T08:00:00.656Z</time>
      </trkpt>
      <trkpt lat="43.40731" lon="6.72282">
        <ele>5.774</ele>
        <time>2012-10-14T08:00:03.682Z</time>
      </trkpt>
      <trkpt lat="43.40732" lon="6.72258">
        <ele>4.66</ele>
        <time>2012-10-14T08:00:06.319Z</time>
      </trkpt>
      <trkpt lat="43.40737" lon="6.72242">
        <ele>3.672</ele>
        <time>2012-10-14T08:00:08.288Z</time>
      </trkpt>
      <trkpt lat="43.40747" lon="6.7222">
        <ele>3.246</ele>
        <time>2012-10-14T08:00:11.199Z</time>
      </trkpt>
      <trkpt lat="43.40758" lon="6.722">
        <ele>3.266</ele>
        <time>2012-10-14T08:00:14.016Z</time>
      </trkpt>
      <trkpt lat="43.40766" lon="6.72187">
        <ele>3.607</ele>
        <time>2012-10-14T08:00:16.047Z</time>
      </trkpt>
      <trkpt lat="43.40773" lon="6.72173">
        <ele>4.251</ele>
        <time>2012-10-14T08:00:18.095Z</time>
      </trkpt>
      <trkpt lat="43.4078" lon="6.72158">
        <ele>5.026</ele>
        <time>2012-10-14T08:00:20.101Z</time>
      </trkpt>
      <trkpt lat="43.40787" lon="6.72136">
        <ele>5.589</ele>
        <time>2012-10-14T08:00:22.856Z</time>
      </trkpt>
      <trkpt lat="43.40792" lon="6.72113">
        <ele>5.797</ele>
        <time>2012-10-14T08:00:25.535Z</time>
      </trkpt>
      <trkpt lat="43.40793" lon="6.72095">
        <ele>5.793</ele>
        <time>2012-10-14T08:00:27.555Z</time>
      </trkpt>
      <trkpt lat="43.40794" lon="6.72077">
        <ele>5.601</ele>
        <time>2012-10-14T08:00:29.609Z</time>
      </trkpt>
      <trkpt lat="43.40794" lon="6.7206">
        <ele>5.205</ele>
        <time>2012-10-14T08:00:31.411Z</time>
      </trkpt>
      <trkpt lat="43.40796" lon="6.72036">
        <ele>4.808</ele>
        <time>2012-10-14T08:00:34.039Z</time>
      </trkpt>
      <trkpt lat="43.40799" lon="6.7202">
        <ele>4.608</ele>
        <time>2012-10-14T08:00:35.728Z</time>
      </trkpt>
      <trkpt lat="43.40802" lon="6.72004">
        <ele>4.514</ele>
        <time>2012-10-14T08:00:37.420Z</time>
      </trkpt>
      <trkpt lat="43.40807" lon="6.7198">
        <ele>4.391</ele>
        <time>2012-10-14T08:00:40.154Z</time>
      </trkpt>
      <trkpt lat="43.40814" lon="6.71955">
        <ele>4.265</ele>
        <time>2012-10-14T08:00:43.074Z</time>
      </trkpt>
      <trkpt lat="43.40821" lon="6.71935">
        <ele>4.277</ele>
        <time>2012-10-14T08:00:45.449Z</time>
      </trkpt>
      <trkpt lat="43.40829" lon="6.71914">
        <ele>4.461</ele>
        <time>2012-10-14T08:00:48.058Z</time>
      </trkpt>
      <trkpt lat="43.40834" lon="6.719">
        <ele>4.596</ele>
        <time>2012-10-14T08:00:49.887Z</time>
      </trkpt>
      <trkpt lat="43.40842" lon="6.71878">
        <ele>4.506</ele>
        <time>2012-10-14T08:00:52.488Z</time>
      </trkpt>
      <trkpt lat="43.40852" lon="6.71856">
        <ele>4.326</ele>
        <time>2012-10-14T08:00:55.391Z</time>
      </trkpt>
      <trkpt lat="43.40863" lon="6.71835">
        <ele>4.21</ele>
        <time>2012-10-14T08:00:58.224Z</time>
      </trkpt>
      <trkpt lat="43.40877" lon="6.71814">
        <ele>4.128</ele>
        <time>2012-10-14T08:01:01.533Z</time>
      </trkpt>
      <trkpt lat="43.40886" lon="6.718">
        <ele>3.886</ele>
        <time>2012-10-14T08:01:03.687Z</time>
      </trkpt>
      <trkpt lat="43.40896" lon="6.71781">
        <ele>3.402</ele>
        <time>2012-10-14T08:01:06.624Z</time>
      </trkpt>
      <trkpt lat="43.40902" lon="6.71759">
        <ele>2.911</ele>
        <time>2012-10-14T08:01:09.703Z</time>
      </trkpt>
      <trkpt lat="43.40905" lon="6.71741">
        <ele>2.65</ele>
        <time>2012-10-14T08:01:12.068Z</time>
      </trkpt>
      <trkpt lat="43.40908" lon="6.71719">
        <ele>2.624</ele>
        <time>2012-10-14T08:01:14.670Z</time>
      </trkpt>
      <trkpt lat="43.40911" lon="6.71704">
        <ele>2.735</ele>
        <time>2012-10-14T08:01:16.594Z</time>
      </trkpt>
      <trkpt lat="43.40915" lon="6.71688">
        <ele>2.856</ele>
        <time>2012-10-14T08:01:18.631Z</time>
      </trkpt>
      <trkpt lat="43.40919" lon="6.71662">
        <ele>3.041</ele>
        <time>2012-10-14T08:01:21.808Z</time>
      </trkpt>
      <trkpt lat="43.40923" lon="6.71641">
        <ele>3.376</ele>
        <time>2012-10-14T08:01:24.619Z</time>
      </trkpt>
      <trkpt lat="43.40927" lon="6.71615">
        <ele>3.575</ele>
        <time>2012-10-14T08:01:27.871Z</time>
      </trkpt>
      <trkpt lat="43.40931" lon="6.71594">
        <ele>3.382</ele>
        <time>2012-10-14T08:01:30.609Z</time>
      </trkpt>
      <trkpt lat="43.40936" lon="6.71569">
        <ele>2.878</ele>
        <time>2012-10-14T08:01:33.756Z</time>
      </trkpt>
      <trkpt lat="43.40939" lon="6.71553">
        <ele>2.146</ele>
        <time>2012-10-14T08:01:35.860Z</time>
      </trkpt>
      <trkpt lat="43.40944" lon="6.71529">
        <ele>1.372</ele>
        <time>2012-10-14T08:01:38.998Z</time>
      </trkpt>
      <trkpt lat="43.40944" lon="6.71508">
        <ele>0.879</ele>
        <time>2012-10-14T08:01:41.666Z</time>
      </trkpt>
      <trkpt lat="43.40948" lon="6.71485">
        <ele>0.753</ele>
        <time>2012-10-14T08:01:44.515Z</time>
      </trkpt>
      <trkpt lat="43.40962" lon="6.71471">
        <ele>1.083</ele>
        <time>2012-10-14T08:01:47.327Z</time>
      </trkpt>
      <trkpt lat="43.40981" lon="6.71463">
        <ele>1.918</ele>
        <time>2012-10-14T08:01:50.610Z</time>
      </trkpt>
      <trkpt lat="43.40992" lon="6.71456">
        <ele>2.999</ele>
        <time>2012-10-14T08:01:52.608Z</time>
      </trkpt>
      <trkpt lat="43.41002" lon="6.71448">
        <ele>4.14</ele>
        <time>2012-10-14T08:01:54.577Z</time>
      </trkpt>
      <trkpt lat="43.41017" lon="6.71434">
        <ele>5.348</ele>
        <time>2012-10-14T08:01:57.553Z</time>
      </trkpt>
      <trkpt lat="43.41026" lon="6.71425">
        <ele>6.479</ele>
        <time>2012-10-14T08:01:59.487Z</time>
      </trkpt>
      <trkpt lat="43.4104" lon="6.71409">
        <ele>7.313</ele>
        <time>2012-10-14T08:02:02.272Z</time>
      </trkpt>
      <trkpt lat="43.41053" lon="6.71391">
        <ele>7.743</ele>
        <time>2012-10-14T08:02:05.147Z</time>
      </trkpt>
      <trkpt lat="43.41065" lon="6.71372">
        <ele>7.849</ele>
        <time>2012-10-14T08:02:08.036Z</time>
      </trkpt>
      <trkpt lat="43.41074" lon="6.7136">
        <ele>7.786</ele>
        <time>2012-10-14T08:02:09.994Z</time>
      </trkpt>
      <trkpt lat="43.41085" lon="6.71339">
        <ele>7.454</ele>
        <time>2012-10-14T08:02:13.138Z</time>
      </trkpt>
      <trkpt lat="43.41092" lon="6.71326">
        <ele>6.8</ele>
        <time>2012-10-14T08:02:15.061Z</time>
      </trkpt>
      <trkpt lat="43.41102" lon="6.71304">
        <ele>5.963</ele>
        <time>2012-10-14T08:02:18.153Z</time>
      </trkpt>
      <trkpt lat="43.41115" lon="6.71288">
        <ele>5.108</ele>
        <time>2012-10-14T08:02:21.002Z</time>
      </trkpt>
      <trkpt lat="43.41131" lon="6.71276">
        <ele>4.483</ele>
        <time>2012-10-14T08:02:24.008Z</time>
      </trkpt>
      <trkpt lat="43.41149" lon="6.71269">
        <ele>4.245</ele>
        <time>2012-10-14T08:02:26.965Z</time>
      </trkpt>
      <trkpt lat="43.41165" lon="6.71258">
        <ele>4.226</ele>
        <time>2012-10-14T08:02:29.758Z</time>
      </trkpt>
      <trkpt lat="43.41179" lon="6.71241">
        <ele>4.039</ele>
        <time>2012-10-14T08:02:32.661Z</time>
      </trkpt>
      <trkpt lat="43.41193" lon="6.71225">
        <ele>3.477</ele>
        <time>2012-10-14T08:02:35.779Z</time>
      </trkpt>
      <trkpt lat="43.41207" lon="6.71211">
        <ele>2.888</ele>
        <time>2012-10-14T08:02:38.631Z</time>
      </trkpt>
      <trkpt lat="43.41221" lon="6.71194">
        <ele>2.625</ele>
        <time>2012-10-14T08:02:41.814Z</time>
      </trkpt>
      <trkpt lat="43.41232" lon="6.71176">
        <ele>2.606</ele>
        <time>2012-10-14T08:02:44.686Z</time>
      </trkpt>
      <trkpt lat="43.41238" lon="6.71164">
        <ele>2.708</ele>
        <time>2012-10-14T08:02:46.564Z</time>
      </trkpt>
      <trkpt lat="43.41246" lon="6.71144">
        <ele>3.108</ele>
        <time>2012-10-14T08:02:49.258Z</time>
      </trkpt>
      <trkpt lat="43.41253" lon="6.71122">
        <ele>3.869</ele>
        <time>2012-10-14T08:02:52.175Z</time>
      </trkpt>
      <trkpt lat="43.41259" lon="6.71107">
        <ele>4.568</ele>
        <time>2012-10-14T08:02:54.255Z</time>
      </trkpt>
      <trkpt lat="43.41267" lon="6.71085">
        <ele>4.878</ele>
        <time>2012-10-14T08:02:57.229Z</time>
      </trkpt>
      <trkpt lat="43.41277" lon="6.71064">
        <ele>4.969</ele>
        <time>2012-10-14T08:03:00.166Z</time>
      </trkpt>
      <trkpt lat="43.41289" lon="6.71046">
        <ele>5.108</ele>
        <time>2012-10-14T08:03:03.183Z</time>
      </trkpt>
      <trkpt lat="43.41297" lon="6.71034">
        <ele>5.273</ele>
        <time>2012-10-14T08:03:05.091Z</time>
      </trkpt>
      <trkpt lat="43.41308" lon="6.71017">
        <ele>5.283</ele>
        <time>2012-10-14T08:03:07.938Z</time>
      </trkpt>
      <trkpt lat="43.41315" lon="6.71006">
        <ele>5.236</ele>
        <time>2012-10-14T08:03:09.824Z</time>
      </trkpt>
      <trkpt lat="43.41323" lon="6.70995">
        <ele>5.317</ele>
        <time>2012-10-14T08:03:11.833Z</time>
      </trkpt>
      <trkpt lat="43.41332" lon="6.70983">
        <ele>5.58</ele>
        <time>2012-10-14T08:03:13.937Z</time>
      </trkpt>
      <trkpt lat="43.41345" lon="6.70967">
        <ele>6.046</ele>
        <time>2012-10-14T08:03:16.898Z</time>
      </trkpt>
      <trkpt lat="43.41353" lon="6.70955">
        <ele>6.702</ele>
        <time>2012-10-14T08:03:18.910Z</time>
      </trkpt>
      <trkpt lat="43.4136" lon="6.70944">
        <ele>7.381</ele>
        <time>2012-10-14T08:03:20.819Z</time>
      </trkpt>
      <trkpt lat="43.41372" lon="6.70927">
        <ele>7.838</ele>
        <time>2012-10-14T08:03:23.801Z</time>
      </trkpt>
      <trkpt lat="43.41383" lon="6.7091">
        <ele>8.029</ele>
        <time>2012-10-14T08:03:26.645Z</time>
      </trkpt>
      <trkpt lat="43.41395" lon="6.70893">
        <ele>8.078</ele>
        <time>2012-10-14T08:03:29.519Z</time>
      </trkpt>
      <trkpt lat="43.41404" lon="6.70881">
        <ele>7.934</ele>
        <time>2012-10-14T08:03:31.618Z</time>
      </trkpt>
      <trkpt lat="43.41412" lon="6.70868">
        <ele>7.513</ele>
        <time>2012-10-14T08:03:33.647Z</time>
      </trkpt>
      <trkpt lat="43.41421" lon="6.70848">
        <ele>6.959</ele>
        <time>2012-10-14T08:03:36.414Z</time>
      </trkpt>
      <trkpt lat="43.41426" lon="6.70833">
        <ele>6.495</ele>
        <time>2012-10-14T08:03:38.340Z</time>
      </trkpt>
      <trkpt lat="43.4143" lon="6.70817">
        <ele>6.212</ele>
        <time>2012-10-14T08:03:40.351Z</time>
      </trkpt>
      <trkpt lat="43.4143" lon="6.70801">
        <ele>6.052</ele>
        <time>2012-10-14T08:03:42.297Z</time>
      </trkpt>
      <trkpt lat="43.41432" lon="6.70777">
        <ele>5.933</ele>
        <time>2012-10-14T08:03:45.288Z</time>
      </trkpt>
      <trkpt lat="43.41435" lon="6.70755">
        <ele>5.708</ele>
        <time>2012-10-14T08:03:48.206Z</time>
      </trkpt>
      <trkpt lat="43.41439" lon="6.70741">
        <ele>5.297</ele>
        <time>2012-10-14T08:03:50.078Z</time>
      </trkpt>
      <trkpt lat="43.41448" lon="6.70721">
        <ele>4.872</ele>
        <time>2012-10-14T08:03:53.174Z</time>
      </trkpt>
      <trkpt lat="43.41452" lon="6.70706">
        <ele>4.659</ele>
        <time>2012-10-14T08:03:55.274Z</time>
      </trkpt>
      <trkpt lat="43.41453" lon="6.70682">
        <ele>4.661</ele>
        <time>2012-10-14T08:03:58.549Z</time>
      </trkpt>
      <trkpt lat="43.41441" lon="6.7066">
        <ele>4.917</ele>
        <time>2012-10-14T08:04:02.209Z</time>
      </trkpt>
      <trkpt lat="43.41432" lon="6.70653">
        <ele>5.42</ele>
        <time>2012-10-14T08:04:04.232Z</time>
      </trkpt>
      <trkpt lat="43.41415" lon="6.70644">
        <ele>6.035</ele>
        <time>2012-10-14T08:04:07.642Z</time>
      </trkpt>
      <trkpt lat="43.41404" lon="6.70639">
        <ele>6.831</ele>
        <time>2012-10-14T08:04:09.915Z</time>
      </trkpt>
      <trkpt lat="43.41385" lon="6.70641">
        <ele>8.099</ele>
        <time>2012-10-14T08:04:13.319Z</time>
      </trkpt>
      <trkpt lat="43.4137" lon="6.70656">
        <ele>9.607</ele>
        <time>2012-10-14T08:04:16.867Z</time>
      </trkpt>
      <trkpt lat="43.41358" lon="6.70662">
        <ele>10.688</ele>
        <time>2012-10-14T08:04:19.486Z</time>
      </trkpt>
      <trkpt lat="43.41349" lon="6.70658">
        <ele>11.071</ele>
        <time>2012-10-14T08:04:21.714Z</time>
      </trkpt>
      <trkpt lat="43.41341" lon="6.7065">
        <ele>10.884</ele>
        <time>2012-10-14T08:04:23.844Z</time>
      </trkpt>
      <trkpt lat="43.41331" lon="6.70635">
        <ele>10.24</ele>
        <time>2012-10-14T08:04:27.288Z</time>
      </trkpt>
      <trkpt lat="43.41323" lon="6.70626">
        <ele>9.417</ele>
        <time>2012-10-14T08:04:29.584Z</time>
      </trkpt>
      <trkpt lat="43.41312" lon="6.70613">
        <ele>8.766</ele>
        <time>2012-10-14T08:04:33.224Z</time>
      </trkpt>
      <trkpt lat="43.41301" lon="6.706">
        <ele>8.429</ele>
        <time>2012-10-14T08:04:37.071Z</time>
      </trkpt>
      <trkpt lat="43.4129" lon="6.70587">
        <ele>8.362</ele>
        <time>2012-10-14T08:04:40.940Z</time>
      </trkpt>
      <trkpt lat="43.41279" lon="6.70578">
        <ele>8.447</ele>
        <time>2012-10-14T08:04:43.989Z</time>
      </trkpt>
      <trkpt lat="43.41267" lon="6.70568">
        <ele>8.625</ele>
        <time>2012-10-14T08:04:46.916Z</time>
      </trkpt>
      <trkpt lat="43.41259" lon="6.70561">
        <ele>8.908</ele>
        <time>2012-10-14T08:04:48.745Z</time>
      </trkpt>
      <trkpt lat="43.41256" lon="6.70547">
        <ele>9.244</ele>
        <time>2012-10-14T08:04:50.698Z</time>
      </trkpt>
      <trkpt lat="43.41261" lon="6.70529">
        <ele>9.488</ele>
        <time>2012-10-14T08:04:53.232Z</time>
      </trkpt>
      <trkpt lat="43.41266" lon="6.70518">
        <ele>9.575</ele>
        <time>2012-10-14T08:04:54.997Z</time>
      </trkpt>
      <trkpt lat="43.41273" lon="6.70498">
        <ele>9.477</ele>
        <time>2012-10-14T08:04:57.879Z</time>
      </trkpt>
      <trkpt lat="43.41278" lon="6.70486">
        <ele>9.049</ele>
        <time>2012-10-14T08:04:59.797Z</time>
      </trkpt>
      <trkpt lat="43.41287" lon="6.70466">
        <ele>8.29</ele>
        <time>2012-10-14T08:05:02.802Z</time>
      </trkpt>
      <trkpt lat="43.41293" lon="6.70453">
        <ele>7.481</ele>
        <time>2012-10-14T08:05:04.836Z</time>
      </trkpt>
      <trkpt lat="43.41298" lon="6.70441">
        <ele>6.831</ele>
        <time>2012-10-14T08:05:06.828Z</time>
      </trkpt>
      <trkpt lat="43.41306" lon="6.70423">
        <ele>6.368</ele>
        <time>2012-10-14T08:05:09.542Z</time>
      </trkpt>
      <trkpt lat="43.41311" lon="6.7041">
        <ele>6.12</ele>
        <time>2012-10-14T08:05:11.425Z</time>
      </trkpt>
      <trkpt lat="43.41319" lon="6.7039">
        <ele>6.064</ele>
        <time>2012-10-14T08:05:14.398Z</time>
      </trkpt>
      <trkpt lat="43.41323" lon="6.70377">
        <ele>6.094</ele>
        <time>2012-10-14T08:05:16.310Z</time>
      </trkpt>
      <trkpt lat="43.41329" lon="6.70356">
        <ele>6.131</ele>
        <time>2012-10-14T08:05:19.204Z</time>
      </trkpt>
      <trkpt lat="43.41334" lon="6.70336">
        <ele>6.152</ele>
        <time>2012-10-14T08:05:21.888Z</time>
      </trkpt>
      <trkpt lat="43.41334" lon="6.70314">
        <ele>6.16</ele>
        <time>2012-10-14T08:05:24.570Z</time>
      </trkpt>
      <trkpt lat="43.41335" lon="6.70288">
        <ele>6.168</ele>
        <time>2012-10-14T08:05:27.900Z</time>
      </trkpt>
      <trkpt lat="43.41334" lon="6.70272">
        <ele>6.316</ele>
        <time>2012-10-14T08:05:29.976Z</time>
      </trkpt>
      <trkpt lat="43.41333" lon="6.70256">
        <ele>6.688</ele>
        <time>2012-10-14T08:05:32.119Z</time>
      </trkpt>
      <trkpt lat="43.4133" lon="6.70235">
        <ele>7.066</ele>
        <time>2012-10-14T08:05:35.040Z</time>
      </trkpt>
      <trkpt lat="43.41326" lon="6.70214">
        <ele>7.353</ele>
        <time>2012-10-14T08:05:37.977Z</time>
      </trkpt>
      <trkpt lat="43.41323" lon="6.70201">
        <ele>7.669</ele>
        <time>2012-10-14T08:05:40.035Z</time>
      </trkpt>
      <trkpt lat="43.41319" lon="6.70181">
        <ele>7.946</ele>
        <time>2012-10-14T08:05:43.091Z</time>
      </trkpt>
      <trkpt lat="43.41314" lon="6.70164">
        <ele>8.071</ele>
        <time>2012-10-14T08:05:45.778Z</time>
      </trkpt>
      <trkpt lat="43.41304" lon="6.7015">
        <ele>8.04</ele>
        <time>2012-10-14T08:05:48.633Z</time>
      </trkpt>
      <trkpt lat="43.41295" lon="6.7013">
        <ele>7.898</ele>
        <time>2012-10-14T08:05:51.743Z</time>
      </trkpt>
      <trkpt lat="43.41293" lon="6.70118">
        <ele>7.753</ele>
        <time>2012-10-14T08:05:53.790Z</time>
      </trkpt>
      <trkpt lat="43.41284" lon="6.70101">
        <ele>7.577</ele>
        <time>2012-10-14T08:05:57.295Z</time>
      </trkpt>
      <trkpt lat="43.41279" lon="6.7009">
        <ele>7.264</ele>
        <time>2012-10-14T08:05:59.545Z</time>
      </trkpt>
      <trkpt lat="43.41277" lon="6.70074">
        <ele>6.937</ele>
        <time>2012-10-14T08:06:01.673Z</time>
      </trkpt>
      <trkpt lat="43.4128" lon="6.70055">
        <ele>6.762</ele>
        <time>2012-10-14T08:06:04.129Z</time>
      </trkpt>
      <trkpt lat="43.4128" lon="6.7003">
        <ele>6.556</ele>
        <time>2012-10-14T08:06:07.309Z</time>
      </trkpt>
      <trkpt lat="43.41277" lon="6.70007">
        <ele>6.139</ele>
        <time>2012-10-14T08:06:10.343Z</time>
      </trkpt>
      <trkpt lat="43.41274" lon="6.69986">
        <ele>5.688</ele>
        <time>2012-10-14T08:06:13.342Z</time>
      </trkpt>
      <trkpt lat="43.41271" lon="6.69972">
        <ele>5.379</ele>
        <time>2012-10-14T08:06:15.358Z</time>
      </trkpt>
      <trkpt lat="43.41268" lon="6.69959">
        <ele>5.137</ele>
        <time>2012-10-14T08:06:17.121Z</time>
      </trkpt>
      <trkpt lat="43.41263" lon="6.6994">
        <ele>4.903</ele>
        <time>2012-10-14T08:06:19.875Z</time>
      </trkpt>
      <trkpt lat="43.41259" lon="6.69925">
        <ele>4.714</ele>
        <time>2012-10-14T08:06:21.903Z</time>
      </trkpt>
      <trkpt lat="43.41254" lon="6.69906">
        <ele>4.619</ele>
        <time>2012-10-14T08:06:24.654Z</time>
      </trkpt>
      <trkpt lat="43.4125" lon="6.69893">
        <ele>4.668</ele>
        <time>2012-10-14T08:06:26.460Z</time>
      </trkpt>
      <trkpt lat="43.41244" lon="6.69873">
        <ele>4.957</ele>
        <time>2012-10-14T08:06:29.578Z</time>
      </trkpt>
      <trkpt lat="43.4124" lon="6.69859">
        <ele>5.561</ele>
        <time>2012-10-14T08:06:31.715Z</time>
      </trkpt>
      <trkpt lat="43.41236" lon="6.69848">
        <ele>6.359</ele>
        <time>2012-10-14T08:06:33.529Z</time>
      </trkpt>
      <trkpt lat="43.41231" lon="6.69836">
        <ele>7.095</ele>
        <time>2012-10-14T08:06:35.354Z</time>
      </trkpt>
      <trkpt lat="43.41222" lon="6.6982">
        <ele>7.59</ele>
        <time>2012-10-14T08:06:38.388Z</time>
      </trkpt>
      <trkpt lat="43.41216" lon="6.69803">
        <ele>7.819</ele>
        <time>2012-10-14T08:06:41.165Z</time>
      </trkpt>
      <trkpt lat="43.41212" lon="6.6979">
        <ele>7.896</ele>
        <time>2012-10-14T08:06:43.269Z</time>
      </trkpt>
      <trkpt lat="43.41208" lon="6.69778">
        <ele>7.996</ele>
        <time>2012-10-14T08:06:45.209Z</time>
      </trkpt>
      <trkpt lat="43.41205" lon="6.69767">
        <ele>8.329</ele>
        <time>2012-10-14T08:06:47.111Z</time>
      </trkpt>
      <trkpt lat="43.41199" lon="6.69749">
        <ele>9.013</ele>
        <time>2012-10-14T08:06:49.761Z</time>
      </trkpt>
      <trkpt lat="43.41195" lon="6.69735">
        <ele>9.807</ele>
        <time>2012-10-14T08:06:51.785Z</time>
      </trkpt>
      <trkpt lat="43.41189" lon="6.69723">
        <ele>10.351</ele>
        <time>2012-10-14T08:06:53.850Z</time>
      </trkpt>
      <trkpt lat="43.41183" lon="6.69711">
        <ele>10.606</ele>
        <time>2012-10-14T08:06:56.125Z</time>
      </trkpt>
      <trkpt lat="43.41175" lon="6.69697">
        <ele>10.714</ele>
        <time>2012-10-14T08:06:59.108Z</time>
      </trkpt>
      <trkpt lat="43.41161" lon="6.69688">
        <ele>10.76</ele>
        <time>2012-10-14T08:07:02.456Z</time>
      </trkpt>
      <trkpt lat="43.41149" lon="6.69688">
        <ele>10.764</ele>
        <time>2012-10-14T08:07:05.393Z</time>
      </trkpt>
      <trkpt lat="43.41139" lon="6.69694">
        <ele>10.56</ele>
        <time>2012-10-14T08:07:07.986Z</time>
      </trkpt>
      <trkpt lat="43.41129" lon="6.69708">
        <ele>9.927</ele>
        <time>2012-10-14T08:07:12.197Z</time>
      </trkpt>
      <trkpt lat="43.41124" lon="6.69721">
        <ele>9.054</ele>
        <time>2012-10-14T08:07:15.682Z</time>
      </trkpt>
      <trkpt lat="43.41121" lon="6.69736">
        <ele>8.389</ele>
        <time>2012-10-14T08:07:19.874Z</time>
      </trkpt>
      <trkpt lat="43.41116" lon="6.6975">
        <ele>8.1</ele>
        <time>2012-10-14T08:07:24.419Z</time>
      </trkpt>
      <trkpt lat="43.4111" lon="6.6976">
        <ele>8.231</ele>
        <time>2012-10-14T08:07:28.367Z</time>
      </trkpt>
      <trkpt lat="43.41103" lon="6.69772">
        <ele>8.777</ele>
        <time>2012-10-14T08:07:32.614Z</time>
      </trkpt>
      <trkpt lat="43.41097" lon="6.69782">
        <ele>9.479</ele>
        <time>2012-10-14T08:07:36.363Z</time>
      </trkpt>
      <trkpt lat="43.41092" lon="6.69794">
        <ele>10.456</ele>
        <time>2012-10-14T08:07:40.334Z</time>
      </trkpt>
      <trkpt lat="43.41086" lon="6.69806">
        <ele>12.039</ele>
        <time>2012-10-14T08:07:44.091Z</time>
      </trkpt>
      <trkpt lat="43.41081" lon="6.69817">
        <ele>13.775</ele>
        <time>2012-10-14T08:07:47.888Z</time>
      </trkpt>
      <trkpt lat="43.41076" lon="6.6983">
        <ele>14.983</ele>
        <time>2012-10-14T08:07:51.920Z</time>
      </trkpt>
      <trkpt lat="43.41071" lon="6.6984">
        <ele>15.757</ele>
        <time>2012-10-14T08:07:55.579Z</time>
      </trkpt>
      <trkpt lat="43.41067" lon="6.69853">
        <ele>16.575</ele>
        <time>2012-10-14T08:07:59.371Z</time>
      </trkpt>
      <trkpt lat="43.41063" lon="6.69865">
        <ele>17.619</ele>
        <time>2012-10-14T08:08:03.231Z</time>
      </trkpt>
      <trkpt lat="43.41057" lon="6.69875">
        <ele>18.717</ele>
        <time>2012-10-14T08:08:07.019Z</time>
      </trkpt>
      <trkpt lat="43.41048" lon="6.69884">
        <ele>19.797</ele>
        <time>2012-10-14T08:08:11.781Z</time>
      </trkpt>
      <trkpt lat="43.41043" lon="6.69897">
        <ele>20.824</ele>
        <time>2012-10-14T08:08:16.497Z</time>
      </trkpt>
      <trkpt lat="43.41047" lon="6.69908">
        <ele>21.709</ele>
        <time>2012-10-14T08:08:20.873Z</time>
      </trkpt>
      <trkpt lat="43.41049" lon="6.69922">
        <ele>22.525</ele>
        <time>2012-10-14T08:08:25.597Z</time>
      </trkpt>
      <trkpt lat="43.41046" lon="6.69935">
        <ele>23.421</ele>
        <time>2012-10-14T08:08:30.246Z</time>
      </trkpt>
      <trkpt lat="43.41041" lon="6.69946">
        <ele>24.697</ele>
        <time>2012-10-14T08:08:34.884Z</time>
      </trkpt>
      <trkpt lat="43.41035" lon="6.69957">
        <ele>26.317</ele>
        <time>2012-10-14T08:08:39.856Z</time>
      </trkpt>
      <trkpt lat="43.41033" lon="6.69971">
        <ele>27.932</ele>
        <time>2012-10-14T08:08:45.023Z</time>
      </trkpt>
      <trkpt lat="43.41032" lon="6.69984">
        <ele>29.478</ele>
        <time>2012-10-14T08:08:49.785Z</time>
      </trkpt>
      <trkpt lat="43.41033" lon="6.69998">
        <ele>30.989</ele>
        <time>2012-10-14T08:08:55.429Z</time>
      </trkpt>
      <trkpt lat="43.41035" lon="6.7001">
        <ele>32.26</ele>
        <time>2012-10-14T08:09:00.890Z</time>
      </trkpt>
      <trkpt lat="43.41033" lon="6.70024">
        <ele>33.233</ele>
        <time>2012-10-14T08:09:07.258Z</time>
      </trkpt>
      <trkpt lat="43.41033" lon="6.70037">
        <ele>33.984</ele>
        <time>2012-10-14T08:09:13.846Z</time>
      </trkpt>
      <trkpt lat="43.41036" lon="6.7005">
        <ele>35.001</ele>
        <time>2012-10-14T08:09:20.138Z</time>
      </trkpt>
      <trkpt lat="43.4104" lon="6.70063">
        <ele>37.048</ele>
        <time>2012-10-14T08:09:26.160Z</time>
      </trkpt>
      <trkpt lat="43.41044" lon="6.70077">
        <ele>39.874</ele>
        <time>2012-10-14T08:09:32.300Z</time>
      </trkpt>
      <trkpt lat="43.41047" lon="6.70089">
        <ele>42.129</ele>
        <time>2012-10-14T08:09:37.416Z</time>
      </trkpt>
      <trkpt lat="43.41046" lon="6.70103">
        <ele>43.262</ele>
        <time>2012-10-14T08:09:42.983Z</time>
      </trkpt>
      <trkpt lat="43.4104" lon="6.70116">
        <ele>44.014</ele>
        <time>2012-10-14T08:09:49.132Z</time>
      </trkpt>
      <trkpt lat="43.41034" lon="6.70126">
        <ele>44.984</ele>
        <time>2012-10-14T08:09:54.876Z</time>
      </trkpt>
      <trkpt lat="43.41025" lon="6.70128">
        <ele>46.02</ele>
        <time>2012-10-14T08:10:00.968Z</time>
      </trkpt>
      <trkpt lat="43.41017" lon="6.70135">
        <ele>47.007</ele>
        <time>2012-10-14T08:10:07.107Z</time>
      </trkpt>
      <trkpt lat="43.4101" lon="6.70146">
        <ele>48.153</ele>
        <time>2012-10-14T08:10:14.340Z</time>
      </trkpt>
      <trkpt lat="43.41001" lon="6.70151">
        <ele>49.629</ele>
        <time>2012-10-14T08:10:19.777Z</time>
      </trkpt>
      <trkpt lat="43.40989" lon="6.70146">
        <ele>51.232</ele>
        <time>2012-10-14T08:10:25.087Z</time>
      </trkpt>
      <trkpt lat="43.40976" lon="6.70141">
        <ele>52.422</ele>
        <time>2012-10-14T08:10:30.742Z</time>
      </trkpt>
      <trkpt lat="43.40965" lon="6.70143">
        <ele>53.051</ele>
        <time>2012-10-14T08:10:35.683Z</time>
      </trkpt>
      <trkpt lat="43.40957" lon="6.70149">
        <ele>53.618</ele>
        <time>2012-10-14T08:10:40.526Z</time>
      </trkpt>
      <trkpt lat="43.40948" lon="6.70156">
        <ele>54.422</ele>
        <time>2012-10-14T08:10:46.077Z</time>
      </trkpt>
      <trkpt lat="43.40941" lon="6.70164">
        <ele>55.417</ele>
        <time>2012-10-14T08:10:51.111Z</time>
      </trkpt>
      <trkpt lat="43.40931" lon="6.70168">
        <ele>56.552</ele>
        <time>2012-10-14T08:10:56.516Z</time>
      </trkpt>
      <trkpt lat="43.40921" lon="6.70172">
        <ele>57.698</ele>
        <time>2012-10-14T08:11:01.818Z</time>
      </trkpt>
      <trkpt lat="43.4091" lon="6.70169">
        <ele>58.714</ele>
        <time>2012-10-14T08:11:07.234Z</time>
      </trkpt>
      <trkpt lat="43.409" lon="6.70173">
        <ele>59.707</ele>
        <time>2012-10-14T08:11:11.590Z</time>
      </trkpt>
      <trkpt lat="43.40892" lon="6.7018">
        <ele>60.724</ele>
        <time>2012-10-14T08:11:14.880Z</time>
      </trkpt>
      <trkpt lat="43.40885" lon="6.7019">
        <ele>61.506</ele>
        <time>2012-10-14T08:11:17.818Z</time>
      </trkpt>
      <trkpt lat="43.40881" lon="6.70204">
        <ele>61.883</ele>
        <time>2012-10-14T08:11:20.816Z</time>
      </trkpt>
      <trkpt lat="43.40875" lon="6.7022">
        <ele>61.865</ele>
        <time>2012-10-14T08:11:23.783Z</time>
      </trkpt>
      <trkpt lat="43.40865" lon="6.70231">
        <ele>61.596</ele>
        <time>2012-10-14T08:11:26.417Z</time>
      </trkpt>
      <trkpt lat="43.40849" lon="6.70239">
        <ele>61.285</ele>
        <time>2012-10-14T08:11:29.639Z</time>
      </trkpt>
      <trkpt lat="43.40836" lon="6.70241">
        <ele>61.049</ele>
        <time>2012-10-14T08:11:32.160Z</time>
      </trkpt>
      <trkpt lat="43.40819" lon="6.70244">
        <ele>60.893</ele>
        <time>2012-10-14T08:11:35.795Z</time>
      </trkpt>
      <trkpt lat="43.40803" lon="6.70243">
        <ele>60.59</ele>
        <time>2012-10-14T08:11:39.021Z</time>
      </trkpt>
      <trkpt lat="43.40795" lon="6.70237">
        <ele>59.978</ele>
        <time>2012-10-14T08:11:41.112Z</time>
      </trkpt>
      <trkpt lat="43.40781" lon="6.70231">
        <ele>59.343</ele>
        <time>2012-10-14T08:11:44.557Z</time>
      </trkpt>
      <trkpt lat="43.40769" lon="6.70223">
        <ele>58.944</ele>
        <time>2012-10-14T08:11:48.216Z</time>
      </trkpt>
      <trkpt lat="43.4076" lon="6.70212">
        <ele>58.763</ele>
        <time>2012-10-14T08:11:51.864Z</time>
      </trkpt>
      <trkpt lat="43.40753" lon="6.70204">
        <ele>58.803</ele>
        <time>2012-10-14T08:11:55.293Z</time>
      </trkpt>
      <trkpt lat="43.40744" lon="6.70195">
        <ele>59.009</ele>
        <time>2012-10-14T08:11:59.498Z</time>
      </trkpt>
      <trkpt lat="43.40734" lon="6.7019">
        <ele>59.27</ele>
        <time>2012-10-14T08:12:03.612Z</time>
      </trkpt>
      <trkpt lat="43.40725" lon="6.70183">
        <ele>59.549</ele>
        <time>2012-10-14T08:12:07.711Z</time>
      </trkpt>
      <trkpt lat="43.40715" lon="6.70181">
        <ele>59.918</ele>
        <time>2012-10-14T08:12:11.869Z</time>
      </trkpt>
      <trkpt lat="43.40707" lon="6.70175">
        <ele>60.747</ele>
        <time>2012-10-14T08:12:15.937Z</time>
      </trkpt>
      <trkpt lat="43.40699" lon="6.70168">
        <ele>62.203</ele>
        <time>2012-10-14T08:12:19.520Z</time>
      </trkpt>
      <trkpt lat="43.4069" lon="6.70164">
        <ele>63.732</ele>
        <time>2012-10-14T08:12:22.899Z</time>
      </trkpt>
      <trkpt lat="43.40679" lon="6.70159">
        <ele>64.781</ele>
        <time>2012-10-14T08:12:27.021Z</time>
      </trkpt>
      <trkpt lat="43.4067" lon="6.70158">
        <ele>65.615</ele>
        <time>2012-10-14T08:12:30.390Z</time>
      </trkpt>
      <trkpt lat="43.40659" lon="6.70155">
        <ele>66.547</ele>
        <time>2012-10-14T08:12:34.292Z</time>
      </trkpt>
      <trkpt lat="43.40649" lon="6.70151">
        <ele>67.349</ele>
        <time>2012-10-14T08:12:37.243Z</time>
      </trkpt>
      <trkpt lat="43.40641" lon="6.70147">
        <ele>67.856</ele>
        <time>2012-10-14T08:12:39.868Z</time>
      </trkpt>
      <trkpt lat="43.4063" lon="6.70142">
        <ele>68.689</ele>
        <time>2012-10-14T08:12:43.074Z</time>
      </trkpt>
      <trkpt lat="43.40618" lon="6.70134">
        <ele>70.134</ele>
        <time>2012-10-14T08:12:46.269Z</time>
      </trkpt>
      <trkpt lat="43.40607" lon="6.70126">
        <ele>71.445</ele>
        <time>2012-10-14T08:12:48.907Z</time>
      </trkpt>
      <trkpt lat="43.40593" lon="6.70121">
        <ele>72.019</ele>
        <time>2012-10-14T08:12:51.934Z</time>
      </trkpt>
      <trkpt lat="43.40583" lon="6.70118">
        <ele>71.963</ele>
        <time>2012-10-14T08:12:54.172Z</time>
      </trkpt>
      <trkpt lat="43.40568" lon="6.70116">
        <ele>71.491</ele>
        <time>2012-10-14T08:12:57.372Z</time>
      </trkpt>
      <trkpt lat="43.40558" lon="6.70114">
        <ele>70.908</ele>
        <time>2012-10-14T08:12:59.538Z</time>
      </trkpt>
      <trkpt lat="43.40543" lon="6.7011">
        <ele>70.418</ele>
        <time>2012-10-14T08:13:02.884Z</time>
      </trkpt>
      <trkpt lat="43.40528" lon="6.70106">
        <ele>70.038</ele>
        <time>2012-10-14T08:13:06.695Z</time>
      </trkpt>
      <trkpt lat="43.40515" lon="6.70105">
        <ele>69.804</ele>
        <time>2012-10-14T08:13:10.512Z</time>
      </trkpt>
      <trkpt lat="43.40503" lon="6.70102">
        <ele>69.728</ele>
        <time>2012-10-14T08:13:14.590Z</time>
      </trkpt>
      <trkpt lat="43.40491" lon="6.70103">
        <ele>69.725</ele>
        <time>2012-10-14T08:13:19.326Z</time>
      </trkpt>
      <trkpt lat="43.40481" lon="6.70104">
        <ele>69.729</ele>
        <time>2012-10-14T08:13:24.106Z</time>
      </trkpt>
      <trkpt lat="43.40471" lon="6.70104">
        <ele>69.722</ele>
        <time>2012-10-14T08:13:29.340Z</time>
      </trkpt>
      <trkpt lat="43.40461" lon="6.70105">
        <ele>69.766</ele>
        <time>2012-10-14T08:13:35.282Z</time>
      </trkpt>
      <trkpt lat="43.40451" lon="6.70104">
        <ele>69.898</ele>
        <time>2012-10-14T08:13:40.775Z</time>
      </trkpt>
      <trkpt lat="43.40443" lon="6.70097">
        <ele>70.059</ele>
        <time>2012-10-14T08:13:46.097Z</time>
      </trkpt>
      <trkpt lat="43.40434" lon="6.70092">
        <ele>70.644</ele>
        <time>2012-10-14T08:13:51.676Z</time>
      </trkpt>
      <trkpt lat="43.40425" lon="6.70087">
        <ele>72.219</ele>
        <time>2012-10-14T08:13:56.857Z</time>
      </trkpt>
      <trkpt lat="43.40417" lon="6.70081">
        <ele>74.29</ele>
        <time>2012-10-14T08:14:01.799Z</time>
      </trkpt>
      <trkpt lat="43.40408" lon="6.70077">
        <ele>76.186</ele>
        <time>2012-10-14T08:14:06.305Z</time>
      </trkpt>
      <trkpt lat="43.40399" lon="6.70073">
        <ele>77.867</ele>
        <time>2012-10-14T08:14:10.704Z</time>
      </trkpt>
      <trkpt lat="43.40389" lon="6.7007">
        <ele>79.116</ele>
        <time>2012-10-14T08:14:15.291Z</time>
      </trkpt>
      <trkpt lat="43.40379" lon="6.70065">
        <ele>80.197</ele>
        <time>2012-10-14T08:14:19.490Z</time>
      </trkpt>
      <trkpt lat="43.40369" lon="6.70061">
        <ele>81.748</ele>
        <time>2012-10-14T08:14:23.427Z</time>
      </trkpt>
      <trkpt lat="43.40359" lon="6.70055">
        <ele>83.326</ele>
        <time>2012-10-14T08:14:27.125Z</time>
      </trkpt>
      <trkpt lat="43.40349" lon="6.70048">
        <ele>84.191</ele>
        <time>2012-10-14T08:14:30.818Z</time>
      </trkpt>
      <trkpt lat="43.40339" lon="6.70041">
        <ele>84.512</ele>
        <time>2012-10-14T08:14:34.162Z</time>
      </trkpt>
      <trkpt lat="43.40331" lon="6.70035">
        <ele>84.728</ele>
        <time>2012-10-14T08:14:36.741Z</time>
      </trkpt>
      <trkpt lat="43.40322" lon="6.70029">
        <ele>84.933</ele>
        <time>2012-10-14T08:14:39.357Z</time>
      </trkpt>
      <trkpt lat="43.40311" lon="6.7002">
        <ele>84.952</ele>
        <time>2012-10-14T08:14:42.436Z</time>
      </trkpt>
      <trkpt lat="43.40301" lon="6.7001">
        <ele>84.665</ele>
        <time>2012-10-14T08:14:45.221Z</time>
      </trkpt>
      <trkpt lat="43.4029" lon="6.69997">
        <ele>84.205</ele>
        <time>2012-10-14T08:14:47.913Z</time>
      </trkpt>
      <trkpt lat="43.40283" lon="6.69989">
        <ele>83.866</ele>
        <time>2012-10-14T08:14:49.545Z</time>
      </trkpt>
      <trkpt lat="43.40271" lon="6.69975">
        <ele>83.672</ele>
        <time>2012-10-14T08:14:51.990Z</time>
      </trkpt>
      <trkpt lat="43.40263" lon="6.69967">
        <ele>83.404</ele>
        <time>2012-10-14T08:14:53.458Z</time>
      </trkpt>
      <trkpt lat="43.40248" lon="6.69955">
        <ele>82.97</ele>
        <time>2012-10-14T08:14:55.765Z</time>
      </trkpt>
      <trkpt lat="43.40235" lon="6.69947">
        <ele>82.249</ele>
        <time>2012-10-14T08:14:57.641Z</time>
      </trkpt>
      <trkpt lat="43.40215" lon="6.69946">
        <ele>81.126</ele>
        <time>2012-10-14T08:15:00.025Z</time>
      </trkpt>
      <trkpt lat="43.40203" lon="6.69956">
        <ele>79.862</ele>
        <time>2012-10-14T08:15:01.570Z</time>
      </trkpt>
      <trkpt lat="43.40181" lon="6.69978">
        <ele>78.614</ele>
        <time>2012-10-14T08:15:04.583Z</time>
      </trkpt>
      <trkpt lat="43.40165" lon="6.69996">
        <ele>76.828</ele>
        <time>2012-10-14T08:15:07.241Z</time>
      </trkpt>
      <trkpt lat="43.4014" lon="6.70023">
        <ele>74.367</ele>
        <time>2012-10-14T08:15:15.097Z</time>
      </trkpt>
      <trkpt lat="43.40121" lon="6.70045">
        <ele>71.768</ele>
        <time>2012-10-14T08:15:26.144Z</time>
      </trkpt>
      <trkpt lat="43.40113" lon="6.70057">
        <ele>69.303</ele>
        <time>2012-10-14T08:15:32.818Z</time>
      </trkpt>
      <trkpt lat="43.40106" lon="6.70067">
        <ele>67.217</ele>
        <time>2012-10-14T08:15:38.812Z</time>
      </trkpt>
      <trkpt lat="43.401" lon="6.70078">
        <ele>66.003</ele>
        <time>2012-10-14T08:15:44.714Z</time>
      </trkpt>
      <trkpt lat="43.40096" lon="6.70091">
        <ele>65.643</ele>
        <time>2012-10-14T08:15:50.658Z</time>
      </trkpt>
      <trkpt lat="43.40091" lon="6.70104">
        <ele>65.718</ele>
        <time>2012-10-14T08:15:56.980Z</time>
      </trkpt>
      <trkpt lat="43.40085" lon="6.70115">
        <ele>65.877</ele>
        <time>2012-10-14T08:16:02.427Z</time>
      </trkpt>
      <trkpt lat="43.40077" lon="6.70123">
        <ele>66.461</ele>
        <time>2012-10-14T08:16:08.209Z</time>
      </trkpt>
      <trkpt lat="43.40069" lon="6.70129">
        <ele>67.907</ele>
        <time>2012-10-14T08:16:13.328Z</time>
      </trkpt>
      <trkpt lat="43.40059" lon="6.70131">
        <ele>69.967</ele>
        <time>2012-10-14T08:16:18.935Z</time>
      </trkpt>
      <trkpt lat="43.4005" lon="6.70125">
        <ele>72.221</ele>
        <time>2012-10-14T08:16:25.777Z</time>
      </trkpt>
      <trkpt lat="43.40041" lon="6.70119">
        <ele>74.685</ele>
        <time>2012-10-14T08:16:32.936Z</time>
      </trkpt>
      <trkpt lat="43.40032" lon="6.70114">
        <ele>77.052</ele>
        <time>2012-10-14T08:16:39.322Z</time>
      </trkpt>
      <trkpt lat="43.40023" lon="6.70108">
        <ele>78.678</ele>
        <time>2012-10-14T08:16:46.041Z</time>
      </trkpt>
      <trkpt lat="43.40013" lon="6.70104">
        <ele>79.404</ele>
        <time>2012-10-14T08:16:53.480Z</time>
      </trkpt>
      <trkpt lat="43.40003" lon="6.70105">
        <ele>79.868</ele>
        <time>2012-10-14T08:17:01.523Z</time>
      </trkpt>
      <trkpt lat="43.39993" lon="6.70108">
        <ele>80.794</ele>
        <time>2012-10-14T08:17:08.941Z</time>
      </trkpt>
      <trkpt lat="43.39983" lon="6.70112">
        <ele>82.18</ele>
        <time>2012-10-14T08:17:16.263Z</time>
      </trkpt>
      <trkpt lat="43.39974" lon="6.70114">
        <ele>83.463</ele>
        <time>2012-10-14T08:17:23.620Z</time>
      </trkpt>
      <trkpt lat="43.39964" lon="6.70116">
        <ele>84.603</ele>
        <time>2012-10-14T08:17:30.488Z</time>
      </trkpt>
      <trkpt lat="43.39955" lon="6.70121">
        <ele>86.038</ele>
        <time>2012-10-14T08:17:37.046Z</time>
      </trkpt>
      <trkpt lat="43.39945" lon="6.70126">
        <ele>87.964</ele>
        <time>2012-10-14T08:17:42.727Z</time>
      </trkpt>
      <trkpt lat="43.39937" lon="6.70129">
        <ele>90.525</ele>
        <time>2012-10-14T08:17:47.444Z</time>
      </trkpt>
      <trkpt lat="43.39926" lon="6.70133">
        <ele>93.5</ele>
        <time>2012-10-14T08:17:52.384Z</time>
      </trkpt>
      <trkpt lat="43.39917" lon="6.70135">
        <ele>96.156</ele>
        <time>2012-10-14T08:17:56.114Z</time>
      </trkpt>
      <trkpt lat="43.39907" lon="6.70137">
        <ele>97.914</ele>
        <time>2012-10-14T08:18:00.109Z</time>
      </trkpt>
      <trkpt lat="43.39896" lon="6.7014">
        <ele>98.728</ele>
        <time>2012-10-14T08:18:03.833Z</time>
      </trkpt>
      <trkpt lat="43.39889" lon="6.70146">
        <ele>98.917</ele>
        <time>2012-10-14T08:18:06.930Z</time>
      </trkpt>
      <trkpt lat="43.3988" lon="6.70155">
        <ele>99.076</ele>
        <time>2012-10-14T08:18:10.481Z</time>
      </trkpt>
      <trkpt lat="43.39873" lon="6.70163">
        <ele>99.45</ele>
        <time>2012-10-14T08:18:13.582Z</time>
      </trkpt>
      <trkpt lat="43.39865" lon="6.70174">
        <ele>99.972</ele>
        <time>2012-10-14T08:18:17.136Z</time>
      </trkpt>
      <trkpt lat="43.39858" lon="6.70182">
        <ele>100.806</ele>
        <time>2012-10-14T08:18:19.652Z</time>
      </trkpt>
      <trkpt lat="43.39849" lon="6.70187">
        <ele>101.969</ele>
        <time>2012-10-14T08:18:22.082Z</time>
      </trkpt>
      <trkpt lat="43.39838" lon="6.70188">
        <ele>102.957</ele>
        <time>2012-10-14T08:18:24.655Z</time>
      </trkpt>
      <trkpt lat="43.39826" lon="6.70186">
        <ele>103.488</ele>
        <time>2012-10-14T08:18:27.193Z</time>
      </trkpt>
      <trkpt lat="43.39814" lon="6.70186">
        <ele>103.792</ele>
        <time>2012-10-14T08:18:29.817Z</time>
      </trkpt>
      <trkpt lat="43.39802" lon="6.70185">
        <ele>104.246</ele>
        <time>2012-10-14T08:18:32.490Z</time>
      </trkpt>
      <trkpt lat="43.39788" lon="6.70183">
        <ele>104.951</ele>
        <time>2012-10-14T08:18:35.334Z</time>
      </trkpt>
      <trkpt lat="43.39775" lon="6.70182">
        <ele>105.583</ele>
        <time>2012-10-14T08:18:37.814Z</time>
      </trkpt>
      <trkpt lat="43.39761" lon="6.70181">
        <ele>105.909</ele>
        <time>2012-10-14T08:18:40.329Z</time>
      </trkpt>
      <trkpt lat="43.39748" lon="6.7018">
        <ele>106.091</ele>
        <time>2012-10-14T08:18:42.716Z</time>
      </trkpt>
      <trkpt lat="43.39739" lon="6.70177">
        <ele>106.293</ele>
        <time>2012-10-14T08:18:44.609Z</time>
      </trkpt>
      <trkpt lat="43.39729" lon="6.70173">
        <ele>106.553</ele>
        <time>2012-10-14T08:18:46.890Z</time>
      </trkpt>
      <trkpt lat="43.3971" lon="6.70166">
        <ele>106.761</ele>
        <time>2012-10-14T08:18:51.969Z</time>
      </trkpt>
      <trkpt lat="43.39694" lon="6.70158">
        <ele>106.707</ele>
        <time>2012-10-14T08:18:58.539Z</time>
      </trkpt>
      <trkpt lat="43.39685" lon="6.70152">
        <ele>106.391</ele>
        <time>2012-10-14T08:19:03.448Z</time>
      </trkpt>
      <trkpt lat="43.39677" lon="6.70145">
        <ele>105.746</ele>
        <time>2012-10-14T08:19:07.717Z</time>
      </trkpt>
      <trkpt lat="43.39668" lon="6.70135">
        <ele>104.57</ele>
        <time>2012-10-14T08:19:12.938Z</time>
      </trkpt>
      <trkpt lat="43.3966" lon="6.70126">
        <ele>103.176</ele>
        <time>2012-10-14T08:19:16.879Z</time>
      </trkpt>
      <trkpt lat="43.39653" lon="6.70116">
        <ele>102.176</ele>
        <time>2012-10-14T08:19:20.637Z</time>
      </trkpt>
      <trkpt lat="43.39647" lon="6.70106">
        <ele>101.749</ele>
        <time>2012-10-14T08:19:23.887Z</time>
      </trkpt>
      <trkpt lat="43.39641" lon="6.70097">
        <ele>101.785</ele>
        <time>2012-10-14T08:19:26.918Z</time>
      </trkpt>
      <trkpt lat="43.39634" lon="6.70085">
        <ele>102.346</ele>
        <time>2012-10-14T08:19:30.019Z</time>
      </trkpt>
      <trkpt lat="43.39627" lon="6.70074">
        <ele>104.225</ele>
        <time>2012-10-14T08:19:32.631Z</time>
      </trkpt>
      <trkpt lat="43.39618" lon="6.70065">
        <ele>107.396</ele>
        <time>2012-10-14T08:19:35.055Z</time>
      </trkpt>
      <trkpt lat="43.39608" lon="6.70062">
        <ele>110.274</ele>
        <time>2012-10-14T08:19:37.105Z</time>
      </trkpt>
      <trkpt lat="43.39597" lon="6.70065">
        <ele>111.909</ele>
        <time>2012-10-14T08:19:39.221Z</time>
      </trkpt>
      <trkpt lat="43.39586" lon="6.70069">
        <ele>112.727</ele>
        <time>2012-10-14T08:19:40.992Z</time>
      </trkpt>
      <trkpt lat="43.39573" lon="6.70075">
        <ele>113.099</ele>
        <time>2012-10-14T08:19:43.167Z</time>
      </trkpt>
      <trkpt lat="43.39565" lon="6.70079">
        <ele>113.203</ele>
        <time>2012-10-14T08:19:44.641Z</time>
      </trkpt>
      <trkpt lat="43.39549" lon="6.70087">
        <ele>113.179</ele>
        <time>2012-10-14T08:19:47.381Z</time>
      </trkpt>
      <trkpt lat="43.3954" lon="6.70093">
        <ele>113.131</ele>
        <time>2012-10-14T08:19:49.253Z</time>
      </trkpt>
      <trkpt lat="43.39521" lon="6.70103">
        <ele>112.77</ele>
        <time>2012-10-14T08:19:52.706Z</time>
      </trkpt>
      <trkpt lat="43.39501" lon="6.70109">
        <ele>111.484</ele>
        <time>2012-10-14T08:19:55.550Z</time>
      </trkpt>
      <trkpt lat="43.39483" lon="6.7011">
        <ele>109.436</ele>
        <time>2012-10-14T08:19:57.929Z</time>
      </trkpt>
      <trkpt lat="43.39474" lon="6.70109">
        <ele>107.688</ele>
        <time>2012-10-14T08:19:59.270Z</time>
      </trkpt>
      <trkpt lat="43.39454" lon="6.70105">
        <ele>106.869</ele>
        <time>2012-10-14T08:20:02.144Z</time>
      </trkpt>
      <trkpt lat="43.39439" lon="6.70101">
        <ele>106.752</ele>
        <time>2012-10-14T08:20:04.490Z</time>
      </trkpt>
      <trkpt lat="43.39416" lon="6.70098">
        <ele>106.934</ele>
        <time>2012-10-14T08:20:07.955Z</time>
      </trkpt>
      <trkpt lat="43.39403" lon="6.70094">
        <ele>107.327</ele>
        <time>2012-10-14T08:20:10.031Z</time>
      </trkpt>
      <trkpt lat="43.39383" lon="6.70086">
        <ele>107.897</ele>
        <time>2012-10-14T08:20:12.854Z</time>
      </trkpt>
      <trkpt lat="43.39372" lon="6.70079">
        <ele>108.369</ele>
        <time>2012-10-14T08:20:14.662Z</time>
      </trkpt>
      <trkpt lat="43.39361" lon="6.70071">
        <ele>108.562</ele>
        <time>2012-10-14T08:20:16.487Z</time>
      </trkpt>
      <trkpt lat="43.39345" lon="6.70053">
        <ele>108.525</ele>
        <time>2012-10-14T08:20:19.878Z</time>
      </trkpt>
      <trkpt lat="43.39334" lon="6.70039">
        <ele>108.31</ele>
        <time>2012-10-14T08:20:22.916Z</time>
      </trkpt>
      <trkpt lat="43.39325" lon="6.70026">
        <ele>107.842</ele>
        <time>2012-10-14T08:20:26.108Z</time>
      </trkpt>
      <trkpt lat="43.3931" lon="6.70007">
        <ele>107.129</ele>
        <time>2012-10-14T08:20:31.409Z</time>
      </trkpt>
      <trkpt lat="43.39298" lon="6.69991">
        <ele>106.484</ele>
        <time>2012-10-14T08:20:35.708Z</time>
      </trkpt>
      <trkpt lat="43.39289" lon="6.6998">
        <ele>106.1</ele>
        <time>2012-10-14T08:20:38.300Z</time>
      </trkpt>
      <trkpt lat="43.39282" lon="6.6997">
        <ele>105.859</ele>
        <time>2012-10-14T08:20:40.233Z</time>
      </trkpt>
      <trkpt lat="43.39274" lon="6.69961">
        <ele>105.768</ele>
        <time>2012-10-14T08:20:42.136Z</time>
      </trkpt>
      <trkpt lat="43.39268" lon="6.69951">
        <ele>105.888</ele>
        <time>2012-10-14T08:20:43.742Z</time>
      </trkpt>
      <trkpt lat="43.39258" lon="6.69942">
        <ele>106.098</ele>
        <time>2012-10-14T08:20:45.609Z</time>
      </trkpt>
      <trkpt lat="43.39249" lon="6.69937">
        <ele>106.342</ele>
        <time>2012-10-14T08:20:47.041Z</time>
      </trkpt>
      <trkpt lat="43.3924" lon="6.69934">
        <ele>106.712</ele>
        <time>2012-10-14T08:20:48.363Z</time>
      </trkpt>
      <trkpt lat="43.39224" lon="6.69928">
        <ele>107.164</ele>
        <time>2012-10-14T08:20:51.007Z</time>
      </trkpt>
      <trkpt lat="43.39208" lon="6.69909">
        <ele>107.504</ele>
        <time>2012-10-14T08:20:56.082Z</time>
      </trkpt>
      <trkpt lat="43.39198" lon="6.69894">
        <ele>107.647</ele>
        <time>2012-10-14T08:21:01.406Z</time>
      </trkpt>
      <trkpt lat="43.39188" lon="6.6988">
        <ele>107.641</ele>
        <time>2012-10-14T08:21:06.940Z</time>
      </trkpt>
      <trkpt lat="43.39177" lon="6.69869">
        <ele>107.415</ele>
        <time>2012-10-14T08:21:13.230Z</time>
      </trkpt>
      <trkpt lat="43.39169" lon="6.69862">
        <ele>106.953</ele>
        <time>2012-10-14T08:21:17.624Z</time>
      </trkpt>
      <trkpt lat="43.3916" lon="6.69857">
        <ele>106.399</ele>
        <time>2012-10-14T08:21:21.944Z</time>
      </trkpt>
      <trkpt lat="43.39152" lon="6.69852">
        <ele>105.887</ele>
        <time>2012-10-14T08:21:26.347Z</time>
      </trkpt>
      <trkpt lat="43.39141" lon="6.69846">
        <ele>105.537</ele>
        <time>2012-10-14T08:21:32.286Z</time>
      </trkpt>
      <trkpt lat="43.39135" lon="6.69836">
        <ele>105.586</ele>
        <time>2012-10-14T08:21:37.724Z</time>
      </trkpt>
      <trkpt lat="43.39132" lon="6.69822">
        <ele>106.104</ele>
        <time>2012-10-14T08:21:44.115Z</time>
      </trkpt>
      <trkpt lat="43.39131" lon="6.69808">
        <ele>107.129</ele>
        <time>2012-10-14T08:21:50.534Z</time>
      </trkpt>
      <trkpt lat="43.3913" lon="6.69794">
        <ele>108.759</ele>
        <time>2012-10-14T08:21:57.745Z</time>
      </trkpt>
      <trkpt lat="43.39129" lon="6.69779">
        <ele>110.76</ele>
        <time>2012-10-14T08:22:05.463Z</time>
      </trkpt>
      <trkpt lat="43.3913" lon="6.69766">
        <ele>112.636</ele>
        <time>2012-10-14T08:22:12.328Z</time>
      </trkpt>
      <trkpt lat="43.3913" lon="6.69751">
        <ele>114.441</ele>
        <time>2012-10-14T08:22:19.471Z</time>
      </trkpt>
      <trkpt lat="43.3913" lon="6.69739">
        <ele>116.568</ele>
        <time>2012-10-14T08:22:25.701Z</time>
      </trkpt>
      <trkpt lat="43.3913" lon="6.69726">
        <ele>118.875</ele>
        <time>2012-10-14T08:22:31.741Z</time>
      </trkpt>
      <trkpt lat="43.39128" lon="6.69712">
        <ele>120.663</ele>
        <time>2012-10-14T08:22:38.411Z</time>
      </trkpt>
      <trkpt lat="43.39124" lon="6.697">
        <ele>121.782</ele>
        <time>2012-10-14T08:22:44.433Z</time>
      </trkpt>
      <trkpt lat="43.39121" lon="6.69688">
        <ele>122.915</ele>
        <time>2012-10-14T08:22:49.894Z</time>
      </trkpt>
      <trkpt lat="43.39118" lon="6.69676">
        <ele>124.441</ele>
        <time>2012-10-14T08:22:55.713Z</time>
      </trkpt>
      <trkpt lat="43.39115" lon="6.69663">
        <ele>125.921</ele>
        <time>2012-10-14T08:23:01.899Z</time>
      </trkpt>
      <trkpt lat="43.39113" lon="6.69651">
        <ele>127.113</ele>
        <time>2012-10-14T08:23:08.325Z</time>
      </trkpt>
      <trkpt lat="43.39112" lon="6.69638">
        <ele>128.31</ele>
        <time>2012-10-14T08:23:14.898Z</time>
      </trkpt>
      <trkpt lat="43.39109" lon="6.69625">
        <ele>129.515</ele>
        <time>2012-10-14T08:23:21.649Z</time>
      </trkpt>
      <trkpt lat="43.39106" lon="6.69613">
        <ele>130.374</ele>
        <time>2012-10-14T08:23:27.807Z</time>
      </trkpt>
      <trkpt lat="43.39103" lon="6.696">
        <ele>130.803</ele>
        <time>2012-10-14T08:23:34.210Z</time>
      </trkpt>
      <trkpt lat="43.391" lon="6.69587">
        <ele>131.048</ele>
        <time>2012-10-14T08:23:40.531Z</time>
      </trkpt>
      <trkpt lat="43.39095" lon="6.69575">
        <ele>131.963</ele>
        <time>2012-10-14T08:23:46.887Z</time>
      </trkpt>
      <trkpt lat="43.39091" lon="6.69564">
        <ele>133.978</ele>
        <time>2012-10-14T08:23:53.269Z</time>
      </trkpt>
      <trkpt lat="43.39085" lon="6.69552">
        <ele>136.049</ele>
        <time>2012-10-14T08:24:00.132Z</time>
      </trkpt>
      <trkpt lat="43.39079" lon="6.69541">
        <ele>137.321</ele>
        <time>2012-10-14T08:24:06.550Z</time>
      </trkpt>
      <trkpt lat="43.39071" lon="6.69534">
        <ele>138.138</ele>
        <time>2012-10-14T08:24:12.923Z</time>
      </trkpt>
      <trkpt lat="43.39062" lon="6.69529">
        <ele>139.024</ele>
        <time>2012-10-14T08:24:19.151Z</time>
      </trkpt>
      <trkpt lat="43.39053" lon="6.69523">
        <ele>140.126</ele>
        <time>2012-10-14T08:24:25.491Z</time>
      </trkpt>
      <trkpt lat="43.39044" lon="6.69518">
        <ele>141.128</ele>
        <time>2012-10-14T08:24:31.239Z</time>
      </trkpt>
      <trkpt lat="43.39035" lon="6.69512">
        <ele>142.312</ele>
        <time>2012-10-14T08:24:37.182Z</time>
      </trkpt>
      <trkpt lat="43.39027" lon="6.69504">
        <ele>144.102</ele>
        <time>2012-10-14T08:24:42.821Z</time>
      </trkpt>
      <trkpt lat="43.39018" lon="6.69497">
        <ele>145.866</ele>
        <time>2012-10-14T08:24:49.224Z</time>
      </trkpt>
      <trkpt lat="43.39011" lon="6.69488">
        <ele>147.317</ele>
        <time>2012-10-14T08:24:55.285Z</time>
      </trkpt>
      <trkpt lat="43.39002" lon="6.69483">
        <ele>149.203</ele>
        <time>2012-10-14T08:25:01.473Z</time>
      </trkpt>
      <trkpt lat="43.38994" lon="6.69477">
        <ele>151.659</ele>
        <time>2012-10-14T08:25:07.842Z</time>
      </trkpt>
      <trkpt lat="43.38985" lon="6.6947">
        <ele>154.072</ele>
        <time>2012-10-14T08:25:14.315Z</time>
      </trkpt>
      <trkpt lat="43.38977" lon="6.69462">
        <ele>156.045</ele>
        <time>2012-10-14T08:25:20.726Z</time>
      </trkpt>
      <trkpt lat="43.3897" lon="6.69451">
        <ele>157.587</ele>
        <time>2012-10-14T08:25:26.856Z</time>
      </trkpt>
      <trkpt lat="43.38966" lon="6.69438">
        <ele>158.819</ele>
        <time>2012-10-14T08:25:33.287Z</time>
      </trkpt>
      <trkpt lat="43.38962" lon="6.69425">
        <ele>159.89</ele>
        <time>2012-10-14T08:25:39.686Z</time>
      </trkpt>
      <trkpt lat="43.38959" lon="6.69412">
        <ele>160.812</ele>
        <time>2012-10-14T08:25:45.954Z</time>
      </trkpt>
      <trkpt lat="43.38955" lon="6.69401">
        <ele>161.557</ele>
        <time>2012-10-14T08:25:51.980Z</time>
      </trkpt>
      <trkpt lat="43.38951" lon="6.69388">
        <ele>162.589</ele>
        <time>2012-10-14T08:25:58.733Z</time>
      </trkpt>
      <trkpt lat="43.38947" lon="6.69375">
        <ele>164.544</ele>
        <time>2012-10-14T08:26:05.568Z</time>
      </trkpt>
      <trkpt lat="43.38942" lon="6.69365">
        <ele>167.035</ele>
        <time>2012-10-14T08:26:11.866Z</time>
      </trkpt>
      <trkpt lat="43.38938" lon="6.69353">
        <ele>169.055</ele>
        <time>2012-10-14T08:26:18.509Z</time>
      </trkpt>
      <trkpt lat="43.38931" lon="6.69343">
        <ele>170.282</ele>
        <time>2012-10-14T08:26:25.399Z</time>
      </trkpt>
      <trkpt lat="43.38925" lon="6.69334">
        <ele>171.425</ele>
        <time>2012-10-14T08:26:31.647Z</time>
      </trkpt>
      <trkpt lat="43.38919" lon="6.69324">
        <ele>173.294</ele>
        <time>2012-10-14T08:26:37.756Z</time>
      </trkpt>
      <trkpt lat="43.38912" lon="6.69314">
        <ele>175.761</ele>
        <time>2012-10-14T08:26:44.543Z</time>
      </trkpt>
      <trkpt lat="43.38905" lon="6.69307">
        <ele>178.01</ele>
        <time>2012-10-14T08:26:50.341Z</time>
      </trkpt>
      <trkpt lat="43.38896" lon="6.69303">
        <ele>179.753</ele>
        <time>2012-10-14T08:26:56.450Z</time>
      </trkpt>
      <trkpt lat="43.38887" lon="6.69299">
        <ele>181.17</ele>
        <time>2012-10-14T08:27:02.535Z</time>
      </trkpt>
      <trkpt lat="43.38878" lon="6.69295">
        <ele>182.369</ele>
        <time>2012-10-14T08:27:08.903Z</time>
      </trkpt>
      <trkpt lat="43.38869" lon="6.69289">
        <ele>183.434</ele>
        <time>2012-10-14T08:27:15.563Z</time>
      </trkpt>
      <trkpt lat="43.3886" lon="6.69284">
        <ele>184.574</ele>
        <time>2012-10-14T08:27:22.432Z</time>
      </trkpt>
      <trkpt lat="43.3885" lon="6.69279">
        <ele>185.869</ele>
        <time>2012-10-14T08:27:29.387Z</time>
      </trkpt>
      <trkpt lat="43.38842" lon="6.69273">
        <ele>187.198</ele>
        <time>2012-10-14T08:27:35.695Z</time>
      </trkpt>
      <trkpt lat="43.38834" lon="6.69268">
        <ele>188.543</ele>
        <time>2012-10-14T08:27:41.660Z</time>
      </trkpt>
      <trkpt lat="43.38825" lon="6.69263">
        <ele>190.136</ele>
        <time>2012-10-14T08:27:47.989Z</time>
      </trkpt>
      <trkpt lat="43.38825" lon="6.69263">
        <ele>191.807</ele>
        <time>2012-10-14T08:28:04.980Z</time>
      </trkpt>
      <trkpt lat="43.38825" lon="6.69263">
        <ele>192.912</ele>
        <time>2012-10-14T08:28:48.748Z</time>
      </trkpt>
      <trkpt lat="43.38809" lon="6.6924">
        <ele>193.48</ele>
        <time>2012-10-14T08:29:20.504Z</time>
      </trkpt>
      <trkpt lat="43.38803" lon="6.69229">
        <ele>194.018</ele>
        <time>2012-10-14T08:29:27.221Z</time>
      </trkpt>
      <trkpt lat="43.38796" lon="6.6922">
        <ele>194.847</ele>
        <time>2012-10-14T08:29:33.897Z</time>
      </trkpt>
      <trkpt lat="43.38788" lon="6.69212">
        <ele>196.315</ele>
        <time>2012-10-14T08:29:39.990Z</time>
      </trkpt>
      <trkpt lat="43.3878" lon="6.69205">
        <ele>198.473</ele>
        <time>2012-10-14T08:29:45.272Z</time>
      </trkpt>
      <trkpt lat="43.38772" lon="6.69199">
        <ele>200.7</ele>
        <time>2012-10-14T08:29:50.523Z</time>
      </trkpt>
      <trkpt lat="43.38764" lon="6.6919">
        <ele>202.566</ele>
        <time>2012-10-14T08:29:56.579Z</time>
      </trkpt>
      <trkpt lat="43.38757" lon="6.69181">
        <ele>204.308</ele>
        <time>2012-10-14T08:30:02.069Z</time>
      </trkpt>
      <trkpt lat="43.38751" lon="6.69172">
        <ele>206.083</ele>
        <time>2012-10-14T08:30:07.047Z</time>
      </trkpt>
      <trkpt lat="43.38742" lon="6.69163">
        <ele>207.571</ele>
        <time>2012-10-14T08:30:12.360Z</time>
      </trkpt>
      <trkpt lat="43.38734" lon="6.69155">
        <ele>208.496</ele>
        <time>2012-10-14T08:30:17.443Z</time>
      </trkpt>
      <trkpt lat="43.38725" lon="6.69148">
        <ele>208.888</ele>
        <time>2012-10-14T08:30:22.119Z</time>
      </trkpt>
      <trkpt lat="43.38716" lon="6.69142">
        <ele>209.096</ele>
        <time>2012-10-14T08:30:26.843Z</time>
      </trkpt>
      <trkpt lat="43.38711" lon="6.69131">
        <ele>209.459</ele>
        <time>2012-10-14T08:30:32.398Z</time>
      </trkpt>
      <trkpt lat="43.38715" lon="6.6912">
        <ele>209.879</ele>
        <time>2012-10-14T08:30:37.792Z</time>
      </trkpt>
      <trkpt lat="43.38722" lon="6.69112">
        <ele>210.146</ele>
        <time>2012-10-14T08:30:44.374Z</time>
      </trkpt>
      <trkpt lat="43.38729" lon="6.69104">
        <ele>210.332</ele>
        <time>2012-10-14T08:30:52.159Z</time>
      </trkpt>
      <trkpt lat="43.38738" lon="6.691">
        <ele>211.146</ele>
        <time>2012-10-14T08:31:00.448Z</time>
      </trkpt>
      <trkpt lat="43.38747" lon="6.69103">
        <ele>212.986</ele>
        <time>2012-10-14T08:31:08.188Z</time>
      </trkpt>
      <trkpt lat="43.38755" lon="6.6911">
        <ele>215.008</ele>
        <time>2012-10-14T08:31:16.732Z</time>
      </trkpt>
      <trkpt lat="43.38764" lon="6.69116">
        <ele>216.711</ele>
        <time>2012-10-14T08:31:25.741Z</time>
      </trkpt>
      <trkpt lat="43.38773" lon="6.6912">
        <ele>218.975</ele>
        <time>2012-10-14T08:31:32.535Z</time>
      </trkpt>
      <trkpt lat="43.38783" lon="6.69122">
        <ele>222.085</ele>
        <time>2012-10-14T08:31:38.713Z</time>
      </trkpt>
      <trkpt lat="43.38792" lon="6.6913">
        <ele>225.024</ele>
        <time>2012-10-14T08:31:44.009Z</time>
      </trkpt>
      <trkpt lat="43.38802" lon="6.69138">
        <ele>226.841</ele>
        <time>2012-10-14T08:31:48.757Z</time>
      </trkpt>
      <trkpt lat="43.38815" lon="6.69142">
        <ele>227.503</ele>
        <time>2012-10-14T08:31:53.403Z</time>
      </trkpt>
      <trkpt lat="43.38824" lon="6.69135">
        <ele>227.484</ele>
        <time>2012-10-14T08:31:56.276Z</time>
      </trkpt>
      <trkpt lat="43.38836" lon="6.69124">
        <ele>227.213</ele>
        <time>2012-10-14T08:31:59.691Z</time>
      </trkpt>
      <trkpt lat="43.38853" lon="6.69112">
        <ele>226.669</ele>
        <time>2012-10-14T08:32:03.247Z</time>
      </trkpt>
      <trkpt lat="43.38869" lon="6.69098">
        <ele>225.733</ele>
        <time>2012-10-14T08:32:06.529Z</time>
      </trkpt>
      <trkpt lat="43.38881" lon="6.69091">
        <ele>224.433</ele>
        <time>2012-10-14T08:32:08.415Z</time>
      </trkpt>
      <trkpt lat="43.38897" lon="6.69077">
        <ele>222.733</ele>
        <time>2012-10-14T08:32:10.972Z</time>
      </trkpt>
      <trkpt lat="43.38909" lon="6.69066">
        <ele>220.643</ele>
        <time>2012-10-14T08:32:12.813Z</time>
      </trkpt>
      <trkpt lat="43.38927" lon="6.69053">
        <ele>218.323</ele>
        <time>2012-10-14T08:32:15.664Z</time>
      </trkpt>
      <trkpt lat="43.38942" lon="6.69045">
        <ele>216.056</ele>
        <time>2012-10-14T08:32:18.002Z</time>
      </trkpt>
      <trkpt lat="43.38957" lon="6.6904">
        <ele>214.263</ele>
        <time>2012-10-14T08:32:20.394Z</time>
      </trkpt>
      <trkpt lat="43.38978" lon="6.69039">
        <ele>212.896</ele>
        <time>2012-10-14T08:32:23.627Z</time>
      </trkpt>
      <trkpt lat="43.38997" lon="6.69035">
        <ele>211.603</ele>
        <time>2012-10-14T08:32:26.830Z</time>
      </trkpt>
      <trkpt lat="43.39007" lon="6.69031">
        <ele>210.468</ele>
        <time>2012-10-14T08:32:28.823Z</time>
      </trkpt>
      <trkpt lat="43.39024" lon="6.69025">
        <ele>209.167</ele>
        <time>2012-10-14T08:32:32.555Z</time>
      </trkpt>
      <trkpt lat="43.3904" lon="6.69019">
        <ele>206.351</ele>
        <time>2012-10-14T08:32:36.441Z</time>
      </trkpt>
      <trkpt lat="43.39051" lon="6.69013">
        <ele>202.071</ele>
        <time>2012-10-14T08:32:39.149Z</time>
      </trkpt>
      <trkpt lat="43.3906" lon="6.69005">
        <ele>198.29</ele>
        <time>2012-10-14T08:32:41.642Z</time>
      </trkpt>
      <trkpt lat="43.39068" lon="6.69">
        <ele>195.841</ele>
        <time>2012-10-14T08:32:43.788Z</time>
      </trkpt>
      <trkpt lat="43.39079" lon="6.68996">
        <ele>194.058</ele>
        <time>2012-10-14T08:32:46.348Z</time>
      </trkpt>
      <trkpt lat="43.39091" lon="6.6899">
        <ele>192.601</ele>
        <time>2012-10-14T08:32:49.365Z</time>
      </trkpt>
      <trkpt lat="43.39104" lon="6.68977">
        <ele>190.837</ele>
        <time>2012-10-14T08:32:53.820Z</time>
      </trkpt>
      <trkpt lat="43.39114" lon="6.68965">
        <ele>188.275</ele>
        <time>2012-10-14T08:32:57.457Z</time>
      </trkpt>
      <trkpt lat="43.39123" lon="6.68958">
        <ele>184.934</ele>
        <time>2012-10-14T08:33:00.298Z</time>
      </trkpt>
      <trkpt lat="43.39133" lon="6.68952">
        <ele>181.151</ele>
        <time>2012-10-14T08:33:03.015Z</time>
      </trkpt>
      <trkpt lat="43.39143" lon="6.68951">
        <ele>177.506</ele>
        <time>2012-10-14T08:33:05.317Z</time>
      </trkpt>
      <trkpt lat="43.39153" lon="6.68947">
        <ele>174.033</ele>
        <time>2012-10-14T08:33:07.426Z</time>
      </trkpt>
      <trkpt lat="43.39161" lon="6.6894">
        <ele>170.52</ele>
        <time>2012-10-14T08:33:09.171Z</time>
      </trkpt>
      <trkpt lat="43.39173" lon="6.68927">
        <ele>167.688</ele>
        <time>2012-10-14T08:33:11.756Z</time>
      </trkpt>
      <trkpt lat="43.39182" lon="6.68921">
        <ele>166.008</ele>
        <time>2012-10-14T08:33:13.232Z</time>
      </trkpt>
      <trkpt lat="43.39199" lon="6.68921">
        <ele>165.183</ele>
        <time>2012-10-14T08:33:15.644Z</time>
      </trkpt>
      <trkpt lat="43.39213" lon="6.68921">
        <ele>164.815</ele>
        <time>2012-10-14T08:33:17.581Z</time>
      </trkpt>
      <trkpt lat="43.39239" lon="6.68918">
        <ele>164.329</ele>
        <time>2012-10-14T08:33:21.780Z</time>
      </trkpt>
      <trkpt lat="43.39255" lon="6.68917">
        <ele>163.172</ele>
        <time>2012-10-14T08:33:24.711Z</time>
      </trkpt>
      <trkpt lat="43.39273" lon="6.68921">
        <ele>161.711</ele>
        <time>2012-10-14T08:33:27.443Z</time>
      </trkpt>
      <trkpt lat="43.39283" lon="6.68918">
        <ele>160.27</ele>
        <time>2012-10-14T08:33:28.940Z</time>
      </trkpt>
      <trkpt lat="43.39294" lon="6.68912">
        <ele>158.604</ele>
        <time>2012-10-14T08:33:30.733Z</time>
      </trkpt>
      <trkpt lat="43.39312" lon="6.689">
        <ele>156.405</ele>
        <time>2012-10-14T08:33:34.120Z</time>
      </trkpt>
      <trkpt lat="43.39322" lon="6.68892">
        <ele>153.166</ele>
        <time>2012-10-14T08:33:36.070Z</time>
      </trkpt>
      <trkpt lat="43.39337" lon="6.68885">
        <ele>149.318</ele>
        <time>2012-10-14T08:33:38.440Z</time>
      </trkpt>
      <trkpt lat="43.39356" lon="6.68891">
        <ele>146.457</ele>
        <time>2012-10-14T08:33:41.317Z</time>
      </trkpt>
      <trkpt lat="43.39376" lon="6.68901">
        <ele>145.013</ele>
        <time>2012-10-14T08:33:44.378Z</time>
      </trkpt>
      <trkpt lat="43.39393" lon="6.6891">
        <ele>144.124</ele>
        <time>2012-10-14T08:33:47.257Z</time>
      </trkpt>
      <trkpt lat="43.39406" lon="6.68916">
        <ele>142.783</ele>
        <time>2012-10-14T08:33:49.494Z</time>
      </trkpt>
      <trkpt lat="43.39418" lon="6.68922">
        <ele>140.279</ele>
        <time>2012-10-14T08:33:51.735Z</time>
      </trkpt>
      <trkpt lat="43.39429" lon="6.68928">
        <ele>137.036</ele>
        <time>2012-10-14T08:33:53.852Z</time>
      </trkpt>
      <trkpt lat="43.39446" lon="6.68927">
        <ele>134.206</ele>
        <time>2012-10-14T08:33:57.129Z</time>
      </trkpt>
      <trkpt lat="43.39455" lon="6.68918">
        <ele>132.174</ele>
        <time>2012-10-14T08:33:59.296Z</time>
      </trkpt>
      <trkpt lat="43.39467" lon="6.68904">
        <ele>130.722</ele>
        <time>2012-10-14T08:34:02.612Z</time>
      </trkpt>
      <trkpt lat="43.39476" lon="6.68895">
        <ele>129.142</ele>
        <time>2012-10-14T08:34:04.880Z</time>
      </trkpt>
      <trkpt lat="43.39488" lon="6.68885">
        <ele>126.783</ele>
        <time>2012-10-14T08:34:07.477Z</time>
      </trkpt>
      <trkpt lat="43.39502" lon="6.68876">
        <ele>124.218</ele>
        <time>2012-10-14T08:34:10.089Z</time>
      </trkpt>
      <trkpt lat="43.39516" lon="6.68861">
        <ele>122.268</ele>
        <time>2012-10-14T08:34:13.313Z</time>
      </trkpt>
      <trkpt lat="43.39526" lon="6.6885">
        <ele>120.388</ele>
        <time>2012-10-14T08:34:15.977Z</time>
      </trkpt>
      <trkpt lat="43.39534" lon="6.68831">
        <ele>117.364</ele>
        <time>2012-10-14T08:34:19.325Z</time>
      </trkpt>
      <trkpt lat="43.39531" lon="6.68815">
        <ele>113.352</ele>
        <time>2012-10-14T08:34:21.766Z</time>
      </trkpt>
      <trkpt lat="43.39524" lon="6.68799">
        <ele>109.922</ele>
        <time>2012-10-14T08:34:24.286Z</time>
      </trkpt>
      <trkpt lat="43.39515" lon="6.68781">
        <ele>107.886</ele>
        <time>2012-10-14T08:34:26.837Z</time>
      </trkpt>
      <trkpt lat="43.39502" lon="6.68767">
        <ele>106.761</ele>
        <time>2012-10-14T08:34:29.384Z</time>
      </trkpt>
      <trkpt lat="43.39493" lon="6.68756">
        <ele>106.057</ele>
        <time>2012-10-14T08:34:31.191Z</time>
      </trkpt>
      <trkpt lat="43.39477" lon="6.68738">
        <ele>105.637</ele>
        <time>2012-10-14T08:34:34.560Z</time>
      </trkpt>
      <trkpt lat="43.39469" lon="6.68712">
        <ele>105.472</ele>
        <time>2012-10-14T08:34:38.424Z</time>
      </trkpt>
      <trkpt lat="43.39463" lon="6.6869">
        <ele>105.44</ele>
        <time>2012-10-14T08:34:41.217Z</time>
      </trkpt>
      <trkpt lat="43.39462" lon="6.68675">
        <ele>105.442</ele>
        <time>2012-10-14T08:34:42.884Z</time>
      </trkpt>
      <trkpt lat="43.39464" lon="6.68649">
        <ele>105.269</ele>
        <time>2012-10-14T08:34:45.554Z</time>
      </trkpt>
      <trkpt lat="43.39468" lon="6.68623">
        <ele>104.806</ele>
        <time>2012-10-14T08:34:48.140Z</time>
      </trkpt>
      <trkpt lat="43.39473" lon="6.68595">
        <ele>103.959</ele>
        <time>2012-10-14T08:34:51.352Z</time>
      </trkpt>
      <trkpt lat="43.39477" lon="6.68578">
        <ele>102.367</ele>
        <time>2012-10-14T08:34:53.859Z</time>
      </trkpt>
      <trkpt lat="43.39482" lon="6.68553">
        <ele>100.22</ele>
        <time>2012-10-14T08:34:58.360Z</time>
      </trkpt>
      <trkpt lat="43.39481" lon="6.68535">
        <ele>98.478</ele>
        <time>2012-10-14T08:35:01.000Z</time>
      </trkpt>
      <trkpt lat="43.39473" lon="6.68528">
        <ele>97.222</ele>
        <time>2012-10-14T08:35:02.579Z</time>
      </trkpt>
      <trkpt lat="43.39461" lon="6.68524">
        <ele>95.573</ele>
        <time>2012-10-14T08:35:04.462Z</time>
      </trkpt>
      <trkpt lat="43.39448" lon="6.6852">
        <ele>93.556</ele>
        <time>2012-10-14T08:35:06.299Z</time>
      </trkpt>
      <trkpt lat="43.39429" lon="6.68499">
        <ele>92.004</ele>
        <time>2012-10-14T08:35:09.390Z</time>
      </trkpt>
      <trkpt lat="43.39411" lon="6.68477">
        <ele>91.094</ele>
        <time>2012-10-14T08:35:12.643Z</time>
      </trkpt>
      <trkpt lat="43.39396" lon="6.68456">
        <ele>90.053</ele>
        <time>2012-10-14T08:35:16.005Z</time>
      </trkpt>
      <trkpt lat="43.39389" lon="6.6844">
        <ele>87.947</ele>
        <time>2012-10-14T08:35:18.745Z</time>
      </trkpt>
      <trkpt lat="43.39383" lon="6.68417">
        <ele>84.601</ele>
        <time>2012-10-14T08:35:23.757Z</time>
      </trkpt>
      <trkpt lat="43.39378" lon="6.68398">
        <ele>81.162</ele>
        <time>2012-10-14T08:35:28.830Z</time>
      </trkpt>
      <trkpt lat="43.39372" lon="6.68387">
        <ele>79.011</ele>
        <time>2012-10-14T08:35:31.362Z</time>
      </trkpt>
      <trkpt lat="43.39366" lon="6.68378">
        <ele>78.351</ele>
        <time>2012-10-14T08:35:33.299Z</time>
      </trkpt>
      <trkpt lat="43.39359" lon="6.68367">
        <ele>78.364</ele>
        <time>2012-10-14T08:35:35.841Z</time>
      </trkpt>
      <trkpt lat="43.39353" lon="6.68353">
        <ele>78.153</ele>
        <time>2012-10-14T08:35:38.864Z</time>
      </trkpt>
      <trkpt lat="43.39348" lon="6.68341">
        <ele>77.077</ele>
        <time>2012-10-14T08:35:42.416Z</time>
      </trkpt>
      <trkpt lat="43.39338" lon="6.68334">
        <ele>75.236</ele>
        <time>2012-10-14T08:35:46.099Z</time>
      </trkpt>
      <trkpt lat="43.39328" lon="6.6834">
        <ele>73.087</ele>
        <time>2012-10-14T08:35:48.828Z</time>
      </trkpt>
      <trkpt lat="43.39318" lon="6.68338">
        <ele>71.025</ele>
        <time>2012-10-14T08:35:51.563Z</time>
      </trkpt>
      <trkpt lat="43.3931" lon="6.68327">
        <ele>69.567</ele>
        <time>2012-10-14T08:35:54.430Z</time>
      </trkpt>
      <trkpt lat="43.3931" lon="6.68312">
        <ele>68.859</ele>
        <time>2012-10-14T08:35:57.020Z</time>
      </trkpt>
      <trkpt lat="43.39316" lon="6.68296">
        <ele>68.482</ele>
        <time>2012-10-14T08:36:01.103Z</time>
      </trkpt>
      <trkpt lat="43.39316" lon="6.6828">
        <ele>68.295</ele>
        <time>2012-10-14T08:36:05.993Z</time>
      </trkpt>
      <trkpt lat="43.39312" lon="6.68268">
        <ele>68.417</ele>
        <time>2012-10-14T08:36:10.248Z</time>
      </trkpt>
      <trkpt lat="43.39303" lon="6.6826">
        <ele>68.775</ele>
        <time>2012-10-14T08:36:14.713Z</time>
      </trkpt>
      <trkpt lat="43.39293" lon="6.68254">
        <ele>69.109</ele>
        <time>2012-10-14T08:36:19.631Z</time>
      </trkpt>
      <trkpt lat="43.39285" lon="6.68248">
        <ele>69.781</ele>
        <time>2012-10-14T08:36:23.832Z</time>
      </trkpt>
      <trkpt lat="43.39277" lon="6.6824">
        <ele>71.454</ele>
        <time>2012-10-14T08:36:27.656Z</time>
      </trkpt>
      <trkpt lat="43.39272" lon="6.68227">
        <ele>73.625</ele>
        <time>2012-10-14T08:36:30.813Z</time>
      </trkpt>
      <trkpt lat="43.39271" lon="6.68212">
        <ele>75.214</ele>
        <time>2012-10-14T08:36:33.623Z</time>
      </trkpt>
      <trkpt lat="43.39272" lon="6.68197">
        <ele>75.981</ele>
        <time>2012-10-14T08:36:36.138Z</time>
      </trkpt>
      <trkpt lat="43.39277" lon="6.68179">
        <ele>76.351</ele>
        <time>2012-10-14T08:36:39.341Z</time>
      </trkpt>
      <trkpt lat="43.39283" lon="6.68164">
        <ele>76.679</ele>
        <time>2012-10-14T08:36:42.409Z</time>
      </trkpt>
      <trkpt lat="43.39289" lon="6.68151">
        <ele>77.129</ele>
        <time>2012-10-14T08:36:45.168Z</time>
      </trkpt>
      <trkpt lat="43.39297" lon="6.68137">
        <ele>77.715</ele>
        <time>2012-10-14T08:36:48.196Z</time>
      </trkpt>
      <trkpt lat="43.39304" lon="6.68126">
        <ele>78.219</ele>
        <time>2012-10-14T08:36:50.919Z</time>
      </trkpt>
      <trkpt lat="43.39311" lon="6.68118">
        <ele>78.287</ele>
        <time>2012-10-14T08:36:53.475Z</time>
      </trkpt>
      <trkpt lat="43.39318" lon="6.68108">
        <ele>77.94</ele>
        <time>2012-10-14T08:36:56.800Z</time>
      </trkpt>
      <trkpt lat="43.39323" lon="6.68098">
        <ele>77.613</ele>
        <time>2012-10-14T08:37:00.129Z</time>
      </trkpt>
      <trkpt lat="43.39327" lon="6.68085">
        <ele>77.66</ele>
        <time>2012-10-14T08:37:03.878Z</time>
      </trkpt>
      <trkpt lat="43.39327" lon="6.68071">
        <ele>78.058</ele>
        <time>2012-10-14T08:37:07.613Z</time>
      </trkpt>
      <trkpt lat="43.39328" lon="6.68058">
        <ele>78.9</ele>
        <time>2012-10-14T08:37:11.373Z</time>
      </trkpt>
      <trkpt lat="43.39329" lon="6.68043">
        <ele>80.27</ele>
        <time>2012-10-14T08:37:15.419Z</time>
      </trkpt>
      <trkpt lat="43.3933" lon="6.6803">
        <ele>81.706</ele>
        <time>2012-10-14T08:37:18.542Z</time>
      </trkpt>
      <trkpt lat="43.39334" lon="6.68014">
        <ele>82.849</ele>
        <time>2012-10-14T08:37:21.497Z</time>
      </trkpt>
      <trkpt lat="43.39333" lon="6.6799">
        <ele>83.532</ele>
        <time>2012-10-14T08:37:25.071Z</time>
      </trkpt>
      <trkpt lat="43.39333" lon="6.67978">
        <ele>83.519</ele>
        <time>2012-10-14T08:37:26.976Z</time>
      </trkpt>
      <trkpt lat="43.39326" lon="6.67964">
        <ele>83.049</ele>
        <time>2012-10-14T08:37:29.520Z</time>
      </trkpt>
      <trkpt lat="43.3932" lon="6.67947">
        <ele>81.92</ele>
        <time>2012-10-14T08:37:32.512Z</time>
      </trkpt>
      <trkpt lat="43.39315" lon="6.67931">
        <ele>79.66</ele>
        <time>2012-10-14T08:37:35.377Z</time>
      </trkpt>
      <trkpt lat="43.39312" lon="6.67916">
        <ele>77.143</ele>
        <time>2012-10-14T08:37:38.287Z</time>
      </trkpt>
      <trkpt lat="43.39309" lon="6.679">
        <ele>75.426</ele>
        <time>2012-10-14T08:37:41.485Z</time>
      </trkpt>
      <trkpt lat="43.39306" lon="6.67888">
        <ele>74.41</ele>
        <time>2012-10-14T08:37:44.824Z</time>
      </trkpt>
      <trkpt lat="43.39301" lon="6.67875">
        <ele>73.771</ele>
        <time>2012-10-14T08:37:49.117Z</time>
      </trkpt>
      <trkpt lat="43.39305" lon="6.67864">
        <ele>73.251</ele>
        <time>2012-10-14T08:37:54.073Z</time>
      </trkpt>
      <trkpt lat="43.39311" lon="6.67852">
        <ele>72.044</ele>
        <time>2012-10-14T08:37:59.185Z</time>
      </trkpt>
      <trkpt lat="43.39315" lon="6.67841">
        <ele>69.855</ele>
        <time>2012-10-14T08:38:04.466Z</time>
      </trkpt>
      <trkpt lat="43.39317" lon="6.67828">
        <ele>67.661</ele>
        <time>2012-10-14T08:38:09.988Z</time>
      </trkpt>
      <trkpt lat="43.39317" lon="6.67828">
        <ele>66.312</ele>
        <time>2012-10-14T08:38:11.984Z</time>
      </trkpt>
      <trkpt lat="43.39317" lon="6.67828">
        <ele>65.78</ele>
        <time>2012-10-14T08:38:27.144Z</time>
      </trkpt>
      <trkpt lat="43.39311" lon="6.67804">
        <ele>65.436</ele>
        <time>2012-10-14T08:38:45.925Z</time>
      </trkpt>
      <trkpt lat="43.39311" lon="6.6779">
        <ele>64.549</ele>
        <time>2012-10-14T08:38:51.627Z</time>
      </trkpt>
      <trkpt lat="43.39318" lon="6.6778">
        <ele>62.501</ele>
        <time>2012-10-14T08:38:56.776Z</time>
      </trkpt>
      <trkpt lat="43.39326" lon="6.67772">
        <ele>59.116</ele>
        <time>2012-10-14T08:39:00.783Z</time>
      </trkpt>
      <trkpt lat="43.3933" lon="6.6776">
        <ele>55.363</ele>
        <time>2012-10-14T08:39:04.549Z</time>
      </trkpt>
      <trkpt lat="43.39332" lon="6.67746">
        <ele>52.545</ele>
        <time>2012-10-14T08:39:09.141Z</time>
      </trkpt>
      <trkpt lat="43.39328" lon="6.67733">
        <ele>50.26</ele>
        <time>2012-10-14T08:39:13.743Z</time>
      </trkpt>
      <trkpt lat="43.39322" lon="6.67721">
        <ele>47.771</ele>
        <time>2012-10-14T08:39:17.917Z</time>
      </trkpt>
      <trkpt lat="43.39314" lon="6.67715">
        <ele>45.7</ele>
        <time>2012-10-14T08:39:21.371Z</time>
      </trkpt>
      <trkpt lat="43.39303" lon="6.67709">
        <ele>44.69</ele>
        <time>2012-10-14T08:39:25.572Z</time>
      </trkpt>
      <trkpt lat="43.39294" lon="6.67701">
        <ele>43.822</ele>
        <time>2012-10-14T08:39:30.071Z</time>
      </trkpt>
      <trkpt lat="43.39285" lon="6.67692">
        <ele>41.941</ele>
        <time>2012-10-14T08:39:34.739Z</time>
      </trkpt>
      <trkpt lat="43.39278" lon="6.67682">
        <ele>38.954</ele>
        <time>2012-10-14T08:39:39.189Z</time>
      </trkpt>
      <trkpt lat="43.39273" lon="6.67671">
        <ele>35.814</ele>
        <time>2012-10-14T08:39:42.827Z</time>
      </trkpt>
      <trkpt lat="43.39265" lon="6.67665">
        <ele>32.99</ele>
        <time>2012-10-14T08:39:45.865Z</time>
      </trkpt>
      <trkpt lat="43.39253" lon="6.67664">
        <ele>30.022</ele>
        <time>2012-10-14T08:39:49.826Z</time>
      </trkpt>
      <trkpt lat="43.39241" lon="6.67667">
        <ele>26.943</ele>
        <time>2012-10-14T08:39:53.406Z</time>
      </trkpt>
      <trkpt lat="43.3923" lon="6.67669">
        <ele>24.309</ele>
        <time>2012-10-14T08:39:56.423Z</time>
      </trkpt>
      <trkpt lat="43.39222" lon="6.67657">
        <ele>22.31</ele>
        <time>2012-10-14T08:39:59.738Z</time>
      </trkpt>
      <trkpt lat="43.39224" lon="6.67643">
        <ele>21.109</ele>
        <time>2012-10-14T08:40:03.220Z</time>
      </trkpt>
      <trkpt lat="43.39218" lon="6.67633">
        <ele>20.193</ele>
        <time>2012-10-14T08:40:06.362Z</time>
      </trkpt>
      <trkpt lat="43.39226" lon="6.67624">
        <ele>18.85</ele>
        <time>2012-10-14T08:40:09.299Z</time>
      </trkpt>
      <trkpt lat="43.39237" lon="6.67622">
        <ele>17.569</ele>
        <time>2012-10-14T08:40:12.675Z</time>
      </trkpt>
      <trkpt lat="43.3925" lon="6.67625">
        <ele>16.989</ele>
        <time>2012-10-14T08:40:15.916Z</time>
      </trkpt>
      <trkpt lat="43.39264" lon="6.67622">
        <ele>17.112</ele>
        <time>2012-10-14T08:40:19.276Z</time>
      </trkpt>
      <trkpt lat="43.39279" lon="6.67616">
        <ele>18.399</ele>
        <time>2012-10-14T08:40:22.932Z</time>
      </trkpt>
      <trkpt lat="43.39292" lon="6.67615">
        <ele>21.034</ele>
        <time>2012-10-14T08:40:25.906Z</time>
      </trkpt>
      <trkpt lat="43.39303" lon="6.67616">
        <ele>23.824</ele>
        <time>2012-10-14T08:40:28.438Z</time>
      </trkpt>
      <trkpt lat="43.39319" lon="6.67613">
        <ele>25.509</ele>
        <time>2012-10-14T08:40:31.866Z</time>
      </trkpt>
      <trkpt lat="43.3933" lon="6.67614">
        <ele>26.1</ele>
        <time>2012-10-14T08:40:34.132Z</time>
      </trkpt>
      <trkpt lat="43.39341" lon="6.67611">
        <ele>26.064</ele>
        <time>2012-10-14T08:40:36.388Z</time>
      </trkpt>
      <trkpt lat="43.39354" lon="6.67603">
        <ele>25.733</ele>
        <time>2012-10-14T08:40:38.832Z</time>
      </trkpt>
      <trkpt lat="43.39372" lon="6.67593">
        <ele>25.25</ele>
        <time>2012-10-14T08:40:42.201Z</time>
      </trkpt>
      <trkpt lat="43.39388" lon="6.67584">
        <ele>24.613</ele>
        <time>2012-10-14T08:40:45.309Z</time>
      </trkpt>
      <trkpt lat="43.39396" lon="6.67575">
        <ele>23.757</ele>
        <time>2012-10-14T08:40:47.466Z</time>
      </trkpt>
      <trkpt lat="43.39407" lon="6.67572">
        <ele>22.795</ele>
        <time>2012-10-14T08:40:49.796Z</time>
      </trkpt>
      <trkpt lat="43.39416" lon="6.67575">
        <ele>22.087</ele>
        <time>2012-10-14T08:40:51.879Z</time>
      </trkpt>
      <trkpt lat="43.39428" lon="6.67581">
        <ele>21.829</ele>
        <time>2012-10-14T08:40:54.592Z</time>
      </trkpt>
      <trkpt lat="43.39442" lon="6.67581">
        <ele>21.952</ele>
        <time>2012-10-14T08:40:57.853Z</time>
      </trkpt>
      <trkpt lat="43.39459" lon="6.67578">
        <ele>22.43</ele>
        <time>2012-10-14T08:41:01.820Z</time>
      </trkpt>
      <trkpt lat="43.39472" lon="6.67568">
        <ele>23.097</ele>
        <time>2012-10-14T08:41:05.269Z</time>
      </trkpt>
      <trkpt lat="43.39481" lon="6.67559">
        <ele>23.651</ele>
        <time>2012-10-14T08:41:07.558Z</time>
      </trkpt>
      <trkpt lat="43.39491" lon="6.67553">
        <ele>23.928</ele>
        <time>2012-10-14T08:41:09.838Z</time>
      </trkpt>
      <trkpt lat="43.39508" lon="6.67553">
        <ele>23.978</ele>
        <time>2012-10-14T08:41:13.382Z</time>
      </trkpt>
      <trkpt lat="43.39518" lon="6.67543">
        <ele>23.922</ele>
        <time>2012-10-14T08:41:16.039Z</time>
      </trkpt>
      <trkpt lat="43.39527" lon="6.67529">
        <ele>23.604</ele>
        <time>2012-10-14T08:41:19.182Z</time>
      </trkpt>
      <trkpt lat="43.39537" lon="6.6752">
        <ele>22.708</ele>
        <time>2012-10-14T08:41:22.022Z</time>
      </trkpt>
      <trkpt lat="43.3955" lon="6.67511">
        <ele>21.38</ele>
        <time>2012-10-14T08:41:25.171Z</time>
      </trkpt>
      <trkpt lat="43.39567" lon="6.67503">
        <ele>20.193</ele>
        <time>2012-10-14T08:41:28.790Z</time>
      </trkpt>
      <trkpt lat="43.39582" lon="6.67497">
        <ele>19.504</ele>
        <time>2012-10-14T08:41:31.949Z</time>
      </trkpt>
      <trkpt lat="43.39593" lon="6.67492">
        <ele>19.205</ele>
        <time>2012-10-14T08:41:34.229Z</time>
      </trkpt>
      <trkpt lat="43.3961" lon="6.67487">
        <ele>19.048</ele>
        <time>2012-10-14T08:41:37.408Z</time>
      </trkpt>
      <trkpt lat="43.39625" lon="6.67483">
        <ele>19.015</ele>
        <time>2012-10-14T08:41:40.245Z</time>
      </trkpt>
      <trkpt lat="43.39643" lon="6.67477">
        <ele>19.151</ele>
        <time>2012-10-14T08:41:43.706Z</time>
      </trkpt>
      <trkpt lat="43.39661" lon="6.67471">
        <ele>19.661</ele>
        <time>2012-10-14T08:41:46.868Z</time>
      </trkpt>
      <trkpt lat="43.39672" lon="6.67469">
        <ele>20.625</ele>
        <time>2012-10-14T08:41:48.827Z</time>
      </trkpt>
      <trkpt lat="43.3969" lon="6.6747">
        <ele>21.539</ele>
        <time>2012-10-14T08:41:51.948Z</time>
      </trkpt>
      <trkpt lat="43.39701" lon="6.67474">
        <ele>21.952</ele>
        <time>2012-10-14T08:41:54.050Z</time>
      </trkpt>
      <trkpt lat="43.39713" lon="6.67489">
        <ele>21.874</ele>
        <time>2012-10-14T08:41:57.256Z</time>
      </trkpt>
      <trkpt lat="43.39723" lon="6.67489">
        <ele>21.304</ele>
        <time>2012-10-14T08:41:59.438Z</time>
      </trkpt>
      <trkpt lat="43.39732" lon="6.67481">
        <ele>20.437</ele>
        <time>2012-10-14T08:42:01.990Z</time>
      </trkpt>
      <trkpt lat="43.39736" lon="6.67464">
        <ele>19.708</ele>
        <time>2012-10-14T08:42:05.243Z</time>
      </trkpt>
      <trkpt lat="43.39737" lon="6.67449">
        <ele>19.248</ele>
        <time>2012-10-14T08:42:08.036Z</time>
      </trkpt>
      <trkpt lat="43.39737" lon="6.67432">
        <ele>18.803</ele>
        <time>2012-10-14T08:42:11.025Z</time>
      </trkpt>
      <trkpt lat="43.39738" lon="6.67416">
        <ele>18.298</ele>
        <time>2012-10-14T08:42:14.008Z</time>
      </trkpt>
      <trkpt lat="43.39742" lon="6.67397">
        <ele>17.935</ele>
        <time>2012-10-14T08:42:17.286Z</time>
      </trkpt>
      <trkpt lat="43.39745" lon="6.67376">
        <ele>17.802</ele>
        <time>2012-10-14T08:42:20.641Z</time>
      </trkpt>
      <trkpt lat="43.39747" lon="6.67362">
        <ele>17.715</ele>
        <time>2012-10-14T08:42:22.712Z</time>
      </trkpt>
      <trkpt lat="43.39748" lon="6.6734">
        <ele>17.477</ele>
        <time>2012-10-14T08:42:25.879Z</time>
      </trkpt>
      <trkpt lat="43.39747" lon="6.67326">
        <ele>17.196</ele>
        <time>2012-10-14T08:42:27.912Z</time>
      </trkpt>
      <trkpt lat="43.39744" lon="6.67307">
        <ele>17.178</ele>
        <time>2012-10-14T08:42:30.670Z</time>
      </trkpt>
      <trkpt lat="43.39741" lon="6.67294">
        <ele>17.364</ele>
        <time>2012-10-14T08:42:32.600Z</time>
      </trkpt>
      <trkpt lat="43.39736" lon="6.67279">
        <ele>17.432</ele>
        <time>2012-10-14T08:42:35.098Z</time>
      </trkpt>
      <trkpt lat="43.39729" lon="6.67265">
        <ele>17.43</ele>
        <time>2012-10-14T08:42:37.566Z</time>
      </trkpt>
      <trkpt lat="43.39722" lon="6.67254">
        <ele>17.592</ele>
        <time>2012-10-14T08:42:39.985Z</time>
      </trkpt>
      <trkpt lat="43.39722" lon="6.67254">
        <ele>17.834</ele>
        <time>2012-10-14T08:42:46.984Z</time>
      </trkpt>
      <trkpt lat="43.39722" lon="6.67254">
        <ele>17.987</ele>
        <time>2012-10-14T08:44:57.688Z</time>
      </trkpt>
      <trkpt lat="43.39701" lon="6.67235">
        <ele>18.032</ele>
        <time>2012-10-14T08:45:41.226Z</time>
      </trkpt>
      <trkpt lat="43.39693" lon="6.67223">
        <ele>18.217</ele>
        <time>2012-10-14T08:45:46.391Z</time>
      </trkpt>
      <trkpt lat="43.39685" lon="6.67214">
        <ele>18.703</ele>
        <time>2012-10-14T08:45:49.579Z</time>
      </trkpt>
      <trkpt lat="43.3967" lon="6.67202">
        <ele>19.166</ele>
        <time>2012-10-14T08:45:54.688Z</time>
      </trkpt>
      <trkpt lat="43.39659" lon="6.67198">
        <ele>19.239</ele>
        <time>2012-10-14T08:45:57.659Z</time>
      </trkpt>
      <trkpt lat="43.3965" lon="6.67197">
        <ele>19.017</ele>
        <time>2012-10-14T08:46:00.019Z</time>
      </trkpt>
      <trkpt lat="43.39635" lon="6.672">
        <ele>18.776</ele>
        <time>2012-10-14T08:46:03.762Z</time>
      </trkpt>
      <trkpt lat="43.39623" lon="6.67206">
        <ele>18.416</ele>
        <time>2012-10-14T08:46:06.874Z</time>
      </trkpt>
      <trkpt lat="43.39611" lon="6.67213">
        <ele>17.766</ele>
        <time>2012-10-14T08:46:09.857Z</time>
      </trkpt>
      <trkpt lat="43.39596" lon="6.67223">
        <ele>17.137</ele>
        <time>2012-10-14T08:46:13.266Z</time>
      </trkpt>
      <trkpt lat="43.39585" lon="6.67225">
        <ele>16.85</ele>
        <time>2012-10-14T08:46:15.676Z</time>
      </trkpt>
      <trkpt lat="43.39568" lon="6.67219">
        <ele>17.13</ele>
        <time>2012-10-14T08:46:19.131Z</time>
      </trkpt>
      <trkpt lat="43.39561" lon="6.6721">
        <ele>18.011</ele>
        <time>2012-10-14T08:46:21.141Z</time>
      </trkpt>
      <trkpt lat="43.39554" lon="6.672">
        <ele>18.917</ele>
        <time>2012-10-14T08:46:23.283Z</time>
      </trkpt>
      <trkpt lat="43.39545" lon="6.67182">
        <ele>19.351</ele>
        <time>2012-10-14T08:46:26.564Z</time>
      </trkpt>
      <trkpt lat="43.39539" lon="6.6717">
        <ele>19.419</ele>
        <time>2012-10-14T08:46:28.925Z</time>
      </trkpt>
      <trkpt lat="43.39528" lon="6.67155">
        <ele>19.27</ele>
        <time>2012-10-14T08:46:32.640Z</time>
      </trkpt>
      <trkpt lat="43.39515" lon="6.67146">
        <ele>18.928</ele>
        <time>2012-10-14T08:46:36.272Z</time>
      </trkpt>
      <trkpt lat="43.39503" lon="6.6714">
        <ele>18.492</ele>
        <time>2012-10-14T08:46:39.679Z</time>
      </trkpt>
      <trkpt lat="43.39495" lon="6.67124">
        <ele>18.047</ele>
        <time>2012-10-14T08:46:43.323Z</time>
      </trkpt>
      <trkpt lat="43.39489" lon="6.6711">
        <ele>17.527</ele>
        <time>2012-10-14T08:46:46.508Z</time>
      </trkpt>
      <trkpt lat="43.39479" lon="6.67103">
        <ele>17</ele>
        <time>2012-10-14T08:46:49.482Z</time>
      </trkpt>
      <trkpt lat="43.39468" lon="6.67099">
        <ele>16.672</ele>
        <time>2012-10-14T08:46:52.556Z</time>
      </trkpt>
      <trkpt lat="43.39457" lon="6.67093">
        <ele>16.558</ele>
        <time>2012-10-14T08:46:55.689Z</time>
      </trkpt>
      <trkpt lat="43.3945" lon="6.67085">
        <ele>16.518</ele>
        <time>2012-10-14T08:46:58.234Z</time>
      </trkpt>
      <trkpt lat="43.39441" lon="6.6707">
        <ele>16.509</ele>
        <time>2012-10-14T08:47:01.729Z</time>
      </trkpt>
      <trkpt lat="43.39438" lon="6.67057">
        <ele>16.647</ele>
        <time>2012-10-14T08:47:04.407Z</time>
      </trkpt>
      <trkpt lat="43.3943" lon="6.67042">
        <ele>17.139</ele>
        <time>2012-10-14T08:47:07.747Z</time>
      </trkpt>
      <trkpt lat="43.39422" lon="6.67031">
        <ele>17.907</ele>
        <time>2012-10-14T08:47:10.697Z</time>
      </trkpt>
      <trkpt lat="43.39413" lon="6.67018">
        <ele>18.604</ele>
        <time>2012-10-14T08:47:13.749Z</time>
      </trkpt>
      <trkpt lat="43.39409" lon="6.67007">
        <ele>19.215</ele>
        <time>2012-10-14T08:47:15.908Z</time>
      </trkpt>
      <trkpt lat="43.39403" lon="6.66991">
        <ele>19.911</ele>
        <time>2012-10-14T08:47:18.809Z</time>
      </trkpt>
      <trkpt lat="43.39396" lon="6.66978">
        <ele>20.512</ele>
        <time>2012-10-14T08:47:21.489Z</time>
      </trkpt>
      <trkpt lat="43.39386" lon="6.66966">
        <ele>20.89</ele>
        <time>2012-10-14T08:47:24.191Z</time>
      </trkpt>
      <trkpt lat="43.39376" lon="6.66956">
        <ele>21.189</ele>
        <time>2012-10-14T08:47:26.892Z</time>
      </trkpt>
      <trkpt lat="43.39364" lon="6.66945">
        <ele>21.642</ele>
        <time>2012-10-14T08:47:29.771Z</time>
      </trkpt>
      <trkpt lat="43.39351" lon="6.66934">
        <ele>22.095</ele>
        <time>2012-10-14T08:47:33.000Z</time>
      </trkpt>
      <trkpt lat="43.39338" lon="6.66924">
        <ele>22.142</ele>
        <time>2012-10-14T08:47:36.093Z</time>
      </trkpt>
      <trkpt lat="43.39325" lon="6.66915">
        <ele>21.741</ele>
        <time>2012-10-14T08:47:39.078Z</time>
      </trkpt>
      <trkpt lat="43.39313" lon="6.66905">
        <ele>21.205</ele>
        <time>2012-10-14T08:47:41.885Z</time>
      </trkpt>
      <trkpt lat="43.39301" lon="6.66892">
        <ele>20.764</ele>
        <time>2012-10-14T08:47:45.201Z</time>
      </trkpt>
      <trkpt lat="43.39292" lon="6.66885">
        <ele>20.497</ele>
        <time>2012-10-14T08:47:47.427Z</time>
      </trkpt>
      <trkpt lat="43.3928" lon="6.66872">
        <ele>20.33</ele>
        <time>2012-10-14T08:47:51.102Z</time>
      </trkpt>
      <trkpt lat="43.39274" lon="6.66856">
        <ele>20.246</ele>
        <time>2012-10-14T08:47:54.429Z</time>
      </trkpt>
      <trkpt lat="43.39272" lon="6.66843">
        <ele>20.26</ele>
        <time>2012-10-14T08:47:57.006Z</time>
      </trkpt>
      <trkpt lat="43.39272" lon="6.6683">
        <ele>20.278</ele>
        <time>2012-10-14T08:47:59.853Z</time>
      </trkpt>
      <trkpt lat="43.39273" lon="6.6681">
        <ele>20.245</ele>
        <time>2012-10-14T08:48:04.224Z</time>
      </trkpt>
      <trkpt lat="43.39279" lon="6.66796">
        <ele>20.266</ele>
        <time>2012-10-14T08:48:08.327Z</time>
      </trkpt>
      <trkpt lat="43.39286" lon="6.66783">
        <ele>20.422</ele>
        <time>2012-10-14T08:48:12.683Z</time>
      </trkpt>
      <trkpt lat="43.3929" lon="6.66769">
        <ele>20.636</ele>
        <time>2012-10-14T08:48:17.214Z</time>
      </trkpt>
      <trkpt lat="43.39294" lon="6.66757">
        <ele>21.041</ele>
        <time>2012-10-14T08:48:21.133Z</time>
      </trkpt>
      <trkpt lat="43.39299" lon="6.66743">
        <ele>21.951</ele>
        <time>2012-10-14T08:48:26.227Z</time>
      </trkpt>
      <trkpt lat="43.39304" lon="6.66727">
        <ele>23.252</ele>
        <time>2012-10-14T08:48:31.538Z</time>
      </trkpt>
      <trkpt lat="43.39306" lon="6.66715">
        <ele>24.403</ele>
        <time>2012-10-14T08:48:35.629Z</time>
      </trkpt>
      <trkpt lat="43.3931" lon="6.66701">
        <ele>25.137</ele>
        <time>2012-10-14T08:48:40.215Z</time>
      </trkpt>
      <trkpt lat="43.39312" lon="6.66688">
        <ele>25.503</ele>
        <time>2012-10-14T08:48:44.381Z</time>
      </trkpt>
      <trkpt lat="43.39314" lon="6.66675">
        <ele>25.614</ele>
        <time>2012-10-14T08:48:48.102Z</time>
      </trkpt>
      <trkpt lat="43.39317" lon="6.66661">
        <ele>25.862</ele>
        <time>2012-10-14T08:48:52.054Z</time>
      </trkpt>
      <trkpt lat="43.3932" lon="6.66647">
        <ele>26.529</ele>
        <time>2012-10-14T08:48:55.812Z</time>
      </trkpt>
      <trkpt lat="43.39323" lon="6.66632">
        <ele>27.359</ele>
        <time>2012-10-14T08:48:59.657Z</time>
      </trkpt>
      <trkpt lat="43.39326" lon="6.6662">
        <ele>28.007</ele>
        <time>2012-10-14T08:49:02.892Z</time>
      </trkpt>
      <trkpt lat="43.39329" lon="6.66608">
        <ele>28.451</ele>
        <time>2012-10-14T08:49:06.094Z</time>
      </trkpt>
      <trkpt lat="43.39333" lon="6.66597">
        <ele>28.971</ele>
        <time>2012-10-14T08:49:09.319Z</time>
      </trkpt>
      <trkpt lat="43.39337" lon="6.66585">
        <ele>29.779</ele>
        <time>2012-10-14T08:49:12.669Z</time>
      </trkpt>
      <trkpt lat="43.3934" lon="6.66573">
        <ele>30.615</ele>
        <time>2012-10-14T08:49:15.930Z</time>
      </trkpt>
      <trkpt lat="43.39341" lon="6.66559">
        <ele>31.272</ele>
        <time>2012-10-14T08:49:19.658Z</time>
      </trkpt>
      <trkpt lat="43.39342" lon="6.66544">
        <ele>31.817</ele>
        <time>2012-10-14T08:49:23.756Z</time>
      </trkpt>
      <trkpt lat="43.39344" lon="6.6653">
        <ele>32.332</ele>
        <time>2012-10-14T08:49:27.520Z</time>
      </trkpt>
      <trkpt lat="43.39348" lon="6.66518">
        <ele>32.838</ele>
        <time>2012-10-14T08:49:31.020Z</time>
      </trkpt>
      <trkpt lat="43.39356" lon="6.66507">
        <ele>33.29</ele>
        <time>2012-10-14T08:49:35.094Z</time>
      </trkpt>
      <trkpt lat="43.39366" lon="6.66499">
        <ele>33.925</ele>
        <time>2012-10-14T08:49:39.162Z</time>
      </trkpt>
      <trkpt lat="43.39375" lon="6.66493">
        <ele>34.973</ele>
        <time>2012-10-14T08:49:42.957Z</time>
      </trkpt>
      <trkpt lat="43.39384" lon="6.66489">
        <ele>36.065</ele>
        <time>2012-10-14T08:49:46.646Z</time>
      </trkpt>
      <trkpt lat="43.39394" lon="6.66484">
        <ele>36.895</ele>
        <time>2012-10-14T08:49:50.592Z</time>
      </trkpt>
      <trkpt lat="43.39404" lon="6.6648">
        <ele>37.538</ele>
        <time>2012-10-14T08:49:54.810Z</time>
      </trkpt>
      <trkpt lat="43.39414" lon="6.66476">
        <ele>38.299</ele>
        <time>2012-10-14T08:49:59.468Z</time>
      </trkpt>
      <trkpt lat="43.39425" lon="6.66472">
        <ele>39.404</ele>
        <time>2012-10-14T08:50:04.318Z</time>
      </trkpt>
      <trkpt lat="43.39434" lon="6.66467">
        <ele>40.569</ele>
        <time>2012-10-14T08:50:08.765Z</time>
      </trkpt>
      <trkpt lat="43.39444" lon="6.66462">
        <ele>41.391</ele>
        <time>2012-10-14T08:50:13.508Z</time>
      </trkpt>
      <trkpt lat="43.39454" lon="6.66458">
        <ele>41.885</ele>
        <time>2012-10-14T08:50:18.351Z</time>
      </trkpt>
      <trkpt lat="43.39464" lon="6.66454">
        <ele>42.192</ele>
        <time>2012-10-14T08:50:22.978Z</time>
      </trkpt>
      <trkpt lat="43.39475" lon="6.66451">
        <ele>42.578</ele>
        <time>2012-10-14T08:50:27.685Z</time>
      </trkpt>
      <trkpt lat="43.39485" lon="6.66448">
        <ele>43.182</ele>
        <time>2012-10-14T08:50:32.330Z</time>
      </trkpt>
      <trkpt lat="43.39495" lon="6.66446">
        <ele>44.003</ele>
        <time>2012-10-14T08:50:36.927Z</time>
      </trkpt>
      <trkpt lat="43.39505" lon="6.66443">
        <ele>44.962</ele>
        <time>2012-10-14T08:50:41.315Z</time>
      </trkpt>
      <trkpt lat="43.39514" lon="6.6644">
        <ele>45.869</ele>
        <time>2012-10-14T08:50:46.010Z</time>
      </trkpt>
      <trkpt lat="43.39523" lon="6.66438">
        <ele>46.718</ele>
        <time>2012-10-14T08:50:50.289Z</time>
      </trkpt>
      <trkpt lat="43.39533" lon="6.66435">
        <ele>47.836</ele>
        <time>2012-10-14T08:50:54.932Z</time>
      </trkpt>
      <trkpt lat="43.39543" lon="6.66433">
        <ele>49.145</ele>
        <time>2012-10-14T08:50:58.861Z</time>
      </trkpt>
      <trkpt lat="43.39552" lon="6.66432">
        <ele>50.22</ele>
        <time>2012-10-14T08:51:02.591Z</time>
      </trkpt>
      <trkpt lat="43.39562" lon="6.66433">
        <ele>51.065</ele>
        <time>2012-10-14T08:51:06.362Z</time>
      </trkpt>
      <trkpt lat="43.39573" lon="6.66437">
        <ele>52.06</ele>
        <time>2012-10-14T08:51:10.480Z</time>
      </trkpt>
      <trkpt lat="43.39585" lon="6.66442">
        <ele>53.435</ele>
        <time>2012-10-14T08:51:14.990Z</time>
      </trkpt>
      <trkpt lat="43.39595" lon="6.66444">
        <ele>54.966</ele>
        <time>2012-10-14T08:51:18.889Z</time>
      </trkpt>
      <trkpt lat="43.39606" lon="6.66442">
        <ele>56.112</ele>
        <time>2012-10-14T08:51:23.319Z</time>
      </trkpt>
      <trkpt lat="43.39616" lon="6.66439">
        <ele>56.65</ele>
        <time>2012-10-14T08:51:27.381Z</time>
      </trkpt>
      <trkpt lat="43.39626" lon="6.66435">
        <ele>56.917</ele>
        <time>2012-10-14T08:51:31.888Z</time>
      </trkpt>
      <trkpt lat="43.39637" lon="6.66431">
        <ele>57.436</ele>
        <time>2012-10-14T08:51:37.183Z</time>
      </trkpt>
      <trkpt lat="43.39647" lon="6.66427">
        <ele>58.307</ele>
        <time>2012-10-14T08:51:42.333Z</time>
      </trkpt>
      <trkpt lat="43.39657" lon="6.66421">
        <ele>59.062</ele>
        <time>2012-10-14T08:51:47.441Z</time>
      </trkpt>
      <trkpt lat="43.39667" lon="6.66417">
        <ele>59.382</ele>
        <time>2012-10-14T08:51:52.223Z</time>
      </trkpt>
      <trkpt lat="43.39676" lon="6.66417">
        <ele>59.407</ele>
        <time>2012-10-14T08:51:56.629Z</time>
      </trkpt>
      <trkpt lat="43.39684" lon="6.66425">
        <ele>59.335</ele>
        <time>2012-10-14T08:52:01.167Z</time>
      </trkpt>
      <trkpt lat="43.39689" lon="6.66436">
        <ele>59.274</ele>
        <time>2012-10-14T08:52:05.202Z</time>
      </trkpt>
      <trkpt lat="43.39695" lon="6.66445">
        <ele>59.563</ele>
        <time>2012-10-14T08:52:09.441Z</time>
      </trkpt>
      <trkpt lat="43.39702" lon="6.66435">
        <ele>60.554</ele>
        <time>2012-10-14T08:52:13.837Z</time>
      </trkpt>
      <trkpt lat="43.39699" lon="6.66422">
        <ele>61.909</ele>
        <time>2012-10-14T08:52:18.360Z</time>
      </trkpt>
      <trkpt lat="43.39698" lon="6.66409">
        <ele>62.967</ele>
        <time>2012-10-14T08:52:23.296Z</time>
      </trkpt>
      <trkpt lat="43.397" lon="6.66395">
        <ele>63.526</ele>
        <time>2012-10-14T08:52:28.686Z</time>
      </trkpt>
      <trkpt lat="43.39709" lon="6.66387">
        <ele>63.82</ele>
        <time>2012-10-14T08:52:34.146Z</time>
      </trkpt>
      <trkpt lat="43.39718" lon="6.66385">
        <ele>64.093</ele>
        <time>2012-10-14T08:52:39.639Z</time>
      </trkpt>
      <trkpt lat="43.39728" lon="6.66387">
        <ele>64.545</ele>
        <time>2012-10-14T08:52:45.010Z</time>
      </trkpt>
      <trkpt lat="43.39737" lon="6.66391">
        <ele>65.546</ele>
        <time>2012-10-14T08:52:50.258Z</time>
      </trkpt>
      <trkpt lat="43.39746" lon="6.66398">
        <ele>67.023</ele>
        <time>2012-10-14T08:52:55.885Z</time>
      </trkpt>
      <trkpt lat="43.39755" lon="6.66403">
        <ele>68.478</ele>
        <time>2012-10-14T08:53:01.407Z</time>
      </trkpt>
      <trkpt lat="43.39764" lon="6.66408">
        <ele>69.722</ele>
        <time>2012-10-14T08:53:06.831Z</time>
      </trkpt>
      <trkpt lat="43.39774" lon="6.66409">
        <ele>70.691</ele>
        <time>2012-10-14T08:53:12.363Z</time>
      </trkpt>
      <trkpt lat="43.39782" lon="6.664">
        <ele>71.337</ele>
        <time>2012-10-14T08:53:17.462Z</time>
      </trkpt>
      <trkpt lat="43.39789" lon="6.66389">
        <ele>71.789</ele>
        <time>2012-10-14T08:53:22.478Z</time>
      </trkpt>
      <trkpt lat="43.39793" lon="6.66377">
        <ele>72.647</ele>
        <time>2012-10-14T08:53:26.787Z</time>
      </trkpt>
      <trkpt lat="43.39796" lon="6.66364">
        <ele>74.31</ele>
        <time>2012-10-14T08:53:31.071Z</time>
      </trkpt>
      <trkpt lat="43.39799" lon="6.6635">
        <ele>76.065</ele>
        <time>2012-10-14T08:53:35.389Z</time>
      </trkpt>
      <trkpt lat="43.398" lon="6.66335">
        <ele>77.249</ele>
        <time>2012-10-14T08:53:40.035Z</time>
      </trkpt>
      <trkpt lat="43.39797" lon="6.66321">
        <ele>78.017</ele>
        <time>2012-10-14T08:53:44.564Z</time>
      </trkpt>
      <trkpt lat="43.39791" lon="6.6631">
        <ele>78.43</ele>
        <time>2012-10-14T08:53:48.919Z</time>
      </trkpt>
      <trkpt lat="43.39783" lon="6.663">
        <ele>78.521</ele>
        <time>2012-10-14T08:53:54.239Z</time>
      </trkpt>
      <trkpt lat="43.39775" lon="6.66292">
        <ele>78.473</ele>
        <time>2012-10-14T08:53:59.289Z</time>
      </trkpt>
      <trkpt lat="43.39769" lon="6.66283">
        <ele>78.41</ele>
        <time>2012-10-14T08:54:04.645Z</time>
      </trkpt>
      <trkpt lat="43.39766" lon="6.6627">
        <ele>78.377</ele>
        <time>2012-10-14T08:54:10.298Z</time>
      </trkpt>
      <trkpt lat="43.39773" lon="6.66262">
        <ele>78.5</ele>
        <time>2012-10-14T08:54:16.105Z</time>
      </trkpt>
      <trkpt lat="43.39782" lon="6.66267">
        <ele>79.019</ele>
        <time>2012-10-14T08:54:21.680Z</time>
      </trkpt>
      <trkpt lat="43.39791" lon="6.66262">
        <ele>79.923</ele>
        <time>2012-10-14T08:54:27.054Z</time>
      </trkpt>
      <trkpt lat="43.3979" lon="6.66248">
        <ele>80.879</ele>
        <time>2012-10-14T08:54:32.620Z</time>
      </trkpt>
      <trkpt lat="43.39783" lon="6.66238">
        <ele>81.957</ele>
        <time>2012-10-14T08:54:38.565Z</time>
      </trkpt>
      <trkpt lat="43.39775" lon="6.66229">
        <ele>83.533</ele>
        <time>2012-10-14T08:54:44.741Z</time>
      </trkpt>
      <trkpt lat="43.3977" lon="6.66217">
        <ele>85.276</ele>
        <time>2012-10-14T08:54:50.661Z</time>
      </trkpt>
      <trkpt lat="43.39773" lon="6.66205">
        <ele>86.472</ele>
        <time>2012-10-14T08:54:56.286Z</time>
      </trkpt>
      <trkpt lat="43.39783" lon="6.66207">
        <ele>87.067</ele>
        <time>2012-10-14T08:55:02.269Z</time>
      </trkpt>
      <trkpt lat="43.39792" lon="6.6621">
        <ele>87.578</ele>
        <time>2012-10-14T08:55:07.844Z</time>
      </trkpt>
      <trkpt lat="43.39802" lon="6.66208">
        <ele>88.568</ele>
        <time>2012-10-14T08:55:14.152Z</time>
      </trkpt>
      <trkpt lat="43.39809" lon="6.66198">
        <ele>90.057</ele>
        <time>2012-10-14T08:55:20.391Z</time>
      </trkpt>
      <trkpt lat="43.39814" lon="6.66185">
        <ele>91.403</ele>
        <time>2012-10-14T08:55:26.502Z</time>
      </trkpt>
      <trkpt lat="43.3982" lon="6.66176">
        <ele>92.413</ele>
        <time>2012-10-14T08:55:31.865Z</time>
      </trkpt>
      <trkpt lat="43.39826" lon="6.66166">
        <ele>93.419</ele>
        <time>2012-10-14T08:55:37.102Z</time>
      </trkpt>
      <trkpt lat="43.39833" lon="6.66156">
        <ele>94.634</ele>
        <time>2012-10-14T08:55:42.688Z</time>
      </trkpt>
      <trkpt lat="43.39839" lon="6.66147">
        <ele>96.166</ele>
        <time>2012-10-14T08:55:47.513Z</time>
      </trkpt>
      <trkpt lat="43.39846" lon="6.66138">
        <ele>97.897</ele>
        <time>2012-10-14T08:55:52.494Z</time>
      </trkpt>
      <trkpt lat="43.39853" lon="6.66129">
        <ele>99.326</ele>
        <time>2012-10-14T08:55:57.442Z</time>
      </trkpt>
      <trkpt lat="43.39859" lon="6.66121">
        <ele>100.13</ele>
        <time>2012-10-14T08:56:02.547Z</time>
      </trkpt>
      <trkpt lat="43.39867" lon="6.66112">
        <ele>100.414</ele>
        <time>2012-10-14T08:56:07.966Z</time>
      </trkpt>
      <trkpt lat="43.39874" lon="6.66102">
        <ele>100.555</ele>
        <time>2012-10-14T08:56:13.841Z</time>
      </trkpt>
      <trkpt lat="43.3988" lon="6.66092">
        <ele>100.812</ele>
        <time>2012-10-14T08:56:19.144Z</time>
      </trkpt>
      <trkpt lat="43.39885" lon="6.66081">
        <ele>101.229</ele>
        <time>2012-10-14T08:56:24.992Z</time>
      </trkpt>
      <trkpt lat="43.39891" lon="6.6607">
        <ele>101.96</ele>
        <time>2012-10-14T08:56:31.509Z</time>
      </trkpt>
      <trkpt lat="43.39896" lon="6.66057">
        <ele>103.37</ele>
        <time>2012-10-14T08:56:38.332Z</time>
      </trkpt>
      <trkpt lat="43.399" lon="6.66044">
        <ele>105.299</ele>
        <time>2012-10-14T08:56:45.059Z</time>
      </trkpt>
      <trkpt lat="43.39903" lon="6.6603">
        <ele>106.922</ele>
        <time>2012-10-14T08:56:51.480Z</time>
      </trkpt>
      <trkpt lat="43.39905" lon="6.66018">
        <ele>108.202</ele>
        <time>2012-10-14T08:56:56.957Z</time>
      </trkpt>
      <trkpt lat="43.39909" lon="6.66005">
        <ele>109.691</ele>
        <time>2012-10-14T08:57:02.811Z</time>
      </trkpt>
      <trkpt lat="43.39913" lon="6.65992">
        <ele>111.293</ele>
        <time>2012-10-14T08:57:08.025Z</time>
      </trkpt>
      <trkpt lat="43.39915" lon="6.65979">
        <ele>112.589</ele>
        <time>2012-10-14T08:57:13.168Z</time>
      </trkpt>
      <trkpt lat="43.39916" lon="6.65966">
        <ele>113.398</ele>
        <time>2012-10-14T08:57:18.111Z</time>
      </trkpt>
      <trkpt lat="43.39917" lon="6.65953">
        <ele>113.699</ele>
        <time>2012-10-14T08:57:22.825Z</time>
      </trkpt>
      <trkpt lat="43.39917" lon="6.65939">
        <ele>113.738</ele>
        <time>2012-10-14T08:57:28.339Z</time>
      </trkpt>
      <trkpt lat="43.39916" lon="6.65925">
        <ele>113.711</ele>
        <time>2012-10-14T08:57:34.048Z</time>
      </trkpt>
      <trkpt lat="43.39915" lon="6.65911">
        <ele>113.685</ele>
        <time>2012-10-14T08:57:39.768Z</time>
      </trkpt>
      <trkpt lat="43.39914" lon="6.65896">
        <ele>113.821</ele>
        <time>2012-10-14T08:57:45.758Z</time>
      </trkpt>
      <trkpt lat="43.39913" lon="6.65883">
        <ele>114.332</ele>
        <time>2012-10-14T08:57:51.135Z</time>
      </trkpt>
      <trkpt lat="43.3991" lon="6.65872">
        <ele>115.164</ele>
        <time>2012-10-14T08:57:56.293Z</time>
      </trkpt>
      <trkpt lat="43.3991" lon="6.65859">
        <ele>116.093</ele>
        <time>2012-10-14T08:58:01.480Z</time>
      </trkpt>
      <trkpt lat="43.39912" lon="6.65846">
        <ele>117.173</ele>
        <time>2012-10-14T08:58:07.199Z</time>
      </trkpt>
      <trkpt lat="43.39917" lon="6.65835">
        <ele>118.369</ele>
        <time>2012-10-14T08:58:13.168Z</time>
      </trkpt>
      <trkpt lat="43.39926" lon="6.65825">
        <ele>119.319</ele>
        <time>2012-10-14T08:58:19.909Z</time>
      </trkpt>
      <trkpt lat="43.39934" lon="6.65818">
        <ele>120.239</ele>
        <time>2012-10-14T08:58:26.092Z</time>
      </trkpt>
      <trkpt lat="43.39943" lon="6.65811">
        <ele>121.811</ele>
        <time>2012-10-14T08:58:32.200Z</time>
      </trkpt>
      <trkpt lat="43.39951" lon="6.65805">
        <ele>123.905</ele>
        <time>2012-10-14T08:58:37.920Z</time>
      </trkpt>
      <trkpt lat="43.3996" lon="6.658">
        <ele>125.818</ele>
        <time>2012-10-14T08:58:43.462Z</time>
      </trkpt>
      <trkpt lat="43.3997" lon="6.65796">
        <ele>127.26</ele>
        <time>2012-10-14T08:58:49.379Z</time>
      </trkpt>
      <trkpt lat="43.39979" lon="6.65792">
        <ele>128.303</ele>
        <time>2012-10-14T08:58:55.247Z</time>
      </trkpt>
      <trkpt lat="43.39989" lon="6.65788">
        <ele>128.97</ele>
        <time>2012-10-14T08:59:01.398Z</time>
      </trkpt>
      <trkpt lat="43.39999" lon="6.65782">
        <ele>129.578</ele>
        <time>2012-10-14T08:59:07.601Z</time>
      </trkpt>
      <trkpt lat="43.40006" lon="6.65773">
        <ele>130.594</ele>
        <time>2012-10-14T08:59:13.524Z</time>
      </trkpt>
      <trkpt lat="43.40012" lon="6.65763">
        <ele>131.837</ele>
        <time>2012-10-14T08:59:19.010Z</time>
      </trkpt>
      <trkpt lat="43.40016" lon="6.6575">
        <ele>132.836</ele>
        <time>2012-10-14T08:59:24.606Z</time>
      </trkpt>
      <trkpt lat="43.4002" lon="6.65738">
        <ele>133.547</ele>
        <time>2012-10-14T08:59:30.456Z</time>
      </trkpt>
      <trkpt lat="43.40024" lon="6.65724">
        <ele>134.194</ele>
        <time>2012-10-14T08:59:36.575Z</time>
      </trkpt>
      <trkpt lat="43.40027" lon="6.65712">
        <ele>134.971</ele>
        <time>2012-10-14T08:59:42.045Z</time>
      </trkpt>
      <trkpt lat="43.4003" lon="6.657">
        <ele>135.842</ele>
        <time>2012-10-14T08:59:47.683Z</time>
      </trkpt>
      <trkpt lat="43.40034" lon="6.65687">
        <ele>136.571</ele>
        <time>2012-10-14T08:59:53.530Z</time>
      </trkpt>
      <trkpt lat="43.40035" lon="6.65674">
        <ele>137.181</ele>
        <time>2012-10-14T08:59:59.312Z</time>
      </trkpt>
      <trkpt lat="43.40035" lon="6.6566">
        <ele>137.887</ele>
        <time>2012-10-14T09:00:04.929Z</time>
      </trkpt>
      <trkpt lat="43.40034" lon="6.65647">
        <ele>138.592</ele>
        <time>2012-10-14T09:00:10.620Z</time>
      </trkpt>
      <trkpt lat="43.40033" lon="6.65634">
        <ele>139.137</ele>
        <time>2012-10-14T09:00:16.604Z</time>
      </trkpt>
      <trkpt lat="43.4003" lon="6.65621">
        <ele>139.687</ele>
        <time>2012-10-14T09:00:22.806Z</time>
      </trkpt>
      <trkpt lat="43.40028" lon="6.65608">
        <ele>140.352</ele>
        <time>2012-10-14T09:00:28.945Z</time>
      </trkpt>
      <trkpt lat="43.40026" lon="6.65595">
        <ele>141.088</ele>
        <time>2012-10-14T09:00:34.711Z</time>
      </trkpt>
      <trkpt lat="43.40023" lon="6.65582">
        <ele>142.015</ele>
        <time>2012-10-14T09:00:40.916Z</time>
      </trkpt>
      <trkpt lat="43.40022" lon="6.6557">
        <ele>143.239</ele>
        <time>2012-10-14T09:00:46.865Z</time>
      </trkpt>
      <trkpt lat="43.40018" lon="6.65558">
        <ele>144.598</ele>
        <time>2012-10-14T09:00:53.323Z</time>
      </trkpt>
      <trkpt lat="43.40012" lon="6.65547">
        <ele>145.946</ele>
        <time>2012-10-14T09:00:59.518Z</time>
      </trkpt>
      <trkpt lat="43.40007" lon="6.65535">
        <ele>147.21</ele>
        <time>2012-10-14T09:01:05.791Z</time>
      </trkpt>
      <trkpt lat="43.40002" lon="6.65523">
        <ele>148.186</ele>
        <time>2012-10-14T09:01:12.053Z</time>
      </trkpt>
      <trkpt lat="43.39994" lon="6.65515">
        <ele>148.738</ele>
        <time>2012-10-14T09:01:18.172Z</time>
      </trkpt>
      <trkpt lat="43.39987" lon="6.65506">
        <ele>148.945</ele>
        <time>2012-10-14T09:01:23.989Z</time>
      </trkpt>
      <trkpt lat="43.39987" lon="6.65506">
        <ele>148.976</ele>
        <time>2012-10-14T09:01:42.003Z</time>
      </trkpt>
      <trkpt lat="43.39987" lon="6.65506">
        <ele>148.958</ele>
        <time>2012-10-14T09:03:16.243Z</time>
      </trkpt>
      <trkpt lat="43.39968" lon="6.65495">
        <ele>149.139</ele>
        <time>2012-10-14T09:03:44.924Z</time>
      </trkpt>
      <trkpt lat="43.39959" lon="6.65491">
        <ele>149.727</ele>
        <time>2012-10-14T09:03:51.342Z</time>
      </trkpt>
      <trkpt lat="43.39949" lon="6.65486">
        <ele>150.452</ele>
        <time>2012-10-14T09:03:57.536Z</time>
      </trkpt>
      <trkpt lat="43.3994" lon="6.65481">
        <ele>151.488</ele>
        <time>2012-10-14T09:04:03.239Z</time>
      </trkpt>
      <trkpt lat="43.39931" lon="6.65477">
        <ele>153.181</ele>
        <time>2012-10-14T09:04:08.945Z</time>
      </trkpt>
      <trkpt lat="43.39921" lon="6.65473">
        <ele>154.823</ele>
        <time>2012-10-14T09:04:14.425Z</time>
      </trkpt>
      <trkpt lat="43.39913" lon="6.65466">
        <ele>155.937</ele>
        <time>2012-10-14T09:04:19.721Z</time>
      </trkpt>
      <trkpt lat="43.39906" lon="6.65458">
        <ele>156.926</ele>
        <time>2012-10-14T09:04:24.638Z</time>
      </trkpt>
      <trkpt lat="43.39898" lon="6.65448">
        <ele>157.75</ele>
        <time>2012-10-14T09:04:30.102Z</time>
      </trkpt>
      <trkpt lat="43.39894" lon="6.65436">
        <ele>158.156</ele>
        <time>2012-10-14T09:04:35.542Z</time>
      </trkpt>
      <trkpt lat="43.39892" lon="6.65423">
        <ele>158.315</ele>
        <time>2012-10-14T09:04:40.742Z</time>
      </trkpt>
      <trkpt lat="43.3989" lon="6.65409">
        <ele>158.457</ele>
        <time>2012-10-14T09:04:45.818Z</time>
      </trkpt>
      <trkpt lat="43.39889" lon="6.65396">
        <ele>158.894</ele>
        <time>2012-10-14T09:04:50.837Z</time>
      </trkpt>
      <trkpt lat="43.39887" lon="6.65383">
        <ele>160.078</ele>
        <time>2012-10-14T09:04:55.368Z</time>
      </trkpt>
      <trkpt lat="43.39885" lon="6.65371">
        <ele>161.79</ele>
        <time>2012-10-14T09:04:59.842Z</time>
      </trkpt>
      <trkpt lat="43.3988" lon="6.65357">
        <ele>163.288</ele>
        <time>2012-10-14T09:05:05.032Z</time>
      </trkpt>
      <trkpt lat="43.39872" lon="6.6535">
        <ele>164.298</ele>
        <time>2012-10-14T09:05:09.453Z</time>
      </trkpt>
      <trkpt lat="43.39862" lon="6.65348">
        <ele>164.897</ele>
        <time>2012-10-14T09:05:14.360Z</time>
      </trkpt>
      <trkpt lat="43.39852" lon="6.65344">
        <ele>165.173</ele>
        <time>2012-10-14T09:05:19.016Z</time>
      </trkpt>
      <trkpt lat="43.39843" lon="6.65339">
        <ele>165.397</ele>
        <time>2012-10-14T09:05:23.499Z</time>
      </trkpt>
      <trkpt lat="43.39834" lon="6.6533">
        <ele>165.82</ele>
        <time>2012-10-14T09:05:28.413Z</time>
      </trkpt>
      <trkpt lat="43.39828" lon="6.65319">
        <ele>166.519</ele>
        <time>2012-10-14T09:05:33.041Z</time>
      </trkpt>
      <trkpt lat="43.39824" lon="6.65307">
        <ele>167.427</ele>
        <time>2012-10-14T09:05:37.308Z</time>
      </trkpt>
      <trkpt lat="43.39817" lon="6.65296">
        <ele>168.316</ele>
        <time>2012-10-14T09:05:42.058Z</time>
      </trkpt>
      <trkpt lat="43.39808" lon="6.65292">
        <ele>168.94</ele>
        <time>2012-10-14T09:05:46.212Z</time>
      </trkpt>
      <trkpt lat="43.39799" lon="6.65294">
        <ele>169.344</ele>
        <time>2012-10-14T09:05:50.345Z</time>
      </trkpt>
      <trkpt lat="43.39793" lon="6.65304">
        <ele>169.766</ele>
        <time>2012-10-14T09:05:54.426Z</time>
      </trkpt>
      <trkpt lat="43.39788" lon="6.65315">
        <ele>170.309</ele>
        <time>2012-10-14T09:05:58.654Z</time>
      </trkpt>
      <trkpt lat="43.3978" lon="6.65323">
        <ele>170.957</ele>
        <time>2012-10-14T09:06:02.419Z</time>
      </trkpt>
      <trkpt lat="43.39772" lon="6.65328">
        <ele>171.756</ele>
        <time>2012-10-14T09:06:05.825Z</time>
      </trkpt>
      <trkpt lat="43.39763" lon="6.65332">
        <ele>172.805</ele>
        <time>2012-10-14T09:06:09.182Z</time>
      </trkpt>
      <trkpt lat="43.39753" lon="6.65338">
        <ele>173.921</ele>
        <time>2012-10-14T09:06:12.889Z</time>
      </trkpt>
      <trkpt lat="43.39746" lon="6.65345">
        <ele>174.714</ele>
        <time>2012-10-14T09:06:15.988Z</time>
      </trkpt>
      <trkpt lat="43.39746" lon="6.65345">
        <ele>175.077</ele>
        <time>2012-10-14T09:06:29.989Z</time>
      </trkpt>
      <trkpt lat="43.39746" lon="6.65345">
        <ele>175.142</ele>
        <time>2012-10-14T09:08:44.919Z</time>
      </trkpt>
      <trkpt lat="43.39725" lon="6.6536">
        <ele>175.043</ele>
        <time>2012-10-14T09:09:10.825Z</time>
      </trkpt>
      <trkpt lat="43.39719" lon="6.65371">
        <ele>174.925</ele>
        <time>2012-10-14T09:09:15.758Z</time>
      </trkpt>
      <trkpt lat="43.39711" lon="6.65384">
        <ele>175.199</ele>
        <time>2012-10-14T09:09:20.557Z</time>
      </trkpt>
      <trkpt lat="43.39703" lon="6.65395">
        <ele>176.177</ele>
        <time>2012-10-14T09:09:25.241Z</time>
      </trkpt>
      <trkpt lat="43.39693" lon="6.65404">
        <ele>177.401</ele>
        <time>2012-10-14T09:09:29.581Z</time>
      </trkpt>
      <trkpt lat="43.39685" lon="6.65409">
        <ele>178.336</ele>
        <time>2012-10-14T09:09:33.028Z</time>
      </trkpt>
      <trkpt lat="43.39674" lon="6.65411">
        <ele>179.042</ele>
        <time>2012-10-14T09:09:37.297Z</time>
      </trkpt>
      <trkpt lat="43.39663" lon="6.65408">
        <ele>179.657</ele>
        <time>2012-10-14T09:09:41.309Z</time>
      </trkpt>
      <trkpt lat="43.39653" lon="6.65402">
        <ele>180.23</ele>
        <time>2012-10-14T09:09:45.302Z</time>
      </trkpt>
      <trkpt lat="43.39643" lon="6.65394">
        <ele>180.737</ele>
        <time>2012-10-14T09:09:49.159Z</time>
      </trkpt>
      <trkpt lat="43.39634" lon="6.65386">
        <ele>181.099</ele>
        <time>2012-10-14T09:09:52.970Z</time>
      </trkpt>
      <trkpt lat="43.39626" lon="6.65375">
        <ele>181.356</ele>
        <time>2012-10-14T09:09:56.647Z</time>
      </trkpt>
      <trkpt lat="43.39619" lon="6.65367">
        <ele>181.567</ele>
        <time>2012-10-14T09:09:59.405Z</time>
      </trkpt>
      <trkpt lat="43.39611" lon="6.65357">
        <ele>181.825</ele>
        <time>2012-10-14T09:10:02.279Z</time>
      </trkpt>
      <trkpt lat="43.39603" lon="6.65347">
        <ele>182.19</ele>
        <time>2012-10-14T09:10:05.337Z</time>
      </trkpt>
      <trkpt lat="43.39594" lon="6.65334">
        <ele>182.505</ele>
        <time>2012-10-14T09:10:08.605Z</time>
      </trkpt>
      <trkpt lat="43.39584" lon="6.65324">
        <ele>182.638</ele>
        <time>2012-10-14T09:10:11.819Z</time>
      </trkpt>
      <trkpt lat="43.39574" lon="6.65314">
        <ele>182.593</ele>
        <time>2012-10-14T09:10:14.806Z</time>
      </trkpt>
      <trkpt lat="43.39564" lon="6.65306">
        <ele>182.417</ele>
        <time>2012-10-14T09:10:17.848Z</time>
      </trkpt>
      <trkpt lat="43.39553" lon="6.653">
        <ele>182.223</ele>
        <time>2012-10-14T09:10:20.975Z</time>
      </trkpt>
      <trkpt lat="43.39542" lon="6.65296">
        <ele>182.096</ele>
        <time>2012-10-14T09:10:24.082Z</time>
      </trkpt>
      <trkpt lat="43.39533" lon="6.65291">
        <ele>182.038</ele>
        <time>2012-10-14T09:10:26.821Z</time>
      </trkpt>
      <trkpt lat="43.39525" lon="6.65285">
        <ele>182.049</ele>
        <time>2012-10-14T09:10:29.633Z</time>
      </trkpt>
      <trkpt lat="43.39515" lon="6.65278">
        <ele>182.19</ele>
        <time>2012-10-14T09:10:33.339Z</time>
      </trkpt>
      <trkpt lat="43.39505" lon="6.65271">
        <ele>182.558</ele>
        <time>2012-10-14T09:10:36.995Z</time>
      </trkpt>
      <trkpt lat="43.39497" lon="6.65266">
        <ele>183.116</ele>
        <time>2012-10-14T09:10:40.469Z</time>
      </trkpt>
      <trkpt lat="43.39488" lon="6.6526">
        <ele>183.647</ele>
        <time>2012-10-14T09:10:44.156Z</time>
      </trkpt>
      <trkpt lat="43.3948" lon="6.65253">
        <ele>184.086</ele>
        <time>2012-10-14T09:10:47.747Z</time>
      </trkpt>
      <trkpt lat="43.39472" lon="6.65247">
        <ele>184.654</ele>
        <time>2012-10-14T09:10:51.538Z</time>
      </trkpt>
      <trkpt lat="43.39463" lon="6.6524">
        <ele>185.405</ele>
        <time>2012-10-14T09:10:56.308Z</time>
      </trkpt>
      <trkpt lat="43.39455" lon="6.65234">
        <ele>186.196</ele>
        <time>2012-10-14T09:11:00.629Z</time>
      </trkpt>
      <trkpt lat="43.39453" lon="6.65221">
        <ele>187.002</ele>
        <time>2012-10-14T09:11:05.581Z</time>
      </trkpt>
      <trkpt lat="43.39462" lon="6.65216">
        <ele>187.827</ele>
        <time>2012-10-14T09:11:11.154Z</time>
      </trkpt>
      <trkpt lat="43.39471" lon="6.65215">
        <ele>188.599</ele>
        <time>2012-10-14T09:11:16.644Z</time>
      </trkpt>
      <trkpt lat="43.39481" lon="6.65215">
        <ele>189.294</ele>
        <time>2012-10-14T09:11:23.135Z</time>
      </trkpt>
      <trkpt lat="43.39491" lon="6.65216">
        <ele>190.306</ele>
        <time>2012-10-14T09:11:30.215Z</time>
      </trkpt>
      <trkpt lat="43.395" lon="6.65215">
        <ele>192.246</ele>
        <time>2012-10-14T09:11:37.440Z</time>
      </trkpt>
      <trkpt lat="43.3951" lon="6.65216">
        <ele>194.995</ele>
        <time>2012-10-14T09:11:45.213Z</time>
      </trkpt>
      <trkpt lat="43.39519" lon="6.65212">
        <ele>197.602</ele>
        <time>2012-10-14T09:11:52.619Z</time>
      </trkpt>
      <trkpt lat="43.3953" lon="6.65211">
        <ele>199.863</ele>
        <time>2012-10-14T09:12:00.202Z</time>
      </trkpt>
      <trkpt lat="43.39539" lon="6.65212">
        <ele>202.069</ele>
        <time>2012-10-14T09:12:07.375Z</time>
      </trkpt>
      <trkpt lat="43.39548" lon="6.65213">
        <ele>203.968</ele>
        <time>2012-10-14T09:12:13.747Z</time>
      </trkpt>
      <trkpt lat="43.39558" lon="6.65213">
        <ele>205.505</ele>
        <time>2012-10-14T09:12:20.075Z</time>
      </trkpt>
      <trkpt lat="43.39568" lon="6.65214">
        <ele>206.955</ele>
        <time>2012-10-14T09:12:27.196Z</time>
      </trkpt>
      <trkpt lat="43.39578" lon="6.65215">
        <ele>208.14</ele>
        <time>2012-10-14T09:12:34.793Z</time>
      </trkpt>
      <trkpt lat="43.39587" lon="6.65216">
        <ele>209.321</ele>
        <time>2012-10-14T09:12:42.339Z</time>
      </trkpt>
      <trkpt lat="43.39596" lon="6.65216">
        <ele>210.864</ele>
        <time>2012-10-14T09:12:49.767Z</time>
      </trkpt>
      <trkpt lat="43.39605" lon="6.65215">
        <ele>212.555</ele>
        <time>2012-10-14T09:12:57.865Z</time>
      </trkpt>
      <trkpt lat="43.39615" lon="6.65214">
        <ele>214.065</ele>
        <time>2012-10-14T09:13:06.872Z</time>
      </trkpt>
      <trkpt lat="43.39624" lon="6.6521">
        <ele>215.272</ele>
        <time>2012-10-14T09:13:16.346Z</time>
      </trkpt>
      <trkpt lat="43.39633" lon="6.65206">
        <ele>216.342</ele>
        <time>2012-10-14T09:13:26.134Z</time>
      </trkpt>
      <trkpt lat="43.39641" lon="6.65201">
        <ele>217.499</ele>
        <time>2012-10-14T09:13:35.725Z</time>
      </trkpt>
      <trkpt lat="43.39649" lon="6.65194">
        <ele>218.561</ele>
        <time>2012-10-14T09:13:44.898Z</time>
      </trkpt>
      <trkpt lat="43.39656" lon="6.65185">
        <ele>219.383</ele>
        <time>2012-10-14T09:13:54.122Z</time>
      </trkpt>
      <trkpt lat="43.39661" lon="6.65175">
        <ele>220.089</ele>
        <time>2012-10-14T09:14:02.862Z</time>
      </trkpt>
      <trkpt lat="43.39665" lon="6.65163">
        <ele>221.23</ele>
        <time>2012-10-14T09:14:11.375Z</time>
      </trkpt>
      <trkpt lat="43.3967" lon="6.65151">
        <ele>223.109</ele>
        <time>2012-10-14T09:14:19.774Z</time>
      </trkpt>
      <trkpt lat="43.39675" lon="6.65139">
        <ele>224.942</ele>
        <time>2012-10-14T09:14:27.825Z</time>
      </trkpt>
      <trkpt lat="43.39681" lon="6.65127">
        <ele>226.323</ele>
        <time>2012-10-14T09:14:36.847Z</time>
      </trkpt>
      <trkpt lat="43.39686" lon="6.65114">
        <ele>227.616</ele>
        <time>2012-10-14T09:14:45.760Z</time>
      </trkpt>
      <trkpt lat="43.39689" lon="6.65102">
        <ele>228.747</ele>
        <time>2012-10-14T09:14:52.499Z</time>
      </trkpt>
      <trkpt lat="43.39693" lon="6.65091">
        <ele>229.513</ele>
        <time>2012-10-14T09:14:59.043Z</time>
      </trkpt>
      <trkpt lat="43.39698" lon="6.65078">
        <ele>230.17</ele>
        <time>2012-10-14T09:15:05.809Z</time>
      </trkpt>
      <trkpt lat="43.39703" lon="6.65066">
        <ele>230.954</ele>
        <time>2012-10-14T09:15:12.720Z</time>
      </trkpt>
      <trkpt lat="43.39709" lon="6.65056">
        <ele>231.875</ele>
        <time>2012-10-14T09:15:18.481Z</time>
      </trkpt>
      <trkpt lat="43.39716" lon="6.65048">
        <ele>232.884</ele>
        <time>2012-10-14T09:15:24.405Z</time>
      </trkpt>
      <trkpt lat="43.39724" lon="6.65041">
        <ele>233.931</ele>
        <time>2012-10-14T09:15:30.717Z</time>
      </trkpt>
      <trkpt lat="43.39733" lon="6.65038">
        <ele>234.938</ele>
        <time>2012-10-14T09:15:36.680Z</time>
      </trkpt>
      <trkpt lat="43.39743" lon="6.65035">
        <ele>235.997</ele>
        <time>2012-10-14T09:15:43.438Z</time>
      </trkpt>
      <trkpt lat="43.39752" lon="6.6503">
        <ele>237.364</ele>
        <time>2012-10-14T09:15:50.327Z</time>
      </trkpt>
      <trkpt lat="43.3976" lon="6.65023">
        <ele>239.097</ele>
        <time>2012-10-14T09:15:57.088Z</time>
      </trkpt>
      <trkpt lat="43.39768" lon="6.65016">
        <ele>240.811</ele>
        <time>2012-10-14T09:16:04.459Z</time>
      </trkpt>
      <trkpt lat="43.39777" lon="6.65011">
        <ele>242.097</ele>
        <time>2012-10-14T09:16:11.546Z</time>
      </trkpt>
      <trkpt lat="43.39786" lon="6.65009">
        <ele>243.096</ele>
        <time>2012-10-14T09:16:19.202Z</time>
      </trkpt>
      <trkpt lat="43.39796" lon="6.65007">
        <ele>244.336</ele>
        <time>2012-10-14T09:16:27.525Z</time>
      </trkpt>
      <trkpt lat="43.39805" lon="6.65005">
        <ele>245.928</ele>
        <time>2012-10-14T09:16:35.303Z</time>
      </trkpt>
      <trkpt lat="43.39814" lon="6.65003">
        <ele>247.266</ele>
        <time>2012-10-14T09:16:42.863Z</time>
      </trkpt>
      <trkpt lat="43.39823" lon="6.65">
        <ele>248.354</ele>
        <time>2012-10-14T09:16:50.518Z</time>
      </trkpt>
      <trkpt lat="43.39832" lon="6.64997">
        <ele>249.622</ele>
        <time>2012-10-14T09:16:58.391Z</time>
      </trkpt>
      <trkpt lat="43.39841" lon="6.64992">
        <ele>250.762</ele>
        <time>2012-10-14T09:17:06.004Z</time>
      </trkpt>
      <trkpt lat="43.39849" lon="6.64987">
        <ele>252.132</ele>
        <time>2012-10-14T09:17:13.373Z</time>
      </trkpt>
      <trkpt lat="43.39858" lon="6.6498">
        <ele>254.372</ele>
        <time>2012-10-14T09:17:21.067Z</time>
      </trkpt>
      <trkpt lat="43.39866" lon="6.64974">
        <ele>256.55</ele>
        <time>2012-10-14T09:17:28.753Z</time>
      </trkpt>
      <trkpt lat="43.39875" lon="6.64969">
        <ele>258.075</ele>
        <time>2012-10-14T09:17:36.977Z</time>
      </trkpt>
      <trkpt lat="43.39885" lon="6.64965">
        <ele>259.458</ele>
        <time>2012-10-14T09:17:44.715Z</time>
      </trkpt>
      <trkpt lat="43.39894" lon="6.64963">
        <ele>260.907</ele>
        <time>2012-10-14T09:17:52.100Z</time>
      </trkpt>
      <trkpt lat="43.39903" lon="6.64959">
        <ele>262.672</ele>
        <time>2012-10-14T09:17:59.957Z</time>
      </trkpt>
      <trkpt lat="43.39913" lon="6.64956">
        <ele>264.83</ele>
        <time>2012-10-14T09:18:07.943Z</time>
      </trkpt>
      <trkpt lat="43.39921" lon="6.64952">
        <ele>267.115</ele>
        <time>2012-10-14T09:18:17.344Z</time>
      </trkpt>
      <trkpt lat="43.3993" lon="6.64945">
        <ele>269.319</ele>
        <time>2012-10-14T09:18:27.600Z</time>
      </trkpt>
      <trkpt lat="43.39937" lon="6.64939">
        <ele>271.148</ele>
        <time>2012-10-14T09:18:40.732Z</time>
      </trkpt>
      <trkpt lat="43.39946" lon="6.64935">
        <ele>272.468</ele>
        <time>2012-10-14T09:18:52.650Z</time>
      </trkpt>
      <trkpt lat="43.39955" lon="6.64935">
        <ele>273.317</ele>
        <time>2012-10-14T09:19:03.525Z</time>
      </trkpt>
      <trkpt lat="43.39965" lon="6.64935">
        <ele>274.234</ele>
        <time>2012-10-14T09:19:14.590Z</time>
      </trkpt>
      <trkpt lat="43.39974" lon="6.64936">
        <ele>276.235</ele>
        <time>2012-10-14T09:19:26.208Z</time>
      </trkpt>
      <trkpt lat="43.39983" lon="6.64939">
        <ele>279.029</ele>
        <time>2012-10-14T09:19:37.152Z</time>
      </trkpt>
      <trkpt lat="43.39993" lon="6.64942">
        <ele>281.657</ele>
        <time>2012-10-14T09:19:48.391Z</time>
      </trkpt>
      <trkpt lat="43.40003" lon="6.6494">
        <ele>284.024</ele>
        <time>2012-10-14T09:19:59.762Z</time>
      </trkpt>
      <trkpt lat="43.40013" lon="6.64938">
        <ele>285.954</ele>
        <time>2012-10-14T09:20:10.628Z</time>
      </trkpt>
      <trkpt lat="43.40022" lon="6.64935">
        <ele>287.179</ele>
        <time>2012-10-14T09:20:21.105Z</time>
      </trkpt>
      <trkpt lat="43.40031" lon="6.64929">
        <ele>288.029</ele>
        <time>2012-10-14T09:20:31.162Z</time>
      </trkpt>
      <trkpt lat="43.40038" lon="6.64922">
        <ele>288.992</ele>
        <time>2012-10-14T09:20:41.751Z</time>
      </trkpt>
      <trkpt lat="43.40046" lon="6.64914">
        <ele>290.237</ele>
        <time>2012-10-14T09:20:52.987Z</time>
      </trkpt>
      <trkpt lat="43.40046" lon="6.64914">
        <ele>291.365</ele>
        <time>2012-10-14T09:21:11.989Z</time>
      </trkpt>
      <trkpt lat="43.40046" lon="6.64914">
        <ele>291.923</ele>
        <time>2012-10-14T09:21:12.089Z</time>
      </trkpt>
      <trkpt lat="43.40067" lon="6.64893">
        <ele>292.475</ele>
        <time>2012-10-14T09:21:47.727Z</time>
      </trkpt>
      <trkpt lat="43.40075" lon="6.64886">
        <ele>294.171</ele>
        <time>2012-10-14T09:21:54.192Z</time>
      </trkpt>
      <trkpt lat="43.40083" lon="6.6488">
        <ele>297.166</ele>
        <time>2012-10-14T09:21:59.992Z</time>
      </trkpt>
      <trkpt lat="43.40083" lon="6.6488">
        <ele>300.116</ele>
        <time>2012-10-14T09:22:17.012Z</time>
      </trkpt>
      <trkpt lat="43.40083" lon="6.6488">
        <ele>301.53</ele>
        <time>2012-10-14T09:27:21.775Z</time>
      </trkpt>
      <trkpt lat="43.40104" lon="6.64868">
        <ele>302.012</ele>
        <time>2012-10-14T09:27:49.694Z</time>
      </trkpt>
      <trkpt lat="43.40111" lon="6.64861">
        <ele>303.626</ele>
        <time>2012-10-14T09:27:55.122Z</time>
      </trkpt>
      <trkpt lat="43.40118" lon="6.64852">
        <ele>306.437</ele>
        <time>2012-10-14T09:27:59.738Z</time>
      </trkpt>
      <trkpt lat="43.40124" lon="6.64843">
        <ele>308.603</ele>
        <time>2012-10-14T09:28:03.701Z</time>
      </trkpt>
      <trkpt lat="43.40131" lon="6.6483">
        <ele>309.365</ele>
        <time>2012-10-14T09:28:07.695Z</time>
      </trkpt>
      <trkpt lat="43.40138" lon="6.64818">
        <ele>309.239</ele>
        <time>2012-10-14T09:28:10.597Z</time>
      </trkpt>
      <trkpt lat="43.40146" lon="6.64804">
        <ele>308.895</ele>
        <time>2012-10-14T09:28:13.562Z</time>
      </trkpt>
      <trkpt lat="43.40153" lon="6.64793">
        <ele>308.612</ele>
        <time>2012-10-14T09:28:15.668Z</time>
      </trkpt>
      <trkpt lat="43.40167" lon="6.64777">
        <ele>308.362</ele>
        <time>2012-10-14T09:28:18.854Z</time>
      </trkpt>
      <trkpt lat="43.40187" lon="6.64763">
        <ele>308.006</ele>
        <time>2012-10-14T09:28:22.065Z</time>
      </trkpt>
      <trkpt lat="43.40212" lon="6.64759">
        <ele>307.495</ele>
        <time>2012-10-14T09:28:25.178Z</time>
      </trkpt>
      <trkpt lat="43.40238" lon="6.64756">
        <ele>306.995</ele>
        <time>2012-10-14T09:28:28.672Z</time>
      </trkpt>
      <trkpt lat="43.40255" lon="6.64753">
        <ele>306.61</ele>
        <time>2012-10-14T09:28:31.344Z</time>
      </trkpt>
      <trkpt lat="43.4027" lon="6.6475">
        <ele>306.276</ele>
        <time>2012-10-14T09:28:33.840Z</time>
      </trkpt>
      <trkpt lat="43.40284" lon="6.64748">
        <ele>305.962</ele>
        <time>2012-10-14T09:28:35.898Z</time>
      </trkpt>
      <trkpt lat="43.40295" lon="6.64745">
        <ele>305.675</ele>
        <time>2012-10-14T09:28:37.439Z</time>
      </trkpt>
      <trkpt lat="43.40312" lon="6.64741">
        <ele>305.478</ele>
        <time>2012-10-14T09:28:39.483Z</time>
      </trkpt>
      <trkpt lat="43.40324" lon="6.6474">
        <ele>305.414</ele>
        <time>2012-10-14T09:28:40.815Z</time>
      </trkpt>
      <trkpt lat="43.40344" lon="6.64743">
        <ele>305.43</ele>
        <time>2012-10-14T09:28:43.065Z</time>
      </trkpt>
      <trkpt lat="43.40361" lon="6.64748">
        <ele>305.536</ele>
        <time>2012-10-14T09:28:45.025Z</time>
      </trkpt>
      <trkpt lat="43.40387" lon="6.64759">
        <ele>305.76</ele>
        <time>2012-10-14T09:28:48.453Z</time>
      </trkpt>
      <trkpt lat="43.40402" lon="6.64765">
        <ele>306.009</ele>
        <time>2012-10-14T09:28:50.511Z</time>
      </trkpt>
      <trkpt lat="43.40423" lon="6.64773">
        <ele>306.122</ele>
        <time>2012-10-14T09:28:53.154Z</time>
      </trkpt>
      <trkpt lat="43.40444" lon="6.64778">
        <ele>306.074</ele>
        <time>2012-10-14T09:28:55.688Z</time>
      </trkpt>
      <trkpt lat="43.40459" lon="6.64781">
        <ele>305.972</ele>
        <time>2012-10-14T09:28:57.474Z</time>
      </trkpt>
      <trkpt lat="43.40475" lon="6.64784">
        <ele>305.515</ele>
        <time>2012-10-14T09:28:59.240Z</time>
      </trkpt>
      <trkpt lat="43.40498" lon="6.64789">
        <ele>304.007</ele>
        <time>2012-10-14T09:29:01.877Z</time>
      </trkpt>
      <trkpt lat="43.40523" lon="6.64792">
        <ele>301.75</ele>
        <time>2012-10-14T09:29:04.746Z</time>
      </trkpt>
      <trkpt lat="43.40539" lon="6.64794">
        <ele>300.018</ele>
        <time>2012-10-14T09:29:06.680Z</time>
      </trkpt>
      <trkpt lat="43.40562" lon="6.64798">
        <ele>299.36</ele>
        <time>2012-10-14T09:29:09.549Z</time>
      </trkpt>
      <trkpt lat="43.40584" lon="6.64804">
        <ele>299.368</ele>
        <time>2012-10-14T09:29:12.637Z</time>
      </trkpt>
      <trkpt lat="43.40597" lon="6.64807">
        <ele>299.724</ele>
        <time>2012-10-14T09:29:14.771Z</time>
      </trkpt>
      <trkpt lat="43.40616" lon="6.6481">
        <ele>300.271</ele>
        <time>2012-10-14T09:29:17.793Z</time>
      </trkpt>
      <trkpt lat="43.40627" lon="6.64812">
        <ele>300.741</ele>
        <time>2012-10-14T09:29:19.782Z</time>
      </trkpt>
      <trkpt lat="43.40644" lon="6.64815">
        <ele>300.948</ele>
        <time>2012-10-14T09:29:22.863Z</time>
      </trkpt>
      <trkpt lat="43.4066" lon="6.64818">
        <ele>300.971</ele>
        <time>2012-10-14T09:29:26.065Z</time>
      </trkpt>
      <trkpt lat="43.40675" lon="6.64822">
        <ele>300.767</ele>
        <time>2012-10-14T09:29:29.312Z</time>
      </trkpt>
      <trkpt lat="43.40683" lon="6.64824">
        <ele>300.077</ele>
        <time>2012-10-14T09:29:31.551Z</time>
      </trkpt>
      <trkpt lat="43.40695" lon="6.64829">
        <ele>299.007</ele>
        <time>2012-10-14T09:29:34.661Z</time>
      </trkpt>
      <trkpt lat="43.40706" lon="6.64833">
        <ele>298.129</ele>
        <time>2012-10-14T09:29:37.211Z</time>
      </trkpt>
      <trkpt lat="43.40715" lon="6.64837">
        <ele>297.752</ele>
        <time>2012-10-14T09:29:39.390Z</time>
      </trkpt>
      <trkpt lat="43.40727" lon="6.64843">
        <ele>297.718</ele>
        <time>2012-10-14T09:29:42.207Z</time>
      </trkpt>
      <trkpt lat="43.40735" lon="6.6485">
        <ele>298.133</ele>
        <time>2012-10-14T09:29:44.676Z</time>
      </trkpt>
      <trkpt lat="43.40744" lon="6.6486">
        <ele>299.207</ele>
        <time>2012-10-14T09:29:48.083Z</time>
      </trkpt>
      <trkpt lat="43.40751" lon="6.64871">
        <ele>300.484</ele>
        <time>2012-10-14T09:29:51.516Z</time>
      </trkpt>
      <trkpt lat="43.40758" lon="6.64883">
        <ele>301.277</ele>
        <time>2012-10-14T09:29:56.012Z</time>
      </trkpt>
      <trkpt lat="43.40764" lon="6.64892">
        <ele>301.527</ele>
        <time>2012-10-14T09:30:00.257Z</time>
      </trkpt>
      <trkpt lat="43.4077" lon="6.64903">
        <ele>301.522</ele>
        <time>2012-10-14T09:30:05.337Z</time>
      </trkpt>
      <trkpt lat="43.40775" lon="6.64916">
        <ele>301.465</ele>
        <time>2012-10-14T09:30:10.784Z</time>
      </trkpt>
      <trkpt lat="43.40778" lon="6.64927">
        <ele>301.424</ele>
        <time>2012-10-14T09:30:15.673Z</time>
      </trkpt>
      <trkpt lat="43.40781" lon="6.64942">
        <ele>301.532</ele>
        <time>2012-10-14T09:30:21.314Z</time>
      </trkpt>
      <trkpt lat="43.40784" lon="6.64954">
        <ele>301.9</ele>
        <time>2012-10-14T09:30:25.914Z</time>
      </trkpt>
      <trkpt lat="43.40786" lon="6.64968">
        <ele>302.404</ele>
        <time>2012-10-14T09:30:30.687Z</time>
      </trkpt>
      <trkpt lat="43.40787" lon="6.64981">
        <ele>302.895</ele>
        <time>2012-10-14T09:30:34.624Z</time>
      </trkpt>
      <trkpt lat="43.40788" lon="6.64994">
        <ele>303.488</ele>
        <time>2012-10-14T09:30:38.126Z</time>
      </trkpt>
      <trkpt lat="43.40788" lon="6.65011">
        <ele>304.24</ele>
        <time>2012-10-14T09:30:42.042Z</time>
      </trkpt>
      <trkpt lat="43.40789" lon="6.65024">
        <ele>304.915</ele>
        <time>2012-10-14T09:30:44.894Z</time>
      </trkpt>
      <trkpt lat="43.4079" lon="6.6504">
        <ele>305.286</ele>
        <time>2012-10-14T09:30:48.459Z</time>
      </trkpt>
      <trkpt lat="43.40791" lon="6.65053">
        <ele>305.462</ele>
        <time>2012-10-14T09:30:51.220Z</time>
      </trkpt>
      <trkpt lat="43.40792" lon="6.65066">
        <ele>305.764</ele>
        <time>2012-10-14T09:30:53.910Z</time>
      </trkpt>
      <trkpt lat="43.40794" lon="6.65079">
        <ele>306.272</ele>
        <time>2012-10-14T09:30:56.573Z</time>
      </trkpt>
      <trkpt lat="43.40795" lon="6.65094">
        <ele>306.708</ele>
        <time>2012-10-14T09:30:58.883Z</time>
      </trkpt>
      <trkpt lat="43.40797" lon="6.65115">
        <ele>306.891</ele>
        <time>2012-10-14T09:31:01.776Z</time>
      </trkpt>
      <trkpt lat="43.40799" lon="6.65141">
        <ele>306.904</ele>
        <time>2012-10-14T09:31:04.900Z</time>
      </trkpt>
      <trkpt lat="43.408" lon="6.65169">
        <ele>306.862</ele>
        <time>2012-10-14T09:31:08.178Z</time>
      </trkpt>
      <trkpt lat="43.4081" lon="6.65187">
        <ele>306.63</ele>
        <time>2012-10-14T09:31:11.516Z</time>
      </trkpt>
      <trkpt lat="43.4082" lon="6.65193">
        <ele>306.103</ele>
        <time>2012-10-14T09:31:15.024Z</time>
      </trkpt>
      <trkpt lat="43.40828" lon="6.65185">
        <ele>305.575</ele>
        <time>2012-10-14T09:31:19.546Z</time>
      </trkpt>
      <trkpt lat="43.40827" lon="6.65173">
        <ele>305.291</ele>
        <time>2012-10-14T09:31:25.219Z</time>
      </trkpt>
      <trkpt lat="43.40824" lon="6.65161">
        <ele>305.195</ele>
        <time>2012-10-14T09:31:32.016Z</time>
      </trkpt>
      <trkpt lat="43.40824" lon="6.65161">
        <ele>305.16</ele>
        <time>2012-10-14T09:31:35.046Z</time>
      </trkpt>
      <trkpt lat="43.40824" lon="6.65161">
        <ele>305.058</ele>
        <time>2012-10-14T09:31:35.146Z</time>
      </trkpt>
      <trkpt lat="43.40825" lon="6.65131">
        <ele>304.996</ele>
        <time>2012-10-14T09:32:06.547Z</time>
      </trkpt>
      <trkpt lat="43.40831" lon="6.65119">
        <ele>305.128</ele>
        <time>2012-10-14T09:32:16.043Z</time>
      </trkpt>
      <trkpt lat="43.40836" lon="6.65107">
        <ele>305.326</ele>
        <time>2012-10-14T09:32:24.961Z</time>
      </trkpt>
      <trkpt lat="43.4084" lon="6.65095">
        <ele>305.832</ele>
        <time>2012-10-14T09:32:34.384Z</time>
      </trkpt>
      <trkpt lat="43.40844" lon="6.65083">
        <ele>307.905</ele>
        <time>2012-10-14T09:32:42.763Z</time>
      </trkpt>
      <trkpt lat="43.40848" lon="6.65071">
        <ele>311.784</ele>
        <time>2012-10-14T09:32:51.333Z</time>
      </trkpt>
      <trkpt lat="43.40849" lon="6.65058">
        <ele>315.509</ele>
        <time>2012-10-14T09:32:59.239Z</time>
      </trkpt>
      <trkpt lat="43.40849" lon="6.65044">
        <ele>317.766</ele>
        <time>2012-10-14T09:33:07.091Z</time>
      </trkpt>
      <trkpt lat="43.40848" lon="6.65031">
        <ele>319.147</ele>
        <time>2012-10-14T09:33:13.329Z</time>
      </trkpt>
      <trkpt lat="43.40845" lon="6.65017">
        <ele>320.113</ele>
        <time>2012-10-14T09:33:18.697Z</time>
      </trkpt>
      <trkpt lat="43.40841" lon="6.65003">
        <ele>320.777</ele>
        <time>2012-10-14T09:33:22.140Z</time>
      </trkpt>
      <trkpt lat="43.4084" lon="6.64989">
        <ele>321.4</ele>
        <time>2012-10-14T09:33:24.521Z</time>
      </trkpt>
      <trkpt lat="43.40841" lon="6.64966">
        <ele>322.006</ele>
        <time>2012-10-14T09:33:28.447Z</time>
      </trkpt>
      <trkpt lat="43.40845" lon="6.64954">
        <ele>322.419</ele>
        <time>2012-10-14T09:33:30.860Z</time>
      </trkpt>
      <trkpt lat="43.40847" lon="6.6494">
        <ele>322.596</ele>
        <time>2012-10-14T09:33:33.480Z</time>
      </trkpt>
      <trkpt lat="43.40838" lon="6.6493">
        <ele>322.612</ele>
        <time>2012-10-14T09:33:36.056Z</time>
      </trkpt>
      <trkpt lat="43.40826" lon="6.64924">
        <ele>322.557</ele>
        <time>2012-10-14T09:33:38.701Z</time>
      </trkpt>
      <trkpt lat="43.40816" lon="6.64918">
        <ele>321.877</ele>
        <time>2012-10-14T09:33:40.754Z</time>
      </trkpt>
      <trkpt lat="43.40804" lon="6.64903">
        <ele>320.112</ele>
        <time>2012-10-14T09:33:43.860Z</time>
      </trkpt>
      <trkpt lat="43.40799" lon="6.64892">
        <ele>317.978</ele>
        <time>2012-10-14T09:33:45.840Z</time>
      </trkpt>
      <trkpt lat="43.40797" lon="6.64872">
        <ele>316.393</ele>
        <time>2012-10-14T09:33:48.711Z</time>
      </trkpt>
      <trkpt lat="43.408" lon="6.64852">
        <ele>315.332</ele>
        <time>2012-10-14T09:33:51.632Z</time>
      </trkpt>
      <trkpt lat="43.40802" lon="6.64831">
        <ele>314.375</ele>
        <time>2012-10-14T09:33:54.781Z</time>
      </trkpt>
      <trkpt lat="43.40803" lon="6.64818">
        <ele>313.422</ele>
        <time>2012-10-14T09:33:56.912Z</time>
      </trkpt>
      <trkpt lat="43.40799" lon="6.64806">
        <ele>312.538</ele>
        <time>2012-10-14T09:33:59.320Z</time>
      </trkpt>
      <trkpt lat="43.40787" lon="6.64797">
        <ele>311.567</ele>
        <time>2012-10-14T09:34:02.205Z</time>
      </trkpt>
      <trkpt lat="43.40779" lon="6.64788">
        <ele>310.527</ele>
        <time>2012-10-14T09:34:04.199Z</time>
      </trkpt>
      <trkpt lat="43.4077" lon="6.6478">
        <ele>309.697</ele>
        <time>2012-10-14T09:34:06.241Z</time>
      </trkpt>
      <trkpt lat="43.40762" lon="6.64772">
        <ele>309.235</ele>
        <time>2012-10-14T09:34:08.298Z</time>
      </trkpt>
      <trkpt lat="43.4075" lon="6.64762">
        <ele>309.111</ele>
        <time>2012-10-14T09:34:11.160Z</time>
      </trkpt>
      <trkpt lat="43.40743" lon="6.64755">
        <ele>309.163</ele>
        <time>2012-10-14T09:34:13.155Z</time>
      </trkpt>
      <trkpt lat="43.40733" lon="6.64745">
        <ele>309.29</ele>
        <time>2012-10-14T09:34:15.835Z</time>
      </trkpt>
      <trkpt lat="43.40726" lon="6.64736">
        <ele>309.503</ele>
        <time>2012-10-14T09:34:17.651Z</time>
      </trkpt>
      <trkpt lat="43.40715" lon="6.64721">
        <ele>309.987</ele>
        <time>2012-10-14T09:34:20.808Z</time>
      </trkpt>
      <trkpt lat="43.40704" lon="6.64714">
        <ele>310.743</ele>
        <time>2012-10-14T09:34:23.454Z</time>
      </trkpt>
      <trkpt lat="43.40695" lon="6.64724">
        <ele>311.382</ele>
        <time>2012-10-14T09:34:25.792Z</time>
      </trkpt>
      <trkpt lat="43.40685" lon="6.64736">
        <ele>311.439</ele>
        <time>2012-10-14T09:34:27.924Z</time>
      </trkpt>
      <trkpt lat="43.40673" lon="6.6475">
        <ele>310.829</ele>
        <time>2012-10-14T09:34:30.089Z</time>
      </trkpt>
      <trkpt lat="43.40655" lon="6.64767">
        <ele>309.935</ele>
        <time>2012-10-14T09:34:33.056Z</time>
      </trkpt>
      <trkpt lat="43.40633" lon="6.64761">
        <ele>309.166</ele>
        <time>2012-10-14T09:34:36.069Z</time>
      </trkpt>
      <trkpt lat="43.40613" lon="6.64742">
        <ele>308.621</ele>
        <time>2012-10-14T09:34:39.267Z</time>
      </trkpt>
      <trkpt lat="43.40598" lon="6.64734">
        <ele>307.752</ele>
        <time>2012-10-14T09:34:41.936Z</time>
      </trkpt>
      <trkpt lat="43.4059" lon="6.64743">
        <ele>305.449</ele>
        <time>2012-10-14T09:34:44.068Z</time>
      </trkpt>
      <trkpt lat="43.40581" lon="6.64752">
        <ele>301.953</ele>
        <time>2012-10-14T09:34:46.807Z</time>
      </trkpt>
      <trkpt lat="43.4057" lon="6.64748">
        <ele>298.899</ele>
        <time>2012-10-14T09:34:50.060Z</time>
      </trkpt>
      <trkpt lat="43.40561" lon="6.64741">
        <ele>297.144</ele>
        <time>2012-10-14T09:34:54.029Z</time>
      </trkpt>
      <trkpt lat="43.40561" lon="6.64741">
        <ele>296.487</ele>
        <time>2012-10-14T09:34:56.030Z</time>
      </trkpt>
      <trkpt lat="43.40561" lon="6.64741">
        <ele>296.483</ele>
        <time>2012-10-14T09:35:04.917Z</time>
      </trkpt>
      <trkpt lat="43.40547" lon="6.64728">
        <ele>296.656</ele>
        <time>2012-10-14T09:35:16.679Z</time>
      </trkpt>
      <trkpt lat="43.40538" lon="6.64723">
        <ele>296.791</ele>
        <time>2012-10-14T09:35:21.430Z</time>
      </trkpt>
      <trkpt lat="43.40529" lon="6.64721">
        <ele>296.867</ele>
        <time>2012-10-14T09:35:26.556Z</time>
      </trkpt>
      <trkpt lat="43.4052" lon="6.64715">
        <ele>296.971</ele>
        <time>2012-10-14T09:35:32.362Z</time>
      </trkpt>
      <trkpt lat="43.40512" lon="6.64709">
        <ele>297.446</ele>
        <time>2012-10-14T09:35:37.462Z</time>
      </trkpt>
      <trkpt lat="43.40504" lon="6.64704">
        <ele>298.552</ele>
        <time>2012-10-14T09:35:42.583Z</time>
      </trkpt>
      <trkpt lat="43.40495" lon="6.64698">
        <ele>300.062</ele>
        <time>2012-10-14T09:35:47.750Z</time>
      </trkpt>
      <trkpt lat="43.40484" lon="6.64695">
        <ele>301.674</ele>
        <time>2012-10-14T09:35:52.930Z</time>
      </trkpt>
      <trkpt lat="43.40475" lon="6.64692">
        <ele>303.134</ele>
        <time>2012-10-14T09:35:57.482Z</time>
      </trkpt>
      <trkpt lat="43.40464" lon="6.64692">
        <ele>304.218</ele>
        <time>2012-10-14T09:36:03.964Z</time>
      </trkpt>
      <trkpt lat="43.40455" lon="6.64689">
        <ele>304.85</ele>
        <time>2012-10-14T09:36:10.354Z</time>
      </trkpt>
      <trkpt lat="43.40447" lon="6.64682">
        <ele>305.101</ele>
        <time>2012-10-14T09:36:18.092Z</time>
      </trkpt>
      <trkpt lat="43.40437" lon="6.64676">
        <ele>305.356</ele>
        <time>2012-10-14T09:36:26.030Z</time>
      </trkpt>
      <trkpt lat="43.40429" lon="6.64671">
        <ele>305.896</ele>
        <time>2012-10-14T09:36:32.983Z</time>
      </trkpt>
      <trkpt lat="43.4042" lon="6.64668">
        <ele>306.465</ele>
        <time>2012-10-14T09:36:39.062Z</time>
      </trkpt>
      <trkpt lat="43.40411" lon="6.64667">
        <ele>306.884</ele>
        <time>2012-10-14T09:36:43.801Z</time>
      </trkpt>
      <trkpt lat="43.40402" lon="6.64664">
        <ele>307.308</ele>
        <time>2012-10-14T09:36:48.702Z</time>
      </trkpt>
      <trkpt lat="43.40392" lon="6.64661">
        <ele>307.902</ele>
        <time>2012-10-14T09:36:55.140Z</time>
      </trkpt>
      <trkpt lat="43.40383" lon="6.6466">
        <ele>308.547</ele>
        <time>2012-10-14T09:37:01.145Z</time>
      </trkpt>
      <trkpt lat="43.40373" lon="6.6466">
        <ele>309.083</ele>
        <time>2012-10-14T09:37:07.708Z</time>
      </trkpt>
      <trkpt lat="43.40364" lon="6.64661">
        <ele>309.699</ele>
        <time>2012-10-14T09:37:13.922Z</time>
      </trkpt>
      <trkpt lat="43.40355" lon="6.64665">
        <ele>310.782</ele>
        <time>2012-10-14T09:37:19.433Z</time>
      </trkpt>
      <trkpt lat="43.40347" lon="6.64671">
        <ele>312.263</ele>
        <time>2012-10-14T09:37:23.315Z</time>
      </trkpt>
      <trkpt lat="43.40338" lon="6.64675">
        <ele>313.882</ele>
        <time>2012-10-14T09:37:27.740Z</time>
      </trkpt>
      <trkpt lat="43.40326" lon="6.64677">
        <ele>315.521</ele>
        <time>2012-10-14T09:37:33.507Z</time>
      </trkpt>
      <trkpt lat="43.40317" lon="6.64676">
        <ele>316.861</ele>
        <time>2012-10-14T09:37:40.898Z</time>
      </trkpt>
      <trkpt lat="43.40307" lon="6.64673">
        <ele>317.554</ele>
        <time>2012-10-14T09:37:47.774Z</time>
      </trkpt>
      <trkpt lat="43.40297" lon="6.6467">
        <ele>317.728</ele>
        <time>2012-10-14T09:37:54.718Z</time>
      </trkpt>
      <trkpt lat="43.40287" lon="6.64667">
        <ele>318.354</ele>
        <time>2012-10-14T09:38:01.339Z</time>
      </trkpt>
      <trkpt lat="43.40277" lon="6.64658">
        <ele>320.106</ele>
        <time>2012-10-14T09:38:08.350Z</time>
      </trkpt>
      <trkpt lat="43.40267" lon="6.64652">
        <ele>322.214</ele>
        <time>2012-10-14T09:38:13.324Z</time>
      </trkpt>
      <trkpt lat="43.40257" lon="6.64646">
        <ele>323.704</ele>
        <time>2012-10-14T09:38:17.380Z</time>
      </trkpt>
      <trkpt lat="43.40248" lon="6.64645">
        <ele>324.504</ele>
        <time>2012-10-14T09:38:20.597Z</time>
      </trkpt>
      <trkpt lat="43.40238" lon="6.64645">
        <ele>324.943</ele>
        <time>2012-10-14T09:38:24.141Z</time>
      </trkpt>
      <trkpt lat="43.40228" lon="6.64644">
        <ele>325.395</ele>
        <time>2012-10-14T09:38:27.244Z</time>
      </trkpt>
      <trkpt lat="43.40219" lon="6.64644">
        <ele>325.782</ele>
        <time>2012-10-14T09:38:30.392Z</time>
      </trkpt>
      <trkpt lat="43.40207" lon="6.64645">
        <ele>325.856</ele>
        <time>2012-10-14T09:38:34.311Z</time>
      </trkpt>
      <trkpt lat="43.40198" lon="6.64646">
        <ele>325.709</ele>
        <time>2012-10-14T09:38:37.405Z</time>
      </trkpt>
      <trkpt lat="43.40187" lon="6.64647">
        <ele>325.663</ele>
        <time>2012-10-14T09:38:41.037Z</time>
      </trkpt>
      <trkpt lat="43.40176" lon="6.64647">
        <ele>325.81</ele>
        <time>2012-10-14T09:38:44.319Z</time>
      </trkpt>
      <trkpt lat="43.40164" lon="6.64652">
        <ele>325.927</ele>
        <time>2012-10-14T09:38:47.285Z</time>
      </trkpt>
      <trkpt lat="43.40149" lon="6.64659">
        <ele>325.851</ele>
        <time>2012-10-14T09:38:50.376Z</time>
      </trkpt>
      <trkpt lat="43.4014" lon="6.64668">
        <ele>325.688</ele>
        <time>2012-10-14T09:38:52.629Z</time>
      </trkpt>
      <trkpt lat="43.40132" lon="6.64678">
        <ele>325.581</ele>
        <time>2012-10-14T09:38:55.162Z</time>
      </trkpt>
      <trkpt lat="43.40126" lon="6.64688">
        <ele>325.547</ele>
        <time>2012-10-14T09:38:57.775Z</time>
      </trkpt>
      <trkpt lat="43.40119" lon="6.647">
        <ele>325.552</ele>
        <time>2012-10-14T09:39:00.895Z</time>
      </trkpt>
      <trkpt lat="43.4011" lon="6.64706">
        <ele>325.566</ele>
        <time>2012-10-14T09:39:03.873Z</time>
      </trkpt>
      <trkpt lat="43.40101" lon="6.6471">
        <ele>325.795</ele>
        <time>2012-10-14T09:39:06.661Z</time>
      </trkpt>
      <trkpt lat="43.40092" lon="6.64715">
        <ele>326.443</ele>
        <time>2012-10-14T09:39:09.317Z</time>
      </trkpt>
      <trkpt lat="43.40084" lon="6.64726">
        <ele>327.211</ele>
        <time>2012-10-14T09:39:12.312Z</time>
      </trkpt>
      <trkpt lat="43.40075" lon="6.64736">
        <ele>327.851</ele>
        <time>2012-10-14T09:39:15.158Z</time>
      </trkpt>
      <trkpt lat="43.40067" lon="6.64746">
        <ele>328.44</ele>
        <time>2012-10-14T09:39:18.060Z</time>
      </trkpt>
      <trkpt lat="43.40061" lon="6.64756">
        <ele>328.701</ele>
        <time>2012-10-14T09:39:20.647Z</time>
      </trkpt>
      <trkpt lat="43.40055" lon="6.64768">
        <ele>328.401</ele>
        <time>2012-10-14T09:39:23.499Z</time>
      </trkpt>
      <trkpt lat="43.40048" lon="6.64781">
        <ele>327.741</ele>
        <time>2012-10-14T09:39:26.316Z</time>
      </trkpt>
      <trkpt lat="43.40041" lon="6.64797">
        <ele>326.989</ele>
        <time>2012-10-14T09:39:29.357Z</time>
      </trkpt>
      <trkpt lat="43.40037" lon="6.64814">
        <ele>326.499</ele>
        <time>2012-10-14T09:39:32.569Z</time>
      </trkpt>
      <trkpt lat="43.40029" lon="6.64824">
        <ele>326.407</ele>
        <time>2012-10-14T09:39:35.609Z</time>
      </trkpt>
      <trkpt lat="43.40019" lon="6.64824">
        <ele>326.416</ele>
        <time>2012-10-14T09:39:38.328Z</time>
      </trkpt>
      <trkpt lat="43.40009" lon="6.64823">
        <ele>326.376</ele>
        <time>2012-10-14T09:39:40.996Z</time>
      </trkpt>
      <trkpt lat="43.39998" lon="6.64821">
        <ele>326.129</ele>
        <time>2012-10-14T09:39:44.024Z</time>
      </trkpt>
      <trkpt lat="43.39984" lon="6.64823">
        <ele>325.49</ele>
        <time>2012-10-14T09:39:47.408Z</time>
      </trkpt>
      <trkpt lat="43.39976" lon="6.64828">
        <ele>324.071</ele>
        <time>2012-10-14T09:39:49.691Z</time>
      </trkpt>
      <trkpt lat="43.39966" lon="6.64834">
        <ele>321.395</ele>
        <time>2012-10-14T09:39:52.002Z</time>
      </trkpt>
      <trkpt lat="43.39955" lon="6.64837">
        <ele>317.791</ele>
        <time>2012-10-14T09:39:54.741Z</time>
      </trkpt>
      <trkpt lat="43.39943" lon="6.64838">
        <ele>314.091</ele>
        <time>2012-10-14T09:39:57.650Z</time>
      </trkpt>
      <trkpt lat="43.39931" lon="6.64842">
        <ele>310.648</ele>
        <time>2012-10-14T09:40:00.473Z</time>
      </trkpt>
      <trkpt lat="43.39915" lon="6.6484">
        <ele>307.431</ele>
        <time>2012-10-14T09:40:03.579Z</time>
      </trkpt>
      <trkpt lat="43.39896" lon="6.64844">
        <ele>304.317</ele>
        <time>2012-10-14T09:40:07.092Z</time>
      </trkpt>
      <trkpt lat="43.39882" lon="6.64853">
        <ele>301.323</ele>
        <time>2012-10-14T09:40:10.828Z</time>
      </trkpt>
      <trkpt lat="43.39877" lon="6.64867">
        <ele>298.593</ele>
        <time>2012-10-14T09:40:13.954Z</time>
      </trkpt>
      <trkpt lat="43.39871" lon="6.64878">
        <ele>295.915</ele>
        <time>2012-10-14T09:40:16.924Z</time>
      </trkpt>
      <trkpt lat="43.39862" lon="6.64883">
        <ele>293.33</ele>
        <time>2012-10-14T09:40:19.782Z</time>
      </trkpt>
      <trkpt lat="43.39855" lon="6.64892">
        <ele>291.179</ele>
        <time>2012-10-14T09:40:22.487Z</time>
      </trkpt>
      <trkpt lat="43.39849" lon="6.64905">
        <ele>289.149</ele>
        <time>2012-10-14T09:40:25.520Z</time>
      </trkpt>
      <trkpt lat="43.39842" lon="6.64916">
        <ele>286.709</ele>
        <time>2012-10-14T09:40:28.543Z</time>
      </trkpt>
      <trkpt lat="43.39833" lon="6.64922">
        <ele>283.811</ele>
        <time>2012-10-14T09:40:30.864Z</time>
      </trkpt>
      <trkpt lat="43.39819" lon="6.6493">
        <ele>280.71</ele>
        <time>2012-10-14T09:40:33.632Z</time>
      </trkpt>
      <trkpt lat="43.39808" lon="6.64945">
        <ele>278.15</ele>
        <time>2012-10-14T09:40:36.740Z</time>
      </trkpt>
      <trkpt lat="43.39798" lon="6.64957">
        <ele>276.271</ele>
        <time>2012-10-14T09:40:39.542Z</time>
      </trkpt>
      <trkpt lat="43.39788" lon="6.6496">
        <ele>273.838</ele>
        <time>2012-10-14T09:40:41.744Z</time>
      </trkpt>
      <trkpt lat="43.39779" lon="6.64963">
        <ele>270.559</ele>
        <time>2012-10-14T09:40:43.923Z</time>
      </trkpt>
      <trkpt lat="43.39767" lon="6.64963">
        <ele>267.69</ele>
        <time>2012-10-14T09:40:46.343Z</time>
      </trkpt>
      <trkpt lat="43.39757" lon="6.64965">
        <ele>265.783</ele>
        <time>2012-10-14T09:40:48.146Z</time>
      </trkpt>
      <trkpt lat="43.39741" lon="6.64973">
        <ele>264.529</ele>
        <time>2012-10-14T09:40:51.207Z</time>
      </trkpt>
      <trkpt lat="43.39726" lon="6.64984">
        <ele>263.324</ele>
        <time>2012-10-14T09:40:53.958Z</time>
      </trkpt>
      <trkpt lat="43.39715" lon="6.64993">
        <ele>261.027</ele>
        <time>2012-10-14T09:40:55.878Z</time>
      </trkpt>
      <trkpt lat="43.39703" lon="6.65002">
        <ele>257.557</ele>
        <time>2012-10-14T09:40:57.979Z</time>
      </trkpt>
      <trkpt lat="43.39688" lon="6.65018">
        <ele>254.099</ele>
        <time>2012-10-14T09:41:00.952Z</time>
      </trkpt>
      <trkpt lat="43.39679" lon="6.6503">
        <ele>251.606</ele>
        <time>2012-10-14T09:41:02.853Z</time>
      </trkpt>
      <trkpt lat="43.39664" lon="6.65045">
        <ele>250.376</ele>
        <time>2012-10-14T09:41:05.777Z</time>
      </trkpt>
      <trkpt lat="43.39653" lon="6.65056">
        <ele>250.092</ele>
        <time>2012-10-14T09:41:08.297Z</time>
      </trkpt>
      <trkpt lat="43.39642" lon="6.65066">
        <ele>250.066</ele>
        <time>2012-10-14T09:41:11.317Z</time>
      </trkpt>
      <trkpt lat="43.3963" lon="6.65062">
        <ele>249.96</ele>
        <time>2012-10-14T09:41:14.218Z</time>
      </trkpt>
      <trkpt lat="43.39619" lon="6.6506">
        <ele>249.277</ele>
        <time>2012-10-14T09:41:16.880Z</time>
      </trkpt>
      <trkpt lat="43.39605" lon="6.65057">
        <ele>246.994</ele>
        <time>2012-10-14T09:41:20.335Z</time>
      </trkpt>
      <trkpt lat="43.39596" lon="6.65065">
        <ele>243.359</ele>
        <time>2012-10-14T09:41:22.759Z</time>
      </trkpt>
      <trkpt lat="43.39582" lon="6.65072">
        <ele>239.766</ele>
        <time>2012-10-14T09:41:25.855Z</time>
      </trkpt>
      <trkpt lat="43.39571" lon="6.65076">
        <ele>236.994</ele>
        <time>2012-10-14T09:41:28.039Z</time>
      </trkpt>
      <trkpt lat="43.39561" lon="6.65079">
        <ele>235.308</ele>
        <time>2012-10-14T09:41:30.172Z</time>
      </trkpt>
      <trkpt lat="43.39549" lon="6.65093">
        <ele>234.597</ele>
        <time>2012-10-14T09:41:33.430Z</time>
      </trkpt>
      <trkpt lat="43.39539" lon="6.65108">
        <ele>233.911</ele>
        <time>2012-10-14T09:41:36.517Z</time>
      </trkpt>
      <trkpt lat="43.39525" lon="6.65111">
        <ele>232.245</ele>
        <time>2012-10-14T09:41:39.300Z</time>
      </trkpt>
      <trkpt lat="43.39515" lon="6.65108">
        <ele>228.911</ele>
        <time>2012-10-14T09:41:41.639Z</time>
      </trkpt>
      <trkpt lat="43.39503" lon="6.65102">
        <ele>224.502</ele>
        <time>2012-10-14T09:41:45.325Z</time>
      </trkpt>
      <trkpt lat="43.39495" lon="6.65096">
        <ele>220.759</ele>
        <time>2012-10-14T09:41:48.889Z</time>
      </trkpt>
      <trkpt lat="43.39487" lon="6.65089">
        <ele>218.614</ele>
        <time>2012-10-14T09:41:52.649Z</time>
      </trkpt>
      <trkpt lat="43.39478" lon="6.6508">
        <ele>217.406</ele>
        <time>2012-10-14T09:41:56.536Z</time>
      </trkpt>
      <trkpt lat="43.3947" lon="6.65074">
        <ele>216.268</ele>
        <time>2012-10-14T09:41:59.591Z</time>
      </trkpt>
      <trkpt lat="43.3946" lon="6.65068">
        <ele>214.885</ele>
        <time>2012-10-14T09:42:03.456Z</time>
      </trkpt>
      <trkpt lat="43.39452" lon="6.65077">
        <ele>213.177</ele>
        <time>2012-10-14T09:42:07.059Z</time>
      </trkpt>
      <trkpt lat="43.39442" lon="6.6508">
        <ele>211.095</ele>
        <time>2012-10-14T09:42:10.754Z</time>
      </trkpt>
      <trkpt lat="43.39431" lon="6.65087">
        <ele>208.862</ele>
        <time>2012-10-14T09:42:14.290Z</time>
      </trkpt>
      <trkpt lat="43.39418" lon="6.65103">
        <ele>206.083</ele>
        <time>2012-10-14T09:42:17.829Z</time>
      </trkpt>
      <trkpt lat="43.39408" lon="6.65129">
        <ele>202.332</ele>
        <time>2012-10-14T09:42:21.697Z</time>
      </trkpt>
      <trkpt lat="43.39403" lon="6.65157">
        <ele>198.389</ele>
        <time>2012-10-14T09:42:26.015Z</time>
      </trkpt>
      <trkpt lat="43.39399" lon="6.65171">
        <ele>195.065</ele>
        <time>2012-10-14T09:42:28.969Z</time>
      </trkpt>
      <trkpt lat="43.39392" lon="6.65163">
        <ele>192.545</ele>
        <time>2012-10-14T09:42:30.951Z</time>
      </trkpt>
      <trkpt lat="43.39386" lon="6.6515">
        <ele>190.998</ele>
        <time>2012-10-14T09:42:33.102Z</time>
      </trkpt>
      <trkpt lat="43.39377" lon="6.65143">
        <ele>190.25</ele>
        <time>2012-10-14T09:42:35.043Z</time>
      </trkpt>
      <trkpt lat="43.39366" lon="6.65153">
        <ele>189.605</ele>
        <time>2012-10-14T09:42:37.690Z</time>
      </trkpt>
      <trkpt lat="43.39353" lon="6.65168">
        <ele>188.656</ele>
        <time>2012-10-14T09:42:40.850Z</time>
      </trkpt>
      <trkpt lat="43.39348" lon="6.65181">
        <ele>187.76</ele>
        <time>2012-10-14T09:42:42.780Z</time>
      </trkpt>
      <trkpt lat="43.39345" lon="6.65202">
        <ele>187.284</ele>
        <time>2012-10-14T09:42:45.668Z</time>
      </trkpt>
      <trkpt lat="43.39343" lon="6.65225">
        <ele>187.078</ele>
        <time>2012-10-14T09:42:48.641Z</time>
      </trkpt>
      <trkpt lat="43.39328" lon="6.65235">
        <ele>186.923</ele>
        <time>2012-10-14T09:42:51.463Z</time>
      </trkpt>
      <trkpt lat="43.39318" lon="6.65238">
        <ele>186.574</ele>
        <time>2012-10-14T09:42:53.350Z</time>
      </trkpt>
      <trkpt lat="43.39304" lon="6.65249">
        <ele>185.813</ele>
        <time>2012-10-14T09:42:56.575Z</time>
      </trkpt>
      <trkpt lat="43.39298" lon="6.65267">
        <ele>184.405</ele>
        <time>2012-10-14T09:42:59.821Z</time>
      </trkpt>
      <trkpt lat="43.39299" lon="6.65284">
        <ele>182.485</ele>
        <time>2012-10-14T09:43:02.546Z</time>
      </trkpt>
      <trkpt lat="43.39301" lon="6.65303">
        <ele>180.747</ele>
        <time>2012-10-14T09:43:05.279Z</time>
      </trkpt>
      <trkpt lat="43.39297" lon="6.65315">
        <ele>179.532</ele>
        <time>2012-10-14T09:43:06.951Z</time>
      </trkpt>
      <trkpt lat="43.3929" lon="6.65337">
        <ele>178.317</ele>
        <time>2012-10-14T09:43:09.767Z</time>
      </trkpt>
      <trkpt lat="43.39285" lon="6.65356">
        <ele>176.33</ele>
        <time>2012-10-14T09:43:11.801Z</time>
      </trkpt>
      <trkpt lat="43.39274" lon="6.6538">
        <ele>173.571</ele>
        <time>2012-10-14T09:43:14.705Z</time>
      </trkpt>
      <trkpt lat="43.39268" lon="6.65395">
        <ele>170.437</ele>
        <time>2012-10-14T09:43:16.537Z</time>
      </trkpt>
      <trkpt lat="43.39259" lon="6.65423">
        <ele>167.039</ele>
        <time>2012-10-14T09:43:19.617Z</time>
      </trkpt>
      <trkpt lat="43.39253" lon="6.6544">
        <ele>163.795</ele>
        <time>2012-10-14T09:43:21.579Z</time>
      </trkpt>
      <trkpt lat="43.39239" lon="6.65461">
        <ele>160.772</ele>
        <time>2012-10-14T09:43:24.457Z</time>
      </trkpt>
      <trkpt lat="43.39228" lon="6.65471">
        <ele>157.761</ele>
        <time>2012-10-14T09:43:26.489Z</time>
      </trkpt>
      <trkpt lat="43.39212" lon="6.65488">
        <ele>155.318</ele>
        <time>2012-10-14T09:43:29.603Z</time>
      </trkpt>
      <trkpt lat="43.39204" lon="6.65499">
        <ele>153.832</ele>
        <time>2012-10-14T09:43:31.729Z</time>
      </trkpt>
      <trkpt lat="43.39191" lon="6.6551">
        <ele>152.835</ele>
        <time>2012-10-14T09:43:35.072Z</time>
      </trkpt>
      <trkpt lat="43.39182" lon="6.65516">
        <ele>151.981</ele>
        <time>2012-10-14T09:43:38.172Z</time>
      </trkpt>
      <trkpt lat="43.39173" lon="6.65524">
        <ele>151.36</ele>
        <time>2012-10-14T09:43:42.290Z</time>
      </trkpt>
      <trkpt lat="43.39164" lon="6.65532">
        <ele>151.136</ele>
        <time>2012-10-14T09:43:47.684Z</time>
      </trkpt>
      <trkpt lat="43.39157" lon="6.65541">
        <ele>151.138</ele>
        <time>2012-10-14T09:43:53.509Z</time>
      </trkpt>
      <trkpt lat="43.3915" lon="6.65549">
        <ele>151.193</ele>
        <time>2012-10-14T09:43:59.512Z</time>
      </trkpt>
      <trkpt lat="43.39149" lon="6.65561">
        <ele>151.297</ele>
        <time>2012-10-14T09:44:04.845Z</time>
      </trkpt>
      <trkpt lat="43.39156" lon="6.65571">
        <ele>151.844</ele>
        <time>2012-10-14T09:44:09.885Z</time>
      </trkpt>
      <trkpt lat="43.39163" lon="6.65581">
        <ele>153.283</ele>
        <time>2012-10-14T09:44:14.605Z</time>
      </trkpt>
      <trkpt lat="43.39169" lon="6.65593">
        <ele>155.185</ele>
        <time>2012-10-14T09:44:19.211Z</time>
      </trkpt>
      <trkpt lat="43.39169" lon="6.65607">
        <ele>156.554</ele>
        <time>2012-10-14T09:44:24.065Z</time>
      </trkpt>
      <trkpt lat="43.39166" lon="6.65621">
        <ele>157.163</ele>
        <time>2012-10-14T09:44:29.303Z</time>
      </trkpt>
      <trkpt lat="43.39163" lon="6.65633">
        <ele>157.52</ele>
        <time>2012-10-14T09:44:33.741Z</time>
      </trkpt>
      <trkpt lat="43.3916" lon="6.65645">
        <ele>158.056</ele>
        <time>2012-10-14T09:44:38.125Z</time>
      </trkpt>
      <trkpt lat="43.39157" lon="6.65658">
        <ele>158.777</ele>
        <time>2012-10-14T09:44:42.336Z</time>
      </trkpt>
      <trkpt lat="43.39166" lon="6.65669">
        <ele>159.28</ele>
        <time>2012-10-14T09:44:47.238Z</time>
      </trkpt>
      <trkpt lat="43.39177" lon="6.6568">
        <ele>159.392</ele>
        <time>2012-10-14T09:44:51.990Z</time>
      </trkpt>
      <trkpt lat="43.39186" lon="6.65691">
        <ele>159.412</ele>
        <time>2012-10-14T09:44:55.676Z</time>
      </trkpt>
      <trkpt lat="43.39192" lon="6.65706">
        <ele>159.501</ele>
        <time>2012-10-14T09:44:59.002Z</time>
      </trkpt>
      <trkpt lat="43.39198" lon="6.6572">
        <ele>159.624</ele>
        <time>2012-10-14T09:45:02.189Z</time>
      </trkpt>
      <trkpt lat="43.39199" lon="6.65733">
        <ele>159.772</ele>
        <time>2012-10-14T09:45:05.165Z</time>
      </trkpt>
      <trkpt lat="43.39199" lon="6.65746">
        <ele>160.145</ele>
        <time>2012-10-14T09:45:08.537Z</time>
      </trkpt>
      <trkpt lat="43.39203" lon="6.65758">
        <ele>160.851</ele>
        <time>2012-10-14T09:45:12.410Z</time>
      </trkpt>
      <trkpt lat="43.3921" lon="6.65769">
        <ele>161.528</ele>
        <time>2012-10-14T09:45:17.241Z</time>
      </trkpt>
      <trkpt lat="43.39217" lon="6.65778">
        <ele>161.856</ele>
        <time>2012-10-14T09:45:21.106Z</time>
      </trkpt>
      <trkpt lat="43.39221" lon="6.6579">
        <ele>162.029</ele>
        <time>2012-10-14T09:45:24.504Z</time>
      </trkpt>
      <trkpt lat="43.39221" lon="6.65803">
        <ele>162.232</ele>
        <time>2012-10-14T09:45:27.125Z</time>
      </trkpt>
      <trkpt lat="43.39226" lon="6.65818">
        <ele>162.244</ele>
        <time>2012-10-14T09:45:30.188Z</time>
      </trkpt>
      <trkpt lat="43.3923" lon="6.65833">
        <ele>161.873</ele>
        <time>2012-10-14T09:45:32.972Z</time>
      </trkpt>
      <trkpt lat="43.39234" lon="6.65853">
        <ele>161.409</ele>
        <time>2012-10-14T09:45:36.253Z</time>
      </trkpt>
      <trkpt lat="43.39235" lon="6.65873">
        <ele>160.271</ele>
        <time>2012-10-14T09:45:40.056Z</time>
      </trkpt>
      <trkpt lat="43.39232" lon="6.65889">
        <ele>157.015</ele>
        <time>2012-10-14T09:45:43.979Z</time>
      </trkpt>
      <trkpt lat="43.39232" lon="6.65902">
        <ele>151.968</ele>
        <time>2012-10-14T09:45:47.817Z</time>
      </trkpt>
      <trkpt lat="43.39229" lon="6.65914">
        <ele>147.407</ele>
        <time>2012-10-14T09:45:51.980Z</time>
      </trkpt>
      <trkpt lat="43.39224" lon="6.65927">
        <ele>144.854</ele>
        <time>2012-10-14T09:45:55.778Z</time>
      </trkpt>
      <trkpt lat="43.3922" lon="6.6594">
        <ele>144.049</ele>
        <time>2012-10-14T09:46:00.020Z</time>
      </trkpt>
      <trkpt lat="43.3922" lon="6.6594">
        <ele>143.966</ele>
        <time>2012-10-14T09:46:04.010Z</time>
      </trkpt>
      <trkpt lat="43.3922" lon="6.6594">
        <ele>143.943</ele>
        <time>2012-10-14T09:46:04.110Z</time>
      </trkpt>
      <trkpt lat="43.39211" lon="6.65969">
        <ele>143.185</ele>
        <time>2012-10-14T09:46:46.455Z</time>
      </trkpt>
      <trkpt lat="43.39211" lon="6.65983">
        <ele>141.331</ele>
        <time>2012-10-14T09:46:53.949Z</time>
      </trkpt>
      <trkpt lat="43.39214" lon="6.65995">
        <ele>138.795</ele>
        <time>2012-10-14T09:47:00.784Z</time>
      </trkpt>
      <trkpt lat="43.39214" lon="6.66008">
        <ele>134.352</ele>
        <time>2012-10-14T09:47:06.013Z</time>
      </trkpt>
      <trkpt lat="43.39214" lon="6.66008">
        <ele>127.678</ele>
        <time>2012-10-14T09:47:21.035Z</time>
      </trkpt>
      <trkpt lat="43.39214" lon="6.66008">
        <ele>122.092</ele>
        <time>2012-10-14T09:47:33.607Z</time>
      </trkpt>
      <trkpt lat="43.3922" lon="6.6604">
        <ele>119.683</ele>
        <time>2012-10-14T09:47:56.120Z</time>
      </trkpt>
      <trkpt lat="43.39225" lon="6.66051">
        <ele>119.204</ele>
        <time>2012-10-14T09:48:01.893Z</time>
      </trkpt>
      <trkpt lat="43.39222" lon="6.66065">
        <ele>118.255</ele>
        <time>2012-10-14T09:48:08.016Z</time>
      </trkpt>
      <trkpt lat="43.39222" lon="6.66065">
        <ele>115.65</ele>
        <time>2012-10-14T09:48:23.017Z</time>
      </trkpt>
      <trkpt lat="43.39222" lon="6.66065">
        <ele>113.401</ele>
        <time>2012-10-14T09:48:23.117Z</time>
      </trkpt>
      <trkpt lat="43.39218" lon="6.66093">
        <ele>111.805</ele>
        <time>2012-10-14T09:48:53.074Z</time>
      </trkpt>
      <trkpt lat="43.3921" lon="6.66098">
        <ele>108.525</ele>
        <time>2012-10-14T09:48:56.414Z</time>
      </trkpt>
      <trkpt lat="43.39206" lon="6.66113">
        <ele>104.014</ele>
        <time>2012-10-14T09:48:59.869Z</time>
      </trkpt>
      <trkpt lat="43.39211" lon="6.66131">
        <ele>99.089</ele>
        <time>2012-10-14T09:49:03.452Z</time>
      </trkpt>
      <trkpt lat="43.39212" lon="6.66147">
        <ele>93.464</ele>
        <time>2012-10-14T09:49:06.537Z</time>
      </trkpt>
      <trkpt lat="43.39214" lon="6.66163">
        <ele>88.859</ele>
        <time>2012-10-14T09:49:09.714Z</time>
      </trkpt>
      <trkpt lat="43.39214" lon="6.66178">
        <ele>86.515</ele>
        <time>2012-10-14T09:49:12.863Z</time>
      </trkpt>
      <trkpt lat="43.39213" lon="6.66192">
        <ele>85.499</ele>
        <time>2012-10-14T09:49:16.214Z</time>
      </trkpt>
      <trkpt lat="43.39211" lon="6.66205">
        <ele>84.548</ele>
        <time>2012-10-14T09:49:19.234Z</time>
      </trkpt>
      <trkpt lat="43.39211" lon="6.6622">
        <ele>82.807</ele>
        <time>2012-10-14T09:49:22.338Z</time>
      </trkpt>
      <trkpt lat="43.39209" lon="6.66232">
        <ele>80.419</ele>
        <time>2012-10-14T09:49:25.053Z</time>
      </trkpt>
      <trkpt lat="43.39206" lon="6.66245">
        <ele>77.946</ele>
        <time>2012-10-14T09:49:28.193Z</time>
      </trkpt>
      <trkpt lat="43.39206" lon="6.66261">
        <ele>75.444</ele>
        <time>2012-10-14T09:49:31.720Z</time>
      </trkpt>
      <trkpt lat="43.3921" lon="6.66272">
        <ele>72.883</ele>
        <time>2012-10-14T09:49:34.476Z</time>
      </trkpt>
      <trkpt lat="43.39211" lon="6.66288">
        <ele>70.377</ele>
        <time>2012-10-14T09:49:37.345Z</time>
      </trkpt>
      <trkpt lat="43.39209" lon="6.66306">
        <ele>67.794</ele>
        <time>2012-10-14T09:49:40.185Z</time>
      </trkpt>
      <trkpt lat="43.39207" lon="6.66322">
        <ele>65.28</ele>
        <time>2012-10-14T09:49:42.644Z</time>
      </trkpt>
      <trkpt lat="43.39207" lon="6.66338">
        <ele>63.259</ele>
        <time>2012-10-14T09:49:45.527Z</time>
      </trkpt>
      <trkpt lat="43.39211" lon="6.6636">
        <ele>61.75</ele>
        <time>2012-10-14T09:49:49.759Z</time>
      </trkpt>
      <trkpt lat="43.39211" lon="6.66375">
        <ele>60.288</ele>
        <time>2012-10-14T09:49:52.524Z</time>
      </trkpt>
      <trkpt lat="43.39202" lon="6.66371">
        <ele>58.679</ele>
        <time>2012-10-14T09:49:54.702Z</time>
      </trkpt>
      <trkpt lat="43.39195" lon="6.66356">
        <ele>57.35</ele>
        <time>2012-10-14T09:49:57.691Z</time>
      </trkpt>
      <trkpt lat="43.39185" lon="6.66344">
        <ele>56.709</ele>
        <time>2012-10-14T09:50:00.629Z</time>
      </trkpt>
      <trkpt lat="43.39173" lon="6.66337">
        <ele>56.577</ele>
        <time>2012-10-14T09:50:03.556Z</time>
      </trkpt>
      <trkpt lat="43.39161" lon="6.66331">
        <ele>56.65</ele>
        <time>2012-10-14T09:50:06.560Z</time>
      </trkpt>
      <trkpt lat="43.39149" lon="6.66325">
        <ele>56.724</ele>
        <time>2012-10-14T09:50:09.598Z</time>
      </trkpt>
      <trkpt lat="43.39139" lon="6.6632">
        <ele>56.75</ele>
        <time>2012-10-14T09:50:12.429Z</time>
      </trkpt>
      <trkpt lat="43.3913" lon="6.66315">
        <ele>56.769</ele>
        <time>2012-10-14T09:50:15.104Z</time>
      </trkpt>
      <trkpt lat="43.3912" lon="6.66307">
        <ele>56.914</ele>
        <time>2012-10-14T09:50:18.345Z</time>
      </trkpt>
      <trkpt lat="43.39113" lon="6.66299">
        <ele>57.26</ele>
        <time>2012-10-14T09:50:21.069Z</time>
      </trkpt>
      <trkpt lat="43.39107" lon="6.66289">
        <ele>57.864</ele>
        <time>2012-10-14T09:50:23.820Z</time>
      </trkpt>
      <trkpt lat="43.39101" lon="6.6628">
        <ele>58.714</ele>
        <time>2012-10-14T09:50:26.557Z</time>
      </trkpt>
      <trkpt lat="43.39095" lon="6.66271">
        <ele>59.513</ele>
        <time>2012-10-14T09:50:29.371Z</time>
      </trkpt>
      <trkpt lat="43.39087" lon="6.66261">
        <ele>59.943</ele>
        <time>2012-10-14T09:50:32.809Z</time>
      </trkpt>
      <trkpt lat="43.39079" lon="6.66251">
        <ele>60.055</ele>
        <time>2012-10-14T09:50:36.456Z</time>
      </trkpt>
      <trkpt lat="43.39071" lon="6.66241">
        <ele>60.067</ele>
        <time>2012-10-14T09:50:40.383Z</time>
      </trkpt>
      <trkpt lat="43.39062" lon="6.66233">
        <ele>60.115</ele>
        <time>2012-10-14T09:50:44.500Z</time>
      </trkpt>
      <trkpt lat="43.39053" lon="6.66227">
        <ele>60.356</ele>
        <time>2012-10-14T09:50:48.514Z</time>
      </trkpt>
      <trkpt lat="43.39044" lon="6.66223">
        <ele>60.879</ele>
        <time>2012-10-14T09:50:53.237Z</time>
      </trkpt>
      <trkpt lat="43.39034" lon="6.66221">
        <ele>61.66</ele>
        <time>2012-10-14T09:50:58.265Z</time>
      </trkpt>
      <trkpt lat="43.39025" lon="6.66215">
        <ele>62.608</ele>
        <time>2012-10-14T09:51:04.096Z</time>
      </trkpt>
      <trkpt lat="43.39018" lon="6.66204">
        <ele>63.618</ele>
        <time>2012-10-14T09:51:10.347Z</time>
      </trkpt>
      <trkpt lat="43.39014" lon="6.66192">
        <ele>64.563</ele>
        <time>2012-10-14T09:51:16.462Z</time>
      </trkpt>
      <trkpt lat="43.39013" lon="6.66177">
        <ele>65.469</ele>
        <time>2012-10-14T09:51:22.970Z</time>
      </trkpt>
      <trkpt lat="43.39014" lon="6.66163">
        <ele>66.622</ele>
        <time>2012-10-14T09:51:29.098Z</time>
      </trkpt>
      <trkpt lat="43.39015" lon="6.66148">
        <ele>68.104</ele>
        <time>2012-10-14T09:51:35.042Z</time>
      </trkpt>
      <trkpt lat="43.39016" lon="6.66133">
        <ele>69.499</ele>
        <time>2012-10-14T09:51:40.261Z</time>
      </trkpt>
      <trkpt lat="43.39016" lon="6.6612">
        <ele>70.5</ele>
        <time>2012-10-14T09:51:44.438Z</time>
      </trkpt>
      <trkpt lat="43.39015" lon="6.66107">
        <ele>71.438</ele>
        <time>2012-10-14T09:51:48.759Z</time>
      </trkpt>
      <trkpt lat="43.39015" lon="6.66094">
        <ele>72.566</ele>
        <time>2012-10-14T09:51:52.612Z</time>
      </trkpt>
      <trkpt lat="43.39017" lon="6.6608">
        <ele>73.499</ele>
        <time>2012-10-14T09:51:56.824Z</time>
      </trkpt>
      <trkpt lat="43.39018" lon="6.66065">
        <ele>73.88</ele>
        <time>2012-10-14T09:52:01.335Z</time>
      </trkpt>
      <trkpt lat="43.39019" lon="6.66052">
        <ele>73.901</ele>
        <time>2012-10-14T09:52:04.777Z</time>
      </trkpt>
      <trkpt lat="43.39018" lon="6.6604">
        <ele>73.809</ele>
        <time>2012-10-14T09:52:08.074Z</time>
      </trkpt>
      <trkpt lat="43.39014" lon="6.66028">
        <ele>73.733</ele>
        <time>2012-10-14T09:52:11.262Z</time>
      </trkpt>
      <trkpt lat="43.39006" lon="6.6602">
        <ele>73.702</ele>
        <time>2012-10-14T09:52:14.295Z</time>
      </trkpt>
      <trkpt lat="43.38997" lon="6.66015">
        <ele>73.697</ele>
        <time>2012-10-14T09:52:17.457Z</time>
      </trkpt>
      <trkpt lat="43.38989" lon="6.66012">
        <ele>73.736</ele>
        <time>2012-10-14T09:52:20.397Z</time>
      </trkpt>
      <trkpt lat="43.38979" lon="6.66008">
        <ele>73.828</ele>
        <time>2012-10-14T09:52:23.492Z</time>
      </trkpt>
      <trkpt lat="43.38969" lon="6.66004">
        <ele>73.879</ele>
        <time>2012-10-14T09:52:26.620Z</time>
      </trkpt>
      <trkpt lat="43.3896" lon="6.66">
        <ele>73.822</ele>
        <time>2012-10-14T09:52:29.413Z</time>
      </trkpt>
      <trkpt lat="43.38952" lon="6.65994">
        <ele>73.748</ele>
        <time>2012-10-14T09:52:32.116Z</time>
      </trkpt>
      <trkpt lat="43.38944" lon="6.65985">
        <ele>73.762</ele>
        <time>2012-10-14T09:52:35.405Z</time>
      </trkpt>
      <trkpt lat="43.38936" lon="6.65976">
        <ele>73.873</ele>
        <time>2012-10-14T09:52:38.184Z</time>
      </trkpt>
      <trkpt lat="43.38928" lon="6.65966">
        <ele>74.032</ele>
        <time>2012-10-14T09:52:41.790Z</time>
      </trkpt>
      <trkpt lat="43.3892" lon="6.65958">
        <ele>74.382</ele>
        <time>2012-10-14T09:52:45.018Z</time>
      </trkpt>
      <trkpt lat="43.38912" lon="6.65951">
        <ele>75.174</ele>
        <time>2012-10-14T09:52:48.367Z</time>
      </trkpt>
      <trkpt lat="43.38903" lon="6.65944">
        <ele>76.27</ele>
        <time>2012-10-14T09:52:52.072Z</time>
      </trkpt>
      <trkpt lat="43.38893" lon="6.65936">
        <ele>77.244</ele>
        <time>2012-10-14T09:52:56.340Z</time>
      </trkpt>
      <trkpt lat="43.38884" lon="6.65928">
        <ele>77.89</ele>
        <time>2012-10-14T09:53:00.348Z</time>
      </trkpt>
      <trkpt lat="43.38874" lon="6.65919">
        <ele>78.227</ele>
        <time>2012-10-14T09:53:04.544Z</time>
      </trkpt>
      <trkpt lat="43.38864" lon="6.65914">
        <ele>78.356</ele>
        <time>2012-10-14T09:53:08.313Z</time>
      </trkpt>
      <trkpt lat="43.38854" lon="6.65913">
        <ele>78.402</ele>
        <time>2012-10-14T09:53:11.997Z</time>
      </trkpt>
      <trkpt lat="43.38844" lon="6.65911">
        <ele>78.52</ele>
        <time>2012-10-14T09:53:15.207Z</time>
      </trkpt>
      <trkpt lat="43.38834" lon="6.65909">
        <ele>78.758</ele>
        <time>2012-10-14T09:53:18.559Z</time>
      </trkpt>
      <trkpt lat="43.38824" lon="6.65906">
        <ele>78.997</ele>
        <time>2012-10-14T09:53:21.943Z</time>
      </trkpt>
      <trkpt lat="43.38814" lon="6.65906">
        <ele>79.275</ele>
        <time>2012-10-14T09:53:25.222Z</time>
      </trkpt>
      <trkpt lat="43.38803" lon="6.6591">
        <ele>79.708</ele>
        <time>2012-10-14T09:53:28.708Z</time>
      </trkpt>
      <trkpt lat="43.38791" lon="6.65918">
        <ele>80.14</ele>
        <time>2012-10-14T09:53:32.452Z</time>
      </trkpt>
      <trkpt lat="43.38785" lon="6.65927">
        <ele>80.371</ele>
        <time>2012-10-14T09:53:35.159Z</time>
      </trkpt>
      <trkpt lat="43.38775" lon="6.6595">
        <ele>80.306</ele>
        <time>2012-10-14T09:53:39.980Z</time>
      </trkpt>
      <trkpt lat="43.38767" lon="6.65977">
        <ele>79.978</ele>
        <time>2012-10-14T09:53:44.286Z</time>
      </trkpt>
      <trkpt lat="43.38754" lon="6.66001">
        <ele>79.541</ele>
        <time>2012-10-14T09:53:47.789Z</time>
      </trkpt>
      <trkpt lat="43.38739" lon="6.66018">
        <ele>78.81</ele>
        <time>2012-10-14T09:53:50.917Z</time>
      </trkpt>
      <trkpt lat="43.3873" lon="6.66025">
        <ele>77.689</ele>
        <time>2012-10-14T09:53:53.021Z</time>
      </trkpt>
      <trkpt lat="43.3873" lon="6.66025">
        <ele>76.729</ele>
        <time>2012-10-14T09:53:56.028Z</time>
      </trkpt>
      <trkpt lat="43.3873" lon="6.66025">
        <ele>76.327</ele>
        <time>2012-10-14T09:55:40.445Z</time>
      </trkpt>
      <trkpt lat="43.38721" lon="6.66045">
        <ele>76.319</ele>
        <time>2012-10-14T09:55:52.564Z</time>
      </trkpt>
      <trkpt lat="43.38713" lon="6.66058">
        <ele>76.6</ele>
        <time>2012-10-14T09:55:57.109Z</time>
      </trkpt>
      <trkpt lat="43.38706" lon="6.66068">
        <ele>77.08</ele>
        <time>2012-10-14T09:56:01.019Z</time>
      </trkpt>
      <trkpt lat="43.38698" lon="6.66078">
        <ele>77.494</ele>
        <time>2012-10-14T09:56:04.590Z</time>
      </trkpt>
      <trkpt lat="43.38691" lon="6.66088">
        <ele>77.535</ele>
        <time>2012-10-14T09:56:07.704Z</time>
      </trkpt>
      <trkpt lat="43.38685" lon="6.66103">
        <ele>77.09</ele>
        <time>2012-10-14T09:56:11.694Z</time>
      </trkpt>
      <trkpt lat="43.3868" lon="6.66116">
        <ele>76.4</ele>
        <time>2012-10-14T09:56:15.343Z</time>
      </trkpt>
      <trkpt lat="43.38675" lon="6.66129">
        <ele>75.894</ele>
        <time>2012-10-14T09:56:18.988Z</time>
      </trkpt>
      <trkpt lat="43.3867" lon="6.6614">
        <ele>75.711</ele>
        <time>2012-10-14T09:56:22.038Z</time>
      </trkpt>
      <trkpt lat="43.38665" lon="6.66151">
        <ele>75.717</ele>
        <time>2012-10-14T09:56:25.404Z</time>
      </trkpt>
      <trkpt lat="43.3866" lon="6.66162">
        <ele>75.787</ele>
        <time>2012-10-14T09:56:28.947Z</time>
      </trkpt>
      <trkpt lat="43.38655" lon="6.66175">
        <ele>75.971</ele>
        <time>2012-10-14T09:56:33.407Z</time>
      </trkpt>
      <trkpt lat="43.38648" lon="6.66187">
        <ele>76.323</ele>
        <time>2012-10-14T09:56:37.788Z</time>
      </trkpt>
      <trkpt lat="43.38639" lon="6.66195">
        <ele>76.675</ele>
        <time>2012-10-14T09:56:41.487Z</time>
      </trkpt>
      <trkpt lat="43.38629" lon="6.66198">
        <ele>77.252</ele>
        <time>2012-10-14T09:56:44.748Z</time>
      </trkpt>
      <trkpt lat="43.38618" lon="6.66198">
        <ele>78.828</ele>
        <time>2012-10-14T09:56:47.615Z</time>
      </trkpt>
      <trkpt lat="43.38605" lon="6.66195">
        <ele>81.184</ele>
        <time>2012-10-14T09:56:50.887Z</time>
      </trkpt>
      <trkpt lat="43.38593" lon="6.66188">
        <ele>83.263</ele>
        <time>2012-10-14T09:56:53.896Z</time>
      </trkpt>
      <trkpt lat="43.38582" lon="6.66178">
        <ele>84.619</ele>
        <time>2012-10-14T09:56:56.694Z</time>
      </trkpt>
      <trkpt lat="43.38576" lon="6.66169">
        <ele>85.046</ele>
        <time>2012-10-14T09:56:58.545Z</time>
      </trkpt>
      <trkpt lat="43.38569" lon="6.6615">
        <ele>84.294</ele>
        <time>2012-10-14T09:57:01.390Z</time>
      </trkpt>
      <trkpt lat="43.38564" lon="6.66128">
        <ele>82.89</ele>
        <time>2012-10-14T09:57:04.801Z</time>
      </trkpt>
      <trkpt lat="43.38562" lon="6.66115">
        <ele>81.721</ele>
        <time>2012-10-14T09:57:06.909Z</time>
      </trkpt>
      <trkpt lat="43.38558" lon="6.66097">
        <ele>81.175</ele>
        <time>2012-10-14T09:57:09.727Z</time>
      </trkpt>
      <trkpt lat="43.38558" lon="6.66084">
        <ele>81.046</ele>
        <time>2012-10-14T09:57:11.693Z</time>
      </trkpt>
      <trkpt lat="43.38567" lon="6.66067">
        <ele>80.998</ele>
        <time>2012-10-14T09:57:14.817Z</time>
      </trkpt>
      <trkpt lat="43.3857" lon="6.66047">
        <ele>80.908</ele>
        <time>2012-10-14T09:57:17.843Z</time>
      </trkpt>
      <trkpt lat="43.38563" lon="6.66038">
        <ele>80.82</ele>
        <time>2012-10-14T09:57:19.871Z</time>
      </trkpt>
      <trkpt lat="43.38551" lon="6.66027">
        <ele>80.748</ele>
        <time>2012-10-14T09:57:22.695Z</time>
      </trkpt>
      <trkpt lat="43.38543" lon="6.6602">
        <ele>80.677</ele>
        <time>2012-10-14T09:57:24.606Z</time>
      </trkpt>
      <trkpt lat="43.38531" lon="6.66007">
        <ele>80.551</ele>
        <time>2012-10-14T09:57:27.397Z</time>
      </trkpt>
      <trkpt lat="43.38524" lon="6.65998">
        <ele>80.098</ele>
        <time>2012-10-14T09:57:29.038Z</time>
      </trkpt>
      <trkpt lat="43.38516" lon="6.65987">
        <ele>79.261</ele>
        <time>2012-10-14T09:57:30.814Z</time>
      </trkpt>
      <trkpt lat="43.38505" lon="6.65975">
        <ele>78.475</ele>
        <time>2012-10-14T09:57:32.896Z</time>
      </trkpt>
      <trkpt lat="43.38494" lon="6.65953">
        <ele>78.036</ele>
        <time>2012-10-14T09:57:35.814Z</time>
      </trkpt>
      <trkpt lat="43.38489" lon="6.65926">
        <ele>77.601</ele>
        <time>2012-10-14T09:57:38.994Z</time>
      </trkpt>
      <trkpt lat="43.38486" lon="6.65902">
        <ele>76.719</ele>
        <time>2012-10-14T09:57:41.839Z</time>
      </trkpt>
      <trkpt lat="43.38484" lon="6.65885">
        <ele>75.504</ele>
        <time>2012-10-14T09:57:43.986Z</time>
      </trkpt>
      <trkpt lat="43.38492" lon="6.65864">
        <ele>74.522</ele>
        <time>2012-10-14T09:57:47.093Z</time>
      </trkpt>
      <trkpt lat="43.38502" lon="6.65856">
        <ele>74.052</ele>
        <time>2012-10-14T09:57:49.370Z</time>
      </trkpt>
      <trkpt lat="43.38512" lon="6.65849">
        <ele>73.917</ele>
        <time>2012-10-14T09:57:51.751Z</time>
      </trkpt>
      <trkpt lat="43.38517" lon="6.65833">
        <ele>73.767</ele>
        <time>2012-10-14T09:57:54.412Z</time>
      </trkpt>
      <trkpt lat="43.3851" lon="6.65824">
        <ele>73.213</ele>
        <time>2012-10-14T09:57:56.305Z</time>
      </trkpt>
      <trkpt lat="43.38494" lon="6.65817">
        <ele>72.155</ele>
        <time>2012-10-14T09:57:59.390Z</time>
      </trkpt>
      <trkpt lat="43.38479" lon="6.65811">
        <ele>71.053</ele>
        <time>2012-10-14T09:58:02.536Z</time>
      </trkpt>
      <trkpt lat="43.38469" lon="6.6581">
        <ele>70.409</ele>
        <time>2012-10-14T09:58:04.626Z</time>
      </trkpt>
      <trkpt lat="43.3846" lon="6.65811">
        <ele>70.218</ele>
        <time>2012-10-14T09:58:06.603Z</time>
      </trkpt>
      <trkpt lat="43.38448" lon="6.65807">
        <ele>70.241</ele>
        <time>2012-10-14T09:58:09.453Z</time>
      </trkpt>
      <trkpt lat="43.38443" lon="6.65789">
        <ele>70.329</ele>
        <time>2012-10-14T09:58:12.031Z</time>
      </trkpt>
      <trkpt lat="43.38444" lon="6.65767">
        <ele>70.411</ele>
        <time>2012-10-14T09:58:14.865Z</time>
      </trkpt>
      <trkpt lat="43.38444" lon="6.65751">
        <ele>70.426</ele>
        <time>2012-10-14T09:58:16.821Z</time>
      </trkpt>
      <trkpt lat="43.38449" lon="6.6573">
        <ele>70.3</ele>
        <time>2012-10-14T09:58:19.680Z</time>
      </trkpt>
      <trkpt lat="43.3846" lon="6.65711">
        <ele>69.647</ele>
        <time>2012-10-14T09:58:22.653Z</time>
      </trkpt>
      <trkpt lat="43.38472" lon="6.65694">
        <ele>68.262</ele>
        <time>2012-10-14T09:58:25.576Z</time>
      </trkpt>
      <trkpt lat="43.38481" lon="6.65682">
        <ele>66.781</ele>
        <time>2012-10-14T09:58:27.529Z</time>
      </trkpt>
      <trkpt lat="43.38491" lon="6.6566">
        <ele>65.753</ele>
        <time>2012-10-14T09:58:30.694Z</time>
      </trkpt>
      <trkpt lat="43.38495" lon="6.65635">
        <ele>64.906</ele>
        <time>2012-10-14T09:58:33.604Z</time>
      </trkpt>
      <trkpt lat="43.38496" lon="6.65609">
        <ele>63.975</ele>
        <time>2012-10-14T09:58:36.433Z</time>
      </trkpt>
      <trkpt lat="43.38495" lon="6.6558">
        <ele>63.108</ele>
        <time>2012-10-14T09:58:39.351Z</time>
      </trkpt>
      <trkpt lat="43.38501" lon="6.65552">
        <ele>62.436</ele>
        <time>2012-10-14T09:58:42.510Z</time>
      </trkpt>
      <trkpt lat="43.38507" lon="6.65535">
        <ele>61.911</ele>
        <time>2012-10-14T09:58:44.966Z</time>
      </trkpt>
      <trkpt lat="43.38515" lon="6.65522">
        <ele>61.26</ele>
        <time>2012-10-14T09:58:48.685Z</time>
      </trkpt>
      <trkpt lat="43.38506" lon="6.65515">
        <ele>60.345</ele>
        <time>2012-10-14T09:58:51.995Z</time>
      </trkpt>
      <trkpt lat="43.38497" lon="6.65518">
        <ele>59.335</ele>
        <time>2012-10-14T09:58:55.077Z</time>
      </trkpt>
      <trkpt lat="43.38487" lon="6.6552">
        <ele>58.653</ele>
        <time>2012-10-14T09:58:58.253Z</time>
      </trkpt>
      <trkpt lat="43.38478" lon="6.6552">
        <ele>58.572</ele>
        <time>2012-10-14T09:59:01.769Z</time>
      </trkpt>
      <trkpt lat="43.38468" lon="6.6552">
        <ele>58.915</ele>
        <time>2012-10-14T09:59:05.894Z</time>
      </trkpt>
      <trkpt lat="43.3846" lon="6.65512">
        <ele>59.268</ele>
        <time>2012-10-14T09:59:10.163Z</time>
      </trkpt>
      <trkpt lat="43.38462" lon="6.65499">
        <ele>59.666</ele>
        <time>2012-10-14T09:59:14.299Z</time>
      </trkpt>
      <trkpt lat="43.38468" lon="6.6549">
        <ele>60.358</ele>
        <time>2012-10-14T09:59:18.522Z</time>
      </trkpt>
      <trkpt lat="43.38477" lon="6.65483">
        <ele>61.585</ele>
        <time>2012-10-14T09:59:23.225Z</time>
      </trkpt>
      <trkpt lat="43.38485" lon="6.65473">
        <ele>63.208</ele>
        <time>2012-10-14T09:59:28.395Z</time>
      </trkpt>
      <trkpt lat="43.38493" lon="6.65465">
        <ele>64.581</ele>
        <time>2012-10-14T09:59:32.790Z</time>
      </trkpt>
      <trkpt lat="43.38501" lon="6.65456">
        <ele>65.254</ele>
        <time>2012-10-14T09:59:37.668Z</time>
      </trkpt>
      <trkpt lat="43.3851" lon="6.65448">
        <ele>65.484</ele>
        <time>2012-10-14T09:59:42.037Z</time>
      </trkpt>
      <trkpt lat="43.38517" lon="6.6544">
        <ele>65.923</ele>
        <time>2012-10-14T09:59:44.766Z</time>
      </trkpt>
      <trkpt lat="43.38524" lon="6.65428">
        <ele>66.841</ele>
        <time>2012-10-14T09:59:47.685Z</time>
      </trkpt>
      <trkpt lat="43.38524" lon="6.65414">
        <ele>67.88</ele>
        <time>2012-10-14T09:59:50.253Z</time>
      </trkpt>
      <trkpt lat="43.3852" lon="6.65403">
        <ele>68.629</ele>
        <time>2012-10-14T09:59:53.141Z</time>
      </trkpt>
      <trkpt lat="43.38515" lon="6.65392">
        <ele>69.004</ele>
        <time>2012-10-14T09:59:57.390Z</time>
      </trkpt>
      <trkpt lat="43.38508" lon="6.65381">
        <ele>69.197</ele>
        <time>2012-10-14T10:00:02.704Z</time>
      </trkpt>
      <trkpt lat="43.385" lon="6.65372">
        <ele>69.434</ele>
        <time>2012-10-14T10:00:08.918Z</time>
      </trkpt>
      <trkpt lat="43.38492" lon="6.65364">
        <ele>69.641</ele>
        <time>2012-10-14T10:00:15.138Z</time>
      </trkpt>
      <trkpt lat="43.38486" lon="6.65353">
        <ele>70.103</ele>
        <time>2012-10-14T10:00:21.945Z</time>
      </trkpt>
      <trkpt lat="43.38485" lon="6.65339">
        <ele>71.255</ele>
        <time>2012-10-14T10:00:29.196Z</time>
      </trkpt>
      <trkpt lat="43.38485" lon="6.65327">
        <ele>73.045</ele>
        <time>2012-10-14T10:00:36.575Z</time>
      </trkpt>
      <trkpt lat="43.38485" lon="6.65313">
        <ele>75.129</ele>
        <time>2012-10-14T10:00:44.333Z</time>
      </trkpt>
      <trkpt lat="43.38483" lon="6.653">
        <ele>76.963</ele>
        <time>2012-10-14T10:00:51.382Z</time>
      </trkpt>
      <trkpt lat="43.38484" lon="6.65288">
        <ele>78.206</ele>
        <time>2012-10-14T10:00:58.226Z</time>
      </trkpt>
      <trkpt lat="43.38487" lon="6.65274">
        <ele>79.053</ele>
        <time>2012-10-14T10:01:05.985Z</time>
      </trkpt>
      <trkpt lat="43.38491" lon="6.65262">
        <ele>80.01</ele>
        <time>2012-10-14T10:01:13.422Z</time>
      </trkpt>
      <trkpt lat="43.38493" lon="6.6525">
        <ele>81.393</ele>
        <time>2012-10-14T10:01:20.821Z</time>
      </trkpt>
      <trkpt lat="43.38492" lon="6.65235">
        <ele>82.964</ele>
        <time>2012-10-14T10:01:30.131Z</time>
      </trkpt>
      <trkpt lat="43.38491" lon="6.65222">
        <ele>84.641</ele>
        <time>2012-10-14T10:01:36.716Z</time>
      </trkpt>
      <trkpt lat="43.38493" lon="6.65209">
        <ele>86.481</ele>
        <time>2012-10-14T10:01:43.260Z</time>
      </trkpt>
      <trkpt lat="43.38495" lon="6.65195">
        <ele>87.864</ele>
        <time>2012-10-14T10:01:49.720Z</time>
      </trkpt>
      <trkpt lat="43.385" lon="6.65182">
        <ele>88.772</ele>
        <time>2012-10-14T10:01:57.886Z</time>
      </trkpt>
      <trkpt lat="43.38509" lon="6.65176">
        <ele>89.745</ele>
        <time>2012-10-14T10:02:04.438Z</time>
      </trkpt>
      <trkpt lat="43.38516" lon="6.65168">
        <ele>90.636</ele>
        <time>2012-10-14T10:02:10.611Z</time>
      </trkpt>
      <trkpt lat="43.38525" lon="6.65159">
        <ele>91.522</ele>
        <time>2012-10-14T10:02:17.275Z</time>
      </trkpt>
      <trkpt lat="43.38531" lon="6.65149">
        <ele>92.744</ele>
        <time>2012-10-14T10:02:23.162Z</time>
      </trkpt>
      <trkpt lat="43.38537" lon="6.65138">
        <ele>93.825</ele>
        <time>2012-10-14T10:02:28.978Z</time>
      </trkpt>
      <trkpt lat="43.38541" lon="6.65126">
        <ele>94.323</ele>
        <time>2012-10-14T10:02:34.584Z</time>
      </trkpt>
      <trkpt lat="43.38547" lon="6.65115">
        <ele>94.45</ele>
        <time>2012-10-14T10:02:40.500Z</time>
      </trkpt>
      <trkpt lat="43.38552" lon="6.65104">
        <ele>94.379</ele>
        <time>2012-10-14T10:02:46.602Z</time>
      </trkpt>
      <trkpt lat="43.38561" lon="6.65095">
        <ele>94.181</ele>
        <time>2012-10-14T10:02:53.606Z</time>
      </trkpt>
      <trkpt lat="43.38569" lon="6.65088">
        <ele>93.995</ele>
        <time>2012-10-14T10:02:59.513Z</time>
      </trkpt>
      <trkpt lat="43.38578" lon="6.65082">
        <ele>94.156</ele>
        <time>2012-10-14T10:03:05.410Z</time>
      </trkpt>
      <trkpt lat="43.38585" lon="6.65073">
        <ele>95.004</ele>
        <time>2012-10-14T10:03:11.634Z</time>
      </trkpt>
      <trkpt lat="43.38588" lon="6.65059">
        <ele>96.245</ele>
        <time>2012-10-14T10:03:18.384Z</time>
      </trkpt>
      <trkpt lat="43.38586" lon="6.65045">
        <ele>97.385</ele>
        <time>2012-10-14T10:03:25.903Z</time>
      </trkpt>
      <trkpt lat="43.38586" lon="6.65031">
        <ele>98.465</ele>
        <time>2012-10-14T10:03:34.171Z</time>
      </trkpt>
      <trkpt lat="43.38586" lon="6.65017">
        <ele>99.689</ele>
        <time>2012-10-14T10:03:42.819Z</time>
      </trkpt>
      <trkpt lat="43.38586" lon="6.65004">
        <ele>101.084</ele>
        <time>2012-10-14T10:03:50.959Z</time>
      </trkpt>
      <trkpt lat="43.38584" lon="6.64991">
        <ele>102.554</ele>
        <time>2012-10-14T10:03:59.414Z</time>
      </trkpt>
      <trkpt lat="43.38583" lon="6.64979">
        <ele>103.928</ele>
        <time>2012-10-14T10:04:07.012Z</time>
      </trkpt>
      <trkpt lat="43.38583" lon="6.64979">
        <ele>104.84</ele>
        <time>2012-10-14T10:04:24.992Z</time>
      </trkpt>
      <trkpt lat="43.38583" lon="6.64979">
        <ele>105.045</ele>
        <time>2012-10-14T10:05:03.579Z</time>
      </trkpt>
      <trkpt lat="43.38585" lon="6.64947">
        <ele>105.192</ele>
        <time>2012-10-14T10:05:37.303Z</time>
      </trkpt>
      <trkpt lat="43.38584" lon="6.64933">
        <ele>106.361</ele>
        <time>2012-10-14T10:05:44.779Z</time>
      </trkpt>
      <trkpt lat="43.38584" lon="6.64921">
        <ele>108.647</ele>
        <time>2012-10-14T10:05:51.681Z</time>
      </trkpt>
      <trkpt lat="43.38589" lon="6.64908">
        <ele>111.047</ele>
        <time>2012-10-14T10:05:59.174Z</time>
      </trkpt>
      <trkpt lat="43.38597" lon="6.64899">
        <ele>112.605</ele>
        <time>2012-10-14T10:06:06.234Z</time>
      </trkpt>
      <trkpt lat="43.38605" lon="6.64893">
        <ele>113.448</ele>
        <time>2012-10-14T10:06:12.528Z</time>
      </trkpt>
      <trkpt lat="43.38613" lon="6.64887">
        <ele>114.339</ele>
        <time>2012-10-14T10:06:18.898Z</time>
      </trkpt>
      <trkpt lat="43.38621" lon="6.64881">
        <ele>115.915</ele>
        <time>2012-10-14T10:06:24.717Z</time>
      </trkpt>
      <trkpt lat="43.38631" lon="6.64876">
        <ele>118.055</ele>
        <time>2012-10-14T10:06:30.610Z</time>
      </trkpt>
      <trkpt lat="43.3864" lon="6.64871">
        <ele>120.093</ele>
        <time>2012-10-14T10:06:35.358Z</time>
      </trkpt>
      <trkpt lat="43.38649" lon="6.64865">
        <ele>121.701</ele>
        <time>2012-10-14T10:06:40.137Z</time>
      </trkpt>
      <trkpt lat="43.38659" lon="6.6486">
        <ele>122.994</ele>
        <time>2012-10-14T10:06:45.254Z</time>
      </trkpt>
      <trkpt lat="43.38669" lon="6.64856">
        <ele>123.9</ele>
        <time>2012-10-14T10:06:50.905Z</time>
      </trkpt>
      <trkpt lat="43.38678" lon="6.64854">
        <ele>124.35</ele>
        <time>2012-10-14T10:06:56.154Z</time>
      </trkpt>
      <trkpt lat="43.38688" lon="6.64853">
        <ele>124.481</ele>
        <time>2012-10-14T10:07:02.079Z</time>
      </trkpt>
      <trkpt lat="43.38697" lon="6.64852">
        <ele>124.507</ele>
        <time>2012-10-14T10:07:08.538Z</time>
      </trkpt>
      <trkpt lat="43.38707" lon="6.64848">
        <ele>124.647</ele>
        <time>2012-10-14T10:07:15.295Z</time>
      </trkpt>
      <trkpt lat="43.38716" lon="6.64846">
        <ele>125.241</ele>
        <time>2012-10-14T10:07:21.984Z</time>
      </trkpt>
      <trkpt lat="43.38725" lon="6.64843">
        <ele>126.268</ele>
        <time>2012-10-14T10:07:28.779Z</time>
      </trkpt>
      <trkpt lat="43.38735" lon="6.6484">
        <ele>127.168</ele>
        <time>2012-10-14T10:07:36.532Z</time>
      </trkpt>
      <trkpt lat="43.38744" lon="6.64834">
        <ele>127.73</ele>
        <time>2012-10-14T10:07:43.082Z</time>
      </trkpt>
      <trkpt lat="43.38751" lon="6.64827">
        <ele>128.776</ele>
        <time>2012-10-14T10:07:48.823Z</time>
      </trkpt>
      <trkpt lat="43.38757" lon="6.64815">
        <ele>130.674</ele>
        <time>2012-10-14T10:07:54.739Z</time>
      </trkpt>
      <trkpt lat="43.38761" lon="6.64801">
        <ele>132.572</ele>
        <time>2012-10-14T10:08:00.443Z</time>
      </trkpt>
      <trkpt lat="43.38762" lon="6.64789">
        <ele>133.844</ele>
        <time>2012-10-14T10:08:05.538Z</time>
      </trkpt>
      <trkpt lat="43.38764" lon="6.64777">
        <ele>134.729</ele>
        <time>2012-10-14T10:08:11.085Z</time>
      </trkpt>
      <trkpt lat="43.38766" lon="6.64764">
        <ele>135.426</ele>
        <time>2012-10-14T10:08:16.894Z</time>
      </trkpt>
      <trkpt lat="43.38771" lon="6.64752">
        <ele>135.942</ele>
        <time>2012-10-14T10:08:23.647Z</time>
      </trkpt>
      <trkpt lat="43.38778" lon="6.64744">
        <ele>136.224</ele>
        <time>2012-10-14T10:08:30.706Z</time>
      </trkpt>
      <trkpt lat="43.38787" lon="6.64741">
        <ele>136.316</ele>
        <time>2012-10-14T10:08:37.684Z</time>
      </trkpt>
      <trkpt lat="43.38797" lon="6.64741">
        <ele>136.385</ele>
        <time>2012-10-14T10:08:44.842Z</time>
      </trkpt>
      <trkpt lat="43.38806" lon="6.64739">
        <ele>136.591</ele>
        <time>2012-10-14T10:08:51.370Z</time>
      </trkpt>
      <trkpt lat="43.38816" lon="6.64738">
        <ele>137.029</ele>
        <time>2012-10-14T10:08:58.093Z</time>
      </trkpt>
      <trkpt lat="43.38826" lon="6.64739">
        <ele>137.625</ele>
        <time>2012-10-14T10:09:04.570Z</time>
      </trkpt>
      <trkpt lat="43.38836" lon="6.64742">
        <ele>138.106</ele>
        <time>2012-10-14T10:09:11.318Z</time>
      </trkpt>
      <trkpt lat="43.38845" lon="6.64747">
        <ele>138.309</ele>
        <time>2012-10-14T10:09:18.511Z</time>
      </trkpt>
      <trkpt lat="43.38854" lon="6.64749">
        <ele>138.541</ele>
        <time>2012-10-14T10:09:25.075Z</time>
      </trkpt>
      <trkpt lat="43.38864" lon="6.64752">
        <ele>139.081</ele>
        <time>2012-10-14T10:09:32.584Z</time>
      </trkpt>
      <trkpt lat="43.38873" lon="6.6475">
        <ele>139.888</ele>
        <time>2012-10-14T10:09:39.766Z</time>
      </trkpt>
      <trkpt lat="43.38883" lon="6.64745">
        <ele>140.972</ele>
        <time>2012-10-14T10:09:46.691Z</time>
      </trkpt>
      <trkpt lat="43.38891" lon="6.64738">
        <ele>142.565</ele>
        <time>2012-10-14T10:09:53.119Z</time>
      </trkpt>
      <trkpt lat="43.38901" lon="6.64732">
        <ele>144.686</ele>
        <time>2012-10-14T10:09:59.987Z</time>
      </trkpt>
      <trkpt lat="43.38909" lon="6.64727">
        <ele>146.754</ele>
        <time>2012-10-14T10:10:06.134Z</time>
      </trkpt>
      <trkpt lat="43.38917" lon="6.64721">
        <ele>148.129</ele>
        <time>2012-10-14T10:10:12.412Z</time>
      </trkpt>
      <trkpt lat="43.38927" lon="6.64717">
        <ele>148.915</ele>
        <time>2012-10-14T10:10:19.072Z</time>
      </trkpt>
      <trkpt lat="43.38936" lon="6.64713">
        <ele>149.513</ele>
        <time>2012-10-14T10:10:25.202Z</time>
      </trkpt>
      <trkpt lat="43.38946" lon="6.6471">
        <ele>150.162</ele>
        <time>2012-10-14T10:10:30.963Z</time>
      </trkpt>
      <trkpt lat="43.38954" lon="6.64705">
        <ele>151.071</ele>
        <time>2012-10-14T10:10:36.193Z</time>
      </trkpt>
      <trkpt lat="43.38962" lon="6.647">
        <ele>152.126</ele>
        <time>2012-10-14T10:10:41.518Z</time>
      </trkpt>
      <trkpt lat="43.38971" lon="6.64694">
        <ele>152.959</ele>
        <time>2012-10-14T10:10:47.484Z</time>
      </trkpt>
      <trkpt lat="43.38979" lon="6.64689">
        <ele>153.476</ele>
        <time>2012-10-14T10:10:53.851Z</time>
      </trkpt>
      <trkpt lat="43.38988" lon="6.64682">
        <ele>153.802</ele>
        <time>2012-10-14T10:11:01.616Z</time>
      </trkpt>
      <trkpt lat="43.38996" lon="6.64673">
        <ele>154.027</ele>
        <time>2012-10-14T10:11:09.664Z</time>
      </trkpt>
      <trkpt lat="43.39002" lon="6.64663">
        <ele>154.389</ele>
        <time>2012-10-14T10:11:17.936Z</time>
      </trkpt>
      <trkpt lat="43.39009" lon="6.64654">
        <ele>155.271</ele>
        <time>2012-10-14T10:11:25.268Z</time>
      </trkpt>
      <trkpt lat="43.39016" lon="6.64646">
        <ele>156.783</ele>
        <time>2012-10-14T10:11:32.460Z</time>
      </trkpt>
      <trkpt lat="43.39024" lon="6.64638">
        <ele>158.692</ele>
        <time>2012-10-14T10:11:40.174Z</time>
      </trkpt>
      <trkpt lat="43.39032" lon="6.64629">
        <ele>160.563</ele>
        <time>2012-10-14T10:11:47.995Z</time>
      </trkpt>
      <trkpt lat="43.39041" lon="6.64625">
        <ele>161.906</ele>
        <time>2012-10-14T10:11:55.340Z</time>
      </trkpt>
      <trkpt lat="43.3905" lon="6.64622">
        <ele>162.78</ele>
        <time>2012-10-14T10:12:02.672Z</time>
      </trkpt>
      <trkpt lat="43.39059" lon="6.64619">
        <ele>163.606</ele>
        <time>2012-10-14T10:12:10.001Z</time>
      </trkpt>
      <trkpt lat="43.39069" lon="6.64617">
        <ele>164.529</ele>
        <time>2012-10-14T10:12:17.183Z</time>
      </trkpt>
      <trkpt lat="43.39078" lon="6.64616">
        <ele>165.482</ele>
        <time>2012-10-14T10:12:24.139Z</time>
      </trkpt>
      <trkpt lat="43.39087" lon="6.64614">
        <ele>166.331</ele>
        <time>2012-10-14T10:12:31.298Z</time>
      </trkpt>
      <trkpt lat="43.39096" lon="6.64611">
        <ele>166.968</ele>
        <time>2012-10-14T10:12:38.859Z</time>
      </trkpt>
      <trkpt lat="43.39105" lon="6.64608">
        <ele>167.632</ele>
        <time>2012-10-14T10:12:46.298Z</time>
      </trkpt>
      <trkpt lat="43.39114" lon="6.64607">
        <ele>168.644</ele>
        <time>2012-10-14T10:12:53.971Z</time>
      </trkpt>
      <trkpt lat="43.39124" lon="6.64606">
        <ele>169.931</ele>
        <time>2012-10-14T10:13:01.388Z</time>
      </trkpt>
      <trkpt lat="43.39133" lon="6.64607">
        <ele>171.273</ele>
        <time>2012-10-14T10:13:08.579Z</time>
      </trkpt>
      <trkpt lat="43.39143" lon="6.64609">
        <ele>172.501</ele>
        <time>2012-10-14T10:13:15.930Z</time>
      </trkpt>
      <trkpt lat="43.39152" lon="6.64612">
        <ele>173.443</ele>
        <time>2012-10-14T10:13:23.831Z</time>
      </trkpt>
      <trkpt lat="43.39162" lon="6.64612">
        <ele>174.1</ele>
        <time>2012-10-14T10:13:32.464Z</time>
      </trkpt>
      <trkpt lat="43.39172" lon="6.6461">
        <ele>174.627</ele>
        <time>2012-10-14T10:13:40.700Z</time>
      </trkpt>
      <trkpt lat="43.39181" lon="6.64606">
        <ele>175.198</ele>
        <time>2012-10-14T10:13:48.103Z</time>
      </trkpt>
      <trkpt lat="43.39191" lon="6.64604">
        <ele>175.856</ele>
        <time>2012-10-14T10:13:55.126Z</time>
      </trkpt>
      <trkpt lat="43.392" lon="6.64601">
        <ele>176.716</ele>
        <time>2012-10-14T10:14:02.398Z</time>
      </trkpt>
      <trkpt lat="43.3921" lon="6.64598">
        <ele>177.879</ele>
        <time>2012-10-14T10:14:09.508Z</time>
      </trkpt>
      <trkpt lat="43.39219" lon="6.64595">
        <ele>179.217</ele>
        <time>2012-10-14T10:14:15.877Z</time>
      </trkpt>
      <trkpt lat="43.39228" lon="6.64592">
        <ele>180.517</ele>
        <time>2012-10-14T10:14:22.004Z</time>
      </trkpt>
      <trkpt lat="43.39238" lon="6.64587">
        <ele>181.677</ele>
        <time>2012-10-14T10:14:28.126Z</time>
      </trkpt>
      <trkpt lat="43.39247" lon="6.64583">
        <ele>182.629</ele>
        <time>2012-10-14T10:14:33.475Z</time>
      </trkpt>
      <trkpt lat="43.39257" lon="6.64579">
        <ele>183.354</ele>
        <time>2012-10-14T10:14:38.856Z</time>
      </trkpt>
      <trkpt lat="43.39267" lon="6.64578">
        <ele>183.769</ele>
        <time>2012-10-14T10:14:43.922Z</time>
      </trkpt>
      <trkpt lat="43.39277" lon="6.64578">
        <ele>184.004</ele>
        <time>2012-10-14T10:14:49.379Z</time>
      </trkpt>
      <trkpt lat="43.39287" lon="6.6458">
        <ele>184.272</ele>
        <time>2012-10-14T10:14:54.589Z</time>
      </trkpt>
      <trkpt lat="43.39296" lon="6.64582">
        <ele>184.642</ele>
        <time>2012-10-14T10:14:59.960Z</time>
      </trkpt>
      <trkpt lat="43.39305" lon="6.64583">
        <ele>185.051</ele>
        <time>2012-10-14T10:15:05.806Z</time>
      </trkpt>
      <trkpt lat="43.39315" lon="6.64587">
        <ele>185.522</ele>
        <time>2012-10-14T10:15:11.939Z</time>
      </trkpt>
      <trkpt lat="43.39323" lon="6.64594">
        <ele>186.088</ele>
        <time>2012-10-14T10:15:18.248Z</time>
      </trkpt>
      <trkpt lat="43.3933" lon="6.64604">
        <ele>186.844</ele>
        <time>2012-10-14T10:15:24.511Z</time>
      </trkpt>
      <trkpt lat="43.39336" lon="6.64615">
        <ele>187.87</ele>
        <time>2012-10-14T10:15:30.347Z</time>
      </trkpt>
      <trkpt lat="43.39344" lon="6.6462">
        <ele>189.115</ele>
        <time>2012-10-14T10:15:36.065Z</time>
      </trkpt>
      <trkpt lat="43.39353" lon="6.64617">
        <ele>190.336</ele>
        <time>2012-10-14T10:15:41.051Z</time>
      </trkpt>
      <trkpt lat="43.39365" lon="6.64612">
        <ele>191.16</ele>
        <time>2012-10-14T10:15:45.814Z</time>
      </trkpt>
      <trkpt lat="43.39374" lon="6.64609">
        <ele>191.432</ele>
        <time>2012-10-14T10:15:48.663Z</time>
      </trkpt>
      <trkpt lat="43.39388" lon="6.64604">
        <ele>191.386</ele>
        <time>2012-10-14T10:15:52.367Z</time>
      </trkpt>
      <trkpt lat="43.39401" lon="6.64601">
        <ele>190.831</ele>
        <time>2012-10-14T10:15:55.515Z</time>
      </trkpt>
      <trkpt lat="43.39415" lon="6.64597">
        <ele>189.588</ele>
        <time>2012-10-14T10:15:58.622Z</time>
      </trkpt>
      <trkpt lat="43.39425" lon="6.64592">
        <ele>188.266</ele>
        <time>2012-10-14T10:16:00.774Z</time>
      </trkpt>
      <trkpt lat="43.39434" lon="6.64586">
        <ele>187.479</ele>
        <time>2012-10-14T10:16:02.924Z</time>
      </trkpt>
      <trkpt lat="43.39447" lon="6.64575">
        <ele>187.125</ele>
        <time>2012-10-14T10:16:06.123Z</time>
      </trkpt>
      <trkpt lat="43.39457" lon="6.64564">
        <ele>186.947</ele>
        <time>2012-10-14T10:16:09.046Z</time>
      </trkpt>
      <trkpt lat="43.39466" lon="6.64553">
        <ele>186.827</ele>
        <time>2012-10-14T10:16:11.579Z</time>
      </trkpt>
      <trkpt lat="43.39475" lon="6.64539">
        <ele>186.763</ele>
        <time>2012-10-14T10:16:14.444Z</time>
      </trkpt>
      <trkpt lat="43.39485" lon="6.64524">
        <ele>186.748</ele>
        <time>2012-10-14T10:16:17.716Z</time>
      </trkpt>
      <trkpt lat="43.3949" lon="6.64513">
        <ele>186.785</ele>
        <time>2012-10-14T10:16:19.791Z</time>
      </trkpt>
      <trkpt lat="43.39496" lon="6.64497">
        <ele>186.887</ele>
        <time>2012-10-14T10:16:22.692Z</time>
      </trkpt>
      <trkpt lat="43.39501" lon="6.64481">
        <ele>187.013</ele>
        <time>2012-10-14T10:16:25.543Z</time>
      </trkpt>
      <trkpt lat="43.39506" lon="6.64466">
        <ele>187.099</ele>
        <time>2012-10-14T10:16:28.324Z</time>
      </trkpt>
      <trkpt lat="43.39512" lon="6.64451">
        <ele>187.131</ele>
        <time>2012-10-14T10:16:31.477Z</time>
      </trkpt>
      <trkpt lat="43.39519" lon="6.6444">
        <ele>187.111</ele>
        <time>2012-10-14T10:16:34.297Z</time>
      </trkpt>
      <trkpt lat="43.39528" lon="6.64429">
        <ele>187.051</ele>
        <time>2012-10-14T10:16:37.610Z</time>
      </trkpt>
      <trkpt lat="43.39538" lon="6.64422">
        <ele>186.992</ele>
        <time>2012-10-14T10:16:41.023Z</time>
      </trkpt>
      <trkpt lat="43.39549" lon="6.64414">
        <ele>186.943</ele>
        <time>2012-10-14T10:16:44.724Z</time>
      </trkpt>
      <trkpt lat="43.39558" lon="6.64409">
        <ele>186.851</ele>
        <time>2012-10-14T10:16:47.493Z</time>
      </trkpt>
      <trkpt lat="43.39569" lon="6.64403">
        <ele>186.709</ele>
        <time>2012-10-14T10:16:50.697Z</time>
      </trkpt>
      <trkpt lat="43.39579" lon="6.64398">
        <ele>186.586</ele>
        <time>2012-10-14T10:16:53.784Z</time>
      </trkpt>
      <trkpt lat="43.39589" lon="6.64394">
        <ele>186.526</ele>
        <time>2012-10-14T10:16:56.600Z</time>
      </trkpt>
      <trkpt lat="43.39598" lon="6.64389">
        <ele>186.513</ele>
        <time>2012-10-14T10:16:59.415Z</time>
      </trkpt>
      <trkpt lat="43.39608" lon="6.64385">
        <ele>186.52</ele>
        <time>2012-10-14T10:17:02.178Z</time>
      </trkpt>
      <trkpt lat="43.39618" lon="6.64379">
        <ele>186.53</ele>
        <time>2012-10-14T10:17:05.218Z</time>
      </trkpt>
      <trkpt lat="43.39628" lon="6.64375">
        <ele>186.567</ele>
        <time>2012-10-14T10:17:08.022Z</time>
      </trkpt>
      <trkpt lat="43.39639" lon="6.6437">
        <ele>186.697</ele>
        <time>2012-10-14T10:17:11.157Z</time>
      </trkpt>
      <trkpt lat="43.3965" lon="6.64364">
        <ele>186.899</ele>
        <time>2012-10-14T10:17:14.391Z</time>
      </trkpt>
      <trkpt lat="43.39661" lon="6.64356">
        <ele>187.059</ele>
        <time>2012-10-14T10:17:17.448Z</time>
      </trkpt>
      <trkpt lat="43.39669" lon="6.6435">
        <ele>187.077</ele>
        <time>2012-10-14T10:17:19.819Z</time>
      </trkpt>
      <trkpt lat="43.39683" lon="6.64342">
        <ele>186.848</ele>
        <time>2012-10-14T10:17:23.037Z</time>
      </trkpt>
      <trkpt lat="43.39698" lon="6.64336">
        <ele>186.342</ele>
        <time>2012-10-14T10:17:26.312Z</time>
      </trkpt>
      <trkpt lat="43.3971" lon="6.64333">
        <ele>185.753</ele>
        <time>2012-10-14T10:17:28.597Z</time>
      </trkpt>
      <trkpt lat="43.3972" lon="6.64329">
        <ele>185.342</ele>
        <time>2012-10-14T10:17:30.598Z</time>
      </trkpt>
      <trkpt lat="43.39737" lon="6.64323">
        <ele>185.201</ele>
        <time>2012-10-14T10:17:33.778Z</time>
      </trkpt>
      <trkpt lat="43.39755" lon="6.64317">
        <ele>185.249</ele>
        <time>2012-10-14T10:17:37.151Z</time>
      </trkpt>
      <trkpt lat="43.39771" lon="6.64313">
        <ele>185.345</ele>
        <time>2012-10-14T10:17:40.216Z</time>
      </trkpt>
      <trkpt lat="43.39782" lon="6.6431">
        <ele>185.343</ele>
        <time>2012-10-14T10:17:42.172Z</time>
      </trkpt>
      <trkpt lat="43.39793" lon="6.6431">
        <ele>185.133</ele>
        <time>2012-10-14T10:17:44.074Z</time>
      </trkpt>
      <trkpt lat="43.39804" lon="6.64309">
        <ele>184.719</ele>
        <time>2012-10-14T10:17:45.979Z</time>
      </trkpt>
      <trkpt lat="43.39817" lon="6.64309">
        <ele>184.193</ele>
        <time>2012-10-14T10:17:48.254Z</time>
      </trkpt>
      <trkpt lat="43.39836" lon="6.64308">
        <ele>183.554</ele>
        <time>2012-10-14T10:17:51.843Z</time>
      </trkpt>
      <trkpt lat="43.39849" lon="6.64302">
        <ele>182.707</ele>
        <time>2012-10-14T10:17:54.654Z</time>
      </trkpt>
      <trkpt lat="43.39855" lon="6.6429">
        <ele>181.543</ele>
        <time>2012-10-14T10:17:56.810Z</time>
      </trkpt>
      <trkpt lat="43.39859" lon="6.64273">
        <ele>180.136</ele>
        <time>2012-10-14T10:17:59.554Z</time>
      </trkpt>
      <trkpt lat="43.39866" lon="6.64255">
        <ele>178.823</ele>
        <time>2012-10-14T10:18:02.620Z</time>
      </trkpt>
      <trkpt lat="43.39875" lon="6.6424">
        <ele>177.943</ele>
        <time>2012-10-14T10:18:05.606Z</time>
      </trkpt>
      <trkpt lat="43.39883" lon="6.64229">
        <ele>177.566</ele>
        <time>2012-10-14T10:18:08.350Z</time>
      </trkpt>
      <trkpt lat="43.39891" lon="6.64222">
        <ele>177.533</ele>
        <time>2012-10-14T10:18:10.619Z</time>
      </trkpt>
      <trkpt lat="43.39902" lon="6.64217">
        <ele>177.758</ele>
        <time>2012-10-14T10:18:13.720Z</time>
      </trkpt>
      <trkpt lat="43.39914" lon="6.64216">
        <ele>178.202</ele>
        <time>2012-10-14T10:18:17.126Z</time>
      </trkpt>
      <trkpt lat="43.39926" lon="6.64216">
        <ele>178.671</ele>
        <time>2012-10-14T10:18:20.766Z</time>
      </trkpt>
      <trkpt lat="43.39935" lon="6.64217">
        <ele>179.039</ele>
        <time>2012-10-14T10:18:24.052Z</time>
      </trkpt>
      <trkpt lat="43.39945" lon="6.64219">
        <ele>179.472</ele>
        <time>2012-10-14T10:18:27.866Z</time>
      </trkpt>
      <trkpt lat="43.39954" lon="6.64219">
        <ele>180.041</ele>
        <time>2012-10-14T10:18:31.814Z</time>
      </trkpt>
      <trkpt lat="43.39964" lon="6.64218">
        <ele>180.685</ele>
        <time>2012-10-14T10:18:36.226Z</time>
      </trkpt>
      <trkpt lat="43.39974" lon="6.64218">
        <ele>181.362</ele>
        <time>2012-10-14T10:18:40.963Z</time>
      </trkpt>
      <trkpt lat="43.39985" lon="6.64216">
        <ele>182.287</ele>
        <time>2012-10-14T10:18:45.891Z</time>
      </trkpt>
      <trkpt lat="43.39995" lon="6.64213">
        <ele>183.501</ele>
        <time>2012-10-14T10:18:50.926Z</time>
      </trkpt>
      <trkpt lat="43.40005" lon="6.6421">
        <ele>184.543</ele>
        <time>2012-10-14T10:18:56.156Z</time>
      </trkpt>
      <trkpt lat="43.40014" lon="6.64207">
        <ele>185.147</ele>
        <time>2012-10-14T10:19:00.798Z</time>
      </trkpt>
      <trkpt lat="43.40024" lon="6.64204">
        <ele>185.731</ele>
        <time>2012-10-14T10:19:06.160Z</time>
      </trkpt>
      <trkpt lat="43.40032" lon="6.64195">
        <ele>186.556</ele>
        <time>2012-10-14T10:19:11.852Z</time>
      </trkpt>
      <trkpt lat="43.4004" lon="6.64186">
        <ele>187.424</ele>
        <time>2012-10-14T10:19:17.969Z</time>
      </trkpt>
      <trkpt lat="43.40049" lon="6.64182">
        <ele>188.071</ele>
        <time>2012-10-14T10:19:24.014Z</time>
      </trkpt>
      <trkpt lat="43.40049" lon="6.64182">
        <ele>188.436</ele>
        <time>2012-10-14T10:19:45.004Z</time>
      </trkpt>
      <trkpt lat="43.40049" lon="6.64182">
        <ele>188.573</ele>
        <time>2012-10-14T10:35:14.290Z</time>
      </trkpt>
      <trkpt lat="43.40039" lon="6.64172">
        <ele>188.571</ele>
        <time>2012-10-14T10:35:34.688Z</time>
      </trkpt>
      <trkpt lat="43.40029" lon="6.64163">
        <ele>188.531</ele>
        <time>2012-10-14T10:35:40.807Z</time>
      </trkpt>
      <trkpt lat="43.4002" lon="6.64159">
        <ele>188.463</ele>
        <time>2012-10-14T10:35:44.303Z</time>
      </trkpt>
      <trkpt lat="43.40007" lon="6.64152">
        <ele>188.302</ele>
        <time>2012-10-14T10:35:47.949Z</time>
      </trkpt>
      <trkpt lat="43.39998" lon="6.64146">
        <ele>187.966</ele>
        <time>2012-10-14T10:35:50.425Z</time>
      </trkpt>
      <trkpt lat="43.39984" lon="6.64138">
        <ele>187.442</ele>
        <time>2012-10-14T10:35:53.409Z</time>
      </trkpt>
      <trkpt lat="43.39968" lon="6.64128">
        <ele>186.62</ele>
        <time>2012-10-14T10:35:56.359Z</time>
      </trkpt>
      <trkpt lat="43.39956" lon="6.64119">
        <ele>185.478</ele>
        <time>2012-10-14T10:35:58.438Z</time>
      </trkpt>
      <trkpt lat="43.3994" lon="6.64099">
        <ele>184.046</ele>
        <time>2012-10-14T10:36:01.896Z</time>
      </trkpt>
      <trkpt lat="43.39929" lon="6.6409">
        <ele>182.459</ele>
        <time>2012-10-14T10:36:04.009Z</time>
      </trkpt>
      <trkpt lat="43.39912" lon="6.6408">
        <ele>181.192</ele>
        <time>2012-10-14T10:36:07.337Z</time>
      </trkpt>
      <trkpt lat="43.39902" lon="6.64069">
        <ele>180.618</ele>
        <time>2012-10-14T10:36:09.915Z</time>
      </trkpt>
      <trkpt lat="43.39893" lon="6.64059">
        <ele>180.533</ele>
        <time>2012-10-14T10:36:12.288Z</time>
      </trkpt>
      <trkpt lat="43.39882" lon="6.64047">
        <ele>180.631</ele>
        <time>2012-10-14T10:36:15.381Z</time>
      </trkpt>
      <trkpt lat="43.39868" lon="6.64047">
        <ele>180.459</ele>
        <time>2012-10-14T10:36:18.373Z</time>
      </trkpt>
      <trkpt lat="43.39859" lon="6.6406">
        <ele>179.778</ele>
        <time>2012-10-14T10:36:21.306Z</time>
      </trkpt>
      <trkpt lat="43.39848" lon="6.64069">
        <ele>178.898</ele>
        <time>2012-10-14T10:36:24.226Z</time>
      </trkpt>
      <trkpt lat="43.39835" lon="6.64073">
        <ele>178.045</ele>
        <time>2012-10-14T10:36:27.157Z</time>
      </trkpt>
      <trkpt lat="43.39823" lon="6.64074">
        <ele>176.98</ele>
        <time>2012-10-14T10:36:30.314Z</time>
      </trkpt>
      <trkpt lat="43.3981" lon="6.64074">
        <ele>175.687</ele>
        <time>2012-10-14T10:36:33.513Z</time>
      </trkpt>
      <trkpt lat="43.39798" lon="6.64073">
        <ele>174.594</ele>
        <time>2012-10-14T10:36:36.242Z</time>
      </trkpt>
      <trkpt lat="43.39788" lon="6.64072">
        <ele>174.044</ele>
        <time>2012-10-14T10:36:39.040Z</time>
      </trkpt>
      <trkpt lat="43.39776" lon="6.64066">
        <ele>174.018</ele>
        <time>2012-10-14T10:36:43.879Z</time>
      </trkpt>
      <trkpt lat="43.39766" lon="6.6406">
        <ele>174.316</ele>
        <time>2012-10-14T10:36:49.022Z</time>
      </trkpt>
      <trkpt lat="43.39757" lon="6.64055">
        <ele>174.971</ele>
        <time>2012-10-14T10:36:53.582Z</time>
      </trkpt>
      <trkpt lat="43.39747" lon="6.6405">
        <ele>176.289</ele>
        <time>2012-10-14T10:36:57.727Z</time>
      </trkpt>
      <trkpt lat="43.39737" lon="6.64048">
        <ele>177.987</ele>
        <time>2012-10-14T10:37:00.338Z</time>
      </trkpt>
      <trkpt lat="43.39728" lon="6.64048">
        <ele>179.215</ele>
        <time>2012-10-14T10:37:02.298Z</time>
      </trkpt>
      <trkpt lat="43.39716" lon="6.64052">
        <ele>179.683</ele>
        <time>2012-10-14T10:37:04.713Z</time>
      </trkpt>
      <trkpt lat="43.39704" lon="6.64053">
        <ele>180.023</ele>
        <time>2012-10-14T10:37:06.915Z</time>
      </trkpt>
      <trkpt lat="43.39689" lon="6.64048">
        <ele>180.734</ele>
        <time>2012-10-14T10:37:09.772Z</time>
      </trkpt>
      <trkpt lat="43.3968" lon="6.64041">
        <ele>181.467</ele>
        <time>2012-10-14T10:37:11.941Z</time>
      </trkpt>
      <trkpt lat="43.39666" lon="6.6403">
        <ele>181.799</ele>
        <time>2012-10-14T10:37:17.169Z</time>
      </trkpt>
      <trkpt lat="43.39656" lon="6.64024">
        <ele>181.869</ele>
        <time>2012-10-14T10:37:22.070Z</time>
      </trkpt>
      <trkpt lat="43.39646" lon="6.64021">
        <ele>181.869</ele>
        <time>2012-10-14T10:37:27.089Z</time>
      </trkpt>
      <trkpt lat="43.39636" lon="6.64021">
        <ele>181.862</ele>
        <time>2012-10-14T10:37:31.821Z</time>
      </trkpt>
      <trkpt lat="43.39627" lon="6.64018">
        <ele>181.875</ele>
        <time>2012-10-14T10:37:35.833Z</time>
      </trkpt>
      <trkpt lat="43.39617" lon="6.64009">
        <ele>182.097</ele>
        <time>2012-10-14T10:37:39.731Z</time>
      </trkpt>
      <trkpt lat="43.39609" lon="6.63998">
        <ele>182.927</ele>
        <time>2012-10-14T10:37:42.900Z</time>
      </trkpt>
      <trkpt lat="43.39603" lon="6.63984">
        <ele>184.575</ele>
        <time>2012-10-14T10:37:46.002Z</time>
      </trkpt>
      <trkpt lat="43.396" lon="6.63971">
        <ele>186.537</ele>
        <time>2012-10-14T10:37:48.533Z</time>
      </trkpt>
      <trkpt lat="43.39596" lon="6.63954">
        <ele>187.952</ele>
        <time>2012-10-14T10:37:51.781Z</time>
      </trkpt>
      <trkpt lat="43.39593" lon="6.63942">
        <ele>188.457</ele>
        <time>2012-10-14T10:37:54.247Z</time>
      </trkpt>
      <trkpt lat="43.39582" lon="6.63934">
        <ele>188.274</ele>
        <time>2012-10-14T10:37:57.164Z</time>
      </trkpt>
      <trkpt lat="43.39574" lon="6.63929">
        <ele>187.819</ele>
        <time>2012-10-14T10:37:59.378Z</time>
      </trkpt>
      <trkpt lat="43.39563" lon="6.63924">
        <ele>187.462</ele>
        <time>2012-10-14T10:38:02.093Z</time>
      </trkpt>
      <trkpt lat="43.39553" lon="6.6393">
        <ele>187.219</ele>
        <time>2012-10-14T10:38:04.906Z</time>
      </trkpt>
      <trkpt lat="43.39545" lon="6.63939">
        <ele>186.727</ele>
        <time>2012-10-14T10:38:07.375Z</time>
      </trkpt>
      <trkpt lat="43.39535" lon="6.63949">
        <ele>185.914</ele>
        <time>2012-10-14T10:38:10.353Z</time>
      </trkpt>
      <trkpt lat="43.39525" lon="6.63956">
        <ele>185.369</ele>
        <time>2012-10-14T10:38:13.374Z</time>
      </trkpt>
      <trkpt lat="43.39516" lon="6.63959">
        <ele>185.461</ele>
        <time>2012-10-14T10:38:15.999Z</time>
      </trkpt>
      <trkpt lat="43.39506" lon="6.63961">
        <ele>185.731</ele>
        <time>2012-10-14T10:38:18.404Z</time>
      </trkpt>
      <trkpt lat="43.39493" lon="6.63959">
        <ele>185.722</ele>
        <time>2012-10-14T10:38:21.198Z</time>
      </trkpt>
      <trkpt lat="43.3948" lon="6.63951">
        <ele>185.637</ele>
        <time>2012-10-14T10:38:24.708Z</time>
      </trkpt>
      <trkpt lat="43.3947" lon="6.63944">
        <ele>185.884</ele>
        <time>2012-10-14T10:38:28.261Z</time>
      </trkpt>
      <trkpt lat="43.39461" lon="6.63941">
        <ele>186.515</ele>
        <time>2012-10-14T10:38:31.476Z</time>
      </trkpt>
      <trkpt lat="43.39451" lon="6.63943">
        <ele>187.891</ele>
        <time>2012-10-14T10:38:35.063Z</time>
      </trkpt>
      <trkpt lat="43.39442" lon="6.63947">
        <ele>190.165</ele>
        <time>2012-10-14T10:38:37.946Z</time>
      </trkpt>
      <trkpt lat="43.3943" lon="6.63949">
        <ele>192.414</ele>
        <time>2012-10-14T10:38:40.705Z</time>
      </trkpt>
      <trkpt lat="43.39417" lon="6.63946">
        <ele>193.744</ele>
        <time>2012-10-14T10:38:43.567Z</time>
      </trkpt>
      <trkpt lat="43.39408" lon="6.63942">
        <ele>194.103</ele>
        <time>2012-10-14T10:38:45.684Z</time>
      </trkpt>
      <trkpt lat="43.39399" lon="6.63939">
        <ele>193.708</ele>
        <time>2012-10-14T10:38:48.211Z</time>
      </trkpt>
      <trkpt lat="43.39389" lon="6.63935">
        <ele>192.893</ele>
        <time>2012-10-14T10:38:51.558Z</time>
      </trkpt>
      <trkpt lat="43.3938" lon="6.63933">
        <ele>192.027</ele>
        <time>2012-10-14T10:38:55.611Z</time>
      </trkpt>
      <trkpt lat="43.3937" lon="6.63934">
        <ele>191.454</ele>
        <time>2012-10-14T10:39:00.820Z</time>
      </trkpt>
      <trkpt lat="43.39359" lon="6.63938">
        <ele>191.269</ele>
        <time>2012-10-14T10:39:06.245Z</time>
      </trkpt>
      <trkpt lat="43.39349" lon="6.6394">
        <ele>191.63</ele>
        <time>2012-10-14T10:39:11.531Z</time>
      </trkpt>
      <trkpt lat="43.39339" lon="6.6394">
        <ele>192.646</ele>
        <time>2012-10-14T10:39:17.419Z</time>
      </trkpt>
      <trkpt lat="43.39329" lon="6.63944">
        <ele>193.776</ele>
        <time>2012-10-14T10:39:23.128Z</time>
      </trkpt>
      <trkpt lat="43.3932" lon="6.63949">
        <ele>194.499</ele>
        <time>2012-10-14T10:39:27.817Z</time>
      </trkpt>
      <trkpt lat="43.3931" lon="6.63953">
        <ele>195.048</ele>
        <time>2012-10-14T10:39:32.737Z</time>
      </trkpt>
      <trkpt lat="43.393" lon="6.63958">
        <ele>196.48</ele>
        <time>2012-10-14T10:39:37.354Z</time>
      </trkpt>
      <trkpt lat="43.39292" lon="6.63965">
        <ele>199.146</ele>
        <time>2012-10-14T10:39:41.471Z</time>
      </trkpt>
      <trkpt lat="43.39285" lon="6.63973">
        <ele>201.612</ele>
        <time>2012-10-14T10:39:45.376Z</time>
      </trkpt>
      <trkpt lat="43.39281" lon="6.63985">
        <ele>202.674</ele>
        <time>2012-10-14T10:39:50.213Z</time>
      </trkpt>
      <trkpt lat="43.39278" lon="6.63998">
        <ele>202.734</ele>
        <time>2012-10-14T10:39:55.705Z</time>
      </trkpt>
      <trkpt lat="43.39269" lon="6.64005">
        <ele>202.43</ele>
        <time>2012-10-14T10:40:01.639Z</time>
      </trkpt>
      <trkpt lat="43.3926" lon="6.64004">
        <ele>202.1</ele>
        <time>2012-10-14T10:40:06.809Z</time>
      </trkpt>
      <trkpt lat="43.3925" lon="6.64001">
        <ele>201.893</ele>
        <time>2012-10-14T10:40:12.518Z</time>
      </trkpt>
      <trkpt lat="43.3924" lon="6.63996">
        <ele>201.832</ele>
        <time>2012-10-14T10:40:18.879Z</time>
      </trkpt>
      <trkpt lat="43.3923" lon="6.6399">
        <ele>201.844</ele>
        <time>2012-10-14T10:40:25.074Z</time>
      </trkpt>
      <trkpt lat="43.39221" lon="6.63987">
        <ele>202.146</ele>
        <time>2012-10-14T10:40:30.081Z</time>
      </trkpt>
      <trkpt lat="43.39212" lon="6.63981">
        <ele>203.004</ele>
        <time>2012-10-14T10:40:34.551Z</time>
      </trkpt>
      <trkpt lat="43.39204" lon="6.63974">
        <ele>204.07</ele>
        <time>2012-10-14T10:40:39.010Z</time>
      </trkpt>
      <trkpt lat="43.39198" lon="6.63965">
        <ele>204.767</ele>
        <time>2012-10-14T10:40:43.068Z</time>
      </trkpt>
      <trkpt lat="43.3919" lon="6.63956">
        <ele>205.017</ele>
        <time>2012-10-14T10:40:48.225Z</time>
      </trkpt>
      <trkpt lat="43.3918" lon="6.63947">
        <ele>205.132</ele>
        <time>2012-10-14T10:40:53.652Z</time>
      </trkpt>
      <trkpt lat="43.3917" lon="6.63945">
        <ele>205.352</ele>
        <time>2012-10-14T10:40:57.666Z</time>
      </trkpt>
      <trkpt lat="43.39161" lon="6.63949">
        <ele>205.595</ele>
        <time>2012-10-14T10:41:02.012Z</time>
      </trkpt>
      <trkpt lat="43.39152" lon="6.63954">
        <ele>205.93</ele>
        <time>2012-10-14T10:41:05.887Z</time>
      </trkpt>
      <trkpt lat="43.39142" lon="6.63958">
        <ele>206.817</ele>
        <time>2012-10-14T10:41:10.504Z</time>
      </trkpt>
      <trkpt lat="43.39132" lon="6.6396">
        <ele>208.207</ele>
        <time>2012-10-14T10:41:15.424Z</time>
      </trkpt>
      <trkpt lat="43.39123" lon="6.63962">
        <ele>209.612</ele>
        <time>2012-10-14T10:41:20.279Z</time>
      </trkpt>
      <trkpt lat="43.39113" lon="6.63966">
        <ele>210.95</ele>
        <time>2012-10-14T10:41:25.738Z</time>
      </trkpt>
      <trkpt lat="43.39104" lon="6.63971">
        <ele>212.732</ele>
        <time>2012-10-14T10:41:32.056Z</time>
      </trkpt>
      <trkpt lat="43.39094" lon="6.63979">
        <ele>215.048</ele>
        <time>2012-10-14T10:41:38.991Z</time>
      </trkpt>
      <trkpt lat="43.39087" lon="6.63986">
        <ele>217.062</ele>
        <time>2012-10-14T10:41:44.337Z</time>
      </trkpt>
      <trkpt lat="43.39077" lon="6.63994">
        <ele>218.062</ele>
        <time>2012-10-14T10:41:49.876Z</time>
      </trkpt>
      <trkpt lat="43.39069" lon="6.64001">
        <ele>218.28</ele>
        <time>2012-10-14T10:41:53.909Z</time>
      </trkpt>
      <trkpt lat="43.39059" lon="6.6401">
        <ele>218.207</ele>
        <time>2012-10-14T10:41:58.747Z</time>
      </trkpt>
      <trkpt lat="43.39045" lon="6.64019">
        <ele>218.282</ele>
        <time>2012-10-14T10:42:04.464Z</time>
      </trkpt>
      <trkpt lat="43.39032" lon="6.64029">
        <ele>218.658</ele>
        <time>2012-10-14T10:42:08.686Z</time>
      </trkpt>
      <trkpt lat="43.3902" lon="6.64038">
        <ele>219.102</ele>
        <time>2012-10-14T10:42:11.899Z</time>
      </trkpt>
      <trkpt lat="43.39" lon="6.64058">
        <ele>219.359</ele>
        <time>2012-10-14T10:42:16.451Z</time>
      </trkpt>
      <trkpt lat="43.38982" lon="6.64071">
        <ele>219.426</ele>
        <time>2012-10-14T10:42:19.667Z</time>
      </trkpt>
      <trkpt lat="43.38971" lon="6.64073">
        <ele>218.994</ele>
        <time>2012-10-14T10:42:21.382Z</time>
      </trkpt>
      <trkpt lat="43.38959" lon="6.64076">
        <ele>217.696</ele>
        <time>2012-10-14T10:42:23.361Z</time>
      </trkpt>
      <trkpt lat="43.38947" lon="6.64079">
        <ele>215.421</ele>
        <time>2012-10-14T10:42:25.574Z</time>
      </trkpt>
      <trkpt lat="43.38935" lon="6.64069">
        <ele>212.348</ele>
        <time>2012-10-14T10:42:28.447Z</time>
      </trkpt>
      <trkpt lat="43.38934" lon="6.64053">
        <ele>209.411</ele>
        <time>2012-10-14T10:42:31.183Z</time>
      </trkpt>
      <trkpt lat="43.38939" lon="6.64039">
        <ele>207.004</ele>
        <time>2012-10-14T10:42:34.034Z</time>
      </trkpt>
      <trkpt lat="43.38944" lon="6.64025">
        <ele>204.497</ele>
        <time>2012-10-14T10:42:36.865Z</time>
      </trkpt>
      <trkpt lat="43.3895" lon="6.64013">
        <ele>201.858</ele>
        <time>2012-10-14T10:42:39.967Z</time>
      </trkpt>
      <trkpt lat="43.38959" lon="6.64007">
        <ele>199.541</ele>
        <time>2012-10-14T10:42:44.040Z</time>
      </trkpt>
      <trkpt lat="43.38959" lon="6.64007">
        <ele>197.862</ele>
        <time>2012-10-14T10:42:47.047Z</time>
      </trkpt>
      <trkpt lat="43.38959" lon="6.64007">
        <ele>197.088</ele>
        <time>2012-10-14T10:42:55.604Z</time>
      </trkpt>
      <trkpt lat="43.38971" lon="6.63994">
        <ele>196.772</ele>
        <time>2012-10-14T10:43:04.226Z</time>
      </trkpt>
      <trkpt lat="43.38984" lon="6.63985">
        <ele>196.325</ele>
        <time>2012-10-14T10:43:08.245Z</time>
      </trkpt>
      <trkpt lat="43.38994" lon="6.63978">
        <ele>195.797</ele>
        <time>2012-10-14T10:43:11.309Z</time>
      </trkpt>
      <trkpt lat="43.39002" lon="6.63969">
        <ele>195.49</ele>
        <time>2012-10-14T10:43:13.875Z</time>
      </trkpt>
      <trkpt lat="43.39012" lon="6.63957">
        <ele>194.912</ele>
        <time>2012-10-14T10:43:17.619Z</time>
      </trkpt>
      <trkpt lat="43.39022" lon="6.6395">
        <ele>193.642</ele>
        <time>2012-10-14T10:43:21.190Z</time>
      </trkpt>
      <trkpt lat="43.39029" lon="6.63941">
        <ele>192.354</ele>
        <time>2012-10-14T10:43:24.910Z</time>
      </trkpt>
      <trkpt lat="43.39032" lon="6.63928">
        <ele>191.747</ele>
        <time>2012-10-14T10:43:28.536Z</time>
      </trkpt>
      <trkpt lat="43.3903" lon="6.63916">
        <ele>191.658</ele>
        <time>2012-10-14T10:43:31.866Z</time>
      </trkpt>
      <trkpt lat="43.39023" lon="6.63904">
        <ele>191.764</ele>
        <time>2012-10-14T10:43:35.270Z</time>
      </trkpt>
      <trkpt lat="43.39017" lon="6.63891">
        <ele>191.869</ele>
        <time>2012-10-14T10:43:37.966Z</time>
      </trkpt>
      <trkpt lat="43.39009" lon="6.63879">
        <ele>191.842</ele>
        <time>2012-10-14T10:43:41.325Z</time>
      </trkpt>
      <trkpt lat="43.39" lon="6.63874">
        <ele>191.07</ele>
        <time>2012-10-14T10:43:44.289Z</time>
      </trkpt>
      <trkpt lat="43.38991" lon="6.63872">
        <ele>189.13</ele>
        <time>2012-10-14T10:43:47.023Z</time>
      </trkpt>
      <trkpt lat="43.38982" lon="6.63863">
        <ele>186.79</ele>
        <time>2012-10-14T10:43:50.274Z</time>
      </trkpt>
      <trkpt lat="43.38974" lon="6.63855">
        <ele>184.617</ele>
        <time>2012-10-14T10:43:53.621Z</time>
      </trkpt>
      <trkpt lat="43.38966" lon="6.63847">
        <ele>182.087</ele>
        <time>2012-10-14T10:43:56.679Z</time>
      </trkpt>
      <trkpt lat="43.38958" lon="6.63832">
        <ele>178.875</ele>
        <time>2012-10-14T10:43:59.779Z</time>
      </trkpt>
      <trkpt lat="43.38954" lon="6.63815">
        <ele>175.554</ele>
        <time>2012-10-14T10:44:02.427Z</time>
      </trkpt>
      <trkpt lat="43.38948" lon="6.63802">
        <ele>173.14</ele>
        <time>2012-10-14T10:44:05.103Z</time>
      </trkpt>
      <trkpt lat="43.3894" lon="6.6379">
        <ele>171.999</ele>
        <time>2012-10-14T10:44:07.871Z</time>
      </trkpt>
      <trkpt lat="43.38929" lon="6.63775">
        <ele>170.518</ele>
        <time>2012-10-14T10:44:11.001Z</time>
      </trkpt>
      <trkpt lat="43.38918" lon="6.63766">
        <ele>167.191</ele>
        <time>2012-10-14T10:44:13.530Z</time>
      </trkpt>
      <trkpt lat="43.38909" lon="6.63757">
        <ele>162.852</ele>
        <time>2012-10-14T10:44:15.852Z</time>
      </trkpt>
      <trkpt lat="43.38902" lon="6.63747">
        <ele>159.341</ele>
        <time>2012-10-14T10:44:18.292Z</time>
      </trkpt>
      <trkpt lat="43.38893" lon="6.63734">
        <ele>157.404</ele>
        <time>2012-10-14T10:44:21.436Z</time>
      </trkpt>
      <trkpt lat="43.38885" lon="6.63727">
        <ele>156.772</ele>
        <time>2012-10-14T10:44:24.036Z</time>
      </trkpt>
      <trkpt lat="43.38882" lon="6.63713">
        <ele>156.628</ele>
        <time>2012-10-14T10:44:26.744Z</time>
      </trkpt>
      <trkpt lat="43.38874" lon="6.63703">
        <ele>156.065</ele>
        <time>2012-10-14T10:44:29.172Z</time>
      </trkpt>
      <trkpt lat="43.38862" lon="6.6369">
        <ele>154.805</ele>
        <time>2012-10-14T10:44:32.407Z</time>
      </trkpt>
      <trkpt lat="43.38855" lon="6.6368">
        <ele>153.612</ele>
        <time>2012-10-14T10:44:34.926Z</time>
      </trkpt>
      <trkpt lat="43.38849" lon="6.63672">
        <ele>153.046</ele>
        <time>2012-10-14T10:44:37.488Z</time>
      </trkpt>
      <trkpt lat="43.38841" lon="6.63662">
        <ele>152.096</ele>
        <time>2012-10-14T10:44:39.628Z</time>
      </trkpt>
      <trkpt lat="43.38831" lon="6.63653">
        <ele>149.489</ele>
        <time>2012-10-14T10:44:41.996Z</time>
      </trkpt>
      <trkpt lat="43.38819" lon="6.6364">
        <ele>146.023</ele>
        <time>2012-10-14T10:44:45.451Z</time>
      </trkpt>
      <trkpt lat="43.38809" lon="6.63631">
        <ele>143.638</ele>
        <time>2012-10-14T10:44:47.941Z</time>
      </trkpt>
      <trkpt lat="43.38803" lon="6.63618">
        <ele>142.65</ele>
        <time>2012-10-14T10:44:50.197Z</time>
      </trkpt>
      <trkpt lat="43.38798" lon="6.63606">
        <ele>142.139</ele>
        <time>2012-10-14T10:44:51.991Z</time>
      </trkpt>
      <trkpt lat="43.38791" lon="6.63589">
        <ele>141.622</ele>
        <time>2012-10-14T10:44:54.985Z</time>
      </trkpt>
      <trkpt lat="43.38786" lon="6.63573">
        <ele>141.208</ele>
        <time>2012-10-14T10:44:58.012Z</time>
      </trkpt>
      <trkpt lat="43.38783" lon="6.6356">
        <ele>141.01</ele>
        <time>2012-10-14T10:45:00.703Z</time>
      </trkpt>
      <trkpt lat="43.38778" lon="6.63546">
        <ele>140.815</ele>
        <time>2012-10-14T10:45:04.323Z</time>
      </trkpt>
      <trkpt lat="43.38778" lon="6.63532">
        <ele>140.418</ele>
        <time>2012-10-14T10:45:08.494Z</time>
      </trkpt>
      <trkpt lat="43.38782" lon="6.6352">
        <ele>140.01</ele>
        <time>2012-10-14T10:45:12.940Z</time>
      </trkpt>
      <trkpt lat="43.38786" lon="6.63508">
        <ele>139.817</ele>
        <time>2012-10-14T10:45:17.593Z</time>
      </trkpt>
      <trkpt lat="43.38788" lon="6.63495">
        <ele>140.204</ele>
        <time>2012-10-14T10:45:20.998Z</time>
      </trkpt>
      <trkpt lat="43.38781" lon="6.63484">
        <ele>141.673</ele>
        <time>2012-10-14T10:45:23.801Z</time>
      </trkpt>
      <trkpt lat="43.38771" lon="6.63483">
        <ele>143.772</ele>
        <time>2012-10-14T10:45:25.884Z</time>
      </trkpt>
      <trkpt lat="43.38756" lon="6.6348">
        <ele>145.346</ele>
        <time>2012-10-14T10:45:29.204Z</time>
      </trkpt>
      <trkpt lat="43.38743" lon="6.63488">
        <ele>145.965</ele>
        <time>2012-10-14T10:45:32.317Z</time>
      </trkpt>
      <trkpt lat="43.38734" lon="6.635">
        <ele>145.949</ele>
        <time>2012-10-14T10:45:35.310Z</time>
      </trkpt>
      <trkpt lat="43.38724" lon="6.63507">
        <ele>145.308</ele>
        <time>2012-10-14T10:45:38.049Z</time>
      </trkpt>
      <trkpt lat="43.38713" lon="6.635">
        <ele>144.052</ele>
        <time>2012-10-14T10:45:40.550Z</time>
      </trkpt>
      <trkpt lat="43.38702" lon="6.63492">
        <ele>142.23</ele>
        <time>2012-10-14T10:45:42.651Z</time>
      </trkpt>
      <trkpt lat="43.38685" lon="6.63482">
        <ele>139.481</ele>
        <time>2012-10-14T10:45:45.717Z</time>
      </trkpt>
      <trkpt lat="43.3867" lon="6.63473">
        <ele>136.286</ele>
        <time>2012-10-14T10:45:48.374Z</time>
      </trkpt>
      <trkpt lat="43.38659" lon="6.63454">
        <ele>134.044</ele>
        <time>2012-10-14T10:45:51.229Z</time>
      </trkpt>
      <trkpt lat="43.38649" lon="6.6343">
        <ele>132.244</ele>
        <time>2012-10-14T10:45:54.407Z</time>
      </trkpt>
      <trkpt lat="43.38645" lon="6.63414">
        <ele>129.791</ele>
        <time>2012-10-14T10:45:56.392Z</time>
      </trkpt>
      <trkpt lat="43.3864" lon="6.63402">
        <ele>126.669</ele>
        <time>2012-10-14T10:45:58.309Z</time>
      </trkpt>
      <trkpt lat="43.38629" lon="6.63395">
        <ele>123.254</ele>
        <time>2012-10-14T10:46:00.624Z</time>
      </trkpt>
      <trkpt lat="43.38618" lon="6.63399">
        <ele>119.804</ele>
        <time>2012-10-14T10:46:03.297Z</time>
      </trkpt>
      <trkpt lat="43.38609" lon="6.63403">
        <ele>116.556</ele>
        <time>2012-10-14T10:46:05.324Z</time>
      </trkpt>
      <trkpt lat="43.38594" lon="6.63397">
        <ele>113.311</ele>
        <time>2012-10-14T10:46:08.383Z</time>
      </trkpt>
      <trkpt lat="43.38582" lon="6.63395">
        <ele>109.986</ele>
        <time>2012-10-14T10:46:10.569Z</time>
      </trkpt>
      <trkpt lat="43.38566" lon="6.63393">
        <ele>106.702</ele>
        <time>2012-10-14T10:46:13.477Z</time>
      </trkpt>
      <trkpt lat="43.38556" lon="6.63389">
        <ele>104.061</ele>
        <time>2012-10-14T10:46:15.320Z</time>
      </trkpt>
      <trkpt lat="43.38542" lon="6.63394">
        <ele>102.538</ele>
        <time>2012-10-14T10:46:17.582Z</time>
      </trkpt>
      <trkpt lat="43.38524" lon="6.63409">
        <ele>101.572</ele>
        <time>2012-10-14T10:46:20.666Z</time>
      </trkpt>
      <trkpt lat="43.38505" lon="6.63424">
        <ele>100.215</ele>
        <time>2012-10-14T10:46:23.555Z</time>
      </trkpt>
      <trkpt lat="43.38497" lon="6.63437">
        <ele>98.061</ele>
        <time>2012-10-14T10:46:25.302Z</time>
      </trkpt>
      <trkpt lat="43.38483" lon="6.63459">
        <ele>95.296</ele>
        <time>2012-10-14T10:46:28.345Z</time>
      </trkpt>
      <trkpt lat="43.38472" lon="6.63474">
        <ele>92.463</ele>
        <time>2012-10-14T10:46:30.541Z</time>
      </trkpt>
      <trkpt lat="43.38457" lon="6.63489">
        <ele>90.222</ele>
        <time>2012-10-14T10:46:33.403Z</time>
      </trkpt>
      <trkpt lat="43.3844" lon="6.63506">
        <ele>88.95</ele>
        <time>2012-10-14T10:46:36.392Z</time>
      </trkpt>
      <trkpt lat="43.3843" lon="6.63518">
        <ele>88.631</ele>
        <time>2012-10-14T10:46:38.357Z</time>
      </trkpt>
      <trkpt lat="43.38423" lon="6.63542">
        <ele>88.782</ele>
        <time>2012-10-14T10:46:41.186Z</time>
      </trkpt>
      <trkpt lat="43.3842" lon="6.63561">
        <ele>89.039</ele>
        <time>2012-10-14T10:46:43.479Z</time>
      </trkpt>
      <trkpt lat="43.38413" lon="6.63574">
        <ele>89.216</ele>
        <time>2012-10-14T10:46:45.236Z</time>
      </trkpt>
      <trkpt lat="43.38401" lon="6.63591">
        <ele>89.277</ele>
        <time>2012-10-14T10:46:48.128Z</time>
      </trkpt>
      <trkpt lat="43.3839" lon="6.63604">
        <ele>88.741</ele>
        <time>2012-10-14T10:46:50.308Z</time>
      </trkpt>
      <trkpt lat="43.38382" lon="6.63616">
        <ele>87.323</ele>
        <time>2012-10-14T10:46:52.139Z</time>
      </trkpt>
      <trkpt lat="43.38372" lon="6.63629">
        <ele>85.849</ele>
        <time>2012-10-14T10:46:54.202Z</time>
      </trkpt>
      <trkpt lat="43.38357" lon="6.63642">
        <ele>85.123</ele>
        <time>2012-10-14T10:46:57.015Z</time>
      </trkpt>
      <trkpt lat="43.38345" lon="6.63648">
        <ele>84.993</ele>
        <time>2012-10-14T10:46:59.487Z</time>
      </trkpt>
      <trkpt lat="43.38335" lon="6.63655">
        <ele>85.103</ele>
        <time>2012-10-14T10:47:02.181Z</time>
      </trkpt>
      <trkpt lat="43.38326" lon="6.63664">
        <ele>85.128</ele>
        <time>2012-10-14T10:47:05.278Z</time>
      </trkpt>
      <trkpt lat="43.38319" lon="6.63673">
        <ele>84.944</ele>
        <time>2012-10-14T10:47:08.200Z</time>
      </trkpt>
      <trkpt lat="43.38309" lon="6.63684">
        <ele>84.596</ele>
        <time>2012-10-14T10:47:12.134Z</time>
      </trkpt>
      <trkpt lat="43.38301" lon="6.63692">
        <ele>84.185</ele>
        <time>2012-10-14T10:47:15.223Z</time>
      </trkpt>
      <trkpt lat="43.38293" lon="6.63701">
        <ele>83.867</ele>
        <time>2012-10-14T10:47:18.858Z</time>
      </trkpt>
      <trkpt lat="43.38285" lon="6.63707">
        <ele>83.854</ele>
        <time>2012-10-14T10:47:22.403Z</time>
      </trkpt>
      <trkpt lat="43.38277" lon="6.63714">
        <ele>84.17</ele>
        <time>2012-10-14T10:47:26.219Z</time>
      </trkpt>
      <trkpt lat="43.38268" lon="6.63719">
        <ele>84.794</ele>
        <time>2012-10-14T10:47:29.888Z</time>
      </trkpt>
      <trkpt lat="43.38259" lon="6.63719">
        <ele>85.869</ele>
        <time>2012-10-14T10:47:32.938Z</time>
      </trkpt>
      <trkpt lat="43.38247" lon="6.63714">
        <ele>87.218</ele>
        <time>2012-10-14T10:47:36.458Z</time>
      </trkpt>
      <trkpt lat="43.38236" lon="6.63709">
        <ele>88.202</ele>
        <time>2012-10-14T10:47:39.519Z</time>
      </trkpt>
      <trkpt lat="43.38226" lon="6.63702">
        <ele>88.645</ele>
        <time>2012-10-14T10:47:42.382Z</time>
      </trkpt>
      <trkpt lat="43.38216" lon="6.63694">
        <ele>88.868</ele>
        <time>2012-10-14T10:47:45.598Z</time>
      </trkpt>
      <trkpt lat="43.38205" lon="6.63685">
        <ele>88.931</ele>
        <time>2012-10-14T10:47:49.068Z</time>
      </trkpt>
      <trkpt lat="43.38195" lon="6.63678">
        <ele>88.772</ele>
        <time>2012-10-14T10:47:52.224Z</time>
      </trkpt>
      <trkpt lat="43.38186" lon="6.63669">
        <ele>88.551</ele>
        <time>2012-10-14T10:47:55.169Z</time>
      </trkpt>
      <trkpt lat="43.38177" lon="6.63655">
        <ele>88.431</ele>
        <time>2012-10-14T10:47:58.423Z</time>
      </trkpt>
      <trkpt lat="43.38169" lon="6.63642">
        <ele>88.403</ele>
        <time>2012-10-14T10:48:01.213Z</time>
      </trkpt>
      <trkpt lat="43.38164" lon="6.63626">
        <ele>88.3</ele>
        <time>2012-10-14T10:48:04.173Z</time>
      </trkpt>
      <trkpt lat="43.3816" lon="6.6361">
        <ele>88.014</ele>
        <time>2012-10-14T10:48:06.672Z</time>
      </trkpt>
      <trkpt lat="43.38147" lon="6.63601">
        <ele>87.627</ele>
        <time>2012-10-14T10:48:09.542Z</time>
      </trkpt>
      <trkpt lat="43.3814" lon="6.6361">
        <ele>87.258</ele>
        <time>2012-10-14T10:48:12.032Z</time>
      </trkpt>
      <trkpt lat="43.38139" lon="6.63629">
        <ele>87.005</ele>
        <time>2012-10-14T10:48:15.651Z</time>
      </trkpt>
      <trkpt lat="43.38139" lon="6.63642">
        <ele>86.961</ele>
        <time>2012-10-14T10:48:17.970Z</time>
      </trkpt>
      <trkpt lat="43.38139" lon="6.63661">
        <ele>87.097</ele>
        <time>2012-10-14T10:48:20.884Z</time>
      </trkpt>
      <trkpt lat="43.38139" lon="6.63673">
        <ele>87.388</ele>
        <time>2012-10-14T10:48:22.740Z</time>
      </trkpt>
      <trkpt lat="43.38139" lon="6.63686">
        <ele>87.765</ele>
        <time>2012-10-14T10:48:24.755Z</time>
      </trkpt>
      <trkpt lat="43.38142" lon="6.63702">
        <ele>88.058</ele>
        <time>2012-10-14T10:48:27.574Z</time>
      </trkpt>
      <trkpt lat="43.38147" lon="6.63716">
        <ele>88.311</ele>
        <time>2012-10-14T10:48:30.358Z</time>
      </trkpt>
      <trkpt lat="43.38151" lon="6.63729">
        <ele>88.698</ele>
        <time>2012-10-14T10:48:33.140Z</time>
      </trkpt>
      <trkpt lat="43.38155" lon="6.6374">
        <ele>89.127</ele>
        <time>2012-10-14T10:48:36.607Z</time>
      </trkpt>
      <trkpt lat="43.38161" lon="6.63751">
        <ele>89.633</ele>
        <time>2012-10-14T10:48:41.879Z</time>
      </trkpt>
      <trkpt lat="43.38166" lon="6.63763">
        <ele>90.409</ele>
        <time>2012-10-14T10:48:48.041Z</time>
      </trkpt>
      <trkpt lat="43.38174" lon="6.63773">
        <ele>91.314</ele>
        <time>2012-10-14T10:48:54.790Z</time>
      </trkpt>
      <trkpt lat="43.38179" lon="6.63784">
        <ele>92.263</ele>
        <time>2012-10-14T10:49:00.691Z</time>
      </trkpt>
      <trkpt lat="43.38183" lon="6.63795">
        <ele>93.247</ele>
        <time>2012-10-14T10:49:06.613Z</time>
      </trkpt>
      <trkpt lat="43.3819" lon="6.63806">
        <ele>94.376</ele>
        <time>2012-10-14T10:49:12.822Z</time>
      </trkpt>
      <trkpt lat="43.38195" lon="6.63817">
        <ele>95.729</ele>
        <time>2012-10-14T10:49:18.984Z</time>
      </trkpt>
      <trkpt lat="43.38203" lon="6.63827">
        <ele>96.85</ele>
        <time>2012-10-14T10:49:25.972Z</time>
      </trkpt>
      <trkpt lat="43.3821" lon="6.63835">
        <ele>97.272</ele>
        <time>2012-10-14T10:49:31.752Z</time>
      </trkpt>
      <trkpt lat="43.38202" lon="6.63841">
        <ele>97.209</ele>
        <time>2012-10-14T10:49:37.632Z</time>
      </trkpt>
      <trkpt lat="43.38194" lon="6.63831">
        <ele>97.006</ele>
        <time>2012-10-14T10:49:44.869Z</time>
      </trkpt>
      <trkpt lat="43.38186" lon="6.63823">
        <ele>97.276</ele>
        <time>2012-10-14T10:49:52.101Z</time>
      </trkpt>
      <trkpt lat="43.38177" lon="6.63819">
        <ele>99.016</ele>
        <time>2012-10-14T10:49:59.707Z</time>
      </trkpt>
      <trkpt lat="43.38168" lon="6.63815">
        <ele>102.025</ele>
        <time>2012-10-14T10:50:07.091Z</time>
      </trkpt>
      <trkpt lat="43.38158" lon="6.63812">
        <ele>104.577</ele>
        <time>2012-10-14T10:50:14.245Z</time>
      </trkpt>
      <trkpt lat="43.38149" lon="6.63807">
        <ele>105.773</ele>
        <time>2012-10-14T10:50:20.943Z</time>
      </trkpt>
      <trkpt lat="43.38138" lon="6.63804">
        <ele>106.033</ele>
        <time>2012-10-14T10:50:28.543Z</time>
      </trkpt>
      <trkpt lat="43.38129" lon="6.63804">
        <ele>106.157</ele>
        <time>2012-10-14T10:50:34.732Z</time>
      </trkpt>
      <trkpt lat="43.38119" lon="6.63798">
        <ele>106.72</ele>
        <time>2012-10-14T10:50:41.910Z</time>
      </trkpt>
      <trkpt lat="43.38109" lon="6.63797">
        <ele>107.447</ele>
        <time>2012-10-14T10:50:48.628Z</time>
      </trkpt>
      <trkpt lat="43.381" lon="6.63794">
        <ele>107.973</ele>
        <time>2012-10-14T10:50:54.703Z</time>
      </trkpt>
      <trkpt lat="43.38091" lon="6.63787">
        <ele>108.701</ele>
        <time>2012-10-14T10:51:01.679Z</time>
      </trkpt>
      <trkpt lat="43.38082" lon="6.63783">
        <ele>109.993</ele>
        <time>2012-10-14T10:51:08.197Z</time>
      </trkpt>
      <trkpt lat="43.38073" lon="6.63778">
        <ele>111.579</ele>
        <time>2012-10-14T10:51:14.675Z</time>
      </trkpt>
      <trkpt lat="43.38064" lon="6.63773">
        <ele>113.33</ele>
        <time>2012-10-14T10:51:21.607Z</time>
      </trkpt>
      <trkpt lat="43.38054" lon="6.63769">
        <ele>115.31</ele>
        <time>2012-10-14T10:51:28.384Z</time>
      </trkpt>
      <trkpt lat="43.38045" lon="6.6377">
        <ele>116.97</ele>
        <time>2012-10-14T10:51:35.028Z</time>
      </trkpt>
      <trkpt lat="43.38035" lon="6.63767">
        <ele>117.763</ele>
        <time>2012-10-14T10:51:42.435Z</time>
      </trkpt>
      <trkpt lat="43.38026" lon="6.63764">
        <ele>118</ele>
        <time>2012-10-14T10:51:49.291Z</time>
      </trkpt>
      <trkpt lat="43.38017" lon="6.63758">
        <ele>118.133</ele>
        <time>2012-10-14T10:51:56.732Z</time>
      </trkpt>
      <trkpt lat="43.38007" lon="6.63754">
        <ele>118.309</ele>
        <time>2012-10-14T10:52:04.831Z</time>
      </trkpt>
      <trkpt lat="43.37998" lon="6.63752">
        <ele>118.576</ele>
        <time>2012-10-14T10:52:12.252Z</time>
      </trkpt>
      <trkpt lat="43.37987" lon="6.63752">
        <ele>119.298</ele>
        <time>2012-10-14T10:52:20.601Z</time>
      </trkpt>
      <trkpt lat="43.37978" lon="6.63753">
        <ele>120.579</ele>
        <time>2012-10-14T10:52:27.664Z</time>
      </trkpt>
      <trkpt lat="43.37969" lon="6.63755">
        <ele>122.05</ele>
        <time>2012-10-14T10:52:34.525Z</time>
      </trkpt>
      <trkpt lat="43.37959" lon="6.63755">
        <ele>123.325</ele>
        <time>2012-10-14T10:52:42.069Z</time>
      </trkpt>
      <trkpt lat="43.37949" lon="6.63758">
        <ele>124.156</ele>
        <time>2012-10-14T10:52:49.617Z</time>
      </trkpt>
      <trkpt lat="43.3794" lon="6.63759">
        <ele>124.51</ele>
        <time>2012-10-14T10:52:56.470Z</time>
      </trkpt>
      <trkpt lat="43.3793" lon="6.63761">
        <ele>124.657</ele>
        <time>2012-10-14T10:53:03.639Z</time>
      </trkpt>
      <trkpt lat="43.3792" lon="6.63762">
        <ele>124.721</ele>
        <time>2012-10-14T10:53:11.061Z</time>
      </trkpt>
      <trkpt lat="43.3791" lon="6.63763">
        <ele>124.749</ele>
        <time>2012-10-14T10:53:17.548Z</time>
      </trkpt>
      <trkpt lat="43.37901" lon="6.63764">
        <ele>124.972</ele>
        <time>2012-10-14T10:53:23.700Z</time>
      </trkpt>
      <trkpt lat="43.37891" lon="6.63763">
        <ele>125.971</ele>
        <time>2012-10-14T10:53:30.312Z</time>
      </trkpt>
      <trkpt lat="43.3788" lon="6.63762">
        <ele>127.783</ele>
        <time>2012-10-14T10:53:37.036Z</time>
      </trkpt>
      <trkpt lat="43.37871" lon="6.63759">
        <ele>129.754</ele>
        <time>2012-10-14T10:53:43.469Z</time>
      </trkpt>
      <trkpt lat="43.37861" lon="6.63755">
        <ele>131.493</ele>
        <time>2012-10-14T10:53:49.869Z</time>
      </trkpt>
      <trkpt lat="43.37852" lon="6.63755">
        <ele>132.812</ele>
        <time>2012-10-14T10:53:56.412Z</time>
      </trkpt>
      <trkpt lat="43.37842" lon="6.63758">
        <ele>133.46</ele>
        <time>2012-10-14T10:54:04.382Z</time>
      </trkpt>
      <trkpt lat="43.37832" lon="6.63756">
        <ele>133.72</ele>
        <time>2012-10-14T10:54:12.306Z</time>
      </trkpt>
      <trkpt lat="43.37822" lon="6.63756">
        <ele>134.082</ele>
        <time>2012-10-14T10:54:20.340Z</time>
      </trkpt>
      <trkpt lat="43.37813" lon="6.63754">
        <ele>134.791</ele>
        <time>2012-10-14T10:54:27.246Z</time>
      </trkpt>
      <trkpt lat="43.37803" lon="6.63751">
        <ele>135.745</ele>
        <time>2012-10-14T10:54:34.662Z</time>
      </trkpt>
      <trkpt lat="43.37794" lon="6.63748">
        <ele>136.581</ele>
        <time>2012-10-14T10:54:41.545Z</time>
      </trkpt>
      <trkpt lat="43.37785" lon="6.63747">
        <ele>137.112</ele>
        <time>2012-10-14T10:54:48.790Z</time>
      </trkpt>
      <trkpt lat="43.37775" lon="6.63747">
        <ele>137.557</ele>
        <time>2012-10-14T10:54:57.120Z</time>
      </trkpt>
      <trkpt lat="43.37765" lon="6.63745">
        <ele>138.044</ele>
        <time>2012-10-14T10:55:06.466Z</time>
      </trkpt>
      <trkpt lat="43.37756" lon="6.6374">
        <ele>138.881</ele>
        <time>2012-10-14T10:55:15.493Z</time>
      </trkpt>
      <trkpt lat="43.37753" lon="6.63727">
        <ele>140.774</ele>
        <time>2012-10-14T10:55:24.165Z</time>
      </trkpt>
      <trkpt lat="43.37751" lon="6.63714">
        <ele>143.846</ele>
        <time>2012-10-14T10:55:33.211Z</time>
      </trkpt>
      <trkpt lat="43.37747" lon="6.63701">
        <ele>146.976</ele>
        <time>2012-10-14T10:55:40.705Z</time>
      </trkpt>
      <trkpt lat="43.37738" lon="6.63694">
        <ele>148.903</ele>
        <time>2012-10-14T10:55:46.157Z</time>
      </trkpt>
      <trkpt lat="43.37732" lon="6.63685">
        <ele>149.46</ele>
        <time>2012-10-14T10:55:50.301Z</time>
      </trkpt>
      <trkpt lat="43.37726" lon="6.63673">
        <ele>149.21</ele>
        <time>2012-10-14T10:55:54.535Z</time>
      </trkpt>
      <trkpt lat="43.37721" lon="6.63662">
        <ele>148.643</ele>
        <time>2012-10-14T10:55:57.873Z</time>
      </trkpt>
      <trkpt lat="43.37714" lon="6.6365">
        <ele>148.073</ele>
        <time>2012-10-14T10:56:01.679Z</time>
      </trkpt>
      <trkpt lat="43.37708" lon="6.63639">
        <ele>147.421</ele>
        <time>2012-10-14T10:56:04.922Z</time>
      </trkpt>
      <trkpt lat="43.37704" lon="6.63628">
        <ele>146.604</ele>
        <time>2012-10-14T10:56:07.887Z</time>
      </trkpt>
      <trkpt lat="43.37703" lon="6.63614">
        <ele>145.959</ele>
        <time>2012-10-14T10:56:11.149Z</time>
      </trkpt>
      <trkpt lat="43.37711" lon="6.63602">
        <ele>145.87</ele>
        <time>2012-10-14T10:56:14.546Z</time>
      </trkpt>
      <trkpt lat="43.37721" lon="6.63594">
        <ele>146.284</ele>
        <time>2012-10-14T10:56:18.005Z</time>
      </trkpt>
      <trkpt lat="43.37726" lon="6.6358">
        <ele>146.775</ele>
        <time>2012-10-14T10:56:21.226Z</time>
      </trkpt>
      <trkpt lat="43.37728" lon="6.63566">
        <ele>147.175</ele>
        <time>2012-10-14T10:56:24.113Z</time>
      </trkpt>
      <trkpt lat="43.37727" lon="6.63551">
        <ele>147.614</ele>
        <time>2012-10-14T10:56:27.251Z</time>
      </trkpt>
      <trkpt lat="43.37727" lon="6.63537">
        <ele>147.98</ele>
        <time>2012-10-14T10:56:30.210Z</time>
      </trkpt>
      <trkpt lat="43.3773" lon="6.63521">
        <ele>148.13</ele>
        <time>2012-10-14T10:56:33.665Z</time>
      </trkpt>
      <trkpt lat="43.37735" lon="6.63505">
        <ele>148.036</ele>
        <time>2012-10-14T10:56:37.273Z</time>
      </trkpt>
      <trkpt lat="43.37738" lon="6.63492">
        <ele>147.728</ele>
        <time>2012-10-14T10:56:40.316Z</time>
      </trkpt>
      <trkpt lat="43.3774" lon="6.63477">
        <ele>147.412</ele>
        <time>2012-10-14T10:56:44.300Z</time>
      </trkpt>
      <trkpt lat="43.37742" lon="6.63462">
        <ele>147.257</ele>
        <time>2012-10-14T10:56:48.509Z</time>
      </trkpt>
      <trkpt lat="43.37742" lon="6.63449">
        <ele>147.236</ele>
        <time>2012-10-14T10:56:52.676Z</time>
      </trkpt>
      <trkpt lat="43.37737" lon="6.63436">
        <ele>147.317</ele>
        <time>2012-10-14T10:56:57.909Z</time>
      </trkpt>
      <trkpt lat="43.37731" lon="6.63426">
        <ele>147.527</ele>
        <time>2012-10-14T10:57:03.143Z</time>
      </trkpt>
      <trkpt lat="43.37726" lon="6.63413">
        <ele>147.879</ele>
        <time>2012-10-14T10:57:09.300Z</time>
      </trkpt>
      <trkpt lat="43.37722" lon="6.63401">
        <ele>148.388</ele>
        <time>2012-10-14T10:57:15.593Z</time>
      </trkpt>
      <trkpt lat="43.37719" lon="6.63388">
        <ele>149.197</ele>
        <time>2012-10-14T10:57:21.739Z</time>
      </trkpt>
      <trkpt lat="43.37717" lon="6.63376">
        <ele>150.226</ele>
        <time>2012-10-14T10:57:27.609Z</time>
      </trkpt>
      <trkpt lat="43.37713" lon="6.63363">
        <ele>151.076</ele>
        <time>2012-10-14T10:57:34.394Z</time>
      </trkpt>
      <trkpt lat="43.37704" lon="6.63359">
        <ele>151.821</ele>
        <time>2012-10-14T10:57:40.554Z</time>
      </trkpt>
      <trkpt lat="43.37695" lon="6.6336">
        <ele>152.768</ele>
        <time>2012-10-14T10:57:46.611Z</time>
      </trkpt>
      <trkpt lat="43.37686" lon="6.63362">
        <ele>153.633</ele>
        <time>2012-10-14T10:57:52.744Z</time>
      </trkpt>
      <trkpt lat="43.37676" lon="6.63361">
        <ele>154.133</ele>
        <time>2012-10-14T10:57:59.712Z</time>
      </trkpt>
      <trkpt lat="43.37666" lon="6.63362">
        <ele>154.423</ele>
        <time>2012-10-14T10:58:05.713Z</time>
      </trkpt>
      <trkpt lat="43.37657" lon="6.63365">
        <ele>154.632</ele>
        <time>2012-10-14T10:58:11.744Z</time>
      </trkpt>
      <trkpt lat="43.37648" lon="6.63368">
        <ele>154.839</ele>
        <time>2012-10-14T10:58:18.170Z</time>
      </trkpt>
      <trkpt lat="43.3765" lon="6.6338">
        <ele>155.154</ele>
        <time>2012-10-14T10:58:24.513Z</time>
      </trkpt>
      <trkpt lat="43.37657" lon="6.63389">
        <ele>155.526</ele>
        <time>2012-10-14T10:58:31.694Z</time>
      </trkpt>
      <trkpt lat="43.37664" lon="6.63399">
        <ele>155.84</ele>
        <time>2012-10-14T10:58:39.018Z</time>
      </trkpt>
      <trkpt lat="43.37664" lon="6.63399">
        <ele>156.02</ele>
        <time>2012-10-14T10:58:55.045Z</time>
      </trkpt>
      <trkpt lat="43.37664" lon="6.63399">
        <ele>156.023</ele>
        <time>2012-10-14T10:59:57.346Z</time>
      </trkpt>
      <trkpt lat="43.37674" lon="6.63422">
        <ele>157.372</ele>
        <time>2012-10-14T11:00:34.775Z</time>
      </trkpt>
      <trkpt lat="43.37677" lon="6.63434">
        <ele>161.158</ele>
        <time>2012-10-14T11:00:41.114Z</time>
      </trkpt>
      <trkpt lat="43.37677" lon="6.63448">
        <ele>165.591</ele>
        <time>2012-10-14T11:00:46.717Z</time>
      </trkpt>
      <trkpt lat="43.37677" lon="6.63462">
        <ele>168.661</ele>
        <time>2012-10-14T11:00:51.581Z</time>
      </trkpt>
      <trkpt lat="43.37676" lon="6.63476">
        <ele>170.203</ele>
        <time>2012-10-14T11:00:56.271Z</time>
      </trkpt>
      <trkpt lat="43.37673" lon="6.63489">
        <ele>170.644</ele>
        <time>2012-10-14T11:01:00.334Z</time>
      </trkpt>
      <trkpt lat="43.37669" lon="6.63503">
        <ele>170.716</ele>
        <time>2012-10-14T11:01:04.502Z</time>
      </trkpt>
      <trkpt lat="43.37665" lon="6.63515">
        <ele>170.75</ele>
        <time>2012-10-14T11:01:08.401Z</time>
      </trkpt>
      <trkpt lat="43.37659" lon="6.63528">
        <ele>170.702</ele>
        <time>2012-10-14T11:01:12.498Z</time>
      </trkpt>
      <trkpt lat="43.37653" lon="6.63538">
        <ele>170.592</ele>
        <time>2012-10-14T11:01:16.049Z</time>
      </trkpt>
      <trkpt lat="43.37647" lon="6.6355">
        <ele>170.587</ele>
        <time>2012-10-14T11:01:20.137Z</time>
      </trkpt>
      <trkpt lat="43.37641" lon="6.6356">
        <ele>170.735</ele>
        <time>2012-10-14T11:01:23.965Z</time>
      </trkpt>
      <trkpt lat="43.37634" lon="6.63572">
        <ele>170.917</ele>
        <time>2012-10-14T11:01:28.437Z</time>
      </trkpt>
      <trkpt lat="43.37628" lon="6.6358">
        <ele>171.016</ele>
        <time>2012-10-14T11:01:32.189Z</time>
      </trkpt>
      <trkpt lat="43.3762" lon="6.63588">
        <ele>171.062</ele>
        <time>2012-10-14T11:01:36.393Z</time>
      </trkpt>
      <trkpt lat="43.37611" lon="6.63598">
        <ele>171.225</ele>
        <time>2012-10-14T11:01:41.460Z</time>
      </trkpt>
      <trkpt lat="43.37606" lon="6.6361">
        <ele>171.596</ele>
        <time>2012-10-14T11:01:46.864Z</time>
      </trkpt>
      <trkpt lat="43.37604" lon="6.63623">
        <ele>171.995</ele>
        <time>2012-10-14T11:01:51.994Z</time>
      </trkpt>
      <trkpt lat="43.37604" lon="6.63636">
        <ele>172.456</ele>
        <time>2012-10-14T11:01:58.147Z</time>
      </trkpt>
      <trkpt lat="43.37605" lon="6.63648">
        <ele>173.409</ele>
        <time>2012-10-14T11:02:04.189Z</time>
      </trkpt>
      <trkpt lat="43.3761" lon="6.63659">
        <ele>175.146</ele>
        <time>2012-10-14T11:02:10.413Z</time>
      </trkpt>
      <trkpt lat="43.37614" lon="6.63671">
        <ele>177.19</ele>
        <time>2012-10-14T11:02:16.887Z</time>
      </trkpt>
      <trkpt lat="43.37619" lon="6.63681">
        <ele>178.697</ele>
        <time>2012-10-14T11:02:23.055Z</time>
      </trkpt>
      <trkpt lat="43.37624" lon="6.63692">
        <ele>179.526</ele>
        <time>2012-10-14T11:02:29.513Z</time>
      </trkpt>
      <trkpt lat="43.37628" lon="6.63703">
        <ele>180.439</ele>
        <time>2012-10-14T11:02:35.770Z</time>
      </trkpt>
      <trkpt lat="43.37632" lon="6.63717">
        <ele>182.051</ele>
        <time>2012-10-14T11:02:42.579Z</time>
      </trkpt>
      <trkpt lat="43.37631" lon="6.6373">
        <ele>184.525</ele>
        <time>2012-10-14T11:02:48.881Z</time>
      </trkpt>
      <trkpt lat="43.37628" lon="6.63741">
        <ele>187.278</ele>
        <time>2012-10-14T11:02:54.883Z</time>
      </trkpt>
      <trkpt lat="43.37624" lon="6.63754">
        <ele>189.201</ele>
        <time>2012-10-14T11:03:01.453Z</time>
      </trkpt>
      <trkpt lat="43.37626" lon="6.63767">
        <ele>190.032</ele>
        <time>2012-10-14T11:03:08.702Z</time>
      </trkpt>
      <trkpt lat="43.37631" lon="6.63779">
        <ele>190.424</ele>
        <time>2012-10-14T11:03:15.931Z</time>
      </trkpt>
      <trkpt lat="43.37636" lon="6.63789">
        <ele>190.83</ele>
        <time>2012-10-14T11:03:23.397Z</time>
      </trkpt>
      <trkpt lat="43.37643" lon="6.63799">
        <ele>191.405</ele>
        <time>2012-10-14T11:03:30.929Z</time>
      </trkpt>
      <trkpt lat="43.37649" lon="6.6381">
        <ele>192.447</ele>
        <time>2012-10-14T11:03:38.123Z</time>
      </trkpt>
      <trkpt lat="43.37654" lon="6.6382">
        <ele>194.047</ele>
        <time>2012-10-14T11:03:45.151Z</time>
      </trkpt>
      <trkpt lat="43.37659" lon="6.63832">
        <ele>196.068</ele>
        <time>2012-10-14T11:03:52.788Z</time>
      </trkpt>
      <trkpt lat="43.37663" lon="6.63844">
        <ele>198.363</ele>
        <time>2012-10-14T11:04:00.252Z</time>
      </trkpt>
      <trkpt lat="43.37667" lon="6.63857">
        <ele>200.419</ele>
        <time>2012-10-14T11:04:07.678Z</time>
      </trkpt>
      <trkpt lat="43.37671" lon="6.6387">
        <ele>201.528</ele>
        <time>2012-10-14T11:04:15.696Z</time>
      </trkpt>
      <trkpt lat="43.37673" lon="6.63884">
        <ele>201.572</ele>
        <time>2012-10-14T11:04:23.982Z</time>
      </trkpt>
      <trkpt lat="43.37675" lon="6.63897">
        <ele>200.896</ele>
        <time>2012-10-14T11:04:31.874Z</time>
      </trkpt>
      <trkpt lat="43.37679" lon="6.63909">
        <ele>200.147</ele>
        <time>2012-10-14T11:04:39.596Z</time>
      </trkpt>
      <trkpt lat="43.37682" lon="6.63922">
        <ele>199.776</ele>
        <time>2012-10-14T11:04:48.002Z</time>
      </trkpt>
      <trkpt lat="43.3768" lon="6.63935">
        <ele>199.734</ele>
        <time>2012-10-14T11:04:56.322Z</time>
      </trkpt>
      <trkpt lat="43.37671" lon="6.63941">
        <ele>200.443</ele>
        <time>2012-10-14T11:05:05.014Z</time>
      </trkpt>
      <trkpt lat="43.37671" lon="6.63941">
        <ele>202.14</ele>
        <time>2012-10-14T11:05:19.056Z</time>
      </trkpt>
      <trkpt lat="43.37671" lon="6.63941">
        <ele>203.837</ele>
        <time>2012-10-14T11:06:41.909Z</time>
      </trkpt>
      <trkpt lat="43.37654" lon="6.63952">
        <ele>204.629</ele>
        <time>2012-10-14T11:07:07.024Z</time>
      </trkpt>
      <trkpt lat="43.37647" lon="6.6396">
        <ele>204.742</ele>
        <time>2012-10-14T11:07:11.117Z</time>
      </trkpt>
      <trkpt lat="43.37637" lon="6.6397">
        <ele>204.6</ele>
        <time>2012-10-14T11:07:15.164Z</time>
      </trkpt>
      <trkpt lat="43.37629" lon="6.63982">
        <ele>204.354</ele>
        <time>2012-10-14T11:07:18.968Z</time>
      </trkpt>
      <trkpt lat="43.37618" lon="6.63992">
        <ele>203.94</ele>
        <time>2012-10-14T11:07:22.639Z</time>
      </trkpt>
      <trkpt lat="43.3761" lon="6.63999">
        <ele>203.462</ele>
        <time>2012-10-14T11:07:25.661Z</time>
      </trkpt>
      <trkpt lat="43.37605" lon="6.64011">
        <ele>203.151</ele>
        <time>2012-10-14T11:07:29.073Z</time>
      </trkpt>
      <trkpt lat="43.37599" lon="6.64021">
        <ele>202.893</ele>
        <time>2012-10-14T11:07:31.391Z</time>
      </trkpt>
      <trkpt lat="43.37593" lon="6.64032">
        <ele>202.445</ele>
        <time>2012-10-14T11:07:33.582Z</time>
      </trkpt>
      <trkpt lat="43.37601" lon="6.6404">
        <ele>201.53</ele>
        <time>2012-10-14T11:07:35.326Z</time>
      </trkpt>
      <trkpt lat="43.3762" lon="6.64044">
        <ele>199.793</ele>
        <time>2012-10-14T11:07:39.150Z</time>
      </trkpt>
      <trkpt lat="43.3764" lon="6.64045">
        <ele>197.615</ele>
        <time>2012-10-14T11:07:44.368Z</time>
      </trkpt>
      <trkpt lat="43.37657" lon="6.64046">
        <ele>195.59</ele>
        <time>2012-10-14T11:07:49.149Z</time>
      </trkpt>
      <trkpt lat="43.37666" lon="6.6405">
        <ele>193.513</ele>
        <time>2012-10-14T11:07:51.816Z</time>
      </trkpt>
      <trkpt lat="43.37677" lon="6.64056">
        <ele>191.186</ele>
        <time>2012-10-14T11:07:54.791Z</time>
      </trkpt>
      <trkpt lat="43.37671" lon="6.6407">
        <ele>188.936</ele>
        <time>2012-10-14T11:07:57.777Z</time>
      </trkpt>
      <trkpt lat="43.37662" lon="6.64078">
        <ele>186.955</ele>
        <time>2012-10-14T11:08:00.474Z</time>
      </trkpt>
      <trkpt lat="43.37653" lon="6.6409">
        <ele>184.739</ele>
        <time>2012-10-14T11:08:03.747Z</time>
      </trkpt>
      <trkpt lat="43.37645" lon="6.64097">
        <ele>181.989</ele>
        <time>2012-10-14T11:08:06.058Z</time>
      </trkpt>
      <trkpt lat="43.37633" lon="6.64105">
        <ele>179.031</ele>
        <time>2012-10-14T11:08:09.061Z</time>
      </trkpt>
      <trkpt lat="43.37639" lon="6.64118">
        <ele>176.053</ele>
        <time>2012-10-14T11:08:11.372Z</time>
      </trkpt>
      <trkpt lat="43.37653" lon="6.6412">
        <ele>173.442</ele>
        <time>2012-10-14T11:08:14.429Z</time>
      </trkpt>
      <trkpt lat="43.37666" lon="6.64122">
        <ele>171.675</ele>
        <time>2012-10-14T11:08:17.352Z</time>
      </trkpt>
      <trkpt lat="43.37676" lon="6.6412">
        <ele>170.579</ele>
        <time>2012-10-14T11:08:19.723Z</time>
      </trkpt>
      <trkpt lat="43.37685" lon="6.64115">
        <ele>169.938</ele>
        <time>2012-10-14T11:08:21.891Z</time>
      </trkpt>
      <trkpt lat="43.37697" lon="6.64107">
        <ele>169.653</ele>
        <time>2012-10-14T11:08:24.538Z</time>
      </trkpt>
      <trkpt lat="43.37709" lon="6.64104">
        <ele>169.524</ele>
        <time>2012-10-14T11:08:26.850Z</time>
      </trkpt>
      <trkpt lat="43.37723" lon="6.64102">
        <ele>169.176</ele>
        <time>2012-10-14T11:08:29.628Z</time>
      </trkpt>
      <trkpt lat="43.37739" lon="6.641">
        <ele>168.471</ele>
        <time>2012-10-14T11:08:33.035Z</time>
      </trkpt>
      <trkpt lat="43.37753" lon="6.64095">
        <ele>167.809</ele>
        <time>2012-10-14T11:08:36.112Z</time>
      </trkpt>
      <trkpt lat="43.37768" lon="6.64091">
        <ele>167.512</ele>
        <time>2012-10-14T11:08:38.933Z</time>
      </trkpt>
      <trkpt lat="43.3778" lon="6.64093">
        <ele>167.471</ele>
        <time>2012-10-14T11:08:41.236Z</time>
      </trkpt>
      <trkpt lat="43.37796" lon="6.64093">
        <ele>166.322</ele>
        <time>2012-10-14T11:08:44.013Z</time>
      </trkpt>
      <trkpt lat="43.37806" lon="6.64091">
        <ele>163.074</ele>
        <time>2012-10-14T11:08:45.733Z</time>
      </trkpt>
      <trkpt lat="43.37824" lon="6.64086">
        <ele>159.426</ele>
        <time>2012-10-14T11:08:49.027Z</time>
      </trkpt>
      <trkpt lat="43.37834" lon="6.64084">
        <ele>157.408</ele>
        <time>2012-10-14T11:08:51.312Z</time>
      </trkpt>
      <trkpt lat="43.37846" lon="6.64079">
        <ele>156.809</ele>
        <time>2012-10-14T11:08:54.415Z</time>
      </trkpt>
      <trkpt lat="43.37857" lon="6.64074">
        <ele>156.74</ele>
        <time>2012-10-14T11:08:57.465Z</time>
      </trkpt>
      <trkpt lat="43.37869" lon="6.64076">
        <ele>156.188</ele>
        <time>2012-10-14T11:09:00.560Z</time>
      </trkpt>
      <trkpt lat="43.37881" lon="6.64082">
        <ele>154.699</ele>
        <time>2012-10-14T11:09:03.713Z</time>
      </trkpt>
      <trkpt lat="43.37891" lon="6.64085">
        <ele>152.836</ele>
        <time>2012-10-14T11:09:05.786Z</time>
      </trkpt>
      <trkpt lat="43.379" lon="6.64085">
        <ele>151.168</ele>
        <time>2012-10-14T11:09:07.998Z</time>
      </trkpt>
      <trkpt lat="43.3791" lon="6.64087">
        <ele>149.606</ele>
        <time>2012-10-14T11:09:10.684Z</time>
      </trkpt>
      <trkpt lat="43.37924" lon="6.64095">
        <ele>147.944</ele>
        <time>2012-10-14T11:09:14.917Z</time>
      </trkpt>
      <trkpt lat="43.37935" lon="6.64098">
        <ele>146.154</ele>
        <time>2012-10-14T11:09:17.450Z</time>
      </trkpt>
      <trkpt lat="43.37944" lon="6.64101">
        <ele>144.652</ele>
        <time>2012-10-14T11:09:19.424Z</time>
      </trkpt>
      <trkpt lat="43.37954" lon="6.64104">
        <ele>143.762</ele>
        <time>2012-10-14T11:09:21.399Z</time>
      </trkpt>
      <trkpt lat="43.37969" lon="6.64112">
        <ele>143.315</ele>
        <time>2012-10-14T11:09:24.573Z</time>
      </trkpt>
      <trkpt lat="43.37979" lon="6.64119">
        <ele>142.692</ele>
        <time>2012-10-14T11:09:26.756Z</time>
      </trkpt>
      <trkpt lat="43.37992" lon="6.64129">
        <ele>140.903</ele>
        <time>2012-10-14T11:09:29.445Z</time>
      </trkpt>
      <trkpt lat="43.38005" lon="6.64136">
        <ele>137.844</ele>
        <time>2012-10-14T11:09:31.792Z</time>
      </trkpt>
      <trkpt lat="43.38019" lon="6.64147">
        <ele>134.973</ele>
        <time>2012-10-14T11:09:34.887Z</time>
      </trkpt>
      <trkpt lat="43.38033" lon="6.64161">
        <ele>133.275</ele>
        <time>2012-10-14T11:09:38.940Z</time>
      </trkpt>
      <trkpt lat="43.38043" lon="6.6417">
        <ele>132.354</ele>
        <time>2012-10-14T11:09:42.248Z</time>
      </trkpt>
      <trkpt lat="43.38051" lon="6.64179">
        <ele>131.88</ele>
        <time>2012-10-14T11:09:44.942Z</time>
      </trkpt>
      <trkpt lat="43.38058" lon="6.64193">
        <ele>131.825</ele>
        <time>2012-10-14T11:09:48.701Z</time>
      </trkpt>
      <trkpt lat="43.38063" lon="6.6421">
        <ele>131.856</ele>
        <time>2012-10-14T11:09:53.035Z</time>
      </trkpt>
      <trkpt lat="43.38065" lon="6.64224">
        <ele>131.694</ele>
        <time>2012-10-14T11:09:57.178Z</time>
      </trkpt>
      <trkpt lat="43.38064" lon="6.64241">
        <ele>131.27</ele>
        <time>2012-10-14T11:10:03.157Z</time>
      </trkpt>
      <trkpt lat="43.38063" lon="6.64257">
        <ele>130.566</ele>
        <time>2012-10-14T11:10:08.846Z</time>
      </trkpt>
      <trkpt lat="43.38068" lon="6.64269">
        <ele>128.873</ele>
        <time>2012-10-14T11:10:12.738Z</time>
      </trkpt>
      <trkpt lat="43.38078" lon="6.64278">
        <ele>125.742</ele>
        <time>2012-10-14T11:10:16.666Z</time>
      </trkpt>
      <trkpt lat="43.38088" lon="6.64282">
        <ele>122.148</ele>
        <time>2012-10-14T11:10:20.273Z</time>
      </trkpt>
      <trkpt lat="43.38098" lon="6.6428">
        <ele>119.429</ele>
        <time>2012-10-14T11:10:24.009Z</time>
      </trkpt>
      <trkpt lat="43.38108" lon="6.64271">
        <ele>117.623</ele>
        <time>2012-10-14T11:10:28.076Z</time>
      </trkpt>
      <trkpt lat="43.38117" lon="6.64264">
        <ele>116.2</ele>
        <time>2012-10-14T11:10:31.515Z</time>
      </trkpt>
      <trkpt lat="43.38128" lon="6.64265">
        <ele>115.062</ele>
        <time>2012-10-14T11:10:34.651Z</time>
      </trkpt>
      <trkpt lat="43.38138" lon="6.64266">
        <ele>114.441</ele>
        <time>2012-10-14T11:10:37.132Z</time>
      </trkpt>
      <trkpt lat="43.3815" lon="6.64261">
        <ele>114.131</ele>
        <time>2012-10-14T11:10:40.615Z</time>
      </trkpt>
      <trkpt lat="43.38162" lon="6.64254">
        <ele>113.514</ele>
        <time>2012-10-14T11:10:44.168Z</time>
      </trkpt>
      <trkpt lat="43.38173" lon="6.64246">
        <ele>112.309</ele>
        <time>2012-10-14T11:10:47.587Z</time>
      </trkpt>
      <trkpt lat="43.38183" lon="6.64241">
        <ele>110.995</ele>
        <time>2012-10-14T11:10:50.436Z</time>
      </trkpt>
      <trkpt lat="43.38191" lon="6.64229">
        <ele>110.069</ele>
        <time>2012-10-14T11:10:53.416Z</time>
      </trkpt>
      <trkpt lat="43.38201" lon="6.64221">
        <ele>109.048</ele>
        <time>2012-10-14T11:10:55.948Z</time>
      </trkpt>
      <trkpt lat="43.38211" lon="6.64227">
        <ele>107.393</ele>
        <time>2012-10-14T11:10:58.051Z</time>
      </trkpt>
      <trkpt lat="43.3822" lon="6.64235">
        <ele>104.621</ele>
        <time>2012-10-14T11:11:00.131Z</time>
      </trkpt>
      <trkpt lat="43.38223" lon="6.64247">
        <ele>100.88</ele>
        <time>2012-10-14T11:11:02.030Z</time>
      </trkpt>
      <trkpt lat="43.38223" lon="6.64271">
        <ele>97.273</ele>
        <time>2012-10-14T11:11:06.594Z</time>
      </trkpt>
      <trkpt lat="43.38226" lon="6.64287">
        <ele>94.774</ele>
        <time>2012-10-14T11:11:09.535Z</time>
      </trkpt>
      <trkpt lat="43.38226" lon="6.64304">
        <ele>93.365</ele>
        <time>2012-10-14T11:11:12.028Z</time>
      </trkpt>
      <trkpt lat="43.38218" lon="6.64318">
        <ele>92.635</ele>
        <time>2012-10-14T11:11:14.280Z</time>
      </trkpt>
      <trkpt lat="43.3821" lon="6.64328">
        <ele>92.076</ele>
        <time>2012-10-14T11:11:15.989Z</time>
      </trkpt>
      <trkpt lat="43.38195" lon="6.64335">
        <ele>91.704</ele>
        <time>2012-10-14T11:11:18.351Z</time>
      </trkpt>
      <trkpt lat="43.38176" lon="6.64347">
        <ele>91.485</ele>
        <time>2012-10-14T11:11:21.284Z</time>
      </trkpt>
      <trkpt lat="43.38158" lon="6.64363">
        <ele>91.169</ele>
        <time>2012-10-14T11:11:24.131Z</time>
      </trkpt>
      <trkpt lat="43.38151" lon="6.64379">
        <ele>90.671</ele>
        <time>2012-10-14T11:11:25.905Z</time>
      </trkpt>
      <trkpt lat="43.38139" lon="6.64408">
        <ele>89.835</ele>
        <time>2012-10-14T11:11:29.075Z</time>
      </trkpt>
      <trkpt lat="43.38123" lon="6.64431">
        <ele>88.63</ele>
        <time>2012-10-14T11:11:32.630Z</time>
      </trkpt>
      <trkpt lat="43.38106" lon="6.64436">
        <ele>87.496</ele>
        <time>2012-10-14T11:11:35.251Z</time>
      </trkpt>
      <trkpt lat="43.38097" lon="6.6443">
        <ele>86.414</ele>
        <time>2012-10-14T11:11:36.763Z</time>
      </trkpt>
      <trkpt lat="43.38078" lon="6.64419">
        <ele>84.655</ele>
        <time>2012-10-14T11:11:39.615Z</time>
      </trkpt>
      <trkpt lat="43.38058" lon="6.64422">
        <ele>82.102</ele>
        <time>2012-10-14T11:11:42.592Z</time>
      </trkpt>
      <trkpt lat="43.3804" lon="6.64438">
        <ele>79.643</ele>
        <time>2012-10-14T11:11:45.621Z</time>
      </trkpt>
      <trkpt lat="43.38028" lon="6.64449">
        <ele>78.037</ele>
        <time>2012-10-14T11:11:47.661Z</time>
      </trkpt>
      <trkpt lat="43.38008" lon="6.64453">
        <ele>77.208</ele>
        <time>2012-10-14T11:11:50.749Z</time>
      </trkpt>
      <trkpt lat="43.37995" lon="6.64451">
        <ele>76.782</ele>
        <time>2012-10-14T11:11:52.601Z</time>
      </trkpt>
      <trkpt lat="43.37975" lon="6.64447">
        <ele>76.566</ele>
        <time>2012-10-14T11:11:55.506Z</time>
      </trkpt>
      <trkpt lat="43.37962" lon="6.64444">
        <ele>76.312</ele>
        <time>2012-10-14T11:11:57.386Z</time>
      </trkpt>
      <trkpt lat="43.3795" lon="6.64444">
        <ele>75.887</ele>
        <time>2012-10-14T11:11:59.253Z</time>
      </trkpt>
      <trkpt lat="43.37929" lon="6.64444">
        <ele>75.48</ele>
        <time>2012-10-14T11:12:02.317Z</time>
      </trkpt>
      <trkpt lat="43.37911" lon="6.64447">
        <ele>75.272</ele>
        <time>2012-10-14T11:12:05.058Z</time>
      </trkpt>
      <trkpt lat="43.37892" lon="6.64451">
        <ele>75.219</ele>
        <time>2012-10-14T11:12:08.562Z</time>
      </trkpt>
      <trkpt lat="43.3788" lon="6.64453">
        <ele>75.238</ele>
        <time>2012-10-14T11:12:11.183Z</time>
      </trkpt>
      <trkpt lat="43.37867" lon="6.64459">
        <ele>75.268</ele>
        <time>2012-10-14T11:12:14.831Z</time>
      </trkpt>
      <trkpt lat="43.37858" lon="6.64464">
        <ele>75.123</ele>
        <time>2012-10-14T11:12:17.556Z</time>
      </trkpt>
      <trkpt lat="43.37851" lon="6.64471">
        <ele>74.707</ele>
        <time>2012-10-14T11:12:19.878Z</time>
      </trkpt>
      <trkpt lat="43.37843" lon="6.64478">
        <ele>74.273</ele>
        <time>2012-10-14T11:12:22.195Z</time>
      </trkpt>
      <trkpt lat="43.37832" lon="6.64485">
        <ele>74.066</ele>
        <time>2012-10-14T11:12:25.285Z</time>
      </trkpt>
      <trkpt lat="43.37821" lon="6.64492">
        <ele>74.459</ele>
        <time>2012-10-14T11:12:28.360Z</time>
      </trkpt>
      <trkpt lat="43.37813" lon="6.64499">
        <ele>75.6</ele>
        <time>2012-10-14T11:12:30.854Z</time>
      </trkpt>
      <trkpt lat="43.37802" lon="6.64505">
        <ele>76.824</ele>
        <time>2012-10-14T11:12:33.863Z</time>
      </trkpt>
      <trkpt lat="43.37791" lon="6.64511">
        <ele>77.517</ele>
        <time>2012-10-14T11:12:36.737Z</time>
      </trkpt>
      <trkpt lat="43.37781" lon="6.64515">
        <ele>77.742</ele>
        <time>2012-10-14T11:12:39.496Z</time>
      </trkpt>
      <trkpt lat="43.37772" lon="6.64518">
        <ele>77.714</ele>
        <time>2012-10-14T11:12:42.104Z</time>
      </trkpt>
      <trkpt lat="43.37763" lon="6.64527">
        <ele>77.669</ele>
        <time>2012-10-14T11:12:45.815Z</time>
      </trkpt>
      <trkpt lat="43.37757" lon="6.64539">
        <ele>77.755</ele>
        <time>2012-10-14T11:12:50.598Z</time>
      </trkpt>
      <trkpt lat="43.37753" lon="6.6455">
        <ele>77.988</ele>
        <time>2012-10-14T11:12:55.292Z</time>
      </trkpt>
      <trkpt lat="43.37749" lon="6.64562">
        <ele>78.215</ele>
        <time>2012-10-14T11:12:59.870Z</time>
      </trkpt>
      <trkpt lat="43.37742" lon="6.64573">
        <ele>78.326</ele>
        <time>2012-10-14T11:13:04.958Z</time>
      </trkpt>
      <trkpt lat="43.37735" lon="6.64581">
        <ele>78.385</ele>
        <time>2012-10-14T11:13:08.698Z</time>
      </trkpt>
      <trkpt lat="43.37727" lon="6.64587">
        <ele>78.532</ele>
        <time>2012-10-14T11:13:12.148Z</time>
      </trkpt>
      <trkpt lat="43.37716" lon="6.6459">
        <ele>78.791</ele>
        <time>2012-10-14T11:13:16.229Z</time>
      </trkpt>
      <trkpt lat="43.37704" lon="6.64592">
        <ele>79.114</ele>
        <time>2012-10-14T11:13:20.375Z</time>
      </trkpt>
      <trkpt lat="43.37694" lon="6.64596">
        <ele>79.62</ele>
        <time>2012-10-14T11:13:24.481Z</time>
      </trkpt>
      <trkpt lat="43.37683" lon="6.64598">
        <ele>80.443</ele>
        <time>2012-10-14T11:13:28.800Z</time>
      </trkpt>
      <trkpt lat="43.37674" lon="6.64598">
        <ele>81.703</ele>
        <time>2012-10-14T11:13:33.314Z</time>
      </trkpt>
      <trkpt lat="43.37664" lon="6.64592">
        <ele>83.431</ele>
        <time>2012-10-14T11:13:38.366Z</time>
      </trkpt>
      <trkpt lat="43.37656" lon="6.64585">
        <ele>85.106</ele>
        <time>2012-10-14T11:13:42.234Z</time>
      </trkpt>
      <trkpt lat="43.37647" lon="6.64579">
        <ele>86.193</ele>
        <time>2012-10-14T11:13:45.562Z</time>
      </trkpt>
      <trkpt lat="43.37635" lon="6.64575">
        <ele>86.751</ele>
        <time>2012-10-14T11:13:48.950Z</time>
      </trkpt>
      <trkpt lat="43.37625" lon="6.64575">
        <ele>87.021</ele>
        <time>2012-10-14T11:13:51.352Z</time>
      </trkpt>
      <trkpt lat="43.37616" lon="6.64577">
        <ele>87.171</ele>
        <time>2012-10-14T11:13:53.426Z</time>
      </trkpt>
      <trkpt lat="43.376" lon="6.64581">
        <ele>87.309</ele>
        <time>2012-10-14T11:13:56.731Z</time>
      </trkpt>
      <trkpt lat="43.37587" lon="6.64586">
        <ele>87.545</ele>
        <time>2012-10-14T11:13:59.706Z</time>
      </trkpt>
      <trkpt lat="43.37574" lon="6.64593">
        <ele>87.897</ele>
        <time>2012-10-14T11:14:02.603Z</time>
      </trkpt>
      <trkpt lat="43.37565" lon="6.64601">
        <ele>88.184</ele>
        <time>2012-10-14T11:14:04.878Z</time>
      </trkpt>
      <trkpt lat="43.37554" lon="6.64611">
        <ele>88.299</ele>
        <time>2012-10-14T11:14:07.847Z</time>
      </trkpt>
      <trkpt lat="43.37542" lon="6.64619">
        <ele>88.305</ele>
        <time>2012-10-14T11:14:10.726Z</time>
      </trkpt>
      <trkpt lat="43.37529" lon="6.6463">
        <ele>88.127</ele>
        <time>2012-10-14T11:14:14.041Z</time>
      </trkpt>
      <trkpt lat="43.37518" lon="6.64639">
        <ele>87.719</ele>
        <time>2012-10-14T11:14:16.777Z</time>
      </trkpt>
      <trkpt lat="43.3751" lon="6.64647">
        <ele>87.304</ele>
        <time>2012-10-14T11:14:18.929Z</time>
      </trkpt>
      <trkpt lat="43.37498" lon="6.64657">
        <ele>87.092</ele>
        <time>2012-10-14T11:14:22.391Z</time>
      </trkpt>
      <trkpt lat="43.37488" lon="6.64667">
        <ele>87.05</ele>
        <time>2012-10-14T11:14:25.842Z</time>
      </trkpt>
      <trkpt lat="43.37478" lon="6.64673">
        <ele>87.107</ele>
        <time>2012-10-14T11:14:28.680Z</time>
      </trkpt>
      <trkpt lat="43.37466" lon="6.6468">
        <ele>87.435</ele>
        <time>2012-10-14T11:14:32.147Z</time>
      </trkpt>
      <trkpt lat="43.37456" lon="6.64689">
        <ele>88.183</ele>
        <time>2012-10-14T11:14:35.688Z</time>
      </trkpt>
      <trkpt lat="43.37448" lon="6.64696">
        <ele>89.501</ele>
        <time>2012-10-14T11:14:38.573Z</time>
      </trkpt>
      <trkpt lat="43.3744" lon="6.64704">
        <ele>91.353</ele>
        <time>2012-10-14T11:14:41.696Z</time>
      </trkpt>
      <trkpt lat="43.37432" lon="6.64711">
        <ele>93.035</ele>
        <time>2012-10-14T11:14:44.386Z</time>
      </trkpt>
      <trkpt lat="43.37422" lon="6.64718">
        <ele>93.859</ele>
        <time>2012-10-14T11:14:47.587Z</time>
      </trkpt>
      <trkpt lat="43.37413" lon="6.64724">
        <ele>94.051</ele>
        <time>2012-10-14T11:14:50.573Z</time>
      </trkpt>
      <trkpt lat="43.37402" lon="6.64732">
        <ele>94.057</ele>
        <time>2012-10-14T11:14:53.937Z</time>
      </trkpt>
      <trkpt lat="43.37391" lon="6.64742">
        <ele>94.006</ele>
        <time>2012-10-14T11:14:57.533Z</time>
      </trkpt>
      <trkpt lat="43.37382" lon="6.64752">
        <ele>93.87</ele>
        <time>2012-10-14T11:15:00.584Z</time>
      </trkpt>
      <trkpt lat="43.37373" lon="6.64762">
        <ele>93.782</ele>
        <time>2012-10-14T11:15:03.669Z</time>
      </trkpt>
      <trkpt lat="43.37362" lon="6.64765">
        <ele>93.849</ele>
        <time>2012-10-14T11:15:06.560Z</time>
      </trkpt>
      <trkpt lat="43.3735" lon="6.64766">
        <ele>93.976</ele>
        <time>2012-10-14T11:15:09.572Z</time>
      </trkpt>
      <trkpt lat="43.3734" lon="6.64766">
        <ele>94.052</ele>
        <time>2012-10-14T11:15:12.489Z</time>
      </trkpt>
      <trkpt lat="43.37329" lon="6.64764">
        <ele>93.954</ele>
        <time>2012-10-14T11:15:15.478Z</time>
      </trkpt>
      <trkpt lat="43.37317" lon="6.64765">
        <ele>93.784</ele>
        <time>2012-10-14T11:15:18.879Z</time>
      </trkpt>
      <trkpt lat="43.37306" lon="6.64768">
        <ele>93.726</ele>
        <time>2012-10-14T11:15:21.848Z</time>
      </trkpt>
      <trkpt lat="43.37295" lon="6.64769">
        <ele>93.671</ele>
        <time>2012-10-14T11:15:24.766Z</time>
      </trkpt>
      <trkpt lat="43.37284" lon="6.64767">
        <ele>93.647</ele>
        <time>2012-10-14T11:15:27.909Z</time>
      </trkpt>
      <trkpt lat="43.37274" lon="6.6476">
        <ele>93.854</ele>
        <time>2012-10-14T11:15:31.370Z</time>
      </trkpt>
      <trkpt lat="43.37266" lon="6.64752">
        <ele>94.224</ele>
        <time>2012-10-14T11:15:34.336Z</time>
      </trkpt>
      <trkpt lat="43.3726" lon="6.64743">
        <ele>94.724</ele>
        <time>2012-10-14T11:15:37.091Z</time>
      </trkpt>
      <trkpt lat="43.37253" lon="6.64734">
        <ele>95.35</ele>
        <time>2012-10-14T11:15:39.710Z</time>
      </trkpt>
      <trkpt lat="43.37245" lon="6.64721">
        <ele>95.965</ele>
        <time>2012-10-14T11:15:42.933Z</time>
      </trkpt>
      <trkpt lat="43.37239" lon="6.64709">
        <ele>96.439</ele>
        <time>2012-10-14T11:15:45.890Z</time>
      </trkpt>
      <trkpt lat="43.37233" lon="6.64698">
        <ele>96.689</ele>
        <time>2012-10-14T11:15:48.828Z</time>
      </trkpt>
      <trkpt lat="43.37222" lon="6.64691">
        <ele>96.73</ele>
        <time>2012-10-14T11:15:52.530Z</time>
      </trkpt>
      <trkpt lat="43.37211" lon="6.64695">
        <ele>96.685</ele>
        <time>2012-10-14T11:15:56.353Z</time>
      </trkpt>
      <trkpt lat="43.372" lon="6.64699">
        <ele>96.594</ele>
        <time>2012-10-14T11:16:00.103Z</time>
      </trkpt>
      <trkpt lat="43.37189" lon="6.64701">
        <ele>96.423</ele>
        <time>2012-10-14T11:16:03.986Z</time>
      </trkpt>
      <trkpt lat="43.37178" lon="6.64705">
        <ele>96.211</ele>
        <time>2012-10-14T11:16:08.343Z</time>
      </trkpt>
      <trkpt lat="43.37169" lon="6.64713">
        <ele>96.066</ele>
        <time>2012-10-14T11:16:12.142Z</time>
      </trkpt>
      <trkpt lat="43.3716" lon="6.64716">
        <ele>95.919</ele>
        <time>2012-10-14T11:16:14.962Z</time>
      </trkpt>
      <trkpt lat="43.37148" lon="6.64721">
        <ele>95.669</ele>
        <time>2012-10-14T11:16:18.353Z</time>
      </trkpt>
      <trkpt lat="43.37136" lon="6.64726">
        <ele>95.424</ele>
        <time>2012-10-14T11:16:21.975Z</time>
      </trkpt>
      <trkpt lat="43.37127" lon="6.64729">
        <ele>95.357</ele>
        <time>2012-10-14T11:16:24.799Z</time>
      </trkpt>
      <trkpt lat="43.37117" lon="6.64733">
        <ele>95.502</ele>
        <time>2012-10-14T11:16:27.954Z</time>
      </trkpt>
      <trkpt lat="43.37106" lon="6.64741">
        <ele>95.751</ele>
        <time>2012-10-14T11:16:31.621Z</time>
      </trkpt>
      <trkpt lat="43.37096" lon="6.64748">
        <ele>95.938</ele>
        <time>2012-10-14T11:16:34.940Z</time>
      </trkpt>
      <trkpt lat="43.37087" lon="6.64756">
        <ele>96.132</ele>
        <time>2012-10-14T11:16:38.570Z</time>
      </trkpt>
      <trkpt lat="43.37078" lon="6.64763">
        <ele>96.851</ele>
        <time>2012-10-14T11:16:41.783Z</time>
      </trkpt>
      <trkpt lat="43.37069" lon="6.64768">
        <ele>98.195</ele>
        <time>2012-10-14T11:16:45.265Z</time>
      </trkpt>
      <trkpt lat="43.3706" lon="6.6477">
        <ele>99.48</ele>
        <time>2012-10-14T11:16:48.412Z</time>
      </trkpt>
      <trkpt lat="43.3705" lon="6.64773">
        <ele>100.261</ele>
        <time>2012-10-14T11:16:51.759Z</time>
      </trkpt>
      <trkpt lat="43.37039" lon="6.64773">
        <ele>100.707</ele>
        <time>2012-10-14T11:16:55.580Z</time>
      </trkpt>
      <trkpt lat="43.37028" lon="6.64773">
        <ele>100.972</ele>
        <time>2012-10-14T11:16:59.144Z</time>
      </trkpt>
      <trkpt lat="43.37018" lon="6.6477">
        <ele>101.071</ele>
        <time>2012-10-14T11:17:02.335Z</time>
      </trkpt>
      <trkpt lat="43.37009" lon="6.64769">
        <ele>101.184</ele>
        <time>2012-10-14T11:17:05.189Z</time>
      </trkpt>
      <trkpt lat="43.36998" lon="6.64767">
        <ele>101.543</ele>
        <time>2012-10-14T11:17:08.342Z</time>
      </trkpt>
      <trkpt lat="43.36988" lon="6.64762">
        <ele>101.996</ele>
        <time>2012-10-14T11:17:11.595Z</time>
      </trkpt>
      <trkpt lat="43.36977" lon="6.6476">
        <ele>102.248</ele>
        <time>2012-10-14T11:17:14.730Z</time>
      </trkpt>
      <trkpt lat="43.36966" lon="6.64757">
        <ele>102.173</ele>
        <time>2012-10-14T11:17:17.973Z</time>
      </trkpt>
      <trkpt lat="43.36956" lon="6.64757">
        <ele>101.834</ele>
        <time>2012-10-14T11:17:20.802Z</time>
      </trkpt>
      <trkpt lat="43.36947" lon="6.64757">
        <ele>101.503</ele>
        <time>2012-10-14T11:17:23.568Z</time>
      </trkpt>
      <trkpt lat="43.36937" lon="6.6476">
        <ele>101.35</ele>
        <time>2012-10-14T11:17:26.680Z</time>
      </trkpt>
      <trkpt lat="43.36926" lon="6.64764">
        <ele>101.33</ele>
        <time>2012-10-14T11:17:30.425Z</time>
      </trkpt>
      <trkpt lat="43.36915" lon="6.64772">
        <ele>101.358</ele>
        <time>2012-10-14T11:17:34.384Z</time>
      </trkpt>
      <trkpt lat="43.36906" lon="6.64778">
        <ele>101.404</ele>
        <time>2012-10-14T11:17:37.770Z</time>
      </trkpt>
      <trkpt lat="43.36897" lon="6.64782">
        <ele>101.467</ele>
        <time>2012-10-14T11:17:41.105Z</time>
      </trkpt>
      <trkpt lat="43.36888" lon="6.6479">
        <ele>101.544</ele>
        <time>2012-10-14T11:17:45.203Z</time>
      </trkpt>
      <trkpt lat="43.36882" lon="6.64802">
        <ele>101.63</ele>
        <time>2012-10-14T11:17:48.971Z</time>
      </trkpt>
      <trkpt lat="43.36877" lon="6.64813">
        <ele>101.742</ele>
        <time>2012-10-14T11:17:52.121Z</time>
      </trkpt>
      <trkpt lat="43.36875" lon="6.64828">
        <ele>101.816</ele>
        <time>2012-10-14T11:17:56.020Z</time>
      </trkpt>
      <trkpt lat="43.36875" lon="6.64828">
        <ele>101.756</ele>
        <time>2012-10-14T11:18:12.018Z</time>
      </trkpt>
      <trkpt lat="43.36875" lon="6.64828">
        <ele>101.634</ele>
        <time>2012-10-14T11:18:13.154Z</time>
      </trkpt>
      <trkpt lat="43.36867" lon="6.64859">
        <ele>101.596</ele>
        <time>2012-10-14T11:18:49.790Z</time>
      </trkpt>
      <trkpt lat="43.36858" lon="6.64861">
        <ele>101.631</ele>
        <time>2012-10-14T11:18:57.621Z</time>
      </trkpt>
      <trkpt lat="43.36849" lon="6.64862">
        <ele>101.727</ele>
        <time>2012-10-14T11:19:02.580Z</time>
      </trkpt>
      <trkpt lat="43.36839" lon="6.64863">
        <ele>102.155</ele>
        <time>2012-10-14T11:19:07.249Z</time>
      </trkpt>
      <trkpt lat="43.36829" lon="6.64867">
        <ele>103.128</ele>
        <time>2012-10-14T11:19:11.915Z</time>
      </trkpt>
      <trkpt lat="43.36819" lon="6.64871">
        <ele>104.283</ele>
        <time>2012-10-14T11:19:16.261Z</time>
      </trkpt>
      <trkpt lat="43.3681" lon="6.64872">
        <ele>105.192</ele>
        <time>2012-10-14T11:19:20.424Z</time>
      </trkpt>
      <trkpt lat="43.36799" lon="6.64875">
        <ele>105.881</ele>
        <time>2012-10-14T11:19:25.037Z</time>
      </trkpt>
      <trkpt lat="43.3679" lon="6.64878">
        <ele>106.505</ele>
        <time>2012-10-14T11:19:28.928Z</time>
      </trkpt>
      <trkpt lat="43.3678" lon="6.64881">
        <ele>106.947</ele>
        <time>2012-10-14T11:19:32.947Z</time>
      </trkpt>
      <trkpt lat="43.3677" lon="6.64882">
        <ele>107.018</ele>
        <time>2012-10-14T11:19:36.872Z</time>
      </trkpt>
      <trkpt lat="43.36759" lon="6.64882">
        <ele>106.85</ele>
        <time>2012-10-14T11:19:41.191Z</time>
      </trkpt>
      <trkpt lat="43.36748" lon="6.64883">
        <ele>106.67</ele>
        <time>2012-10-14T11:19:45.388Z</time>
      </trkpt>
      <trkpt lat="43.36737" lon="6.64883">
        <ele>106.511</ele>
        <time>2012-10-14T11:19:49.652Z</time>
      </trkpt>
      <trkpt lat="43.36726" lon="6.64885">
        <ele>106.394</ele>
        <time>2012-10-14T11:19:54.325Z</time>
      </trkpt>
      <trkpt lat="43.36715" lon="6.64887">
        <ele>106.341</ele>
        <time>2012-10-14T11:19:59.007Z</time>
      </trkpt>
      <trkpt lat="43.36705" lon="6.64891">
        <ele>106.335</ele>
        <time>2012-10-14T11:20:03.396Z</time>
      </trkpt>
      <trkpt lat="43.36694" lon="6.64897">
        <ele>106.393</ele>
        <time>2012-10-14T11:20:08.264Z</time>
      </trkpt>
      <trkpt lat="43.36685" lon="6.649">
        <ele>106.596</ele>
        <time>2012-10-14T11:20:12.469Z</time>
      </trkpt>
      <trkpt lat="43.36676" lon="6.64903">
        <ele>107.447</ele>
        <time>2012-10-14T11:20:16.372Z</time>
      </trkpt>
      <trkpt lat="43.36666" lon="6.64908">
        <ele>109.25</ele>
        <time>2012-10-14T11:20:20.567Z</time>
      </trkpt>
      <trkpt lat="43.36655" lon="6.64912">
        <ele>111.322</ele>
        <time>2012-10-14T11:20:24.826Z</time>
      </trkpt>
      <trkpt lat="43.36646" lon="6.64917">
        <ele>112.835</ele>
        <time>2012-10-14T11:20:28.394Z</time>
      </trkpt>
      <trkpt lat="43.36637" lon="6.64922">
        <ele>113.637</ele>
        <time>2012-10-14T11:20:31.834Z</time>
      </trkpt>
      <trkpt lat="43.36627" lon="6.64928">
        <ele>113.873</ele>
        <time>2012-10-14T11:20:35.678Z</time>
      </trkpt>
      <trkpt lat="43.36616" lon="6.64934">
        <ele>113.822</ele>
        <time>2012-10-14T11:20:39.658Z</time>
      </trkpt>
      <trkpt lat="43.36607" lon="6.6494">
        <ele>113.716</ele>
        <time>2012-10-14T11:20:43.289Z</time>
      </trkpt>
      <trkpt lat="43.36598" lon="6.64948">
        <ele>113.652</ele>
        <time>2012-10-14T11:20:47.620Z</time>
      </trkpt>
      <trkpt lat="43.36588" lon="6.64955">
        <ele>113.633</ele>
        <time>2012-10-14T11:20:52.240Z</time>
      </trkpt>
      <trkpt lat="43.36579" lon="6.64964">
        <ele>113.658</ele>
        <time>2012-10-14T11:20:57.139Z</time>
      </trkpt>
      <trkpt lat="43.36572" lon="6.64975">
        <ele>113.908</ele>
        <time>2012-10-14T11:21:01.688Z</time>
      </trkpt>
      <trkpt lat="43.36569" lon="6.64986">
        <ele>114.486</ele>
        <time>2012-10-14T11:21:05.347Z</time>
      </trkpt>
      <trkpt lat="43.36568" lon="6.64999">
        <ele>115.109</ele>
        <time>2012-10-14T11:21:09.045Z</time>
      </trkpt>
      <trkpt lat="43.36568" lon="6.65014">
        <ele>115.652</ele>
        <time>2012-10-14T11:21:12.981Z</time>
      </trkpt>
      <trkpt lat="43.36568" lon="6.6503">
        <ele>116.286</ele>
        <time>2012-10-14T11:21:17.008Z</time>
      </trkpt>
      <trkpt lat="43.36569" lon="6.65044">
        <ele>116.902</ele>
        <time>2012-10-14T11:21:20.363Z</time>
      </trkpt>
      <trkpt lat="43.3657" lon="6.65058">
        <ele>117.278</ele>
        <time>2012-10-14T11:21:24.080Z</time>
      </trkpt>
      <trkpt lat="43.3657" lon="6.65074">
        <ele>117.426</ele>
        <time>2012-10-14T11:21:27.971Z</time>
      </trkpt>
      <trkpt lat="43.36571" lon="6.65088">
        <ele>117.505</ele>
        <time>2012-10-14T11:21:31.557Z</time>
      </trkpt>
      <trkpt lat="43.36573" lon="6.65103">
        <ele>117.745</ele>
        <time>2012-10-14T11:21:35.564Z</time>
      </trkpt>
      <trkpt lat="43.36577" lon="6.65116">
        <ele>118.505</ele>
        <time>2012-10-14T11:21:39.403Z</time>
      </trkpt>
      <trkpt lat="43.36582" lon="6.65128">
        <ele>119.807</ele>
        <time>2012-10-14T11:21:43.131Z</time>
      </trkpt>
      <trkpt lat="43.36584" lon="6.65141">
        <ele>121.575</ele>
        <time>2012-10-14T11:21:47.117Z</time>
      </trkpt>
      <trkpt lat="43.36585" lon="6.65154">
        <ele>123.622</ele>
        <time>2012-10-14T11:21:50.607Z</time>
      </trkpt>
      <trkpt lat="43.36586" lon="6.65169">
        <ele>125.212</ele>
        <time>2012-10-14T11:21:54.926Z</time>
      </trkpt>
      <trkpt lat="43.36587" lon="6.65182">
        <ele>125.885</ele>
        <time>2012-10-14T11:21:58.261Z</time>
      </trkpt>
      <trkpt lat="43.36589" lon="6.65196">
        <ele>126.049</ele>
        <time>2012-10-14T11:22:02.161Z</time>
      </trkpt>
      <trkpt lat="43.36589" lon="6.65211">
        <ele>125.981</ele>
        <time>2012-10-14T11:22:06.018Z</time>
      </trkpt>
      <trkpt lat="43.36587" lon="6.65227">
        <ele>125.643</ele>
        <time>2012-10-14T11:22:10.117Z</time>
      </trkpt>
      <trkpt lat="43.36585" lon="6.65242">
        <ele>125.109</ele>
        <time>2012-10-14T11:22:14.150Z</time>
      </trkpt>
      <trkpt lat="43.36583" lon="6.65256">
        <ele>124.855</ele>
        <time>2012-10-14T11:22:18.027Z</time>
      </trkpt>
      <trkpt lat="43.36582" lon="6.6527">
        <ele>125.158</ele>
        <time>2012-10-14T11:22:21.922Z</time>
      </trkpt>
      <trkpt lat="43.36582" lon="6.65285">
        <ele>125.681</ele>
        <time>2012-10-14T11:22:26.108Z</time>
      </trkpt>
      <trkpt lat="43.36584" lon="6.65299">
        <ele>126.05</ele>
        <time>2012-10-14T11:22:30.168Z</time>
      </trkpt>
      <trkpt lat="43.36587" lon="6.65312">
        <ele>126.23</ele>
        <time>2012-10-14T11:22:33.965Z</time>
      </trkpt>
      <trkpt lat="43.36591" lon="6.65323">
        <ele>126.438</ele>
        <time>2012-10-14T11:22:37.629Z</time>
      </trkpt>
      <trkpt lat="43.36595" lon="6.65336">
        <ele>126.827</ele>
        <time>2012-10-14T11:22:41.341Z</time>
      </trkpt>
      <trkpt lat="43.36596" lon="6.65351">
        <ele>127.205</ele>
        <time>2012-10-14T11:22:45.370Z</time>
      </trkpt>
      <trkpt lat="43.36597" lon="6.65366">
        <ele>127.378</ele>
        <time>2012-10-14T11:22:49.479Z</time>
      </trkpt>
      <trkpt lat="43.36598" lon="6.6538">
        <ele>127.331</ele>
        <time>2012-10-14T11:22:53.361Z</time>
      </trkpt>
      <trkpt lat="43.36597" lon="6.65393">
        <ele>127.013</ele>
        <time>2012-10-14T11:22:56.874Z</time>
      </trkpt>
      <trkpt lat="43.36597" lon="6.65407">
        <ele>126.52</ele>
        <time>2012-10-14T11:23:00.658Z</time>
      </trkpt>
      <trkpt lat="43.36597" lon="6.65422">
        <ele>126.133</ele>
        <time>2012-10-14T11:23:04.475Z</time>
      </trkpt>
      <trkpt lat="43.36597" lon="6.65434">
        <ele>125.983</ele>
        <time>2012-10-14T11:23:07.746Z</time>
      </trkpt>
      <trkpt lat="43.36598" lon="6.65447">
        <ele>126.102</ele>
        <time>2012-10-14T11:23:11.150Z</time>
      </trkpt>
      <trkpt lat="43.366" lon="6.65459">
        <ele>126.824</ele>
        <time>2012-10-14T11:23:14.801Z</time>
      </trkpt>
      <trkpt lat="43.36604" lon="6.65473">
        <ele>128.131</ele>
        <time>2012-10-14T11:23:19.853Z</time>
      </trkpt>
      <trkpt lat="43.36607" lon="6.65485">
        <ele>129.288</ele>
        <time>2012-10-14T11:23:24.640Z</time>
      </trkpt>
      <trkpt lat="43.36609" lon="6.65499">
        <ele>129.818</ele>
        <time>2012-10-14T11:23:30.707Z</time>
      </trkpt>
      <trkpt lat="43.36613" lon="6.65511">
        <ele>129.915</ele>
        <time>2012-10-14T11:23:36.994Z</time>
      </trkpt>
      <trkpt lat="43.36616" lon="6.65524">
        <ele>130.144</ele>
        <time>2012-10-14T11:23:42.825Z</time>
      </trkpt>
      <trkpt lat="43.36614" lon="6.65536">
        <ele>130.979</ele>
        <time>2012-10-14T11:23:48.041Z</time>
      </trkpt>
      <trkpt lat="43.36612" lon="6.65549">
        <ele>132.089</ele>
        <time>2012-10-14T11:23:53.296Z</time>
      </trkpt>
      <trkpt lat="43.36611" lon="6.65564">
        <ele>132.865</ele>
        <time>2012-10-14T11:23:58.880Z</time>
      </trkpt>
      <trkpt lat="43.36612" lon="6.65577">
        <ele>133.217</ele>
        <time>2012-10-14T11:24:05.119Z</time>
      </trkpt>
      <trkpt lat="43.36613" lon="6.6559">
        <ele>133.442</ele>
        <time>2012-10-14T11:24:12.007Z</time>
      </trkpt>
      <trkpt lat="43.36615" lon="6.65602">
        <ele>133.762</ele>
        <time>2012-10-14T11:24:19.033Z</time>
      </trkpt>
      <trkpt lat="43.36615" lon="6.65602">
        <ele>133.995</ele>
        <time>2012-10-14T11:24:23.014Z</time>
      </trkpt>
      <trkpt lat="43.36615" lon="6.65602">
        <ele>133.966</ele>
        <time>2012-10-14T11:24:23.114Z</time>
      </trkpt>
      <trkpt lat="43.36629" lon="6.65625">
        <ele>133.858</ele>
        <time>2012-10-14T11:25:02.064Z</time>
      </trkpt>
      <trkpt lat="43.36629" lon="6.65625">
        <ele>133.818</ele>
        <time>2012-10-14T11:25:06.032Z</time>
      </trkpt>
      <trkpt lat="43.36629" lon="6.65625">
        <ele>133.8</ele>
        <time>2012-10-14T11:25:06.132Z</time>
      </trkpt>
      <trkpt lat="43.3664" lon="6.65658">
        <ele>133.763</ele>
        <time>2012-10-14T11:25:36.674Z</time>
      </trkpt>
      <trkpt lat="43.36644" lon="6.6567">
        <ele>133.721</ele>
        <time>2012-10-14T11:25:44.926Z</time>
      </trkpt>
      <trkpt lat="43.36648" lon="6.65681">
        <ele>133.719</ele>
        <time>2012-10-14T11:25:50.984Z</time>
      </trkpt>
      <trkpt lat="43.36654" lon="6.65692">
        <ele>134.796</ele>
        <time>2012-10-14T11:25:55.788Z</time>
      </trkpt>
      <trkpt lat="43.3666" lon="6.65704">
        <ele>137.706</ele>
        <time>2012-10-14T11:26:00.734Z</time>
      </trkpt>
      <trkpt lat="43.36665" lon="6.65716">
        <ele>141.071</ele>
        <time>2012-10-14T11:26:05.274Z</time>
      </trkpt>
      <trkpt lat="43.36672" lon="6.65728">
        <ele>143.202</ele>
        <time>2012-10-14T11:26:10.929Z</time>
      </trkpt>
      <trkpt lat="43.36678" lon="6.65737">
        <ele>144.09</ele>
        <time>2012-10-14T11:26:15.797Z</time>
      </trkpt>
      <trkpt lat="43.36683" lon="6.65748">
        <ele>144.38</ele>
        <time>2012-10-14T11:26:20.849Z</time>
      </trkpt>
      <trkpt lat="43.36685" lon="6.65761">
        <ele>144.611</ele>
        <time>2012-10-14T11:26:25.893Z</time>
      </trkpt>
      <trkpt lat="43.36683" lon="6.65774">
        <ele>145.022</ele>
        <time>2012-10-14T11:26:30.875Z</time>
      </trkpt>
      <trkpt lat="43.36678" lon="6.65787">
        <ele>145.558</ele>
        <time>2012-10-14T11:26:36.455Z</time>
      </trkpt>
      <trkpt lat="43.36672" lon="6.65797">
        <ele>146.129</ele>
        <time>2012-10-14T11:26:41.245Z</time>
      </trkpt>
      <trkpt lat="43.36666" lon="6.65808">
        <ele>146.739</ele>
        <time>2012-10-14T11:26:46.791Z</time>
      </trkpt>
      <trkpt lat="43.36661" lon="6.65821">
        <ele>147.216</ele>
        <time>2012-10-14T11:26:52.434Z</time>
      </trkpt>
      <trkpt lat="43.36657" lon="6.65833">
        <ele>147.429</ele>
        <time>2012-10-14T11:26:57.433Z</time>
      </trkpt>
      <trkpt lat="43.36654" lon="6.65846">
        <ele>147.518</ele>
        <time>2012-10-14T11:27:02.422Z</time>
      </trkpt>
      <trkpt lat="43.36653" lon="6.65859">
        <ele>147.686</ele>
        <time>2012-10-14T11:27:06.992Z</time>
      </trkpt>
      <trkpt lat="43.36657" lon="6.65871">
        <ele>148.034</ele>
        <time>2012-10-14T11:27:12.187Z</time>
      </trkpt>
      <trkpt lat="43.36667" lon="6.65873">
        <ele>148.507</ele>
        <time>2012-10-14T11:27:17.213Z</time>
      </trkpt>
      <trkpt lat="43.36676" lon="6.6587">
        <ele>149.001</ele>
        <time>2012-10-14T11:27:22.461Z</time>
      </trkpt>
      <trkpt lat="43.36685" lon="6.65864">
        <ele>149.423</ele>
        <time>2012-10-14T11:27:28.134Z</time>
      </trkpt>
      <trkpt lat="43.36693" lon="6.65858">
        <ele>149.787</ele>
        <time>2012-10-14T11:27:33.697Z</time>
      </trkpt>
      <trkpt lat="43.36702" lon="6.65858">
        <ele>150.426</ele>
        <time>2012-10-14T11:27:39.215Z</time>
      </trkpt>
      <trkpt lat="43.36711" lon="6.65863">
        <ele>151.485</ele>
        <time>2012-10-14T11:27:45.426Z</time>
      </trkpt>
      <trkpt lat="43.36718" lon="6.65874">
        <ele>152.629</ele>
        <time>2012-10-14T11:27:52.200Z</time>
      </trkpt>
      <trkpt lat="43.36721" lon="6.65886">
        <ele>153.666</ele>
        <time>2012-10-14T11:27:58.469Z</time>
      </trkpt>
      <trkpt lat="43.36726" lon="6.65898">
        <ele>154.772</ele>
        <time>2012-10-14T11:28:05.141Z</time>
      </trkpt>
      <trkpt lat="43.36732" lon="6.65908">
        <ele>155.936</ele>
        <time>2012-10-14T11:28:11.022Z</time>
      </trkpt>
      <trkpt lat="43.36732" lon="6.65908">
        <ele>156.841</ele>
        <time>2012-10-14T11:28:26.062Z</time>
      </trkpt>
      <trkpt lat="43.36732" lon="6.65908">
        <ele>157.279</ele>
        <time>2012-10-14T11:28:40.400Z</time>
      </trkpt>
      <trkpt lat="43.36737" lon="6.65933">
        <ele>157.525</ele>
        <time>2012-10-14T11:29:02.343Z</time>
      </trkpt>
      <trkpt lat="43.3674" lon="6.65946">
        <ele>158.156</ele>
        <time>2012-10-14T11:29:09.131Z</time>
      </trkpt>
      <trkpt lat="43.36741" lon="6.65959">
        <ele>159.212</ele>
        <time>2012-10-14T11:29:15.797Z</time>
      </trkpt>
      <trkpt lat="43.36743" lon="6.65971">
        <ele>160.116</ele>
        <time>2012-10-14T11:29:22.016Z</time>
      </trkpt>
      <trkpt lat="43.36743" lon="6.65971">
        <ele>160.516</ele>
        <time>2012-10-14T11:29:35.058Z</time>
      </trkpt>
      <trkpt lat="43.36743" lon="6.65971">
        <ele>160.561</ele>
        <time>2012-10-14T11:33:15.858Z</time>
      </trkpt>
      <trkpt lat="43.36749" lon="6.65998">
        <ele>160.818</ele>
        <time>2012-10-14T11:33:41.588Z</time>
      </trkpt>
      <trkpt lat="43.36753" lon="6.6601">
        <ele>161.936</ele>
        <time>2012-10-14T11:33:47.193Z</time>
      </trkpt>
      <trkpt lat="43.36758" lon="6.66021">
        <ele>163.747</ele>
        <time>2012-10-14T11:33:52.684Z</time>
      </trkpt>
      <trkpt lat="43.36762" lon="6.66034">
        <ele>165.545</ele>
        <time>2012-10-14T11:33:58.396Z</time>
      </trkpt>
      <trkpt lat="43.36761" lon="6.66048">
        <ele>167.091</ele>
        <time>2012-10-14T11:34:04.196Z</time>
      </trkpt>
      <trkpt lat="43.36761" lon="6.6606">
        <ele>168.607</ele>
        <time>2012-10-14T11:34:09.329Z</time>
      </trkpt>
      <trkpt lat="43.36759" lon="6.66073">
        <ele>170.159</ele>
        <time>2012-10-14T11:34:14.550Z</time>
      </trkpt>
      <trkpt lat="43.36759" lon="6.66087">
        <ele>171.665</ele>
        <time>2012-10-14T11:34:20.424Z</time>
      </trkpt>
      <trkpt lat="43.36759" lon="6.66101">
        <ele>172.983</ele>
        <time>2012-10-14T11:34:26.282Z</time>
      </trkpt>
      <trkpt lat="43.3676" lon="6.66115">
        <ele>173.943</ele>
        <time>2012-10-14T11:34:32.176Z</time>
      </trkpt>
      <trkpt lat="43.36761" lon="6.66128">
        <ele>174.554</ele>
        <time>2012-10-14T11:34:37.840Z</time>
      </trkpt>
      <trkpt lat="43.36755" lon="6.6614">
        <ele>175.243</ele>
        <time>2012-10-14T11:34:43.494Z</time>
      </trkpt>
      <trkpt lat="43.36748" lon="6.6615">
        <ele>176.243</ele>
        <time>2012-10-14T11:34:49.240Z</time>
      </trkpt>
      <trkpt lat="43.36741" lon="6.66159">
        <ele>177.261</ele>
        <time>2012-10-14T11:34:54.235Z</time>
      </trkpt>
      <trkpt lat="43.36736" lon="6.66171">
        <ele>177.918</ele>
        <time>2012-10-14T11:34:59.823Z</time>
      </trkpt>
      <trkpt lat="43.36732" lon="6.66184">
        <ele>178.227</ele>
        <time>2012-10-14T11:35:05.253Z</time>
      </trkpt>
      <trkpt lat="43.36728" lon="6.66196">
        <ele>178.372</ele>
        <time>2012-10-14T11:35:10.673Z</time>
      </trkpt>
      <trkpt lat="43.36722" lon="6.66206">
        <ele>178.596</ele>
        <time>2012-10-14T11:35:15.521Z</time>
      </trkpt>
      <trkpt lat="43.36716" lon="6.66217">
        <ele>179.001</ele>
        <time>2012-10-14T11:35:21.202Z</time>
      </trkpt>
      <trkpt lat="43.36712" lon="6.66229">
        <ele>179.492</ele>
        <time>2012-10-14T11:35:26.426Z</time>
      </trkpt>
      <trkpt lat="43.36706" lon="6.6624">
        <ele>180.074</ele>
        <time>2012-10-14T11:35:32.045Z</time>
      </trkpt>
      <trkpt lat="43.36699" lon="6.66248">
        <ele>180.796</ele>
        <time>2012-10-14T11:35:38.029Z</time>
      </trkpt>
      <trkpt lat="43.36699" lon="6.66248">
        <ele>181.424</ele>
        <time>2012-10-14T11:35:53.031Z</time>
      </trkpt>
      <trkpt lat="43.36699" lon="6.66248">
        <ele>181.735</ele>
        <time>2012-10-14T11:42:25.631Z</time>
      </trkpt>
      <trkpt lat="43.36696" lon="6.66275">
        <ele>181.96</ele>
        <time>2012-10-14T11:42:52.234Z</time>
      </trkpt>
      <trkpt lat="43.36689" lon="6.66284">
        <ele>182.353</ele>
        <time>2012-10-14T11:42:57.686Z</time>
      </trkpt>
      <trkpt lat="43.36678" lon="6.66288">
        <ele>182.522</ele>
        <time>2012-10-14T11:43:02.539Z</time>
      </trkpt>
      <trkpt lat="43.36672" lon="6.66302">
        <ele>182.019</ele>
        <time>2012-10-14T11:43:06.428Z</time>
      </trkpt>
      <trkpt lat="43.36671" lon="6.66316">
        <ele>181.188</ele>
        <time>2012-10-14T11:43:09.319Z</time>
      </trkpt>
      <trkpt lat="43.36671" lon="6.66329">
        <ele>180.036</ele>
        <time>2012-10-14T11:43:11.624Z</time>
      </trkpt>
      <trkpt lat="43.36669" lon="6.66348">
        <ele>178.353</ele>
        <time>2012-10-14T11:43:15.069Z</time>
      </trkpt>
      <trkpt lat="43.36669" lon="6.66367">
        <ele>176.855</ele>
        <time>2012-10-14T11:43:18.273Z</time>
      </trkpt>
      <trkpt lat="43.36672" lon="6.66386">
        <ele>176.207</ele>
        <time>2012-10-14T11:43:21.927Z</time>
      </trkpt>
      <trkpt lat="43.36675" lon="6.66401">
        <ele>176.147</ele>
        <time>2012-10-14T11:43:24.889Z</time>
      </trkpt>
      <trkpt lat="43.36678" lon="6.66414">
        <ele>176.287</ele>
        <time>2012-10-14T11:43:27.788Z</time>
      </trkpt>
      <trkpt lat="43.36682" lon="6.66427">
        <ele>176.409</ele>
        <time>2012-10-14T11:43:31.239Z</time>
      </trkpt>
      <trkpt lat="43.36684" lon="6.66441">
        <ele>176.404</ele>
        <time>2012-10-14T11:43:34.764Z</time>
      </trkpt>
      <trkpt lat="43.36684" lon="6.66457">
        <ele>176.11</ele>
        <time>2012-10-14T11:43:38.683Z</time>
      </trkpt>
      <trkpt lat="43.36683" lon="6.66471">
        <ele>175.298</ele>
        <time>2012-10-14T11:43:42.512Z</time>
      </trkpt>
      <trkpt lat="43.36687" lon="6.66484">
        <ele>173.025</ele>
        <time>2012-10-14T11:43:48.076Z</time>
      </trkpt>
      <trkpt lat="43.36689" lon="6.66498">
        <ele>168.74</ele>
        <time>2012-10-14T11:43:53.749Z</time>
      </trkpt>
      <trkpt lat="43.36691" lon="6.66511">
        <ele>164.087</ele>
        <time>2012-10-14T11:44:01.433Z</time>
      </trkpt>
      <trkpt lat="43.36694" lon="6.66526">
        <ele>161.048</ele>
        <time>2012-10-14T11:44:07.152Z</time>
      </trkpt>
      <trkpt lat="43.36695" lon="6.6654">
        <ele>159.299</ele>
        <time>2012-10-14T11:44:10.775Z</time>
      </trkpt>
      <trkpt lat="43.36699" lon="6.66556">
        <ele>157.336</ele>
        <time>2012-10-14T11:44:14.232Z</time>
      </trkpt>
      <trkpt lat="43.36704" lon="6.66568">
        <ele>154.258</ele>
        <time>2012-10-14T11:44:16.812Z</time>
      </trkpt>
      <trkpt lat="43.36708" lon="6.6658">
        <ele>150.747</ele>
        <time>2012-10-14T11:44:19.316Z</time>
      </trkpt>
      <trkpt lat="43.36714" lon="6.6659">
        <ele>148.292</ele>
        <time>2012-10-14T11:44:21.656Z</time>
      </trkpt>
      <trkpt lat="43.3672" lon="6.66604">
        <ele>147.378</ele>
        <time>2012-10-14T11:44:24.742Z</time>
      </trkpt>
      <trkpt lat="43.36723" lon="6.66619">
        <ele>147.239</ele>
        <time>2012-10-14T11:44:28.030Z</time>
      </trkpt>
      <trkpt lat="43.36723" lon="6.66634">
        <ele>147.187</ele>
        <time>2012-10-14T11:44:31.197Z</time>
      </trkpt>
      <trkpt lat="43.36725" lon="6.66649">
        <ele>146.18</ele>
        <time>2012-10-14T11:44:34.564Z</time>
      </trkpt>
      <trkpt lat="43.36727" lon="6.66666">
        <ele>143.743</ele>
        <time>2012-10-14T11:44:38.472Z</time>
      </trkpt>
      <trkpt lat="43.3673" lon="6.66679">
        <ele>140.778</ele>
        <time>2012-10-14T11:44:41.418Z</time>
      </trkpt>
      <trkpt lat="43.36731" lon="6.66695">
        <ele>137.871</ele>
        <time>2012-10-14T11:44:44.663Z</time>
      </trkpt>
      <trkpt lat="43.36732" lon="6.66711">
        <ele>134.172</ele>
        <time>2012-10-14T11:44:47.749Z</time>
      </trkpt>
      <trkpt lat="43.36729" lon="6.66726">
        <ele>129.802</ele>
        <time>2012-10-14T11:44:50.700Z</time>
      </trkpt>
      <trkpt lat="43.36729" lon="6.66744">
        <ele>126.437</ele>
        <time>2012-10-14T11:44:53.958Z</time>
      </trkpt>
      <trkpt lat="43.36729" lon="6.66762">
        <ele>125.038</ele>
        <time>2012-10-14T11:44:57.148Z</time>
      </trkpt>
      <trkpt lat="43.36727" lon="6.66775">
        <ele>124.677</ele>
        <time>2012-10-14T11:44:59.436Z</time>
      </trkpt>
      <trkpt lat="43.36728" lon="6.66791">
        <ele>124.431</ele>
        <time>2012-10-14T11:45:02.119Z</time>
      </trkpt>
      <trkpt lat="43.36731" lon="6.66808">
        <ele>124.164</ele>
        <time>2012-10-14T11:45:05.131Z</time>
      </trkpt>
      <trkpt lat="43.36731" lon="6.66825">
        <ele>124.007</ele>
        <time>2012-10-14T11:45:07.820Z</time>
      </trkpt>
      <trkpt lat="43.36732" lon="6.66842">
        <ele>123.925</ele>
        <time>2012-10-14T11:45:10.671Z</time>
      </trkpt>
      <trkpt lat="43.36727" lon="6.66857">
        <ele>123.695</ele>
        <time>2012-10-14T11:45:13.569Z</time>
      </trkpt>
      <trkpt lat="43.36719" lon="6.66867">
        <ele>123.008</ele>
        <time>2012-10-14T11:45:16.269Z</time>
      </trkpt>
      <trkpt lat="43.36707" lon="6.66865">
        <ele>121.743</ele>
        <time>2012-10-14T11:45:19.377Z</time>
      </trkpt>
      <trkpt lat="43.36698" lon="6.66871">
        <ele>120.188</ele>
        <time>2012-10-14T11:45:22.033Z</time>
      </trkpt>
      <trkpt lat="43.36698" lon="6.66871">
        <ele>118.922</ele>
        <time>2012-10-14T11:45:33.033Z</time>
      </trkpt>
      <trkpt lat="43.36698" lon="6.66871">
        <ele>118.316</ele>
        <time>2012-10-14T11:45:33.256Z</time>
      </trkpt>
      <trkpt lat="43.36704" lon="6.66896">
        <ele>117.742</ele>
        <time>2012-10-14T11:46:01.941Z</time>
      </trkpt>
      <trkpt lat="43.36706" lon="6.66909">
        <ele>116.513</ele>
        <time>2012-10-14T11:46:10.029Z</time>
      </trkpt>
      <trkpt lat="43.36709" lon="6.66922">
        <ele>115.114</ele>
        <time>2012-10-14T11:46:19.126Z</time>
      </trkpt>
      <trkpt lat="43.36709" lon="6.66935">
        <ele>114.465</ele>
        <time>2012-10-14T11:46:27.408Z</time>
      </trkpt>
      <trkpt lat="43.36711" lon="6.66949">
        <ele>114.904</ele>
        <time>2012-10-14T11:46:36.446Z</time>
      </trkpt>
      <trkpt lat="43.36711" lon="6.66961">
        <ele>116.059</ele>
        <time>2012-10-14T11:46:44.783Z</time>
      </trkpt>
      <trkpt lat="43.36711" lon="6.66976">
        <ele>117.071</ele>
        <time>2012-10-14T11:46:53.230Z</time>
      </trkpt>
      <trkpt lat="43.36711" lon="6.66991">
        <ele>117.559</ele>
        <time>2012-10-14T11:46:59.119Z</time>
      </trkpt>
      <trkpt lat="43.36708" lon="6.67006">
        <ele>117.801</ele>
        <time>2012-10-14T11:47:03.628Z</time>
      </trkpt>
      <trkpt lat="43.36704" lon="6.67022">
        <ele>118.009</ele>
        <time>2012-10-14T11:47:07.720Z</time>
      </trkpt>
      <trkpt lat="43.367" lon="6.67038">
        <ele>118.181</ele>
        <time>2012-10-14T11:47:10.986Z</time>
      </trkpt>
      <trkpt lat="43.36694" lon="6.67055">
        <ele>118.297</ele>
        <time>2012-10-14T11:47:14.621Z</time>
      </trkpt>
      <trkpt lat="43.36691" lon="6.67067">
        <ele>118.335</ele>
        <time>2012-10-14T11:47:16.936Z</time>
      </trkpt>
      <trkpt lat="43.36688" lon="6.67082">
        <ele>118.285</ele>
        <time>2012-10-14T11:47:19.786Z</time>
      </trkpt>
      <trkpt lat="43.36687" lon="6.67096">
        <ele>118.108</ele>
        <time>2012-10-14T11:47:22.144Z</time>
      </trkpt>
      <trkpt lat="43.3669" lon="6.67113">
        <ele>117.799</ele>
        <time>2012-10-14T11:47:24.842Z</time>
      </trkpt>
      <trkpt lat="43.36693" lon="6.67125">
        <ele>117.419</ele>
        <time>2012-10-14T11:47:26.427Z</time>
      </trkpt>
      <trkpt lat="43.36694" lon="6.67149">
        <ele>117.016</ele>
        <time>2012-10-14T11:47:29.434Z</time>
      </trkpt>
      <trkpt lat="43.36693" lon="6.67166">
        <ele>116.566</ele>
        <time>2012-10-14T11:47:32.000Z</time>
      </trkpt>
      <trkpt lat="43.36692" lon="6.67194">
        <ele>116.112</ele>
        <time>2012-10-14T11:47:36.738Z</time>
      </trkpt>
      <trkpt lat="43.36691" lon="6.67206">
        <ele>115.419</ele>
        <time>2012-10-14T11:47:38.853Z</time>
      </trkpt>
      <trkpt lat="43.36681" lon="6.67216">
        <ele>114.265</ele>
        <time>2012-10-14T11:47:41.194Z</time>
      </trkpt>
      <trkpt lat="43.36671" lon="6.67219">
        <ele>113.077</ele>
        <time>2012-10-14T11:47:43.251Z</time>
      </trkpt>
      <trkpt lat="43.36666" lon="6.67235">
        <ele>112.395</ele>
        <time>2012-10-14T11:47:45.932Z</time>
      </trkpt>
      <trkpt lat="43.36661" lon="6.67257">
        <ele>112.079</ele>
        <time>2012-10-14T11:47:50.002Z</time>
      </trkpt>
      <trkpt lat="43.36662" lon="6.67274">
        <ele>111.421</ele>
        <time>2012-10-14T11:47:53.344Z</time>
      </trkpt>
      <trkpt lat="43.36656" lon="6.67288">
        <ele>110.109</ele>
        <time>2012-10-14T11:47:57.113Z</time>
      </trkpt>
      <trkpt lat="43.36654" lon="6.67303">
        <ele>108.659</ele>
        <time>2012-10-14T11:48:00.995Z</time>
      </trkpt>
      <trkpt lat="43.36661" lon="6.67311">
        <ele>107.574</ele>
        <time>2012-10-14T11:48:04.666Z</time>
      </trkpt>
      <trkpt lat="43.3667" lon="6.67319">
        <ele>106.921</ele>
        <time>2012-10-14T11:48:09.249Z</time>
      </trkpt>
      <trkpt lat="43.36679" lon="6.67327">
        <ele>106.628</ele>
        <time>2012-10-14T11:48:13.950Z</time>
      </trkpt>
      <trkpt lat="43.36687" lon="6.67333">
        <ele>106.595</ele>
        <time>2012-10-14T11:48:18.251Z</time>
      </trkpt>
      <trkpt lat="43.36694" lon="6.67341">
        <ele>106.763</ele>
        <time>2012-10-14T11:48:22.678Z</time>
      </trkpt>
      <trkpt lat="43.367" lon="6.67351">
        <ele>106.958</ele>
        <time>2012-10-14T11:48:26.816Z</time>
      </trkpt>
      <trkpt lat="43.36706" lon="6.6736">
        <ele>107.012</ele>
        <time>2012-10-14T11:48:30.965Z</time>
      </trkpt>
      <trkpt lat="43.36709" lon="6.67373">
        <ele>106.912</ele>
        <time>2012-10-14T11:48:35.444Z</time>
      </trkpt>
      <trkpt lat="43.3671" lon="6.67387">
        <ele>106.777</ele>
        <time>2012-10-14T11:48:40.152Z</time>
      </trkpt>
      <trkpt lat="43.36709" lon="6.674">
        <ele>106.703</ele>
        <time>2012-10-14T11:48:43.639Z</time>
      </trkpt>
      <trkpt lat="43.36708" lon="6.67416">
        <ele>106.687</ele>
        <time>2012-10-14T11:48:47.201Z</time>
      </trkpt>
      <trkpt lat="43.36711" lon="6.6743">
        <ele>106.965</ele>
        <time>2012-10-14T11:48:50.188Z</time>
      </trkpt>
      <trkpt lat="43.36716" lon="6.67445">
        <ele>107.681</ele>
        <time>2012-10-14T11:48:53.388Z</time>
      </trkpt>
      <trkpt lat="43.36721" lon="6.67459">
        <ele>108.627</ele>
        <time>2012-10-14T11:48:56.209Z</time>
      </trkpt>
      <trkpt lat="43.36724" lon="6.67471">
        <ele>109.531</ele>
        <time>2012-10-14T11:48:58.544Z</time>
      </trkpt>
      <trkpt lat="43.36729" lon="6.67487">
        <ele>110.188</ele>
        <time>2012-10-14T11:49:01.812Z</time>
      </trkpt>
      <trkpt lat="43.36733" lon="6.675">
        <ele>110.509</ele>
        <time>2012-10-14T11:49:04.717Z</time>
      </trkpt>
      <trkpt lat="43.3674" lon="6.67514">
        <ele>110.633</ele>
        <time>2012-10-14T11:49:08.255Z</time>
      </trkpt>
      <trkpt lat="43.36746" lon="6.67526">
        <ele>110.654</ele>
        <time>2012-10-14T11:49:11.464Z</time>
      </trkpt>
      <trkpt lat="43.36751" lon="6.67539">
        <ele>110.634</ele>
        <time>2012-10-14T11:49:15.027Z</time>
      </trkpt>
      <trkpt lat="43.36756" lon="6.67553">
        <ele>110.613</ele>
        <time>2012-10-14T11:49:18.954Z</time>
      </trkpt>
      <trkpt lat="43.3676" lon="6.67566">
        <ele>110.626</ele>
        <time>2012-10-14T11:49:22.606Z</time>
      </trkpt>
      <trkpt lat="43.36765" lon="6.6758">
        <ele>110.712</ele>
        <time>2012-10-14T11:49:26.490Z</time>
      </trkpt>
      <trkpt lat="43.36766" lon="6.67595">
        <ele>110.849</ele>
        <time>2012-10-14T11:49:30.886Z</time>
      </trkpt>
      <trkpt lat="43.36764" lon="6.6761">
        <ele>111.092</ele>
        <time>2012-10-14T11:49:35.704Z</time>
      </trkpt>
      <trkpt lat="43.36763" lon="6.67624">
        <ele>111.525</ele>
        <time>2012-10-14T11:49:40.492Z</time>
      </trkpt>
      <trkpt lat="43.36758" lon="6.67635">
        <ele>112.08</ele>
        <time>2012-10-14T11:49:45.190Z</time>
      </trkpt>
      <trkpt lat="43.36755" lon="6.67648">
        <ele>112.869</ele>
        <time>2012-10-14T11:49:50.172Z</time>
      </trkpt>
      <trkpt lat="43.36754" lon="6.67661">
        <ele>114.083</ele>
        <time>2012-10-14T11:49:55.607Z</time>
      </trkpt>
      <trkpt lat="43.36753" lon="6.67675">
        <ele>115.414</ele>
        <time>2012-10-14T11:50:01.737Z</time>
      </trkpt>
      <trkpt lat="43.36749" lon="6.67686">
        <ele>116.872</ele>
        <time>2012-10-14T11:50:07.004Z</time>
      </trkpt>
      <trkpt lat="43.36749" lon="6.67699">
        <ele>118.623</ele>
        <time>2012-10-14T11:50:12.218Z</time>
      </trkpt>
      <trkpt lat="43.36751" lon="6.67713">
        <ele>120.056</ele>
        <time>2012-10-14T11:50:17.993Z</time>
      </trkpt>
      <trkpt lat="43.36753" lon="6.67726">
        <ele>120.841</ele>
        <time>2012-10-14T11:50:24.418Z</time>
      </trkpt>
      <trkpt lat="43.36754" lon="6.6774">
        <ele>121.485</ele>
        <time>2012-10-14T11:50:30.853Z</time>
      </trkpt>
      <trkpt lat="43.36756" lon="6.67753">
        <ele>122.152</ele>
        <time>2012-10-14T11:50:37.791Z</time>
      </trkpt>
      <trkpt lat="43.36757" lon="6.67766">
        <ele>122.806</ele>
        <time>2012-10-14T11:50:44.975Z</time>
      </trkpt>
      <trkpt lat="43.3676" lon="6.67778">
        <ele>123.986</ele>
        <time>2012-10-14T11:50:52.285Z</time>
      </trkpt>
      <trkpt lat="43.36764" lon="6.67792">
        <ele>125.835</ele>
        <time>2012-10-14T11:51:01.066Z</time>
      </trkpt>
      <trkpt lat="43.36767" lon="6.67815">
        <ele>127.546</ele>
        <time>2012-10-14T11:51:17.064Z</time>
      </trkpt>
      <trkpt lat="43.36769" lon="6.67827">
        <ele>128.762</ele>
        <time>2012-10-14T11:51:27.677Z</time>
      </trkpt>
      <trkpt lat="43.3677" lon="6.67841">
        <ele>129.953</ele>
        <time>2012-10-14T11:51:39.820Z</time>
      </trkpt>
      <trkpt lat="43.36769" lon="6.67854">
        <ele>131.406</ele>
        <time>2012-10-14T11:51:49.118Z</time>
      </trkpt>
      <trkpt lat="43.36767" lon="6.67867">
        <ele>133.022</ele>
        <time>2012-10-14T11:51:57.151Z</time>
      </trkpt>
      <trkpt lat="43.36767" lon="6.67879">
        <ele>134.649</ele>
        <time>2012-10-14T11:52:05.038Z</time>
      </trkpt>
      <trkpt lat="43.36767" lon="6.67879">
        <ele>136.083</ele>
        <time>2012-10-14T11:52:20.037Z</time>
      </trkpt>
      <trkpt lat="43.36767" lon="6.67879">
        <ele>136.982</ele>
        <time>2012-10-14T11:52:20.137Z</time>
      </trkpt>
      <trkpt lat="43.3677" lon="6.67905">
        <ele>137.41</ele>
        <time>2012-10-14T11:52:43.386Z</time>
      </trkpt>
      <trkpt lat="43.36774" lon="6.67916">
        <ele>138.013</ele>
        <time>2012-10-14T11:52:50.224Z</time>
      </trkpt>
      <trkpt lat="43.36774" lon="6.6793">
        <ele>139.117</ele>
        <time>2012-10-14T11:52:57.365Z</time>
      </trkpt>
      <trkpt lat="43.36773" lon="6.67942">
        <ele>141.021</ele>
        <time>2012-10-14T11:53:04.022Z</time>
      </trkpt>
      <trkpt lat="43.3677" lon="6.67955">
        <ele>143.724</ele>
        <time>2012-10-14T11:53:11.035Z</time>
      </trkpt>
      <trkpt lat="43.3677" lon="6.67955">
        <ele>146.158</ele>
        <time>2012-10-14T11:53:25.036Z</time>
      </trkpt>
      <trkpt lat="43.3677" lon="6.67955">
        <ele>147.357</ele>
        <time>2012-10-14T11:53:58.331Z</time>
      </trkpt>
      <trkpt lat="43.36754" lon="6.67973">
        <ele>147.606</ele>
        <time>2012-10-14T11:54:24.675Z</time>
      </trkpt>
      <trkpt lat="43.3675" lon="6.67986">
        <ele>147.845</ele>
        <time>2012-10-14T11:54:29.190Z</time>
      </trkpt>
      <trkpt lat="43.36741" lon="6.67993">
        <ele>148.671</ele>
        <time>2012-10-14T11:54:33.079Z</time>
      </trkpt>
      <trkpt lat="43.3673" lon="6.67996">
        <ele>150.107</ele>
        <time>2012-10-14T11:54:36.666Z</time>
      </trkpt>
      <trkpt lat="43.36719" lon="6.67999">
        <ele>151.831</ele>
        <time>2012-10-14T11:54:40.154Z</time>
      </trkpt>
      <trkpt lat="43.36708" lon="6.68004">
        <ele>153.197</ele>
        <time>2012-10-14T11:54:43.573Z</time>
      </trkpt>
      <trkpt lat="43.36701" lon="6.68012">
        <ele>153.802</ele>
        <time>2012-10-14T11:54:46.670Z</time>
      </trkpt>
      <trkpt lat="43.36698" lon="6.68025">
        <ele>153.926</ele>
        <time>2012-10-14T11:54:50.035Z</time>
      </trkpt>
      <trkpt lat="43.36698" lon="6.68025">
        <ele>153.878</ele>
        <time>2012-10-14T11:55:00.071Z</time>
      </trkpt>
      <trkpt lat="43.36698" lon="6.68025">
        <ele>153.804</ele>
        <time>2012-10-14T11:55:16.282Z</time>
      </trkpt>
      <trkpt lat="43.36697" lon="6.68051">
        <ele>153.756</ele>
        <time>2012-10-14T11:55:37.374Z</time>
      </trkpt>
      <trkpt lat="43.367" lon="6.68063">
        <ele>153.739</ele>
        <time>2012-10-14T11:55:41.596Z</time>
      </trkpt>
      <trkpt lat="43.36706" lon="6.68077">
        <ele>153.755</ele>
        <time>2012-10-14T11:55:46.328Z</time>
      </trkpt>
      <trkpt lat="43.36713" lon="6.68091">
        <ele>153.801</ele>
        <time>2012-10-14T11:55:50.487Z</time>
      </trkpt>
      <trkpt lat="43.36718" lon="6.68102">
        <ele>153.912</ele>
        <time>2012-10-14T11:55:53.623Z</time>
      </trkpt>
      <trkpt lat="43.36722" lon="6.68116">
        <ele>154.178</ele>
        <time>2012-10-14T11:55:56.869Z</time>
      </trkpt>
      <trkpt lat="43.36722" lon="6.68131">
        <ele>154.56</ele>
        <time>2012-10-14T11:55:59.969Z</time>
      </trkpt>
      <trkpt lat="43.3672" lon="6.68146">
        <ele>154.857</ele>
        <time>2012-10-14T11:56:03.129Z</time>
      </trkpt>
      <trkpt lat="43.36716" lon="6.68161">
        <ele>154.957</ele>
        <time>2012-10-14T11:56:06.267Z</time>
      </trkpt>
      <trkpt lat="43.36711" lon="6.68174">
        <ele>154.932</ele>
        <time>2012-10-14T11:56:09.195Z</time>
      </trkpt>
      <trkpt lat="43.36705" lon="6.68186">
        <ele>154.904</ele>
        <time>2012-10-14T11:56:12.017Z</time>
      </trkpt>
      <trkpt lat="43.36696" lon="6.68196">
        <ele>154.893</ele>
        <time>2012-10-14T11:56:14.951Z</time>
      </trkpt>
      <trkpt lat="43.36687" lon="6.68206">
        <ele>154.822</ele>
        <time>2012-10-14T11:56:18.071Z</time>
      </trkpt>
      <trkpt lat="43.36678" lon="6.68215">
        <ele>154.671</ele>
        <time>2012-10-14T11:56:20.870Z</time>
      </trkpt>
      <trkpt lat="43.36669" lon="6.68226">
        <ele>154.512</ele>
        <time>2012-10-14T11:56:23.820Z</time>
      </trkpt>
      <trkpt lat="43.36657" lon="6.68235">
        <ele>154.391</ele>
        <time>2012-10-14T11:56:27.137Z</time>
      </trkpt>
      <trkpt lat="43.36645" lon="6.6824">
        <ele>154.304</ele>
        <time>2012-10-14T11:56:30.109Z</time>
      </trkpt>
      <trkpt lat="43.36633" lon="6.68239">
        <ele>154.254</ele>
        <time>2012-10-14T11:56:32.829Z</time>
      </trkpt>
      <trkpt lat="43.36621" lon="6.68231">
        <ele>154.262</ele>
        <time>2012-10-14T11:56:35.843Z</time>
      </trkpt>
      <trkpt lat="43.3661" lon="6.68221">
        <ele>154.409</ele>
        <time>2012-10-14T11:56:38.826Z</time>
      </trkpt>
      <trkpt lat="43.36598" lon="6.68213">
        <ele>154.695</ele>
        <time>2012-10-14T11:56:41.767Z</time>
      </trkpt>
      <trkpt lat="43.36585" lon="6.68208">
        <ele>154.954</ele>
        <time>2012-10-14T11:56:44.650Z</time>
      </trkpt>
      <trkpt lat="43.36573" lon="6.682">
        <ele>155.07</ele>
        <time>2012-10-14T11:56:47.584Z</time>
      </trkpt>
      <trkpt lat="43.36566" lon="6.68193">
        <ele>155.084</ele>
        <time>2012-10-14T11:56:49.630Z</time>
      </trkpt>
      <trkpt lat="43.36556" lon="6.68182">
        <ele>155.023</ele>
        <time>2012-10-14T11:56:52.543Z</time>
      </trkpt>
      <trkpt lat="43.36548" lon="6.68168">
        <ele>154.778</ele>
        <time>2012-10-14T11:56:55.450Z</time>
      </trkpt>
      <trkpt lat="43.36542" lon="6.68154">
        <ele>154.34</ele>
        <time>2012-10-14T11:56:58.288Z</time>
      </trkpt>
      <trkpt lat="43.36534" lon="6.68141">
        <ele>153.952</ele>
        <time>2012-10-14T11:57:00.956Z</time>
      </trkpt>
      <trkpt lat="43.36523" lon="6.68134">
        <ele>153.785</ele>
        <time>2012-10-14T11:57:03.754Z</time>
      </trkpt>
      <trkpt lat="43.36509" lon="6.68131">
        <ele>153.839</ele>
        <time>2012-10-14T11:57:06.660Z</time>
      </trkpt>
      <trkpt lat="43.365" lon="6.68128">
        <ele>154.223</ele>
        <time>2012-10-14T11:57:08.685Z</time>
      </trkpt>
      <trkpt lat="43.36486" lon="6.68124">
        <ele>154.879</ele>
        <time>2012-10-14T11:57:11.679Z</time>
      </trkpt>
      <trkpt lat="43.36477" lon="6.68121">
        <ele>155.432</ele>
        <time>2012-10-14T11:57:13.703Z</time>
      </trkpt>
      <trkpt lat="43.36465" lon="6.68115">
        <ele>155.661</ele>
        <time>2012-10-14T11:57:16.572Z</time>
      </trkpt>
      <trkpt lat="43.36456" lon="6.68115">
        <ele>155.669</ele>
        <time>2012-10-14T11:57:18.547Z</time>
      </trkpt>
      <trkpt lat="43.36444" lon="6.68126">
        <ele>155.507</ele>
        <time>2012-10-14T11:57:21.534Z</time>
      </trkpt>
      <trkpt lat="43.3644" lon="6.68138">
        <ele>155.212</ele>
        <time>2012-10-14T11:57:23.507Z</time>
      </trkpt>
      <trkpt lat="43.36439" lon="6.68156">
        <ele>154.949</ele>
        <time>2012-10-14T11:57:26.314Z</time>
      </trkpt>
      <trkpt lat="43.36439" lon="6.68168">
        <ele>154.835</ele>
        <time>2012-10-14T11:57:28.232Z</time>
      </trkpt>
      <trkpt lat="43.36439" lon="6.68181">
        <ele>154.913</ele>
        <time>2012-10-14T11:57:30.191Z</time>
      </trkpt>
      <trkpt lat="43.36441" lon="6.682">
        <ele>155.257</ele>
        <time>2012-10-14T11:57:33.174Z</time>
      </trkpt>
      <trkpt lat="43.36444" lon="6.68219">
        <ele>155.799</ele>
        <time>2012-10-14T11:57:36.212Z</time>
      </trkpt>
      <trkpt lat="43.36447" lon="6.68236">
        <ele>156.295</ele>
        <time>2012-10-14T11:57:38.955Z</time>
      </trkpt>
      <trkpt lat="43.36449" lon="6.68256">
        <ele>156.566</ele>
        <time>2012-10-14T11:57:41.850Z</time>
      </trkpt>
      <trkpt lat="43.36448" lon="6.68277">
        <ele>156.628</ele>
        <time>2012-10-14T11:57:44.935Z</time>
      </trkpt>
      <trkpt lat="43.36443" lon="6.68297">
        <ele>156.536</ele>
        <time>2012-10-14T11:57:47.951Z</time>
      </trkpt>
      <trkpt lat="43.36435" lon="6.68315">
        <ele>156.28</ele>
        <time>2012-10-14T11:57:50.940Z</time>
      </trkpt>
      <trkpt lat="43.36423" lon="6.68327">
        <ele>155.922</ele>
        <time>2012-10-14T11:57:53.751Z</time>
      </trkpt>
      <trkpt lat="43.36414" lon="6.68335">
        <ele>155.553</ele>
        <time>2012-10-14T11:57:55.797Z</time>
      </trkpt>
      <trkpt lat="43.36405" lon="6.68341">
        <ele>155.218</ele>
        <time>2012-10-14T11:57:57.727Z</time>
      </trkpt>
      <trkpt lat="43.36396" lon="6.68346">
        <ele>154.952</ele>
        <time>2012-10-14T11:57:59.644Z</time>
      </trkpt>
      <trkpt lat="43.36382" lon="6.68351">
        <ele>154.753</ele>
        <time>2012-10-14T11:58:02.592Z</time>
      </trkpt>
      <trkpt lat="43.36368" lon="6.68358">
        <ele>154.599</ele>
        <time>2012-10-14T11:58:05.478Z</time>
      </trkpt>
      <trkpt lat="43.36361" lon="6.68366">
        <ele>154.512</ele>
        <time>2012-10-14T11:58:07.329Z</time>
      </trkpt>
      <trkpt lat="43.36352" lon="6.68383">
        <ele>154.464</ele>
        <time>2012-10-14T11:58:10.319Z</time>
      </trkpt>
      <trkpt lat="43.36348" lon="6.68395">
        <ele>154.35</ele>
        <time>2012-10-14T11:58:12.354Z</time>
      </trkpt>
      <trkpt lat="43.36343" lon="6.68413">
        <ele>154.005</ele>
        <time>2012-10-14T11:58:15.898Z</time>
      </trkpt>
      <trkpt lat="43.36339" lon="6.68427">
        <ele>153.389</ele>
        <time>2012-10-14T11:58:18.827Z</time>
      </trkpt>
      <trkpt lat="43.36339" lon="6.6844">
        <ele>152.744</ele>
        <time>2012-10-14T11:58:22.210Z</time>
      </trkpt>
      <trkpt lat="43.36344" lon="6.68451">
        <ele>152.357</ele>
        <time>2012-10-14T11:58:26.728Z</time>
      </trkpt>
      <trkpt lat="43.3635" lon="6.6846">
        <ele>152.249</ele>
        <time>2012-10-14T11:58:31.491Z</time>
      </trkpt>
      <trkpt lat="43.36359" lon="6.68467">
        <ele>152.397</ele>
        <time>2012-10-14T11:58:38.597Z</time>
      </trkpt>
      <trkpt lat="43.36368" lon="6.68475">
        <ele>153.007</ele>
        <time>2012-10-14T11:58:45.146Z</time>
      </trkpt>
      <trkpt lat="43.36375" lon="6.68486">
        <ele>154.106</ele>
        <time>2012-10-14T11:58:50.377Z</time>
      </trkpt>
      <trkpt lat="43.36382" lon="6.68498">
        <ele>155.484</ele>
        <time>2012-10-14T11:58:54.981Z</time>
      </trkpt>
      <trkpt lat="43.36389" lon="6.6851">
        <ele>156.854</ele>
        <time>2012-10-14T11:58:59.437Z</time>
      </trkpt>
      <trkpt lat="43.36397" lon="6.6852">
        <ele>157.817</ele>
        <time>2012-10-14T11:59:03.575Z</time>
      </trkpt>
      <trkpt lat="43.36405" lon="6.6853">
        <ele>158.302</ele>
        <time>2012-10-14T11:59:07.666Z</time>
      </trkpt>
      <trkpt lat="43.36415" lon="6.68537">
        <ele>158.697</ele>
        <time>2012-10-14T11:59:12.008Z</time>
      </trkpt>
      <trkpt lat="43.36424" lon="6.68542">
        <ele>159.189</ele>
        <time>2012-10-14T11:59:15.795Z</time>
      </trkpt>
      <trkpt lat="43.36432" lon="6.68547">
        <ele>159.693</ele>
        <time>2012-10-14T11:59:19.526Z</time>
      </trkpt>
      <trkpt lat="43.3644" lon="6.68554">
        <ele>160.079</ele>
        <time>2012-10-14T11:59:23.338Z</time>
      </trkpt>
      <trkpt lat="43.36448" lon="6.68562">
        <ele>160.342</ele>
        <time>2012-10-14T11:59:27.513Z</time>
      </trkpt>
      <trkpt lat="43.36456" lon="6.68573">
        <ele>160.639</ele>
        <time>2012-10-14T11:59:32.108Z</time>
      </trkpt>
      <trkpt lat="43.36461" lon="6.68583">
        <ele>161.115</ele>
        <time>2012-10-14T11:59:35.631Z</time>
      </trkpt>
      <trkpt lat="43.36466" lon="6.68594">
        <ele>161.671</ele>
        <time>2012-10-14T11:59:39.240Z</time>
      </trkpt>
      <trkpt lat="43.36473" lon="6.68608">
        <ele>162.059</ele>
        <time>2012-10-14T11:59:43.104Z</time>
      </trkpt>
      <trkpt lat="43.36481" lon="6.68625">
        <ele>162.191</ele>
        <time>2012-10-14T11:59:47.080Z</time>
      </trkpt>
      <trkpt lat="43.36487" lon="6.68636">
        <ele>162.175</ele>
        <time>2012-10-14T11:59:49.550Z</time>
      </trkpt>
      <trkpt lat="43.36495" lon="6.68654">
        <ele>162.06</ele>
        <time>2012-10-14T11:59:52.885Z</time>
      </trkpt>
      <trkpt lat="43.36501" lon="6.68665">
        <ele>161.693</ele>
        <time>2012-10-14T11:59:54.959Z</time>
      </trkpt>
      <trkpt lat="43.36507" lon="6.68677">
        <ele>161.006</ele>
        <time>2012-10-14T11:59:57.012Z</time>
      </trkpt>
      <trkpt lat="43.36513" lon="6.6869">
        <ele>160.125</ele>
        <time>2012-10-14T11:59:59.154Z</time>
      </trkpt>
      <trkpt lat="43.3652" lon="6.6871">
        <ele>159.142</ele>
        <time>2012-10-14T12:00:02.338Z</time>
      </trkpt>
      <trkpt lat="43.36521" lon="6.68733">
        <ele>158.193</ele>
        <time>2012-10-14T12:00:05.506Z</time>
      </trkpt>
      <trkpt lat="43.36519" lon="6.68755">
        <ele>157.453</ele>
        <time>2012-10-14T12:00:08.556Z</time>
      </trkpt>
      <trkpt lat="43.36517" lon="6.68769">
        <ele>156.826</ele>
        <time>2012-10-14T12:00:10.601Z</time>
      </trkpt>
      <trkpt lat="43.36513" lon="6.68782">
        <ele>155.986</ele>
        <time>2012-10-14T12:00:12.633Z</time>
      </trkpt>
      <trkpt lat="43.36505" lon="6.68797">
        <ele>154.922</ele>
        <time>2012-10-14T12:00:15.590Z</time>
      </trkpt>
      <trkpt lat="43.36495" lon="6.68805">
        <ele>154.087</ele>
        <time>2012-10-14T12:00:18.254Z</time>
      </trkpt>
      <trkpt lat="43.36485" lon="6.68804">
        <ele>153.749</ele>
        <time>2012-10-14T12:00:20.678Z</time>
      </trkpt>
      <trkpt lat="43.36475" lon="6.68806">
        <ele>153.734</ele>
        <time>2012-10-14T12:00:23.239Z</time>
      </trkpt>
      <trkpt lat="43.36466" lon="6.68814">
        <ele>153.794</ele>
        <time>2012-10-14T12:00:26.192Z</time>
      </trkpt>
      <trkpt lat="43.36456" lon="6.68826">
        <ele>153.757</ele>
        <time>2012-10-14T12:00:29.487Z</time>
      </trkpt>
      <trkpt lat="43.36442" lon="6.68833">
        <ele>153.594</ele>
        <time>2012-10-14T12:00:33.022Z</time>
      </trkpt>
      <trkpt lat="43.36431" lon="6.68833">
        <ele>153.062</ele>
        <time>2012-10-14T12:00:35.795Z</time>
      </trkpt>
      <trkpt lat="43.3642" lon="6.68833">
        <ele>151.768</ele>
        <time>2012-10-14T12:00:38.626Z</time>
      </trkpt>
      <trkpt lat="43.36409" lon="6.68833">
        <ele>149.771</ele>
        <time>2012-10-14T12:00:41.546Z</time>
      </trkpt>
      <trkpt lat="43.36398" lon="6.68836">
        <ele>147.733</ele>
        <time>2012-10-14T12:00:44.904Z</time>
      </trkpt>
      <trkpt lat="43.36388" lon="6.6884">
        <ele>146.233</ele>
        <time>2012-10-14T12:00:48.501Z</time>
      </trkpt>
      <trkpt lat="43.36378" lon="6.68846">
        <ele>145.401</ele>
        <time>2012-10-14T12:00:52.352Z</time>
      </trkpt>
      <trkpt lat="43.36371" lon="6.68857">
        <ele>145.082</ele>
        <time>2012-10-14T12:00:56.699Z</time>
      </trkpt>
      <trkpt lat="43.36366" lon="6.68869">
        <ele>145.08</ele>
        <time>2012-10-14T12:01:00.509Z</time>
      </trkpt>
      <trkpt lat="43.36362" lon="6.68882">
        <ele>145.412</ele>
        <time>2012-10-14T12:01:04.016Z</time>
      </trkpt>
      <trkpt lat="43.36358" lon="6.68894">
        <ele>146.456</ele>
        <time>2012-10-14T12:01:07.023Z</time>
      </trkpt>
      <trkpt lat="43.36352" lon="6.68905">
        <ele>148.237</ele>
        <time>2012-10-14T12:01:10.064Z</time>
      </trkpt>
      <trkpt lat="43.36345" lon="6.68915">
        <ele>150.016</ele>
        <time>2012-10-14T12:01:13.330Z</time>
      </trkpt>
      <trkpt lat="43.36338" lon="6.68926">
        <ele>151.093</ele>
        <time>2012-10-14T12:01:16.577Z</time>
      </trkpt>
      <trkpt lat="43.36331" lon="6.68937">
        <ele>151.467</ele>
        <time>2012-10-14T12:01:19.732Z</time>
      </trkpt>
      <trkpt lat="43.36321" lon="6.68946">
        <ele>151.497</ele>
        <time>2012-10-14T12:01:23.350Z</time>
      </trkpt>
      <trkpt lat="43.36312" lon="6.68953">
        <ele>151.44</ele>
        <time>2012-10-14T12:01:26.234Z</time>
      </trkpt>
      <trkpt lat="43.36301" lon="6.68968">
        <ele>151.402</ele>
        <time>2012-10-14T12:01:30.431Z</time>
      </trkpt>
      <trkpt lat="43.36297" lon="6.6898">
        <ele>151.377</ele>
        <time>2012-10-14T12:01:33.016Z</time>
      </trkpt>
      <trkpt lat="43.36297" lon="6.6898">
        <ele>151.353</ele>
        <time>2012-10-14T12:01:39.018Z</time>
      </trkpt>
      <trkpt lat="43.36297" lon="6.6898">
        <ele>151.323</ele>
        <time>2012-10-14T12:01:48.669Z</time>
      </trkpt>
      <trkpt lat="43.36288" lon="6.69007">
        <ele>151.27</ele>
        <time>2012-10-14T12:02:34.202Z</time>
      </trkpt>
      <trkpt lat="43.36285" lon="6.6902">
        <ele>151.219</ele>
        <time>2012-10-14T12:02:47.105Z</time>
      </trkpt>
      <trkpt lat="43.36282" lon="6.69032">
        <ele>151.196</ele>
        <time>2012-10-14T12:03:00.482Z</time>
      </trkpt>
      <trkpt lat="43.36276" lon="6.69042">
        <ele>152.164</ele>
        <time>2012-10-14T12:03:13.042Z</time>
      </trkpt>
      <trkpt lat="43.36276" lon="6.69042">
        <ele>154.699</ele>
        <time>2012-10-14T12:03:25.035Z</time>
      </trkpt>
      <trkpt lat="43.36276" lon="6.69042">
        <ele>157.301</ele>
        <time>2012-10-14T12:03:53.874Z</time>
      </trkpt>
      <trkpt lat="43.3626" lon="6.69059">
        <ele>158.862</ele>
        <time>2012-10-14T12:04:26.257Z</time>
      </trkpt>
      <trkpt lat="43.36256" lon="6.6907">
        <ele>160.054</ele>
        <time>2012-10-14T12:04:35.858Z</time>
      </trkpt>
      <trkpt lat="43.3625" lon="6.6908">
        <ele>161.321</ele>
        <time>2012-10-14T12:04:47.041Z</time>
      </trkpt>
      <trkpt lat="43.3625" lon="6.6908">
        <ele>162.472</ele>
        <time>2012-10-14T12:04:58.035Z</time>
      </trkpt>
      <trkpt lat="43.3625" lon="6.6908">
        <ele>163.059</ele>
        <time>2012-10-14T12:05:32.184Z</time>
      </trkpt>
      <trkpt lat="43.36241" lon="6.69109">
        <ele>164.115</ele>
        <time>2012-10-14T12:06:05.749Z</time>
      </trkpt>
      <trkpt lat="43.36239" lon="6.69122">
        <ele>167.259</ele>
        <time>2012-10-14T12:06:12.380Z</time>
      </trkpt>
      <trkpt lat="43.36237" lon="6.69134">
        <ele>171.604</ele>
        <time>2012-10-14T12:06:17.965Z</time>
      </trkpt>
      <trkpt lat="43.36238" lon="6.69147">
        <ele>175.225</ele>
        <time>2012-10-14T12:06:23.248Z</time>
      </trkpt>
      <trkpt lat="43.36239" lon="6.69161">
        <ele>177.652</ele>
        <time>2012-10-14T12:06:28.789Z</time>
      </trkpt>
      <trkpt lat="43.36242" lon="6.69175">
        <ele>179.123</ele>
        <time>2012-10-14T12:06:34.444Z</time>
      </trkpt>
      <trkpt lat="43.36245" lon="6.69189">
        <ele>180.051</ele>
        <time>2012-10-14T12:06:39.396Z</time>
      </trkpt>
      <trkpt lat="43.36249" lon="6.69202">
        <ele>180.75</ele>
        <time>2012-10-14T12:06:44.162Z</time>
      </trkpt>
      <trkpt lat="43.3625" lon="6.69216">
        <ele>181.324</ele>
        <time>2012-10-14T12:06:48.781Z</time>
      </trkpt>
      <trkpt lat="43.36249" lon="6.6923">
        <ele>181.853</ele>
        <time>2012-10-14T12:06:53.381Z</time>
      </trkpt>
      <trkpt lat="43.36248" lon="6.69243">
        <ele>182.496</ele>
        <time>2012-10-14T12:06:57.783Z</time>
      </trkpt>
      <trkpt lat="43.36248" lon="6.69257">
        <ele>183.312</ele>
        <time>2012-10-14T12:07:02.907Z</time>
      </trkpt>
      <trkpt lat="43.36252" lon="6.69269">
        <ele>184.026</ele>
        <time>2012-10-14T12:07:07.821Z</time>
      </trkpt>
      <trkpt lat="43.3626" lon="6.69279">
        <ele>184.487</ele>
        <time>2012-10-14T12:07:13.077Z</time>
      </trkpt>
      <trkpt lat="43.3627" lon="6.69288">
        <ele>185.094</ele>
        <time>2012-10-14T12:07:18.231Z</time>
      </trkpt>
      <trkpt lat="43.36277" lon="6.69295">
        <ele>186.334</ele>
        <time>2012-10-14T12:07:22.279Z</time>
      </trkpt>
      <trkpt lat="43.36285" lon="6.69305">
        <ele>188.026</ele>
        <time>2012-10-14T12:07:27.039Z</time>
      </trkpt>
      <trkpt lat="43.36292" lon="6.69314">
        <ele>189.486</ele>
        <time>2012-10-14T12:07:31.097Z</time>
      </trkpt>
      <trkpt lat="43.36299" lon="6.69325">
        <ele>190.484</ele>
        <time>2012-10-14T12:07:35.521Z</time>
      </trkpt>
      <trkpt lat="43.36304" lon="6.69337">
        <ele>191.246</ele>
        <time>2012-10-14T12:07:39.552Z</time>
      </trkpt>
      <trkpt lat="43.36309" lon="6.69349">
        <ele>191.839</ele>
        <time>2012-10-14T12:07:43.983Z</time>
      </trkpt>
      <trkpt lat="43.36314" lon="6.69359">
        <ele>192.204</ele>
        <time>2012-10-14T12:07:48.025Z</time>
      </trkpt>
      <trkpt lat="43.36314" lon="6.69359">
        <ele>192.364</ele>
        <time>2012-10-14T12:08:08.016Z</time>
      </trkpt>
      <trkpt lat="43.36314" lon="6.69359">
        <ele>192.396</ele>
        <time>2012-10-14T12:08:09.348Z</time>
      </trkpt>
      <trkpt lat="43.36327" lon="6.69388">
        <ele>192.402</ele>
        <time>2012-10-14T12:08:44.173Z</time>
      </trkpt>
      <trkpt lat="43.36331" lon="6.69401">
        <ele>192.452</ele>
        <time>2012-10-14T12:08:50.826Z</time>
      </trkpt>
      <trkpt lat="43.36332" lon="6.69415">
        <ele>192.686</ele>
        <time>2012-10-14T12:08:57.271Z</time>
      </trkpt>
      <trkpt lat="43.36332" lon="6.69427">
        <ele>193.533</ele>
        <time>2012-10-14T12:09:02.771Z</time>
      </trkpt>
      <trkpt lat="43.36331" lon="6.69441">
        <ele>195.047</ele>
        <time>2012-10-14T12:09:09.128Z</time>
      </trkpt>
      <trkpt lat="43.36329" lon="6.69454">
        <ele>196.51</ele>
        <time>2012-10-14T12:09:15.238Z</time>
      </trkpt>
      <trkpt lat="43.36326" lon="6.69466">
        <ele>197.373</ele>
        <time>2012-10-14T12:09:21.525Z</time>
      </trkpt>
      <trkpt lat="43.3632" lon="6.69477">
        <ele>197.723</ele>
        <time>2012-10-14T12:09:28.039Z</time>
      </trkpt>
      <trkpt lat="43.3632" lon="6.69477">
        <ele>197.786</ele>
        <time>2012-10-14T12:09:41.043Z</time>
      </trkpt>
      <trkpt lat="43.3632" lon="6.69477">
        <ele>197.733</ele>
        <time>2012-10-14T12:09:42.556Z</time>
      </trkpt>
      <trkpt lat="43.36305" lon="6.6946">
        <ele>197.886</ele>
        <time>2012-10-14T12:10:06.163Z</time>
      </trkpt>
      <trkpt lat="43.36299" lon="6.6945">
        <ele>198.661</ele>
        <time>2012-10-14T12:10:13.169Z</time>
      </trkpt>
      <trkpt lat="43.36293" lon="6.6944">
        <ele>200.037</ele>
        <time>2012-10-14T12:10:20.254Z</time>
      </trkpt>
      <trkpt lat="43.36285" lon="6.69431">
        <ele>202.115</ele>
        <time>2012-10-14T12:10:27.034Z</time>
      </trkpt>
      <trkpt lat="43.36285" lon="6.69431">
        <ele>204.787</ele>
        <time>2012-10-14T12:10:48.073Z</time>
      </trkpt>
      <trkpt lat="43.36285" lon="6.69431">
        <ele>206.934</ele>
        <time>2012-10-14T12:10:55.902Z</time>
      </trkpt>
      <trkpt lat="43.36266" lon="6.69406">
        <ele>207.825</ele>
        <time>2012-10-14T12:11:26.543Z</time>
      </trkpt>
      <trkpt lat="43.36261" lon="6.69396">
        <ele>208.124</ele>
        <time>2012-10-14T12:11:32.035Z</time>
      </trkpt>
      <trkpt lat="43.36261" lon="6.69396">
        <ele>208.31</ele>
        <time>2012-10-14T12:11:53.060Z</time>
      </trkpt>
      <trkpt lat="43.36261" lon="6.69396">
        <ele>208.302</ele>
        <time>2012-10-14T12:12:02.528Z</time>
      </trkpt>
      <trkpt lat="43.3624" lon="6.69376">
        <ele>208.151</ele>
        <time>2012-10-14T12:12:33.235Z</time>
      </trkpt>
      <trkpt lat="43.3623" lon="6.69372">
        <ele>208.794</ele>
        <time>2012-10-14T12:12:39.639Z</time>
      </trkpt>
      <trkpt lat="43.36221" lon="6.69366">
        <ele>210.79</ele>
        <time>2012-10-14T12:12:45.393Z</time>
      </trkpt>
      <trkpt lat="43.36212" lon="6.69359">
        <ele>213.418</ele>
        <time>2012-10-14T12:12:51.186Z</time>
      </trkpt>
      <trkpt lat="43.36204" lon="6.69349">
        <ele>215.747</ele>
        <time>2012-10-14T12:12:56.835Z</time>
      </trkpt>
      <trkpt lat="43.36198" lon="6.69339">
        <ele>217.732</ele>
        <time>2012-10-14T12:13:02.322Z</time>
      </trkpt>
      <trkpt lat="43.36191" lon="6.69331">
        <ele>219.508</ele>
        <time>2012-10-14T12:13:07.529Z</time>
      </trkpt>
      <trkpt lat="43.36184" lon="6.6932">
        <ele>221.064</ele>
        <time>2012-10-14T12:13:13.403Z</time>
      </trkpt>
      <trkpt lat="43.36176" lon="6.69313">
        <ele>222.224</ele>
        <time>2012-10-14T12:13:19.210Z</time>
      </trkpt>
      <trkpt lat="43.36167" lon="6.6931">
        <ele>223.099</ele>
        <time>2012-10-14T12:13:25.835Z</time>
      </trkpt>
      <trkpt lat="43.36158" lon="6.69305">
        <ele>223.864</ele>
        <time>2012-10-14T12:13:33.298Z</time>
      </trkpt>
      <trkpt lat="43.3615" lon="6.69298">
        <ele>224.48</ele>
        <time>2012-10-14T12:13:41.441Z</time>
      </trkpt>
      <trkpt lat="43.36143" lon="6.6929">
        <ele>224.824</ele>
        <time>2012-10-14T12:13:50.186Z</time>
      </trkpt>
      <trkpt lat="43.36137" lon="6.6928">
        <ele>225.034</ele>
        <time>2012-10-14T12:14:00.473Z</time>
      </trkpt>
      <trkpt lat="43.36131" lon="6.6927">
        <ele>225.586</ele>
        <time>2012-10-14T12:14:12.401Z</time>
      </trkpt>
      <trkpt lat="43.36123" lon="6.69263">
        <ele>226.711</ele>
        <time>2012-10-14T12:14:26.605Z</time>
      </trkpt>
      <trkpt lat="43.36114" lon="6.6926">
        <ele>228.258</ele>
        <time>2012-10-14T12:14:42.277Z</time>
      </trkpt>
      <trkpt lat="43.36106" lon="6.69254">
        <ele>229.935</ele>
        <time>2012-10-14T12:14:56.712Z</time>
      </trkpt>
      <trkpt lat="43.36098" lon="6.69247">
        <ele>231.507</ele>
        <time>2012-10-14T12:15:08.039Z</time>
      </trkpt>
      <trkpt lat="43.36098" lon="6.69247">
        <ele>232.799</ele>
        <time>2012-10-14T12:15:21.075Z</time>
      </trkpt>
      <trkpt lat="43.36098" lon="6.69247">
        <ele>233.636</ele>
        <time>2012-10-14T12:18:00.894Z</time>
      </trkpt>
      <trkpt lat="43.3608" lon="6.69249">
        <ele>234.342</ele>
        <time>2012-10-14T12:18:24.118Z</time>
      </trkpt>
      <trkpt lat="43.36066" lon="6.69255">
        <ele>235.687</ele>
        <time>2012-10-14T12:18:29.642Z</time>
      </trkpt>
      <trkpt lat="43.36059" lon="6.69265">
        <ele>237.628</ele>
        <time>2012-10-14T12:18:32.944Z</time>
      </trkpt>
      <trkpt lat="43.36051" lon="6.69274">
        <ele>239.42</ele>
        <time>2012-10-14T12:18:35.723Z</time>
      </trkpt>
      <trkpt lat="43.36038" lon="6.6928">
        <ele>240.396</ele>
        <time>2012-10-14T12:18:38.991Z</time>
      </trkpt>
      <trkpt lat="43.36024" lon="6.69289">
        <ele>240.471</ele>
        <time>2012-10-14T12:18:42.094Z</time>
      </trkpt>
      <trkpt lat="43.36004" lon="6.6929">
        <ele>240.169</ele>
        <time>2012-10-14T12:18:45.257Z</time>
      </trkpt>
      <trkpt lat="43.35983" lon="6.69294">
        <ele>239.892</ele>
        <time>2012-10-14T12:18:48.334Z</time>
      </trkpt>
      <trkpt lat="43.35971" lon="6.69296">
        <ele>239.421</ele>
        <time>2012-10-14T12:18:50.000Z</time>
      </trkpt>
      <trkpt lat="43.35959" lon="6.69296">
        <ele>238.304</ele>
        <time>2012-10-14T12:18:51.576Z</time>
      </trkpt>
      <trkpt lat="43.35937" lon="6.69302">
        <ele>236.533</ele>
        <time>2012-10-14T12:18:54.814Z</time>
      </trkpt>
      <trkpt lat="43.35921" lon="6.69309">
        <ele>234.708</ele>
        <time>2012-10-14T12:18:57.180Z</time>
      </trkpt>
      <trkpt lat="43.35899" lon="6.69317">
        <ele>233.158</ele>
        <time>2012-10-14T12:19:00.223Z</time>
      </trkpt>
      <trkpt lat="43.35887" lon="6.69325">
        <ele>231.394</ele>
        <time>2012-10-14T12:19:01.993Z</time>
      </trkpt>
      <trkpt lat="43.3587" lon="6.69339">
        <ele>229.25</ele>
        <time>2012-10-14T12:19:04.616Z</time>
      </trkpt>
      <trkpt lat="43.35853" lon="6.69354">
        <ele>227.094</ele>
        <time>2012-10-14T12:19:07.269Z</time>
      </trkpt>
      <trkpt lat="43.3584" lon="6.69371">
        <ele>224.939</ele>
        <time>2012-10-14T12:19:09.355Z</time>
      </trkpt>
      <trkpt lat="43.3583" lon="6.69395">
        <ele>222.741</ele>
        <time>2012-10-14T12:19:12.063Z</time>
      </trkpt>
      <trkpt lat="43.35825" lon="6.69417">
        <ele>220.739</ele>
        <time>2012-10-14T12:19:14.954Z</time>
      </trkpt>
      <trkpt lat="43.35818" lon="6.69441">
        <ele>219.243</ele>
        <time>2012-10-14T12:19:19.194Z</time>
      </trkpt>
      <trkpt lat="43.35809" lon="6.69464">
        <ele>218.365</ele>
        <time>2012-10-14T12:19:24.612Z</time>
      </trkpt>
      <trkpt lat="43.35805" lon="6.69482">
        <ele>217.508</ele>
        <time>2012-10-14T12:19:28.284Z</time>
      </trkpt>
      <trkpt lat="43.358" lon="6.69499">
        <ele>215.654</ele>
        <time>2012-10-14T12:19:31.391Z</time>
      </trkpt>
      <trkpt lat="43.35801" lon="6.69514">
        <ele>212.848</ele>
        <time>2012-10-14T12:19:33.554Z</time>
      </trkpt>
      <trkpt lat="43.35802" lon="6.69535">
        <ele>210.063</ele>
        <time>2012-10-14T12:19:36.650Z</time>
      </trkpt>
      <trkpt lat="43.35802" lon="6.69552">
        <ele>207.83</ele>
        <time>2012-10-14T12:19:38.874Z</time>
      </trkpt>
      <trkpt lat="43.35796" lon="6.69569">
        <ele>205.754</ele>
        <time>2012-10-14T12:19:41.283Z</time>
      </trkpt>
      <trkpt lat="43.3579" lon="6.69589">
        <ele>203.618</ele>
        <time>2012-10-14T12:19:44.055Z</time>
      </trkpt>
      <trkpt lat="43.35787" lon="6.69602">
        <ele>201.326</ele>
        <time>2012-10-14T12:19:45.940Z</time>
      </trkpt>
      <trkpt lat="43.35777" lon="6.69622">
        <ele>198.603</ele>
        <time>2012-10-14T12:19:49.310Z</time>
      </trkpt>
      <trkpt lat="43.35767" lon="6.6964">
        <ele>195.547</ele>
        <time>2012-10-14T12:19:52.476Z</time>
      </trkpt>
      <trkpt lat="43.35762" lon="6.69657">
        <ele>192.992</ele>
        <time>2012-10-14T12:19:54.972Z</time>
      </trkpt>
      <trkpt lat="43.3576" lon="6.69671">
        <ele>191.48</ele>
        <time>2012-10-14T12:19:56.894Z</time>
      </trkpt>
      <trkpt lat="43.35759" lon="6.69694">
        <ele>190.981</ele>
        <time>2012-10-14T12:20:00.327Z</time>
      </trkpt>
      <trkpt lat="43.35755" lon="6.69716">
        <ele>191.037</ele>
        <time>2012-10-14T12:20:03.326Z</time>
      </trkpt>
      <trkpt lat="43.35743" lon="6.69723">
        <ele>191.221</ele>
        <time>2012-10-14T12:20:05.685Z</time>
      </trkpt>
      <trkpt lat="43.35729" lon="6.69716">
        <ele>191.344</ele>
        <time>2012-10-14T12:20:08.561Z</time>
      </trkpt>
      <trkpt lat="43.35713" lon="6.69716">
        <ele>191.383</ele>
        <time>2012-10-14T12:20:11.805Z</time>
      </trkpt>
      <trkpt lat="43.35703" lon="6.69725">
        <ele>191.327</ele>
        <time>2012-10-14T12:20:14.180Z</time>
      </trkpt>
      <trkpt lat="43.35695" lon="6.69734">
        <ele>191.087</ele>
        <time>2012-10-14T12:20:16.467Z</time>
      </trkpt>
      <trkpt lat="43.35686" lon="6.69747">
        <ele>190.702</ele>
        <time>2012-10-14T12:20:19.095Z</time>
      </trkpt>
      <trkpt lat="43.35677" lon="6.69761">
        <ele>190.39</ele>
        <time>2012-10-14T12:20:21.539Z</time>
      </trkpt>
      <trkpt lat="43.35669" lon="6.69776">
        <ele>190.196</ele>
        <time>2012-10-14T12:20:23.889Z</time>
      </trkpt>
      <trkpt lat="43.35661" lon="6.69794">
        <ele>190.013</ele>
        <time>2012-10-14T12:20:26.246Z</time>
      </trkpt>
      <trkpt lat="43.35653" lon="6.69813">
        <ele>189.862</ele>
        <time>2012-10-14T12:20:28.398Z</time>
      </trkpt>
      <trkpt lat="43.35643" lon="6.69837">
        <ele>189.869</ele>
        <time>2012-10-14T12:20:30.953Z</time>
      </trkpt>
      <trkpt lat="43.35637" lon="6.69853">
        <ele>189.976</ele>
        <time>2012-10-14T12:20:32.652Z</time>
      </trkpt>
      <trkpt lat="43.35629" lon="6.69871">
        <ele>189.854</ele>
        <time>2012-10-14T12:20:34.553Z</time>
      </trkpt>
      <trkpt lat="43.35616" lon="6.69897">
        <ele>189.15</ele>
        <time>2012-10-14T12:20:37.598Z</time>
      </trkpt>
      <trkpt lat="43.35607" lon="6.69915">
        <ele>188.048</ele>
        <time>2012-10-14T12:20:39.611Z</time>
      </trkpt>
      <trkpt lat="43.35598" lon="6.69942">
        <ele>186.985</ele>
        <time>2012-10-14T12:20:42.165Z</time>
      </trkpt>
      <trkpt lat="43.3559" lon="6.69972">
        <ele>186.152</ele>
        <time>2012-10-14T12:20:44.929Z</time>
      </trkpt>
      <trkpt lat="43.35585" lon="6.69995">
        <ele>185.624</ele>
        <time>2012-10-14T12:20:47.214Z</time>
      </trkpt>
      <trkpt lat="43.35577" lon="6.70026">
        <ele>185.362</ele>
        <time>2012-10-14T12:20:50.741Z</time>
      </trkpt>
      <trkpt lat="43.35572" lon="6.70051">
        <ele>184.963</ele>
        <time>2012-10-14T12:20:53.891Z</time>
      </trkpt>
      <trkpt lat="43.35574" lon="6.70076">
        <ele>184.113</ele>
        <time>2012-10-14T12:20:57.382Z</time>
      </trkpt>
      <trkpt lat="43.35581" lon="6.70099">
        <ele>182.824</ele>
        <time>2012-10-14T12:21:01.246Z</time>
      </trkpt>
      <trkpt lat="43.35587" lon="6.70112">
        <ele>181.497</ele>
        <time>2012-10-14T12:21:03.632Z</time>
      </trkpt>
      <trkpt lat="43.35595" lon="6.70127">
        <ele>180.637</ele>
        <time>2012-10-14T12:21:06.388Z</time>
      </trkpt>
      <trkpt lat="43.35602" lon="6.7014">
        <ele>180.349</ele>
        <time>2012-10-14T12:21:08.884Z</time>
      </trkpt>
      <trkpt lat="43.3561" lon="6.70158">
        <ele>180.369</ele>
        <time>2012-10-14T12:21:11.950Z</time>
      </trkpt>
      <trkpt lat="43.35616" lon="6.70174">
        <ele>180.633</ele>
        <time>2012-10-14T12:21:14.293Z</time>
      </trkpt>
      <trkpt lat="43.35621" lon="6.70187">
        <ele>181.14</ele>
        <time>2012-10-14T12:21:16.066Z</time>
      </trkpt>
      <trkpt lat="43.35626" lon="6.70201">
        <ele>181.613</ele>
        <time>2012-10-14T12:21:17.733Z</time>
      </trkpt>
      <trkpt lat="43.35632" lon="6.70222">
        <ele>181.825</ele>
        <time>2012-10-14T12:21:20.172Z</time>
      </trkpt>
      <trkpt lat="43.3564" lon="6.70241">
        <ele>181.85</ele>
        <time>2012-10-14T12:21:22.525Z</time>
      </trkpt>
      <trkpt lat="43.35646" lon="6.70256">
        <ele>181.668</ele>
        <time>2012-10-14T12:21:24.500Z</time>
      </trkpt>
      <trkpt lat="43.35654" lon="6.70281">
        <ele>180.977</ele>
        <time>2012-10-14T12:21:27.552Z</time>
      </trkpt>
      <trkpt lat="43.35664" lon="6.70303">
        <ele>179.243</ele>
        <time>2012-10-14T12:21:30.323Z</time>
      </trkpt>
      <trkpt lat="43.35672" lon="6.70316">
        <ele>176.752</ele>
        <time>2012-10-14T12:21:32.153Z</time>
      </trkpt>
      <trkpt lat="43.35685" lon="6.70337">
        <ele>174.688</ele>
        <time>2012-10-14T12:21:34.973Z</time>
      </trkpt>
      <trkpt lat="43.35693" lon="6.70351">
        <ele>173.61</ele>
        <time>2012-10-14T12:21:37.122Z</time>
      </trkpt>
      <trkpt lat="43.35699" lon="6.7038">
        <ele>172.899</ele>
        <time>2012-10-14T12:21:41.020Z</time>
      </trkpt>
      <trkpt lat="43.35698" lon="6.70405">
        <ele>171.967</ele>
        <time>2012-10-14T12:21:44.427Z</time>
      </trkpt>
      <trkpt lat="43.35699" lon="6.70419">
        <ele>170.699</ele>
        <time>2012-10-14T12:21:46.604Z</time>
      </trkpt>
      <trkpt lat="43.35705" lon="6.70439">
        <ele>169.255</ele>
        <time>2012-10-14T12:21:50.245Z</time>
      </trkpt>
      <trkpt lat="43.35714" lon="6.70449">
        <ele>167.925</ele>
        <time>2012-10-14T12:21:53.144Z</time>
      </trkpt>
      <trkpt lat="43.35723" lon="6.70463">
        <ele>166.997</ele>
        <time>2012-10-14T12:21:56.362Z</time>
      </trkpt>
      <trkpt lat="43.35731" lon="6.70473">
        <ele>166.301</ele>
        <time>2012-10-14T12:21:58.526Z</time>
      </trkpt>
      <trkpt lat="43.35743" lon="6.70481">
        <ele>165.633</ele>
        <time>2012-10-14T12:22:01.031Z</time>
      </trkpt>
      <trkpt lat="43.35758" lon="6.70485">
        <ele>164.913</ele>
        <time>2012-10-14T12:22:03.816Z</time>
      </trkpt>
      <trkpt lat="43.35773" lon="6.70484">
        <ele>164.108</ele>
        <time>2012-10-14T12:22:06.804Z</time>
      </trkpt>
      <trkpt lat="43.35792" lon="6.70493">
        <ele>163.258</ele>
        <time>2012-10-14T12:22:11.466Z</time>
      </trkpt>
      <trkpt lat="43.35805" lon="6.70504">
        <ele>162.359</ele>
        <time>2012-10-14T12:22:15.423Z</time>
      </trkpt>
      <trkpt lat="43.35814" lon="6.70514">
        <ele>161.316</ele>
        <time>2012-10-14T12:22:18.335Z</time>
      </trkpt>
      <trkpt lat="43.35824" lon="6.70527">
        <ele>159.701</ele>
        <time>2012-10-14T12:22:21.848Z</time>
      </trkpt>
      <trkpt lat="43.35834" lon="6.70536">
        <ele>157.21</ele>
        <time>2012-10-14T12:22:25.233Z</time>
      </trkpt>
      <trkpt lat="43.35844" lon="6.70546">
        <ele>154.603</ele>
        <time>2012-10-14T12:22:28.617Z</time>
      </trkpt>
      <trkpt lat="43.35853" lon="6.70556">
        <ele>152.306</ele>
        <time>2012-10-14T12:22:31.385Z</time>
      </trkpt>
      <trkpt lat="43.35862" lon="6.70563">
        <ele>150.061</ele>
        <time>2012-10-14T12:22:33.694Z</time>
      </trkpt>
      <trkpt lat="43.35872" lon="6.70567">
        <ele>148.159</ele>
        <time>2012-10-14T12:22:36.277Z</time>
      </trkpt>
      <trkpt lat="43.35881" lon="6.70565">
        <ele>145.796</ele>
        <time>2012-10-14T12:22:38.652Z</time>
      </trkpt>
      <trkpt lat="43.35892" lon="6.70567">
        <ele>141.813</ele>
        <time>2012-10-14T12:22:41.526Z</time>
      </trkpt>
      <trkpt lat="43.35902" lon="6.70579">
        <ele>137.101</ele>
        <time>2012-10-14T12:22:44.880Z</time>
      </trkpt>
      <trkpt lat="43.35911" lon="6.70589">
        <ele>133.349</ele>
        <time>2012-10-14T12:22:47.920Z</time>
      </trkpt>
      <trkpt lat="43.35922" lon="6.70598">
        <ele>131.133</ele>
        <time>2012-10-14T12:22:52.075Z</time>
      </trkpt>
      <trkpt lat="43.35933" lon="6.70591">
        <ele>130.151</ele>
        <time>2012-10-14T12:22:55.820Z</time>
      </trkpt>
      <trkpt lat="43.35943" lon="6.70583">
        <ele>129.792</ele>
        <time>2012-10-14T12:22:58.643Z</time>
      </trkpt>
      <trkpt lat="43.35954" lon="6.70582">
        <ele>129.49</ele>
        <time>2012-10-14T12:23:01.282Z</time>
      </trkpt>
      <trkpt lat="43.35965" lon="6.70591">
        <ele>128.888</ele>
        <time>2012-10-14T12:23:03.826Z</time>
      </trkpt>
      <trkpt lat="43.3597" lon="6.70607">
        <ele>128.005</ele>
        <time>2012-10-14T12:23:06.136Z</time>
      </trkpt>
      <trkpt lat="43.35978" lon="6.70618">
        <ele>126.577</ele>
        <time>2012-10-14T12:23:08.214Z</time>
      </trkpt>
      <trkpt lat="43.35993" lon="6.70624">
        <ele>124.44</ele>
        <time>2012-10-14T12:23:11.193Z</time>
      </trkpt>
      <trkpt lat="43.36009" lon="6.70631">
        <ele>122.269</ele>
        <time>2012-10-14T12:23:14.486Z</time>
      </trkpt>
      <trkpt lat="43.36025" lon="6.70634">
        <ele>120.386</ele>
        <time>2012-10-14T12:23:17.802Z</time>
      </trkpt>
      <trkpt lat="43.36037" lon="6.70628">
        <ele>118.458</ele>
        <time>2012-10-14T12:23:20.547Z</time>
      </trkpt>
      <trkpt lat="43.36047" lon="6.70629">
        <ele>116.561</ele>
        <time>2012-10-14T12:23:22.597Z</time>
      </trkpt>
      <trkpt lat="43.36056" lon="6.70632">
        <ele>114.996</ele>
        <time>2012-10-14T12:23:24.780Z</time>
      </trkpt>
      <trkpt lat="43.3607" lon="6.70641">
        <ele>113.506</ele>
        <time>2012-10-14T12:23:28.306Z</time>
      </trkpt>
      <trkpt lat="43.36083" lon="6.70648">
        <ele>111.922</ele>
        <time>2012-10-14T12:23:31.283Z</time>
      </trkpt>
      <trkpt lat="43.36093" lon="6.70655">
        <ele>110.615</ele>
        <time>2012-10-14T12:23:33.894Z</time>
      </trkpt>
      <trkpt lat="43.36106" lon="6.70661">
        <ele>109.773</ele>
        <time>2012-10-14T12:23:36.898Z</time>
      </trkpt>
      <trkpt lat="43.36121" lon="6.70668">
        <ele>109.08</ele>
        <time>2012-10-14T12:23:40.784Z</time>
      </trkpt>
      <trkpt lat="43.36132" lon="6.70677">
        <ele>108.412</ele>
        <time>2012-10-14T12:23:44.555Z</time>
      </trkpt>
      <trkpt lat="43.36144" lon="6.70685">
        <ele>107.539</ele>
        <time>2012-10-14T12:23:48.203Z</time>
      </trkpt>
      <trkpt lat="43.36152" lon="6.70691">
        <ele>106.264</ele>
        <time>2012-10-14T12:23:50.657Z</time>
      </trkpt>
      <trkpt lat="43.36161" lon="6.70698">
        <ele>104.86</ele>
        <time>2012-10-14T12:23:53.396Z</time>
      </trkpt>
      <trkpt lat="43.36168" lon="6.70708">
        <ele>102.739</ele>
        <time>2012-10-14T12:23:56.118Z</time>
      </trkpt>
      <trkpt lat="43.36173" lon="6.7072">
        <ele>99.512</ele>
        <time>2012-10-14T12:23:58.473Z</time>
      </trkpt>
      <trkpt lat="43.36178" lon="6.70731">
        <ele>96.361</ele>
        <time>2012-10-14T12:24:00.651Z</time>
      </trkpt>
      <trkpt lat="43.36184" lon="6.70744">
        <ele>93.578</ele>
        <time>2012-10-14T12:24:03.243Z</time>
      </trkpt>
      <trkpt lat="43.36189" lon="6.70756">
        <ele>90.709</ele>
        <time>2012-10-14T12:24:05.545Z</time>
      </trkpt>
      <trkpt lat="43.36196" lon="6.70771">
        <ele>88.214</ele>
        <time>2012-10-14T12:24:08.138Z</time>
      </trkpt>
      <trkpt lat="43.36204" lon="6.70785">
        <ele>86.183</ele>
        <time>2012-10-14T12:24:10.571Z</time>
      </trkpt>
      <trkpt lat="43.3621" lon="6.70795">
        <ele>84.431</ele>
        <time>2012-10-14T12:24:12.350Z</time>
      </trkpt>
      <trkpt lat="43.36219" lon="6.70811">
        <ele>83.025</ele>
        <time>2012-10-14T12:24:14.720Z</time>
      </trkpt>
      <trkpt lat="43.36226" lon="6.70819">
        <ele>81.81</ele>
        <time>2012-10-14T12:24:16.106Z</time>
      </trkpt>
      <trkpt lat="43.36235" lon="6.70829">
        <ele>80.337</ele>
        <time>2012-10-14T12:24:17.873Z</time>
      </trkpt>
      <trkpt lat="43.36246" lon="6.70838">
        <ele>78.473</ele>
        <time>2012-10-14T12:24:19.999Z</time>
      </trkpt>
      <trkpt lat="43.36256" lon="6.7085">
        <ele>76.787</ele>
        <time>2012-10-14T12:24:22.538Z</time>
      </trkpt>
      <trkpt lat="43.36269" lon="6.7087">
        <ele>75.64</ele>
        <time>2012-10-14T12:24:26.894Z</time>
      </trkpt>
      <trkpt lat="43.3628" lon="6.70885">
        <ele>74.509</ele>
        <time>2012-10-14T12:24:31.629Z</time>
      </trkpt>
      <trkpt lat="43.36288" lon="6.70901">
        <ele>73.47</ele>
        <time>2012-10-14T12:24:35.996Z</time>
      </trkpt>
      <trkpt lat="43.36294" lon="6.70911">
        <ele>72.927</ele>
        <time>2012-10-14T12:24:39.179Z</time>
      </trkpt>
      <trkpt lat="43.36303" lon="6.70918">
        <ele>72.588</ele>
        <time>2012-10-14T12:24:43.257Z</time>
      </trkpt>
      <trkpt lat="43.36311" lon="6.70912">
        <ele>72.17</ele>
        <time>2012-10-14T12:24:46.719Z</time>
      </trkpt>
      <trkpt lat="43.3632" lon="6.70904">
        <ele>71.852</ele>
        <time>2012-10-14T12:24:49.850Z</time>
      </trkpt>
      <trkpt lat="43.36326" lon="6.70895">
        <ele>71.418</ele>
        <time>2012-10-14T12:24:52.359Z</time>
      </trkpt>
      <trkpt lat="43.36334" lon="6.70888">
        <ele>70.088</ele>
        <time>2012-10-14T12:24:54.803Z</time>
      </trkpt>
      <trkpt lat="43.36338" lon="6.70873">
        <ele>67.834</ele>
        <time>2012-10-14T12:24:58.552Z</time>
      </trkpt>
      <trkpt lat="43.36338" lon="6.70859">
        <ele>65.687</ele>
        <time>2012-10-14T12:25:02.361Z</time>
      </trkpt>
      <trkpt lat="43.36337" lon="6.70844">
        <ele>64.099</ele>
        <time>2012-10-14T12:25:06.146Z</time>
      </trkpt>
      <trkpt lat="43.36335" lon="6.70829">
        <ele>62.769</ele>
        <time>2012-10-14T12:25:09.186Z</time>
      </trkpt>
      <trkpt lat="43.36344" lon="6.70819">
        <ele>61.7</ele>
        <time>2012-10-14T12:25:11.647Z</time>
      </trkpt>
      <trkpt lat="43.36353" lon="6.70822">
        <ele>60.933</ele>
        <time>2012-10-14T12:25:13.574Z</time>
      </trkpt>
      <trkpt lat="43.36363" lon="6.70836">
        <ele>60.344</ele>
        <time>2012-10-14T12:25:16.220Z</time>
      </trkpt>
      <trkpt lat="43.36372" lon="6.70848">
        <ele>59.535</ele>
        <time>2012-10-14T12:25:18.585Z</time>
      </trkpt>
      <trkpt lat="43.36381" lon="6.70857">
        <ele>57.862</ele>
        <time>2012-10-14T12:25:20.640Z</time>
      </trkpt>
      <trkpt lat="43.36391" lon="6.70863">
        <ele>54.909</ele>
        <time>2012-10-14T12:25:22.679Z</time>
      </trkpt>
      <trkpt lat="43.36401" lon="6.70868">
        <ele>51.477</ele>
        <time>2012-10-14T12:25:25.031Z</time>
      </trkpt>
      <trkpt lat="43.36417" lon="6.70873">
        <ele>49.012</ele>
        <time>2012-10-14T12:25:29.260Z</time>
      </trkpt>
      <trkpt lat="43.36428" lon="6.70874">
        <ele>47.924</ele>
        <time>2012-10-14T12:25:31.475Z</time>
      </trkpt>
      <trkpt lat="43.36438" lon="6.7087">
        <ele>47.435</ele>
        <time>2012-10-14T12:25:33.408Z</time>
      </trkpt>
      <trkpt lat="43.3644" lon="6.70851">
        <ele>46.576</ele>
        <time>2012-10-14T12:25:35.667Z</time>
      </trkpt>
      <trkpt lat="43.3644" lon="6.70827">
        <ele>44.92</ele>
        <time>2012-10-14T12:25:38.466Z</time>
      </trkpt>
      <trkpt lat="43.36441" lon="6.7081">
        <ele>42.89</ele>
        <time>2012-10-14T12:25:40.679Z</time>
      </trkpt>
      <trkpt lat="43.36441" lon="6.70793">
        <ele>41.092</ele>
        <time>2012-10-14T12:25:43.062Z</time>
      </trkpt>
      <trkpt lat="43.36443" lon="6.70772">
        <ele>39.825</ele>
        <time>2012-10-14T12:25:46.317Z</time>
      </trkpt>
      <trkpt lat="43.36447" lon="6.70753">
        <ele>38.874</ele>
        <time>2012-10-14T12:25:49.543Z</time>
      </trkpt>
      <trkpt lat="43.36454" lon="6.70741">
        <ele>37.565</ele>
        <time>2012-10-14T12:25:52.038Z</time>
      </trkpt>
      <trkpt lat="43.36465" lon="6.70735">
        <ele>35.814</ele>
        <time>2012-10-14T12:25:54.664Z</time>
      </trkpt>
      <trkpt lat="43.36479" lon="6.70734">
        <ele>34.24</ele>
        <time>2012-10-14T12:25:57.783Z</time>
      </trkpt>
      <trkpt lat="43.36491" lon="6.70743">
        <ele>33.116</ele>
        <time>2012-10-14T12:26:00.676Z</time>
      </trkpt>
      <trkpt lat="43.36497" lon="6.70753">
        <ele>32.064</ele>
        <time>2012-10-14T12:26:02.808Z</time>
      </trkpt>
      <trkpt lat="43.36501" lon="6.70769">
        <ele>30.716</ele>
        <time>2012-10-14T12:26:05.782Z</time>
      </trkpt>
      <trkpt lat="43.36504" lon="6.70784">
        <ele>28.908</ele>
        <time>2012-10-14T12:26:08.539Z</time>
      </trkpt>
      <trkpt lat="43.36511" lon="6.70795">
        <ele>26.858</ele>
        <time>2012-10-14T12:26:10.748Z</time>
      </trkpt>
      <trkpt lat="43.36521" lon="6.7079">
        <ele>25.132</ele>
        <time>2012-10-14T12:26:12.576Z</time>
      </trkpt>
      <trkpt lat="43.36535" lon="6.70779">
        <ele>24.078</ele>
        <time>2012-10-14T12:26:16.071Z</time>
      </trkpt>
      <trkpt lat="43.36547" lon="6.70778">
        <ele>23.337</ele>
        <time>2012-10-14T12:26:19.758Z</time>
      </trkpt>
      <trkpt lat="43.36556" lon="6.70776">
        <ele>22.544</ele>
        <time>2012-10-14T12:26:22.225Z</time>
      </trkpt>
      <trkpt lat="43.36559" lon="6.70763">
        <ele>21.655</ele>
        <time>2012-10-14T12:26:24.502Z</time>
      </trkpt>
      <trkpt lat="43.36564" lon="6.70745">
        <ele>20.638</ele>
        <time>2012-10-14T12:26:27.775Z</time>
      </trkpt>
      <trkpt lat="43.36574" lon="6.70734">
        <ele>19.421</ele>
        <time>2012-10-14T12:26:30.957Z</time>
      </trkpt>
      <trkpt lat="43.36586" lon="6.70735">
        <ele>18.167</ele>
        <time>2012-10-14T12:26:33.964Z</time>
      </trkpt>
      <trkpt lat="43.36596" lon="6.70743">
        <ele>17.038</ele>
        <time>2012-10-14T12:26:36.892Z</time>
      </trkpt>
      <trkpt lat="43.36603" lon="6.70756">
        <ele>16.186</ele>
        <time>2012-10-14T12:26:39.753Z</time>
      </trkpt>
      <trkpt lat="43.3661" lon="6.70769">
        <ele>15.618</ele>
        <time>2012-10-14T12:26:42.685Z</time>
      </trkpt>
      <trkpt lat="43.36619" lon="6.70781">
        <ele>15.325</ele>
        <time>2012-10-14T12:26:45.783Z</time>
      </trkpt>
      <trkpt lat="43.36628" lon="6.7079">
        <ele>15.196</ele>
        <time>2012-10-14T12:26:48.589Z</time>
      </trkpt>
      <trkpt lat="43.36636" lon="6.70796">
        <ele>14.9</ele>
        <time>2012-10-14T12:26:51.066Z</time>
      </trkpt>
      <trkpt lat="43.36647" lon="6.708">
        <ele>14.382</ele>
        <time>2012-10-14T12:26:54.586Z</time>
      </trkpt>
      <trkpt lat="43.36658" lon="6.70802">
        <ele>13.978</ele>
        <time>2012-10-14T12:26:58.311Z</time>
      </trkpt>
      <trkpt lat="43.36667" lon="6.70802">
        <ele>14.319</ele>
        <time>2012-10-14T12:27:01.649Z</time>
      </trkpt>
      <trkpt lat="43.36678" lon="6.70799">
        <ele>15.611</ele>
        <time>2012-10-14T12:27:05.417Z</time>
      </trkpt>
      <trkpt lat="43.36687" lon="6.70791">
        <ele>17.059</ele>
        <time>2012-10-14T12:27:08.764Z</time>
      </trkpt>
      <trkpt lat="43.36696" lon="6.70785">
        <ele>17.931</ele>
        <time>2012-10-14T12:27:11.560Z</time>
      </trkpt>
      <trkpt lat="43.36705" lon="6.70775">
        <ele>18.267</ele>
        <time>2012-10-14T12:27:14.830Z</time>
      </trkpt>
      <trkpt lat="43.36712" lon="6.70764">
        <ele>18.272</ele>
        <time>2012-10-14T12:27:17.840Z</time>
      </trkpt>
      <trkpt lat="43.36719" lon="6.70752">
        <ele>18.086</ele>
        <time>2012-10-14T12:27:20.973Z</time>
      </trkpt>
      <trkpt lat="43.36722" lon="6.70738">
        <ele>17.794</ele>
        <time>2012-10-14T12:27:24.059Z</time>
      </trkpt>
      <trkpt lat="43.36724" lon="6.70725">
        <ele>17.586</ele>
        <time>2012-10-14T12:27:26.972Z</time>
      </trkpt>
      <trkpt lat="43.36726" lon="6.70712">
        <ele>17.579</ele>
        <time>2012-10-14T12:27:29.616Z</time>
      </trkpt>
      <trkpt lat="43.36727" lon="6.70698">
        <ele>17.669</ele>
        <time>2012-10-14T12:27:32.313Z</time>
      </trkpt>
      <trkpt lat="43.36728" lon="6.70683">
        <ele>17.922</ele>
        <time>2012-10-14T12:27:35.111Z</time>
      </trkpt>
      <trkpt lat="43.3673" lon="6.70666">
        <ele>18.531</ele>
        <time>2012-10-14T12:27:38.103Z</time>
      </trkpt>
      <trkpt lat="43.36731" lon="6.70648">
        <ele>19.295</ele>
        <time>2012-10-14T12:27:41.320Z</time>
      </trkpt>
      <trkpt lat="43.36736" lon="6.70634">
        <ele>19.801</ele>
        <time>2012-10-14T12:27:43.953Z</time>
      </trkpt>
      <trkpt lat="43.36748" lon="6.70628">
        <ele>19.963</ele>
        <time>2012-10-14T12:27:46.484Z</time>
      </trkpt>
      <trkpt lat="43.36757" lon="6.70632">
        <ele>19.73</ele>
        <time>2012-10-14T12:27:48.584Z</time>
      </trkpt>
      <trkpt lat="43.36768" lon="6.70648">
        <ele>19.072</ele>
        <time>2012-10-14T12:27:52.860Z</time>
      </trkpt>
      <trkpt lat="43.36777" lon="6.70648">
        <ele>17.812</ele>
        <time>2012-10-14T12:27:55.054Z</time>
      </trkpt>
      <trkpt lat="43.36783" lon="6.70635">
        <ele>16.014</ele>
        <time>2012-10-14T12:27:57.303Z</time>
      </trkpt>
      <trkpt lat="43.36788" lon="6.70623">
        <ele>14.483</ele>
        <time>2012-10-14T12:27:59.453Z</time>
      </trkpt>
      <trkpt lat="43.36794" lon="6.70611">
        <ele>13.845</ele>
        <time>2012-10-14T12:28:02.064Z</time>
      </trkpt>
      <trkpt lat="43.36794" lon="6.70593">
        <ele>13.861</ele>
        <time>2012-10-14T12:28:06.898Z</time>
      </trkpt>
      <trkpt lat="43.3679" lon="6.70581">
        <ele>14.34</ele>
        <time>2012-10-14T12:28:10.728Z</time>
      </trkpt>
      <trkpt lat="43.36789" lon="6.70568">
        <ele>15.08</ele>
        <time>2012-10-14T12:28:14.008Z</time>
      </trkpt>
      <trkpt lat="43.36795" lon="6.70555">
        <ele>15.688</ele>
        <time>2012-10-14T12:28:17.314Z</time>
      </trkpt>
      <trkpt lat="43.36795" lon="6.70542">
        <ele>16.084</ele>
        <time>2012-10-14T12:28:19.958Z</time>
      </trkpt>
      <trkpt lat="43.36791" lon="6.70528">
        <ele>16.456</ele>
        <time>2012-10-14T12:28:22.698Z</time>
      </trkpt>
      <trkpt lat="43.3679" lon="6.70511">
        <ele>16.751</ele>
        <time>2012-10-14T12:28:25.762Z</time>
      </trkpt>
      <trkpt lat="43.3679" lon="6.70496">
        <ele>16.91</ele>
        <time>2012-10-14T12:28:28.555Z</time>
      </trkpt>
      <trkpt lat="43.36792" lon="6.70479">
        <ele>17.026</ele>
        <time>2012-10-14T12:28:32.069Z</time>
      </trkpt>
      <trkpt lat="43.36794" lon="6.70464">
        <ele>17.043</ele>
        <time>2012-10-14T12:28:35.439Z</time>
      </trkpt>
      <trkpt lat="43.36797" lon="6.70452">
        <ele>16.853</ele>
        <time>2012-10-14T12:28:38.567Z</time>
      </trkpt>
      <trkpt lat="43.368" lon="6.70438">
        <ele>16.421</ele>
        <time>2012-10-14T12:28:42.342Z</time>
      </trkpt>
      <trkpt lat="43.36809" lon="6.7043">
        <ele>15.854</ele>
        <time>2012-10-14T12:28:46.842Z</time>
      </trkpt>
      <trkpt lat="43.36819" lon="6.70434">
        <ele>15.55</ele>
        <time>2012-10-14T12:28:51.620Z</time>
      </trkpt>
      <trkpt lat="43.36829" lon="6.70438">
        <ele>15.678</ele>
        <time>2012-10-14T12:28:56.435Z</time>
      </trkpt>
      <trkpt lat="43.36838" lon="6.70443">
        <ele>15.885</ele>
        <time>2012-10-14T12:29:01.255Z</time>
      </trkpt>
      <trkpt lat="43.36848" lon="6.70448">
        <ele>15.826</ele>
        <time>2012-10-14T12:29:06.052Z</time>
      </trkpt>
      <trkpt lat="43.36855" lon="6.70458">
        <ele>15.621</ele>
        <time>2012-10-14T12:29:10.914Z</time>
      </trkpt>
      <trkpt lat="43.36861" lon="6.70468">
        <ele>15.585</ele>
        <time>2012-10-14T12:29:14.763Z</time>
      </trkpt>
      <trkpt lat="43.36868" lon="6.70478">
        <ele>15.749</ele>
        <time>2012-10-14T12:29:18.483Z</time>
      </trkpt>
      <trkpt lat="43.36873" lon="6.70488">
        <ele>15.909</ele>
        <time>2012-10-14T12:29:22.053Z</time>
      </trkpt>
      <trkpt lat="43.36877" lon="6.705">
        <ele>15.998</ele>
        <time>2012-10-14T12:29:26.766Z</time>
      </trkpt>
      <trkpt lat="43.36881" lon="6.70511">
        <ele>16.018</ele>
        <time>2012-10-14T12:29:32.445Z</time>
      </trkpt>
      <trkpt lat="43.36883" lon="6.70524">
        <ele>16.191</ele>
        <time>2012-10-14T12:29:38.562Z</time>
      </trkpt>
      <trkpt lat="43.36885" lon="6.70537">
        <ele>16.741</ele>
        <time>2012-10-14T12:29:45.552Z</time>
      </trkpt>
      <trkpt lat="43.36888" lon="6.70549">
        <ele>17.742</ele>
        <time>2012-10-14T12:29:53.049Z</time>
      </trkpt>
      <trkpt lat="43.36888" lon="6.70549">
        <ele>18.672</ele>
        <time>2012-10-14T12:30:02.046Z</time>
      </trkpt>
      <trkpt lat="43.36888" lon="6.70549">
        <ele>18.939</ele>
        <time>2012-10-14T12:30:02.146Z</time>
      </trkpt>
      <trkpt lat="43.3691" lon="6.70541">
        <ele>18.955</ele>
        <time>2012-10-14T12:30:26.053Z</time>
      </trkpt>
      <trkpt lat="43.3691" lon="6.70541">
        <ele>19.34</ele>
        <time>2012-10-14T12:30:47.031Z</time>
      </trkpt>
      <trkpt lat="43.3691" lon="6.70541">
        <ele>19.717</ele>
        <time>2012-10-14T12:30:47.131Z</time>
      </trkpt>
      <trkpt lat="43.36932" lon="6.7053">
        <ele>19.71</ele>
        <time>2012-10-14T12:31:19.415Z</time>
      </trkpt>
      <trkpt lat="43.36942" lon="6.70525">
        <ele>19.499</ele>
        <time>2012-10-14T12:31:29.638Z</time>
      </trkpt>
      <trkpt lat="43.36951" lon="6.70523">
        <ele>21.664</ele>
        <time>2012-10-14T12:31:38.200Z</time>
      </trkpt>
      <trkpt lat="43.3696" lon="6.70518">
        <ele>27.968</ele>
        <time>2012-10-14T12:31:46.147Z</time>
      </trkpt>
      <trkpt lat="43.36969" lon="6.70515">
        <ele>35.363</ele>
        <time>2012-10-14T12:31:54.071Z</time>
      </trkpt>
      <trkpt lat="43.36978" lon="6.70511">
        <ele>40.56</ele>
        <time>2012-10-14T12:32:02.060Z</time>
      </trkpt>
      <trkpt lat="43.36986" lon="6.70503">
        <ele>43.767</ele>
        <time>2012-10-14T12:32:09.655Z</time>
      </trkpt>
      <trkpt lat="43.36994" lon="6.70495">
        <ele>45.729</ele>
        <time>2012-10-14T12:32:18.729Z</time>
      </trkpt>
      <trkpt lat="43.37002" lon="6.70485">
        <ele>46.889</ele>
        <time>2012-10-14T12:32:28.462Z</time>
      </trkpt>
      <trkpt lat="43.37009" lon="6.70477">
        <ele>47.535</ele>
        <time>2012-10-14T12:32:37.824Z</time>
      </trkpt>
      <trkpt lat="43.37016" lon="6.70467">
        <ele>47.908</ele>
        <time>2012-10-14T12:32:45.470Z</time>
      </trkpt>
      <trkpt lat="43.37024" lon="6.70458">
        <ele>48.305</ele>
        <time>2012-10-14T12:32:52.209Z</time>
      </trkpt>
      <trkpt lat="43.37031" lon="6.70448">
        <ele>48.974</ele>
        <time>2012-10-14T12:32:58.132Z</time>
      </trkpt>
      <trkpt lat="43.37038" lon="6.70438">
        <ele>49.923</ele>
        <time>2012-10-14T12:33:04.120Z</time>
      </trkpt>
      <trkpt lat="43.37044" lon="6.70429">
        <ele>50.99</ele>
        <time>2012-10-14T12:33:09.173Z</time>
      </trkpt>
      <trkpt lat="43.37051" lon="6.7042">
        <ele>52.041</ele>
        <time>2012-10-14T12:33:14.392Z</time>
      </trkpt>
      <trkpt lat="43.37057" lon="6.7041">
        <ele>52.96</ele>
        <time>2012-10-14T12:33:19.544Z</time>
      </trkpt>
      <trkpt lat="43.37062" lon="6.704">
        <ele>53.625</ele>
        <time>2012-10-14T12:33:24.669Z</time>
      </trkpt>
      <trkpt lat="43.37068" lon="6.70389">
        <ele>54.161</ele>
        <time>2012-10-14T12:33:29.976Z</time>
      </trkpt>
      <trkpt lat="43.37074" lon="6.7038">
        <ele>54.741</ele>
        <time>2012-10-14T12:33:34.350Z</time>
      </trkpt>
      <trkpt lat="43.37082" lon="6.70368">
        <ele>55.3</ele>
        <time>2012-10-14T12:33:38.923Z</time>
      </trkpt>
      <trkpt lat="43.37089" lon="6.70358">
        <ele>55.77</ele>
        <time>2012-10-14T12:33:43.012Z</time>
      </trkpt>
      <trkpt lat="43.37095" lon="6.70348">
        <ele>56.167</ele>
        <time>2012-10-14T12:33:46.268Z</time>
      </trkpt>
      <trkpt lat="43.371" lon="6.70333">
        <ele>56.553</ele>
        <time>2012-10-14T12:33:50.381Z</time>
      </trkpt>
      <trkpt lat="43.37104" lon="6.70318">
        <ele>57.005</ele>
        <time>2012-10-14T12:33:54.208Z</time>
      </trkpt>
      <trkpt lat="43.37109" lon="6.70304">
        <ele>57.383</ele>
        <time>2012-10-14T12:33:58.008Z</time>
      </trkpt>
      <trkpt lat="43.37114" lon="6.70291">
        <ele>57.538</ele>
        <time>2012-10-14T12:34:01.679Z</time>
      </trkpt>
      <trkpt lat="43.37118" lon="6.7028">
        <ele>57.469</ele>
        <time>2012-10-14T12:34:05.042Z</time>
      </trkpt>
      <trkpt lat="43.37121" lon="6.70266">
        <ele>57.228</ele>
        <time>2012-10-14T12:34:09.162Z</time>
      </trkpt>
      <trkpt lat="43.37123" lon="6.70252">
        <ele>56.988</ele>
        <time>2012-10-14T12:34:13.800Z</time>
      </trkpt>
      <trkpt lat="43.37127" lon="6.7024">
        <ele>56.876</ele>
        <time>2012-10-14T12:34:18.765Z</time>
      </trkpt>
      <trkpt lat="43.37131" lon="6.70227">
        <ele>56.984</ele>
        <time>2012-10-14T12:34:24.034Z</time>
      </trkpt>
      <trkpt lat="43.37136" lon="6.70214">
        <ele>57.439</ele>
        <time>2012-10-14T12:34:29.560Z</time>
      </trkpt>
      <trkpt lat="43.37143" lon="6.70203">
        <ele>58.263</ele>
        <time>2012-10-14T12:34:35.156Z</time>
      </trkpt>
      <trkpt lat="43.37151" lon="6.70195">
        <ele>59.449</ele>
        <time>2012-10-14T12:34:40.307Z</time>
      </trkpt>
      <trkpt lat="43.3716" lon="6.70189">
        <ele>60.775</ele>
        <time>2012-10-14T12:34:45.301Z</time>
      </trkpt>
      <trkpt lat="43.37168" lon="6.70186">
        <ele>61.836</ele>
        <time>2012-10-14T12:34:49.965Z</time>
      </trkpt>
      <trkpt lat="43.37177" lon="6.70182">
        <ele>62.531</ele>
        <time>2012-10-14T12:34:54.926Z</time>
      </trkpt>
      <trkpt lat="43.37187" lon="6.70179">
        <ele>63</ele>
        <time>2012-10-14T12:35:00.080Z</time>
      </trkpt>
      <trkpt lat="43.37197" lon="6.70176">
        <ele>63.667</ele>
        <time>2012-10-14T12:35:05.902Z</time>
      </trkpt>
      <trkpt lat="43.37206" lon="6.70171">
        <ele>65.218</ele>
        <time>2012-10-14T12:35:11.774Z</time>
      </trkpt>
      <trkpt lat="43.37216" lon="6.70168">
        <ele>67.465</ele>
        <time>2012-10-14T12:35:18.173Z</time>
      </trkpt>
      <trkpt lat="43.37226" lon="6.70165">
        <ele>69.396</ele>
        <time>2012-10-14T12:35:25.037Z</time>
      </trkpt>
      <trkpt lat="43.37235" lon="6.70163">
        <ele>70.556</ele>
        <time>2012-10-14T12:35:31.437Z</time>
      </trkpt>
      <trkpt lat="43.37244" lon="6.70162">
        <ele>71.287</ele>
        <time>2012-10-14T12:35:38.177Z</time>
      </trkpt>
      <trkpt lat="43.37254" lon="6.70162">
        <ele>71.902</ele>
        <time>2012-10-14T12:35:44.963Z</time>
      </trkpt>
      <trkpt lat="43.37263" lon="6.70162">
        <ele>72.688</ele>
        <time>2012-10-14T12:35:51.205Z</time>
      </trkpt>
      <trkpt lat="43.37273" lon="6.7016">
        <ele>74.045</ele>
        <time>2012-10-14T12:35:58.079Z</time>
      </trkpt>
      <trkpt lat="43.37283" lon="6.70155">
        <ele>76.155</ele>
        <time>2012-10-14T12:36:04.889Z</time>
      </trkpt>
      <trkpt lat="43.37292" lon="6.7015">
        <ele>78.425</ele>
        <time>2012-10-14T12:36:11.712Z</time>
      </trkpt>
      <trkpt lat="43.37301" lon="6.70144">
        <ele>79.936</ele>
        <time>2012-10-14T12:36:19.235Z</time>
      </trkpt>
      <trkpt lat="43.37308" lon="6.70135">
        <ele>80.615</ele>
        <time>2012-10-14T12:36:27.589Z</time>
      </trkpt>
      <trkpt lat="43.37314" lon="6.70124">
        <ele>81.099</ele>
        <time>2012-10-14T12:36:36.491Z</time>
      </trkpt>
      <trkpt lat="43.37318" lon="6.70113">
        <ele>81.617</ele>
        <time>2012-10-14T12:36:45.728Z</time>
      </trkpt>
      <trkpt lat="43.37324" lon="6.70103">
        <ele>82.068</ele>
        <time>2012-10-14T12:36:55.121Z</time>
      </trkpt>
      <trkpt lat="43.37331" lon="6.70093">
        <ele>82.448</ele>
        <time>2012-10-14T12:37:05.659Z</time>
      </trkpt>
      <trkpt lat="43.37336" lon="6.70082">
        <ele>82.818</ele>
        <time>2012-10-14T12:37:16.199Z</time>
      </trkpt>
      <trkpt lat="43.37339" lon="6.7007">
        <ele>83.163</ele>
        <time>2012-10-14T12:37:28.444Z</time>
      </trkpt>
      <trkpt lat="43.37347" lon="6.70062">
        <ele>83.743</ele>
        <time>2012-10-14T12:37:40.341Z</time>
      </trkpt>
      <trkpt lat="43.37353" lon="6.70051">
        <ele>84.941</ele>
        <time>2012-10-14T12:37:50.970Z</time>
      </trkpt>
      <trkpt lat="43.37358" lon="6.70039">
        <ele>86.952</ele>
        <time>2012-10-14T12:38:01.324Z</time>
      </trkpt>
      <trkpt lat="43.37363" lon="6.70029">
        <ele>89.369</ele>
        <time>2012-10-14T12:38:11.559Z</time>
      </trkpt>
      <trkpt lat="43.37367" lon="6.70018">
        <ele>91.362</ele>
        <time>2012-10-14T12:38:23.032Z</time>
      </trkpt>
      <trkpt lat="43.37367" lon="6.70018">
        <ele>92.47</ele>
        <time>2012-10-14T12:38:42.034Z</time>
      </trkpt>
      <trkpt lat="43.37367" lon="6.70018">
        <ele>92.843</ele>
        <time>2012-10-14T12:38:42.134Z</time>
      </trkpt>
      <trkpt lat="43.3739" lon="6.70019">
        <ele>92.871</ele>
        <time>2012-10-14T12:39:44.208Z</time>
      </trkpt>
      <trkpt lat="43.37397" lon="6.70027">
        <ele>93.282</ele>
        <time>2012-10-14T12:39:53.343Z</time>
      </trkpt>
      <trkpt lat="43.37405" lon="6.70033">
        <ele>94.85</ele>
        <time>2012-10-14T12:40:02.623Z</time>
      </trkpt>
      <trkpt lat="43.37415" lon="6.70033">
        <ele>98.246</ele>
        <time>2012-10-14T12:40:12.134Z</time>
      </trkpt>
      <trkpt lat="43.37424" lon="6.70034">
        <ele>102.822</ele>
        <time>2012-10-14T12:40:22.031Z</time>
      </trkpt>
      <trkpt lat="43.37424" lon="6.70034">
        <ele>106.497</ele>
        <time>2012-10-14T12:40:32.035Z</time>
      </trkpt>
      <trkpt lat="43.37424" lon="6.70034">
        <ele>108.107</ele>
        <time>2012-10-14T12:43:45.842Z</time>
      </trkpt>
      <trkpt lat="43.37441" lon="6.7001">
        <ele>108.404</ele>
        <time>2012-10-14T12:44:12.600Z</time>
      </trkpt>
      <trkpt lat="43.37447" lon="6.7">
        <ele>108.951</ele>
        <time>2012-10-14T12:44:17.454Z</time>
      </trkpt>
      <trkpt lat="43.37454" lon="6.6999">
        <ele>110.601</ele>
        <time>2012-10-14T12:44:21.727Z</time>
      </trkpt>
      <trkpt lat="43.37461" lon="6.6998">
        <ele>112.866</ele>
        <time>2012-10-14T12:44:26.119Z</time>
      </trkpt>
      <trkpt lat="43.37468" lon="6.69972">
        <ele>114.866</ele>
        <time>2012-10-14T12:44:30.078Z</time>
      </trkpt>
      <trkpt lat="43.37476" lon="6.69962">
        <ele>116.27</ele>
        <time>2012-10-14T12:44:34.518Z</time>
      </trkpt>
      <trkpt lat="43.37484" lon="6.69953">
        <ele>117.12</ele>
        <time>2012-10-14T12:44:39.079Z</time>
      </trkpt>
      <trkpt lat="43.37492" lon="6.69946">
        <ele>117.644</ele>
        <time>2012-10-14T12:44:43.184Z</time>
      </trkpt>
      <trkpt lat="43.37502" lon="6.69941">
        <ele>118.138</ele>
        <time>2012-10-14T12:44:47.615Z</time>
      </trkpt>
      <trkpt lat="43.37512" lon="6.69944">
        <ele>118.848</ele>
        <time>2012-10-14T12:44:52.193Z</time>
      </trkpt>
      <trkpt lat="43.37519" lon="6.69953">
        <ele>119.608</ele>
        <time>2012-10-14T12:44:56.723Z</time>
      </trkpt>
      <trkpt lat="43.37524" lon="6.69966">
        <ele>120.102</ele>
        <time>2012-10-14T12:45:01.379Z</time>
      </trkpt>
      <trkpt lat="43.37529" lon="6.69979">
        <ele>120.251</ele>
        <time>2012-10-14T12:45:05.960Z</time>
      </trkpt>
      <trkpt lat="43.37534" lon="6.69989">
        <ele>120.212</ele>
        <time>2012-10-14T12:45:10.562Z</time>
      </trkpt>
      <trkpt lat="43.37542" lon="6.69997">
        <ele>120.266</ele>
        <time>2012-10-14T12:45:15.561Z</time>
      </trkpt>
      <trkpt lat="43.37552" lon="6.70002">
        <ele>120.603</ele>
        <time>2012-10-14T12:45:20.778Z</time>
      </trkpt>
      <trkpt lat="43.37562" lon="6.70003">
        <ele>121.052</ele>
        <time>2012-10-14T12:45:25.993Z</time>
      </trkpt>
      <trkpt lat="43.37571" lon="6.70002">
        <ele>121.693</ele>
        <time>2012-10-14T12:45:30.750Z</time>
      </trkpt>
      <trkpt lat="43.37582" lon="6.69999">
        <ele>122.889</ele>
        <time>2012-10-14T12:45:36.461Z</time>
      </trkpt>
      <trkpt lat="43.37592" lon="6.69998">
        <ele>124.623</ele>
        <time>2012-10-14T12:45:41.766Z</time>
      </trkpt>
      <trkpt lat="43.37602" lon="6.69997">
        <ele>126.633</ele>
        <time>2012-10-14T12:45:46.484Z</time>
      </trkpt>
      <trkpt lat="43.37611" lon="6.69991">
        <ele>128.729</ele>
        <time>2012-10-14T12:45:50.771Z</time>
      </trkpt>
      <trkpt lat="43.37622" lon="6.69983">
        <ele>130.489</ele>
        <time>2012-10-14T12:45:54.924Z</time>
      </trkpt>
      <trkpt lat="43.37631" lon="6.69981">
        <ele>131.483</ele>
        <time>2012-10-14T12:45:57.483Z</time>
      </trkpt>
      <trkpt lat="43.37645" lon="6.69978">
        <ele>131.729</ele>
        <time>2012-10-14T12:46:00.874Z</time>
      </trkpt>
      <trkpt lat="43.37661" lon="6.69972">
        <ele>131.521</ele>
        <time>2012-10-14T12:46:04.177Z</time>
      </trkpt>
      <trkpt lat="43.37672" lon="6.69966">
        <ele>131.029</ele>
        <time>2012-10-14T12:46:06.367Z</time>
      </trkpt>
      <trkpt lat="43.37688" lon="6.69955">
        <ele>130.245</ele>
        <time>2012-10-14T12:46:09.574Z</time>
      </trkpt>
      <trkpt lat="43.37698" lon="6.69944">
        <ele>128.864</ele>
        <time>2012-10-14T12:46:12.206Z</time>
      </trkpt>
      <trkpt lat="43.37708" lon="6.69934">
        <ele>126.841</ele>
        <time>2012-10-14T12:46:15.104Z</time>
      </trkpt>
      <trkpt lat="43.3772" lon="6.69937">
        <ele>124.705</ele>
        <time>2012-10-14T12:46:18.652Z</time>
      </trkpt>
      <trkpt lat="43.37726" lon="6.69948">
        <ele>122.907</ele>
        <time>2012-10-14T12:46:21.727Z</time>
      </trkpt>
      <trkpt lat="43.37731" lon="6.69958">
        <ele>121.665</ele>
        <time>2012-10-14T12:46:24.661Z</time>
      </trkpt>
      <trkpt lat="43.37738" lon="6.69967">
        <ele>121.095</ele>
        <time>2012-10-14T12:46:28.920Z</time>
      </trkpt>
      <trkpt lat="43.37744" lon="6.69976">
        <ele>121.021</ele>
        <time>2012-10-14T12:46:33.034Z</time>
      </trkpt>
      <trkpt lat="43.37744" lon="6.69976">
        <ele>121.074</ele>
        <time>2012-10-14T12:46:39.048Z</time>
      </trkpt>
      <trkpt lat="43.37744" lon="6.69976">
        <ele>121.047</ele>
        <time>2012-10-14T12:46:39.148Z</time>
      </trkpt>
      <trkpt lat="43.37766" lon="6.69996">
        <ele>121.103</ele>
        <time>2012-10-14T12:47:10.995Z</time>
      </trkpt>
      <trkpt lat="43.37776" lon="6.70002">
        <ele>121.563</ele>
        <time>2012-10-14T12:47:19.099Z</time>
      </trkpt>
      <trkpt lat="43.37784" lon="6.70009">
        <ele>122.38</ele>
        <time>2012-10-14T12:47:26.439Z</time>
      </trkpt>
      <trkpt lat="43.37793" lon="6.70014">
        <ele>123.463</ele>
        <time>2012-10-14T12:47:34.645Z</time>
      </trkpt>
      <trkpt lat="43.37801" lon="6.70019">
        <ele>124.717</ele>
        <time>2012-10-14T12:47:42.562Z</time>
      </trkpt>
      <trkpt lat="43.3781" lon="6.70023">
        <ele>125.866</ele>
        <time>2012-10-14T12:47:52.037Z</time>
      </trkpt>
      <trkpt lat="43.3781" lon="6.70023">
        <ele>126.705</ele>
        <time>2012-10-14T12:47:59.038Z</time>
      </trkpt>
      <trkpt lat="43.3781" lon="6.70023">
        <ele>127.184</ele>
        <time>2012-10-14T12:47:59.231Z</time>
      </trkpt>
      <trkpt lat="43.37829" lon="6.70029">
        <ele>127.536</ele>
        <time>2012-10-14T12:48:24.356Z</time>
      </trkpt>
      <trkpt lat="43.37838" lon="6.7003">
        <ele>128.13</ele>
        <time>2012-10-14T12:48:30.803Z</time>
      </trkpt>
      <trkpt lat="43.37848" lon="6.70034">
        <ele>129.033</ele>
        <time>2012-10-14T12:48:36.723Z</time>
      </trkpt>
      <trkpt lat="43.37857" lon="6.70039">
        <ele>130.102</ele>
        <time>2012-10-14T12:48:41.380Z</time>
      </trkpt>
      <trkpt lat="43.37865" lon="6.70045">
        <ele>131.33</ele>
        <time>2012-10-14T12:48:45.685Z</time>
      </trkpt>
      <trkpt lat="43.37873" lon="6.70053">
        <ele>132.624</ele>
        <time>2012-10-14T12:48:49.480Z</time>
      </trkpt>
      <trkpt lat="43.37881" lon="6.70061">
        <ele>133.658</ele>
        <time>2012-10-14T12:48:52.562Z</time>
      </trkpt>
      <trkpt lat="43.37889" lon="6.7007">
        <ele>134.204</ele>
        <time>2012-10-14T12:48:55.731Z</time>
      </trkpt>
      <trkpt lat="43.37895" lon="6.70085">
        <ele>134.406</ele>
        <time>2012-10-14T12:48:58.782Z</time>
      </trkpt>
      <trkpt lat="43.379" lon="6.70103">
        <ele>134.402</ele>
        <time>2012-10-14T12:49:01.594Z</time>
      </trkpt>
      <trkpt lat="43.37908" lon="6.70124">
        <ele>134.255</ele>
        <time>2012-10-14T12:49:04.697Z</time>
      </trkpt>
      <trkpt lat="43.37922" lon="6.70145">
        <ele>133.91</ele>
        <time>2012-10-14T12:49:07.889Z</time>
      </trkpt>
      <trkpt lat="43.37942" lon="6.70161">
        <ele>133.33</ele>
        <time>2012-10-14T12:49:10.952Z</time>
      </trkpt>
      <trkpt lat="43.37965" lon="6.70152">
        <ele>132.437</ele>
        <time>2012-10-14T12:49:13.790Z</time>
      </trkpt>
      <trkpt lat="43.37985" lon="6.70133">
        <ele>131.197</ele>
        <time>2012-10-14T12:49:16.544Z</time>
      </trkpt>
      <trkpt lat="43.37998" lon="6.70122">
        <ele>129.668</ele>
        <time>2012-10-14T12:49:18.301Z</time>
      </trkpt>
      <trkpt lat="43.38019" lon="6.70105">
        <ele>128.009</ele>
        <time>2012-10-14T12:49:21.531Z</time>
      </trkpt>
      <trkpt lat="43.38042" lon="6.70092">
        <ele>126.21</ele>
        <time>2012-10-14T12:49:25.894Z</time>
      </trkpt>
      <trkpt lat="43.3806" lon="6.70081">
        <ele>124.349</ele>
        <time>2012-10-14T12:49:29.749Z</time>
      </trkpt>
      <trkpt lat="43.38073" lon="6.70074">
        <ele>122.792</ele>
        <time>2012-10-14T12:49:32.406Z</time>
      </trkpt>
      <trkpt lat="43.38086" lon="6.7007">
        <ele>121.803</ele>
        <time>2012-10-14T12:49:34.889Z</time>
      </trkpt>
      <trkpt lat="43.381" lon="6.7007">
        <ele>120.643</ele>
        <time>2012-10-14T12:49:37.786Z</time>
      </trkpt>
      <trkpt lat="43.38114" lon="6.70071">
        <ele>118.387</ele>
        <time>2012-10-14T12:49:40.425Z</time>
      </trkpt>
      <trkpt lat="43.38124" lon="6.70073">
        <ele>115.456</ele>
        <time>2012-10-14T12:49:42.305Z</time>
      </trkpt>
      <trkpt lat="43.38139" lon="6.70073">
        <ele>113.038</ele>
        <time>2012-10-14T12:49:45.165Z</time>
      </trkpt>
      <trkpt lat="43.38153" lon="6.70073">
        <ele>111.289</ele>
        <time>2012-10-14T12:49:48.420Z</time>
      </trkpt>
      <trkpt lat="43.38168" lon="6.70075">
        <ele>109.544</ele>
        <time>2012-10-14T12:49:52.624Z</time>
      </trkpt>
      <trkpt lat="43.38182" lon="6.70077">
        <ele>107.7</ele>
        <time>2012-10-14T12:49:56.742Z</time>
      </trkpt>
      <trkpt lat="43.38193" lon="6.70076">
        <ele>106.226</ele>
        <time>2012-10-14T12:49:59.470Z</time>
      </trkpt>
      <trkpt lat="43.38197" lon="6.70091">
        <ele>105.261</ele>
        <time>2012-10-14T12:50:02.706Z</time>
      </trkpt>
      <trkpt lat="43.38204" lon="6.70104">
        <ele>104.489</ele>
        <time>2012-10-14T12:50:06.464Z</time>
      </trkpt>
      <trkpt lat="43.38213" lon="6.70111">
        <ele>103.607</ele>
        <time>2012-10-14T12:50:09.748Z</time>
      </trkpt>
      <trkpt lat="43.38222" lon="6.70116">
        <ele>102.267</ele>
        <time>2012-10-14T12:50:12.619Z</time>
      </trkpt>
      <trkpt lat="43.3823" lon="6.70125">
        <ele>100.545</ele>
        <time>2012-10-14T12:50:15.669Z</time>
      </trkpt>
      <trkpt lat="43.38238" lon="6.70131">
        <ele>99.106</ele>
        <time>2012-10-14T12:50:18.353Z</time>
      </trkpt>
      <trkpt lat="43.38247" lon="6.70142">
        <ele>98.337</ele>
        <time>2012-10-14T12:50:21.768Z</time>
      </trkpt>
      <trkpt lat="43.38256" lon="6.7015">
        <ele>97.97</ele>
        <time>2012-10-14T12:50:24.415Z</time>
      </trkpt>
      <trkpt lat="43.38265" lon="6.70158">
        <ele>97.805</ele>
        <time>2012-10-14T12:50:27.105Z</time>
      </trkpt>
      <trkpt lat="43.38274" lon="6.70167">
        <ele>97.568</ele>
        <time>2012-10-14T12:50:29.839Z</time>
      </trkpt>
      <trkpt lat="43.38282" lon="6.70175">
        <ele>97.033</ele>
        <time>2012-10-14T12:50:32.017Z</time>
      </trkpt>
      <trkpt lat="43.3829" lon="6.70183">
        <ele>96.475</ele>
        <time>2012-10-14T12:50:34.191Z</time>
      </trkpt>
      <trkpt lat="43.38297" lon="6.70194">
        <ele>96.068</ele>
        <time>2012-10-14T12:50:36.277Z</time>
      </trkpt>
      <trkpt lat="43.38302" lon="6.70214">
        <ele>95.569</ele>
        <time>2012-10-14T12:50:39.099Z</time>
      </trkpt>
      <trkpt lat="43.38307" lon="6.70231">
        <ele>94.966</ele>
        <time>2012-10-14T12:50:41.928Z</time>
      </trkpt>
      <trkpt lat="43.38312" lon="6.70247">
        <ele>94.515</ele>
        <time>2012-10-14T12:50:44.760Z</time>
      </trkpt>
      <trkpt lat="43.38314" lon="6.70265">
        <ele>94.329</ele>
        <time>2012-10-14T12:50:47.775Z</time>
      </trkpt>
      <trkpt lat="43.38314" lon="6.70281">
        <ele>94.318</ele>
        <time>2012-10-14T12:50:51.014Z</time>
      </trkpt>
      <trkpt lat="43.38318" lon="6.70296">
        <ele>94.362</ele>
        <time>2012-10-14T12:50:54.834Z</time>
      </trkpt>
      <trkpt lat="43.38328" lon="6.70303">
        <ele>94.481</ele>
        <time>2012-10-14T12:50:58.520Z</time>
      </trkpt>
      <trkpt lat="43.38339" lon="6.70309">
        <ele>94.997</ele>
        <time>2012-10-14T12:51:02.159Z</time>
      </trkpt>
      <trkpt lat="43.38347" lon="6.70315">
        <ele>96.009</ele>
        <time>2012-10-14T12:51:05.038Z</time>
      </trkpt>
      <trkpt lat="43.38352" lon="6.70326">
        <ele>97.172</ele>
        <time>2012-10-14T12:51:08.745Z</time>
      </trkpt>
      <trkpt lat="43.38355" lon="6.70339">
        <ele>98.19</ele>
        <time>2012-10-14T12:51:13.051Z</time>
      </trkpt>
      <trkpt lat="43.38355" lon="6.70339">
        <ele>98.905</ele>
        <time>2012-10-14T12:51:17.056Z</time>
      </trkpt>
      <trkpt lat="43.38355" lon="6.70339">
        <ele>99.207</ele>
        <time>2012-10-14T12:51:17.156Z</time>
      </trkpt>
      <trkpt lat="43.38373" lon="6.70357">
        <ele>99.23</ele>
        <time>2012-10-14T12:51:43.943Z</time>
      </trkpt>
      <trkpt lat="43.38382" lon="6.70362">
        <ele>99.161</ele>
        <time>2012-10-14T12:51:52.564Z</time>
      </trkpt>
      <trkpt lat="43.38391" lon="6.70361">
        <ele>99.287</ele>
        <time>2012-10-14T12:51:59.720Z</time>
      </trkpt>
      <trkpt lat="43.38401" lon="6.70358">
        <ele>99.787</ele>
        <time>2012-10-14T12:52:08.106Z</time>
      </trkpt>
      <trkpt lat="43.3841" lon="6.70364">
        <ele>100.78</ele>
        <time>2012-10-14T12:52:17.640Z</time>
      </trkpt>
      <trkpt lat="43.38422" lon="6.70372">
        <ele>102.462</ele>
        <time>2012-10-14T12:52:32.146Z</time>
      </trkpt>
      <trkpt lat="43.38425" lon="6.70384">
        <ele>104.524</ele>
        <time>2012-10-14T12:52:41.535Z</time>
      </trkpt>
      <trkpt lat="43.38433" lon="6.70392">
        <ele>106.224</ele>
        <time>2012-10-14T12:52:50.024Z</time>
      </trkpt>
      <trkpt lat="43.38433" lon="6.70392">
        <ele>107.231</ele>
        <time>2012-10-14T12:53:04.021Z</time>
      </trkpt>
      <trkpt lat="43.38433" lon="6.70392">
        <ele>107.573</ele>
        <time>2012-10-14T12:54:49.195Z</time>
      </trkpt>
      <trkpt lat="43.38426" lon="6.70418">
        <ele>107.602</ele>
        <time>2012-10-14T12:55:19.031Z</time>
      </trkpt>
      <trkpt lat="43.38421" lon="6.70428">
        <ele>108.025</ele>
        <time>2012-10-14T12:55:25.966Z</time>
      </trkpt>
      <trkpt lat="43.38415" lon="6.70439">
        <ele>109.257</ele>
        <time>2012-10-14T12:55:32.438Z</time>
      </trkpt>
      <trkpt lat="43.3841" lon="6.70452">
        <ele>110.994</ele>
        <time>2012-10-14T12:55:38.293Z</time>
      </trkpt>
      <trkpt lat="43.38405" lon="6.70465">
        <ele>112.847</ele>
        <time>2012-10-14T12:55:44.121Z</time>
      </trkpt>
      <trkpt lat="43.38396" lon="6.7047">
        <ele>114.599</ele>
        <time>2012-10-14T12:55:49.693Z</time>
      </trkpt>
      <trkpt lat="43.38388" lon="6.70478">
        <ele>116.053</ele>
        <time>2012-10-14T12:55:55.723Z</time>
      </trkpt>
      <trkpt lat="43.3838" lon="6.70487">
        <ele>117.496</ele>
        <time>2012-10-14T12:56:01.561Z</time>
      </trkpt>
      <trkpt lat="43.38372" lon="6.70496">
        <ele>119.391</ele>
        <time>2012-10-14T12:56:07.594Z</time>
      </trkpt>
      <trkpt lat="43.38365" lon="6.70505">
        <ele>121.448</ele>
        <time>2012-10-14T12:56:13.424Z</time>
      </trkpt>
      <trkpt lat="43.38363" lon="6.70519">
        <ele>123.027</ele>
        <time>2012-10-14T12:56:19.917Z</time>
      </trkpt>
      <trkpt lat="43.38367" lon="6.7053">
        <ele>123.998</ele>
        <time>2012-10-14T12:56:26.048Z</time>
      </trkpt>
      <trkpt lat="43.38367" lon="6.7053">
        <ele>124.585</ele>
        <time>2012-10-14T12:56:38.053Z</time>
      </trkpt>
      <trkpt lat="43.38367" lon="6.7053">
        <ele>124.886</ele>
        <time>2012-10-14T13:02:11.317Z</time>
      </trkpt>
      <trkpt lat="43.38381" lon="6.70514">
        <ele>125.045</ele>
        <time>2012-10-14T13:02:27.433Z</time>
      </trkpt>
      <trkpt lat="43.38392" lon="6.70513">
        <ele>125.266</ele>
        <time>2012-10-14T13:02:31.933Z</time>
      </trkpt>
      <trkpt lat="43.38404" lon="6.70516">
        <ele>125.333</ele>
        <time>2012-10-14T13:02:35.862Z</time>
      </trkpt>
      <trkpt lat="43.38412" lon="6.70521">
        <ele>124.951</ele>
        <time>2012-10-14T13:02:38.667Z</time>
      </trkpt>
      <trkpt lat="43.38421" lon="6.70538">
        <ele>124.181</ele>
        <time>2012-10-14T13:02:42.499Z</time>
      </trkpt>
      <trkpt lat="43.38429" lon="6.70555">
        <ele>122.927</ele>
        <time>2012-10-14T13:02:45.745Z</time>
      </trkpt>
      <trkpt lat="43.38438" lon="6.7057">
        <ele>120.646</ele>
        <time>2012-10-14T13:02:48.608Z</time>
      </trkpt>
      <trkpt lat="43.38451" lon="6.70577">
        <ele>117.523</ele>
        <time>2012-10-14T13:02:51.107Z</time>
      </trkpt>
      <trkpt lat="43.38469" lon="6.70578">
        <ele>114.495</ele>
        <time>2012-10-14T13:02:54.118Z</time>
      </trkpt>
      <trkpt lat="43.38482" lon="6.70579">
        <ele>111.789</ele>
        <time>2012-10-14T13:02:56.390Z</time>
      </trkpt>
      <trkpt lat="43.38496" lon="6.70594">
        <ele>109.214</ele>
        <time>2012-10-14T13:02:58.977Z</time>
      </trkpt>
      <trkpt lat="43.38503" lon="6.70604">
        <ele>107.208</ele>
        <time>2012-10-14T13:03:00.538Z</time>
      </trkpt>
      <trkpt lat="43.38518" lon="6.70625">
        <ele>106.142</ele>
        <time>2012-10-14T13:03:03.459Z</time>
      </trkpt>
      <trkpt lat="43.38526" lon="6.70639">
        <ele>105.82</ele>
        <time>2012-10-14T13:03:05.562Z</time>
      </trkpt>
      <trkpt lat="43.38532" lon="6.70649">
        <ele>105.729</ele>
        <time>2012-10-14T13:03:07.176Z</time>
      </trkpt>
      <trkpt lat="43.3854" lon="6.70662">
        <ele>105.238</ele>
        <time>2012-10-14T13:03:09.601Z</time>
      </trkpt>
      <trkpt lat="43.38547" lon="6.70673">
        <ele>104.213</ele>
        <time>2012-10-14T13:03:12.266Z</time>
      </trkpt>
      <trkpt lat="43.38553" lon="6.70681">
        <ele>103.207</ele>
        <time>2012-10-14T13:03:15.405Z</time>
      </trkpt>
      <trkpt lat="43.38558" lon="6.70692">
        <ele>102.498</ele>
        <time>2012-10-14T13:03:21.044Z</time>
      </trkpt>
      <trkpt lat="43.38558" lon="6.70692">
        <ele>101.927</ele>
        <time>2012-10-14T13:03:27.048Z</time>
      </trkpt>
      <trkpt lat="43.38558" lon="6.70692">
        <ele>101.538</ele>
        <time>2012-10-14T13:03:27.148Z</time>
      </trkpt>
      <trkpt lat="43.38574" lon="6.70716">
        <ele>101.409</ele>
        <time>2012-10-14T13:03:51.776Z</time>
      </trkpt>
      <trkpt lat="43.38584" lon="6.70721">
        <ele>101.465</ele>
        <time>2012-10-14T13:04:00.183Z</time>
      </trkpt>
      <trkpt lat="43.38593" lon="6.70727">
        <ele>101.701</ele>
        <time>2012-10-14T13:04:08.054Z</time>
      </trkpt>
      <trkpt lat="43.38603" lon="6.70729">
        <ele>102.624</ele>
        <time>2012-10-14T13:04:16.107Z</time>
      </trkpt>
      <trkpt lat="43.38612" lon="6.7073">
        <ele>104.713</ele>
        <time>2012-10-14T13:04:21.648Z</time>
      </trkpt>
      <trkpt lat="43.38622" lon="6.70731">
        <ele>107.204</ele>
        <time>2012-10-14T13:04:25.107Z</time>
      </trkpt>
      <trkpt lat="43.38633" lon="6.70735">
        <ele>108.83</ele>
        <time>2012-10-14T13:04:28.649Z</time>
      </trkpt>
      <trkpt lat="43.38645" lon="6.70736">
        <ele>109.344</ele>
        <time>2012-10-14T13:04:32.196Z</time>
      </trkpt>
      <trkpt lat="43.38652" lon="6.70726">
        <ele>109.03</ele>
        <time>2012-10-14T13:04:35.377Z</time>
      </trkpt>
      <trkpt lat="43.38661" lon="6.70721">
        <ele>108.134</ele>
        <time>2012-10-14T13:04:38.410Z</time>
      </trkpt>
      <trkpt lat="43.3867" lon="6.70726">
        <ele>106.704</ele>
        <time>2012-10-14T13:04:41.048Z</time>
      </trkpt>
      <trkpt lat="43.38681" lon="6.70726">
        <ele>104.72</ele>
        <time>2012-10-14T13:04:43.296Z</time>
      </trkpt>
      <trkpt lat="43.38689" lon="6.70721">
        <ele>102.257</ele>
        <time>2012-10-14T13:04:45.053Z</time>
      </trkpt>
      <trkpt lat="43.38689" lon="6.70721">
        <ele>99.84</ele>
        <time>2012-10-14T13:04:52.048Z</time>
      </trkpt>
      <trkpt lat="43.38689" lon="6.70721">
        <ele>98.253</ele>
        <time>2012-10-14T13:04:52.148Z</time>
      </trkpt>
      <trkpt lat="43.38715" lon="6.7072">
        <ele>97.749</ele>
        <time>2012-10-14T13:05:14.050Z</time>
      </trkpt>
      <trkpt lat="43.38715" lon="6.7072">
        <ele>97.822</ele>
        <time>2012-10-14T13:05:22.077Z</time>
      </trkpt>
      <trkpt lat="43.38715" lon="6.7072">
        <ele>97.995</ele>
        <time>2012-10-14T13:05:22.177Z</time>
      </trkpt>
      <trkpt lat="43.38736" lon="6.7072">
        <ele>98.3</ele>
        <time>2012-10-14T13:05:33.962Z</time>
      </trkpt>
      <trkpt lat="43.38746" lon="6.70715">
        <ele>99.238</ele>
        <time>2012-10-14T13:05:37.284Z</time>
      </trkpt>
      <trkpt lat="43.38756" lon="6.70706">
        <ele>100.983</ele>
        <time>2012-10-14T13:05:40.448Z</time>
      </trkpt>
      <trkpt lat="43.38765" lon="6.70699">
        <ele>103.028</ele>
        <time>2012-10-14T13:05:43.045Z</time>
      </trkpt>
      <trkpt lat="43.38773" lon="6.70693">
        <ele>104.658</ele>
        <time>2012-10-14T13:05:45.025Z</time>
      </trkpt>
      <trkpt lat="43.38785" lon="6.70687">
        <ele>105.476</ele>
        <time>2012-10-14T13:05:47.657Z</time>
      </trkpt>
      <trkpt lat="43.38797" lon="6.7068">
        <ele>105.626</ele>
        <time>2012-10-14T13:05:49.970Z</time>
      </trkpt>
      <trkpt lat="43.38806" lon="6.70675">
        <ele>104.908</ele>
        <time>2012-10-14T13:05:51.699Z</time>
      </trkpt>
      <trkpt lat="43.38824" lon="6.70667">
        <ele>103.083</ele>
        <time>2012-10-14T13:05:55.377Z</time>
      </trkpt>
      <trkpt lat="43.38837" lon="6.70663">
        <ele>100.986</ele>
        <time>2012-10-14T13:05:58.271Z</time>
      </trkpt>
      <trkpt lat="43.38848" lon="6.70656">
        <ele>99.514</ele>
        <time>2012-10-14T13:06:00.590Z</time>
      </trkpt>
      <trkpt lat="43.38862" lon="6.70648">
        <ele>98.363</ele>
        <time>2012-10-14T13:06:03.114Z</time>
      </trkpt>
      <trkpt lat="43.38874" lon="6.70632">
        <ele>96.779</ele>
        <time>2012-10-14T13:06:06.739Z</time>
      </trkpt>
      <trkpt lat="43.3888" lon="6.70621">
        <ele>94.717</ele>
        <time>2012-10-14T13:06:10.929Z</time>
      </trkpt>
      <trkpt lat="43.38886" lon="6.70611">
        <ele>92.998</ele>
        <time>2012-10-14T13:06:17.049Z</time>
      </trkpt>
      <trkpt lat="43.38886" lon="6.70611">
        <ele>92.183</ele>
        <time>2012-10-14T13:06:19.050Z</time>
      </trkpt>
      <trkpt lat="43.38886" lon="6.70611">
        <ele>92.016</ele>
        <time>2012-10-14T13:06:23.550Z</time>
      </trkpt>
      <trkpt lat="43.38905" lon="6.70599">
        <ele>92.086</ele>
        <time>2012-10-14T13:06:51.010Z</time>
      </trkpt>
      <trkpt lat="43.38914" lon="6.70595">
        <ele>92.293</ele>
        <time>2012-10-14T13:06:58.201Z</time>
      </trkpt>
      <trkpt lat="43.38923" lon="6.70588">
        <ele>93.065</ele>
        <time>2012-10-14T13:07:02.440Z</time>
      </trkpt>
      <trkpt lat="43.38931" lon="6.70578">
        <ele>94.877</ele>
        <time>2012-10-14T13:07:05.773Z</time>
      </trkpt>
      <trkpt lat="43.38939" lon="6.7057">
        <ele>97.155</ele>
        <time>2012-10-14T13:07:09.038Z</time>
      </trkpt>
      <trkpt lat="43.38948" lon="6.70562">
        <ele>98.714</ele>
        <time>2012-10-14T13:07:12.834Z</time>
      </trkpt>
      <trkpt lat="43.38958" lon="6.70564">
        <ele>99.238</ele>
        <time>2012-10-14T13:07:16.557Z</time>
      </trkpt>
      <trkpt lat="43.38966" lon="6.70575">
        <ele>98.743</ele>
        <time>2012-10-14T13:07:20.447Z</time>
      </trkpt>
      <trkpt lat="43.38975" lon="6.70582">
        <ele>97.164</ele>
        <time>2012-10-14T13:07:24.614Z</time>
      </trkpt>
      <trkpt lat="43.38982" lon="6.70573">
        <ele>95.17</ele>
        <time>2012-10-14T13:07:28.633Z</time>
      </trkpt>
      <trkpt lat="43.38983" lon="6.70558">
        <ele>93.272</ele>
        <time>2012-10-14T13:07:33.256Z</time>
      </trkpt>
      <trkpt lat="43.38989" lon="6.70547">
        <ele>91.057</ele>
        <time>2012-10-14T13:07:37.043Z</time>
      </trkpt>
      <trkpt lat="43.38998" lon="6.70537">
        <ele>88.695</ele>
        <time>2012-10-14T13:07:41.191Z</time>
      </trkpt>
      <trkpt lat="43.39005" lon="6.7053">
        <ele>86.883</ele>
        <time>2012-10-14T13:07:44.930Z</time>
      </trkpt>
      <trkpt lat="43.39014" lon="6.7053">
        <ele>85.588</ele>
        <time>2012-10-14T13:07:49.039Z</time>
      </trkpt>
      <trkpt lat="43.39025" lon="6.70529">
        <ele>84.282</ele>
        <time>2012-10-14T13:07:54.271Z</time>
      </trkpt>
      <trkpt lat="43.39028" lon="6.70515">
        <ele>82.605</ele>
        <time>2012-10-14T13:08:00.099Z</time>
      </trkpt>
      <trkpt lat="43.39038" lon="6.70513">
        <ele>80.071</ele>
        <time>2012-10-14T13:08:06.749Z</time>
      </trkpt>
      <trkpt lat="43.39048" lon="6.70518">
        <ele>76.679</ele>
        <time>2012-10-14T13:08:11.944Z</time>
      </trkpt>
      <trkpt lat="43.39054" lon="6.70532">
        <ele>73.259</ele>
        <time>2012-10-14T13:08:15.985Z</time>
      </trkpt>
      <trkpt lat="43.39055" lon="6.70549">
        <ele>70.49</ele>
        <time>2012-10-14T13:08:19.151Z</time>
      </trkpt>
      <trkpt lat="43.3906" lon="6.70571">
        <ele>68.055</ele>
        <time>2012-10-14T13:08:22.675Z</time>
      </trkpt>
      <trkpt lat="43.39071" lon="6.70588">
        <ele>65.788</ele>
        <time>2012-10-14T13:08:25.823Z</time>
      </trkpt>
      <trkpt lat="43.39079" lon="6.70597">
        <ele>64.036</ele>
        <time>2012-10-14T13:08:27.717Z</time>
      </trkpt>
      <trkpt lat="43.39088" lon="6.70605">
        <ele>62.912</ele>
        <time>2012-10-14T13:08:30.017Z</time>
      </trkpt>
      <trkpt lat="43.39097" lon="6.70608">
        <ele>62.125</ele>
        <time>2012-10-14T13:08:32.324Z</time>
      </trkpt>
      <trkpt lat="43.39108" lon="6.70611">
        <ele>61.617</ele>
        <time>2012-10-14T13:08:35.354Z</time>
      </trkpt>
      <trkpt lat="43.3912" lon="6.70619">
        <ele>61.389</ele>
        <time>2012-10-14T13:08:38.579Z</time>
      </trkpt>
      <trkpt lat="43.39127" lon="6.70634">
        <ele>61.274</ele>
        <time>2012-10-14T13:08:41.568Z</time>
      </trkpt>
      <trkpt lat="43.39132" lon="6.70649">
        <ele>60.965</ele>
        <time>2012-10-14T13:08:43.827Z</time>
      </trkpt>
      <trkpt lat="43.39147" lon="6.7066">
        <ele>60.271</ele>
        <time>2012-10-14T13:08:46.645Z</time>
      </trkpt>
      <trkpt lat="43.3916" lon="6.70667">
        <ele>59.242</ele>
        <time>2012-10-14T13:08:48.797Z</time>
      </trkpt>
      <trkpt lat="43.39176" lon="6.70672">
        <ele>57.987</ele>
        <time>2012-10-14T13:08:51.487Z</time>
      </trkpt>
      <trkpt lat="43.39191" lon="6.70677">
        <ele>56.663</ele>
        <time>2012-10-14T13:08:54.302Z</time>
      </trkpt>
      <trkpt lat="43.39201" lon="6.70679">
        <ele>55.539</ele>
        <time>2012-10-14T13:08:56.200Z</time>
      </trkpt>
      <trkpt lat="43.39214" lon="6.70681">
        <ele>54.778</ele>
        <time>2012-10-14T13:08:59.812Z</time>
      </trkpt>
      <trkpt lat="43.39223" lon="6.70685">
        <ele>54.126</ele>
        <time>2012-10-14T13:09:03.343Z</time>
      </trkpt>
      <trkpt lat="43.39232" lon="6.70692">
        <ele>53.342</ele>
        <time>2012-10-14T13:09:09.404Z</time>
      </trkpt>
      <trkpt lat="43.39241" lon="6.70697">
        <ele>52.554</ele>
        <time>2012-10-14T13:09:15.052Z</time>
      </trkpt>
      <trkpt lat="43.39241" lon="6.70697">
        <ele>52.08</ele>
        <time>2012-10-14T13:09:21.064Z</time>
      </trkpt>
      <trkpt lat="43.39241" lon="6.70697">
        <ele>51.993</ele>
        <time>2012-10-14T13:09:21.164Z</time>
      </trkpt>
      <trkpt lat="43.39264" lon="6.707">
        <ele>52.081</ele>
        <time>2012-10-14T13:09:42.243Z</time>
      </trkpt>
      <trkpt lat="43.39264" lon="6.70686">
        <ele>51.995</ele>
        <time>2012-10-14T13:09:47.153Z</time>
      </trkpt>
      <trkpt lat="43.39258" lon="6.70676">
        <ele>51.133</ele>
        <time>2012-10-14T13:09:52.048Z</time>
      </trkpt>
      <trkpt lat="43.39258" lon="6.70676">
        <ele>49.414</ele>
        <time>2012-10-14T13:10:01.053Z</time>
      </trkpt>
      <trkpt lat="43.39258" lon="6.70676">
        <ele>48.112</ele>
        <time>2012-10-14T13:10:01.153Z</time>
      </trkpt>
      <trkpt lat="43.39271" lon="6.70657">
        <ele>47.3</ele>
        <time>2012-10-14T13:10:30.984Z</time>
      </trkpt>
      <trkpt lat="43.39283" lon="6.70659">
        <ele>45.643</ele>
        <time>2012-10-14T13:10:40.048Z</time>
      </trkpt>
      <trkpt lat="43.39283" lon="6.70659">
        <ele>43.669</ele>
        <time>2012-10-14T13:10:48.067Z</time>
      </trkpt>
      <trkpt lat="43.39283" lon="6.70659">
        <ele>42.823</ele>
        <time>2012-10-14T13:10:56.778Z</time>
      </trkpt>
      <trkpt lat="43.39301" lon="6.70653">
        <ele>43.016</ele>
        <time>2012-10-14T13:11:23.328Z</time>
      </trkpt>
      <trkpt lat="43.39313" lon="6.70656">
        <ele>43.527</ele>
        <time>2012-10-14T13:11:35.407Z</time>
      </trkpt>
      <trkpt lat="43.39323" lon="6.70656">
        <ele>43.905</ele>
        <time>2012-10-14T13:11:45.457Z</time>
      </trkpt>
      <trkpt lat="43.39332" lon="6.70657">
        <ele>44.256</ele>
        <time>2012-10-14T13:11:53.813Z</time>
      </trkpt>
      <trkpt lat="43.39341" lon="6.70655">
        <ele>44.82</ele>
        <time>2012-10-14T13:12:00.794Z</time>
      </trkpt>
      <trkpt lat="43.39351" lon="6.70654">
        <ele>45.511</ele>
        <time>2012-10-14T13:12:08.197Z</time>
      </trkpt>
      <trkpt lat="43.39363" lon="6.70653">
        <ele>46.646</ele>
        <time>2012-10-14T13:12:15.178Z</time>
      </trkpt>
      <trkpt lat="43.39375" lon="6.70659">
        <ele>48.394</ele>
        <time>2012-10-14T13:12:19.293Z</time>
      </trkpt>
      <trkpt lat="43.39385" lon="6.70664">
        <ele>49.988</ele>
        <time>2012-10-14T13:12:22.558Z</time>
      </trkpt>
      <trkpt lat="43.39395" lon="6.70667">
        <ele>50.884</ele>
        <time>2012-10-14T13:12:25.649Z</time>
      </trkpt>
      <trkpt lat="43.39404" lon="6.70674">
        <ele>51.277</ele>
        <time>2012-10-14T13:12:29.520Z</time>
      </trkpt>
      <trkpt lat="43.39413" lon="6.70681">
        <ele>51.46</ele>
        <time>2012-10-14T13:12:34.075Z</time>
      </trkpt>
      <trkpt lat="43.39422" lon="6.70679">
        <ele>51.923</ele>
        <time>2012-10-14T13:12:37.947Z</time>
      </trkpt>
      <trkpt lat="43.39431" lon="6.7068">
        <ele>52.908</ele>
        <time>2012-10-14T13:12:41.838Z</time>
      </trkpt>
      <trkpt lat="43.39442" lon="6.70681">
        <ele>54.075</ele>
        <time>2012-10-14T13:12:46.473Z</time>
      </trkpt>
      <trkpt lat="43.39451" lon="6.70682">
        <ele>55.169</ele>
        <time>2012-10-14T13:12:51.238Z</time>
      </trkpt>
      <trkpt lat="43.39461" lon="6.70677">
        <ele>56.159</ele>
        <time>2012-10-14T13:12:56.158Z</time>
      </trkpt>
      <trkpt lat="43.39466" lon="6.70667">
        <ele>56.963</ele>
        <time>2012-10-14T13:13:01.246Z</time>
      </trkpt>
      <trkpt lat="43.39476" lon="6.70664">
        <ele>57.905</ele>
        <time>2012-10-14T13:13:06.403Z</time>
      </trkpt>
      <trkpt lat="43.39486" lon="6.70662">
        <ele>59.148</ele>
        <time>2012-10-14T13:13:11.637Z</time>
      </trkpt>
      <trkpt lat="43.39495" lon="6.70657">
        <ele>60.146</ele>
        <time>2012-10-14T13:13:16.306Z</time>
      </trkpt>
      <trkpt lat="43.39494" lon="6.70645">
        <ele>60.541</ele>
        <time>2012-10-14T13:13:20.538Z</time>
      </trkpt>
      <trkpt lat="43.39498" lon="6.70632">
        <ele>60.552</ele>
        <time>2012-10-14T13:13:25.600Z</time>
      </trkpt>
      <trkpt lat="43.39504" lon="6.70623">
        <ele>60.447</ele>
        <time>2012-10-14T13:13:30.823Z</time>
      </trkpt>
      <trkpt lat="43.39511" lon="6.7061">
        <ele>60.52</ele>
        <time>2012-10-14T13:13:36.682Z</time>
      </trkpt>
      <trkpt lat="43.39519" lon="6.706">
        <ele>60.888</ele>
        <time>2012-10-14T13:13:42.367Z</time>
      </trkpt>
      <trkpt lat="43.3953" lon="6.70596">
        <ele>61.394</ele>
        <time>2012-10-14T13:13:47.087Z</time>
      </trkpt>
      <trkpt lat="43.39539" lon="6.70596">
        <ele>61.939</ele>
        <time>2012-10-14T13:13:50.861Z</time>
      </trkpt>
      <trkpt lat="43.39543" lon="6.70607">
        <ele>62.463</ele>
        <time>2012-10-14T13:13:54.465Z</time>
      </trkpt>
      <trkpt lat="43.39545" lon="6.70622">
        <ele>62.789</ele>
        <time>2012-10-14T13:13:58.924Z</time>
      </trkpt>
      <trkpt lat="43.39552" lon="6.70632">
        <ele>62.884</ele>
        <time>2012-10-14T13:14:03.490Z</time>
      </trkpt>
      <trkpt lat="43.39563" lon="6.70626">
        <ele>62.48</ele>
        <time>2012-10-14T13:14:09.835Z</time>
      </trkpt>
      <trkpt lat="43.39571" lon="6.70612">
        <ele>61.032</ele>
        <time>2012-10-14T13:14:17.176Z</time>
      </trkpt>
      <trkpt lat="43.39575" lon="6.70601">
        <ele>58.628</ele>
        <time>2012-10-14T13:14:22.349Z</time>
      </trkpt>
      <trkpt lat="43.39584" lon="6.70597">
        <ele>56.286</ele>
        <time>2012-10-14T13:14:26.671Z</time>
      </trkpt>
      <trkpt lat="43.39592" lon="6.70605">
        <ele>54.919</ele>
        <time>2012-10-14T13:14:30.522Z</time>
      </trkpt>
      <trkpt lat="43.39598" lon="6.70616">
        <ele>54.472</ele>
        <time>2012-10-14T13:14:34.671Z</time>
      </trkpt>
      <trkpt lat="43.39602" lon="6.7063">
        <ele>54.098</ele>
        <time>2012-10-14T13:14:40.239Z</time>
      </trkpt>
      <trkpt lat="43.39605" lon="6.70643">
        <ele>53.631</ele>
        <time>2012-10-14T13:14:47.542Z</time>
      </trkpt>
      <trkpt lat="43.39606" lon="6.70657">
        <ele>53.643</ele>
        <time>2012-10-14T13:14:57.315Z</time>
      </trkpt>
      <trkpt lat="43.39608" lon="6.7067">
        <ele>54.193</ele>
        <time>2012-10-14T13:15:05.001Z</time>
      </trkpt>
      <trkpt lat="43.39612" lon="6.70682">
        <ele>54.791</ele>
        <time>2012-10-14T13:15:11.014Z</time>
      </trkpt>
      <trkpt lat="43.39622" lon="6.7068">
        <ele>55.188</ele>
        <time>2012-10-14T13:15:16.584Z</time>
      </trkpt>
      <trkpt lat="43.39632" lon="6.70678">
        <ele>55.45</ele>
        <time>2012-10-14T13:15:22.416Z</time>
      </trkpt>
      <trkpt lat="43.39641" lon="6.70674">
        <ele>55.87</ele>
        <time>2012-10-14T13:15:28.116Z</time>
      </trkpt>
      <trkpt lat="43.39649" lon="6.7067">
        <ele>56.673</ele>
        <time>2012-10-14T13:15:33.717Z</time>
      </trkpt>
      <trkpt lat="43.39659" lon="6.70667">
        <ele>58.004</ele>
        <time>2012-10-14T13:15:39.511Z</time>
      </trkpt>
      <trkpt lat="43.39667" lon="6.70657">
        <ele>59.641</ele>
        <time>2012-10-14T13:15:45.653Z</time>
      </trkpt>
      <trkpt lat="43.39676" lon="6.7065">
        <ele>61.008</ele>
        <time>2012-10-14T13:15:52.073Z</time>
      </trkpt>
      <trkpt lat="43.39685" lon="6.70646">
        <ele>61.815</ele>
        <time>2012-10-14T13:15:57.708Z</time>
      </trkpt>
      <trkpt lat="43.39697" lon="6.70642">
        <ele>62.199</ele>
        <time>2012-10-14T13:16:04.901Z</time>
      </trkpt>
      <trkpt lat="43.39707" lon="6.7064">
        <ele>62.682</ele>
        <time>2012-10-14T13:16:10.917Z</time>
      </trkpt>
      <trkpt lat="43.39718" lon="6.70639">
        <ele>63.659</ele>
        <time>2012-10-14T13:16:15.931Z</time>
      </trkpt>
      <trkpt lat="43.39729" lon="6.70648">
        <ele>64.81</ele>
        <time>2012-10-14T13:16:20.597Z</time>
      </trkpt>
      <trkpt lat="43.39738" lon="6.70651">
        <ele>65.71</ele>
        <time>2012-10-14T13:16:23.736Z</time>
      </trkpt>
      <trkpt lat="43.39745" lon="6.7064">
        <ele>66.22</ele>
        <time>2012-10-14T13:16:27.089Z</time>
      </trkpt>
      <trkpt lat="43.3975" lon="6.70629">
        <ele>66.131</ele>
        <time>2012-10-14T13:16:30.215Z</time>
      </trkpt>
      <trkpt lat="43.39757" lon="6.70613">
        <ele>65.559</ele>
        <time>2012-10-14T13:16:34.224Z</time>
      </trkpt>
      <trkpt lat="43.39765" lon="6.70601">
        <ele>64.897</ele>
        <time>2012-10-14T13:16:37.409Z</time>
      </trkpt>
      <trkpt lat="43.3977" lon="6.70587">
        <ele>64.331</ele>
        <time>2012-10-14T13:16:40.276Z</time>
      </trkpt>
      <trkpt lat="43.39773" lon="6.70571">
        <ele>63.897</ele>
        <time>2012-10-14T13:16:43.206Z</time>
      </trkpt>
      <trkpt lat="43.39783" lon="6.70562">
        <ele>63.658</ele>
        <time>2012-10-14T13:16:46.257Z</time>
      </trkpt>
      <trkpt lat="43.39792" lon="6.70553">
        <ele>63.458</ele>
        <time>2012-10-14T13:16:49.211Z</time>
      </trkpt>
      <trkpt lat="43.39798" lon="6.70542">
        <ele>63.138</ele>
        <time>2012-10-14T13:16:51.713Z</time>
      </trkpt>
      <trkpt lat="43.39803" lon="6.70529">
        <ele>62.955</ele>
        <time>2012-10-14T13:16:54.502Z</time>
      </trkpt>
      <trkpt lat="43.39807" lon="6.70512">
        <ele>63.145</ele>
        <time>2012-10-14T13:16:58.001Z</time>
      </trkpt>
      <trkpt lat="43.39816" lon="6.70505">
        <ele>63.49</ele>
        <time>2012-10-14T13:17:00.801Z</time>
      </trkpt>
      <trkpt lat="43.39823" lon="6.70492">
        <ele>63.792</ele>
        <time>2012-10-14T13:17:04.033Z</time>
      </trkpt>
      <trkpt lat="43.39827" lon="6.7048">
        <ele>64.05</ele>
        <time>2012-10-14T13:17:06.667Z</time>
      </trkpt>
      <trkpt lat="43.39836" lon="6.70477">
        <ele>64.313</ele>
        <time>2012-10-14T13:17:09.284Z</time>
      </trkpt>
      <trkpt lat="43.39842" lon="6.70487">
        <ele>64.678</ele>
        <time>2012-10-14T13:17:12.201Z</time>
      </trkpt>
      <trkpt lat="43.39846" lon="6.70499">
        <ele>65.081</ele>
        <time>2012-10-14T13:17:15.946Z</time>
      </trkpt>
      <trkpt lat="43.39853" lon="6.70507">
        <ele>65.353</ele>
        <time>2012-10-14T13:17:19.856Z</time>
      </trkpt>
      <trkpt lat="43.39859" lon="6.70519">
        <ele>65.473</ele>
        <time>2012-10-14T13:17:25.760Z</time>
      </trkpt>
      <trkpt lat="43.39862" lon="6.70531">
        <ele>65.982</ele>
        <time>2012-10-14T13:17:34.275Z</time>
      </trkpt>
      <trkpt lat="43.39867" lon="6.70543">
        <ele>67.219</ele>
        <time>2012-10-14T13:17:45.009Z</time>
      </trkpt>
      <trkpt lat="43.39873" lon="6.70557">
        <ele>68.484</ele>
        <time>2012-10-14T13:17:54.366Z</time>
      </trkpt>
      <trkpt lat="43.39883" lon="6.70569">
        <ele>69.025</ele>
        <time>2012-10-14T13:17:59.725Z</time>
      </trkpt>
      <trkpt lat="43.39892" lon="6.70581">
        <ele>69.023</ele>
        <time>2012-10-14T13:18:03.636Z</time>
      </trkpt>
      <trkpt lat="43.39905" lon="6.70586">
        <ele>68.859</ele>
        <time>2012-10-14T13:18:07.366Z</time>
      </trkpt>
      <trkpt lat="43.39918" lon="6.70588">
        <ele>68.578</ele>
        <time>2012-10-14T13:18:10.870Z</time>
      </trkpt>
      <trkpt lat="43.39928" lon="6.70584">
        <ele>68.156</ele>
        <time>2012-10-14T13:18:13.733Z</time>
      </trkpt>
      <trkpt lat="43.39937" lon="6.70575">
        <ele>67.876</ele>
        <time>2012-10-14T13:18:16.773Z</time>
      </trkpt>
      <trkpt lat="43.39945" lon="6.70567">
        <ele>67.951</ele>
        <time>2012-10-14T13:18:19.723Z</time>
      </trkpt>
      <trkpt lat="43.39954" lon="6.70558">
        <ele>68.275</ele>
        <time>2012-10-14T13:18:22.999Z</time>
      </trkpt>
      <trkpt lat="43.39963" lon="6.70555">
        <ele>68.621</ele>
        <time>2012-10-14T13:18:26.000Z</time>
      </trkpt>
      <trkpt lat="43.39972" lon="6.70549">
        <ele>68.964</ele>
        <time>2012-10-14T13:18:29.230Z</time>
      </trkpt>
      <trkpt lat="43.39981" lon="6.70541">
        <ele>69.432</ele>
        <time>2012-10-14T13:18:33.224Z</time>
      </trkpt>
      <trkpt lat="43.39987" lon="6.70531">
        <ele>69.939</ele>
        <time>2012-10-14T13:18:36.622Z</time>
      </trkpt>
      <trkpt lat="43.39986" lon="6.70518">
        <ele>70.278</ele>
        <time>2012-10-14T13:18:40.065Z</time>
      </trkpt>
      <trkpt lat="43.39984" lon="6.70504">
        <ele>70.448</ele>
        <time>2012-10-14T13:18:43.628Z</time>
      </trkpt>
      <trkpt lat="43.39988" lon="6.7049">
        <ele>70.582</ele>
        <time>2012-10-14T13:18:47.318Z</time>
      </trkpt>
      <trkpt lat="43.39992" lon="6.70478">
        <ele>70.742</ele>
        <time>2012-10-14T13:18:50.264Z</time>
      </trkpt>
      <trkpt lat="43.39995" lon="6.70463">
        <ele>70.845</ele>
        <time>2012-10-14T13:18:53.785Z</time>
      </trkpt>
      <trkpt lat="43.40001" lon="6.7045">
        <ele>70.787</ele>
        <time>2012-10-14T13:18:57.422Z</time>
      </trkpt>
      <trkpt lat="43.40002" lon="6.70435">
        <ele>70.618</ele>
        <time>2012-10-14T13:19:00.861Z</time>
      </trkpt>
      <trkpt lat="43.40009" lon="6.70424">
        <ele>70.42</ele>
        <time>2012-10-14T13:19:04.039Z</time>
      </trkpt>
      <trkpt lat="43.4002" lon="6.70423">
        <ele>70.226</ele>
        <time>2012-10-14T13:19:07.512Z</time>
      </trkpt>
      <trkpt lat="43.40031" lon="6.70424">
        <ele>70.084</ele>
        <time>2012-10-14T13:19:11.056Z</time>
      </trkpt>
      <trkpt lat="43.40031" lon="6.70424">
        <ele>70.025</ele>
        <time>2012-10-14T13:19:26.053Z</time>
      </trkpt>
      <trkpt lat="43.40031" lon="6.70424">
        <ele>69.997</ele>
        <time>2012-10-14T13:19:26.153Z</time>
      </trkpt>
      <trkpt lat="43.40055" lon="6.70417">
        <ele>69.977</ele>
        <time>2012-10-14T13:19:55.767Z</time>
      </trkpt>
      <trkpt lat="43.40064" lon="6.70414">
        <ele>69.978</ele>
        <time>2012-10-14T13:19:59.671Z</time>
      </trkpt>
      <trkpt lat="43.40074" lon="6.70421">
        <ele>70.036</ele>
        <time>2012-10-14T13:20:03.832Z</time>
      </trkpt>
      <trkpt lat="43.40079" lon="6.70438">
        <ele>70.117</ele>
        <time>2012-10-14T13:20:08.741Z</time>
      </trkpt>
      <trkpt lat="43.40085" lon="6.70451">
        <ele>70.115</ele>
        <time>2012-10-14T13:20:12.695Z</time>
      </trkpt>
      <trkpt lat="43.40087" lon="6.70466">
        <ele>70.003</ele>
        <time>2012-10-14T13:20:16.238Z</time>
      </trkpt>
      <trkpt lat="43.40097" lon="6.70467">
        <ele>69.177</ele>
        <time>2012-10-14T13:20:19.398Z</time>
      </trkpt>
      <trkpt lat="43.40103" lon="6.70478">
        <ele>67.301</ele>
        <time>2012-10-14T13:20:22.186Z</time>
      </trkpt>
      <trkpt lat="43.40105" lon="6.70491">
        <ele>65.447</ele>
        <time>2012-10-14T13:20:25.379Z</time>
      </trkpt>
      <trkpt lat="43.4011" lon="6.70504">
        <ele>64.587</ele>
        <time>2012-10-14T13:20:28.695Z</time>
      </trkpt>
      <trkpt lat="43.40114" lon="6.70516">
        <ele>64.726</ele>
        <time>2012-10-14T13:20:32.217Z</time>
      </trkpt>
      <trkpt lat="43.40116" lon="6.70535">
        <ele>65.551</ele>
        <time>2012-10-14T13:20:36.838Z</time>
      </trkpt>
      <trkpt lat="43.40125" lon="6.70542">
        <ele>66.471</ele>
        <time>2012-10-14T13:20:40.423Z</time>
      </trkpt>
      <trkpt lat="43.40134" lon="6.70549">
        <ele>67.144</ele>
        <time>2012-10-14T13:20:44.002Z</time>
      </trkpt>
      <trkpt lat="43.40137" lon="6.70561">
        <ele>67.589</ele>
        <time>2012-10-14T13:20:46.806Z</time>
      </trkpt>
      <trkpt lat="43.40142" lon="6.70573">
        <ele>67.796</ele>
        <time>2012-10-14T13:20:49.434Z</time>
      </trkpt>
      <trkpt lat="43.40151" lon="6.70585">
        <ele>67.579</ele>
        <time>2012-10-14T13:20:52.281Z</time>
      </trkpt>
      <trkpt lat="43.40159" lon="6.706">
        <ele>66.888</ele>
        <time>2012-10-14T13:20:55.185Z</time>
      </trkpt>
      <trkpt lat="43.40166" lon="6.70621">
        <ele>65.993</ele>
        <time>2012-10-14T13:20:59.040Z</time>
      </trkpt>
      <trkpt lat="43.40172" lon="6.70634">
        <ele>64.882</ele>
        <time>2012-10-14T13:21:01.425Z</time>
      </trkpt>
      <trkpt lat="43.40181" lon="6.70645">
        <ele>63.517</ele>
        <time>2012-10-14T13:21:04.347Z</time>
      </trkpt>
      <trkpt lat="43.40184" lon="6.7066">
        <ele>62.211</ele>
        <time>2012-10-14T13:21:06.870Z</time>
      </trkpt>
      <trkpt lat="43.40191" lon="6.70672">
        <ele>61.067</ele>
        <time>2012-10-14T13:21:09.892Z</time>
      </trkpt>
      <trkpt lat="43.40199" lon="6.70687">
        <ele>60.073</ele>
        <time>2012-10-14T13:21:13.182Z</time>
      </trkpt>
      <trkpt lat="43.40202" lon="6.70699">
        <ele>59.218</ele>
        <time>2012-10-14T13:21:15.421Z</time>
      </trkpt>
      <trkpt lat="43.4021" lon="6.70707">
        <ele>58.446</ele>
        <time>2012-10-14T13:21:17.392Z</time>
      </trkpt>
      <trkpt lat="43.40212" lon="6.7072">
        <ele>57.81</ele>
        <time>2012-10-14T13:21:19.415Z</time>
      </trkpt>
      <trkpt lat="43.4021" lon="6.70738">
        <ele>57.24</ele>
        <time>2012-10-14T13:21:22.088Z</time>
      </trkpt>
      <trkpt lat="43.40209" lon="6.70752">
        <ele>56.268</ele>
        <time>2012-10-14T13:21:23.949Z</time>
      </trkpt>
      <trkpt lat="43.40206" lon="6.70777">
        <ele>54.732</ele>
        <time>2012-10-14T13:21:27.164Z</time>
      </trkpt>
      <trkpt lat="43.40201" lon="6.70799">
        <ele>53.177</ele>
        <time>2012-10-14T13:21:30.111Z</time>
      </trkpt>
      <trkpt lat="43.40191" lon="6.70819">
        <ele>51.959</ele>
        <time>2012-10-14T13:21:33.315Z</time>
      </trkpt>
      <trkpt lat="43.40179" lon="6.70837">
        <ele>50.76</ele>
        <time>2012-10-14T13:21:36.488Z</time>
      </trkpt>
      <trkpt lat="43.40167" lon="6.7085">
        <ele>49.506</ele>
        <time>2012-10-14T13:21:39.250Z</time>
      </trkpt>
      <trkpt lat="43.40159" lon="6.70866">
        <ele>48.365</ele>
        <time>2012-10-14T13:21:42.048Z</time>
      </trkpt>
      <trkpt lat="43.40153" lon="6.70878">
        <ele>47.035</ele>
        <time>2012-10-14T13:21:44.169Z</time>
      </trkpt>
      <trkpt lat="43.40148" lon="6.70891">
        <ele>45.386</ele>
        <time>2012-10-14T13:21:46.449Z</time>
      </trkpt>
      <trkpt lat="43.40146" lon="6.70907">
        <ele>43.609</ele>
        <time>2012-10-14T13:21:49.241Z</time>
      </trkpt>
      <trkpt lat="43.40143" lon="6.70922">
        <ele>41.856</ele>
        <time>2012-10-14T13:21:52.244Z</time>
      </trkpt>
      <trkpt lat="43.4014" lon="6.70936">
        <ele>40.18</ele>
        <time>2012-10-14T13:21:55.384Z</time>
      </trkpt>
      <trkpt lat="43.40138" lon="6.7095">
        <ele>38.529</ele>
        <time>2012-10-14T13:21:58.196Z</time>
      </trkpt>
      <trkpt lat="43.40135" lon="6.70964">
        <ele>37.042</ele>
        <time>2012-10-14T13:22:01.153Z</time>
      </trkpt>
      <trkpt lat="43.40135" lon="6.70977">
        <ele>35.979</ele>
        <time>2012-10-14T13:22:03.622Z</time>
      </trkpt>
      <trkpt lat="43.40134" lon="6.70993">
        <ele>34.593</ele>
        <time>2012-10-14T13:22:06.789Z</time>
      </trkpt>
      <trkpt lat="43.40135" lon="6.71011">
        <ele>32.337</ele>
        <time>2012-10-14T13:22:10.115Z</time>
      </trkpt>
      <trkpt lat="43.40136" lon="6.71026">
        <ele>30.017</ele>
        <time>2012-10-14T13:22:13.118Z</time>
      </trkpt>
      <trkpt lat="43.40137" lon="6.71041">
        <ele>28.166</ele>
        <time>2012-10-14T13:22:15.873Z</time>
      </trkpt>
      <trkpt lat="43.4014" lon="6.71055">
        <ele>25.925</ele>
        <time>2012-10-14T13:22:18.227Z</time>
      </trkpt>
      <trkpt lat="43.40141" lon="6.71067">
        <ele>23.006</ele>
        <time>2012-10-14T13:22:20.174Z</time>
      </trkpt>
      <trkpt lat="43.40142" lon="6.71092">
        <ele>20.173</ele>
        <time>2012-10-14T13:22:23.476Z</time>
      </trkpt>
      <trkpt lat="43.40142" lon="6.71108">
        <ele>18.044</ele>
        <time>2012-10-14T13:22:25.361Z</time>
      </trkpt>
      <trkpt lat="43.4014" lon="6.71137">
        <ele>16.216</ele>
        <time>2012-10-14T13:22:28.496Z</time>
      </trkpt>
      <trkpt lat="43.4014" lon="6.71165">
        <ele>14.116</ele>
        <time>2012-10-14T13:22:31.240Z</time>
      </trkpt>
      <trkpt lat="43.40144" lon="6.71188">
        <ele>11.962</ele>
        <time>2012-10-14T13:22:33.665Z</time>
      </trkpt>
      <trkpt lat="43.40146" lon="6.71217">
        <ele>10.038</ele>
        <time>2012-10-14T13:22:36.807Z</time>
      </trkpt>
      <trkpt lat="43.40147" lon="6.71242">
        <ele>8.282</ele>
        <time>2012-10-14T13:22:40.002Z</time>
      </trkpt>
      <trkpt lat="43.40139" lon="6.71263">
        <ele>7.063</ele>
        <time>2012-10-14T13:22:42.930Z</time>
      </trkpt>
      <trkpt lat="43.4013" lon="6.71272">
        <ele>6.245</ele>
        <time>2012-10-14T13:22:44.863Z</time>
      </trkpt>
      <trkpt lat="43.40122" lon="6.7128">
        <ele>5.267</ele>
        <time>2012-10-14T13:22:46.423Z</time>
      </trkpt>
      <trkpt lat="43.40106" lon="6.71293">
        <ele>4.28</ele>
        <time>2012-10-14T13:22:49.453Z</time>
      </trkpt>
      <trkpt lat="43.40092" lon="6.71303">
        <ele>3.718</ele>
        <time>2012-10-14T13:22:52.045Z</time>
      </trkpt>
      <trkpt lat="43.40082" lon="6.7131">
        <ele>3.597</ele>
        <time>2012-10-14T13:22:53.719Z</time>
      </trkpt>
      <trkpt lat="43.40072" lon="6.71318">
        <ele>3.727</ele>
        <time>2012-10-14T13:22:55.658Z</time>
      </trkpt>
      <trkpt lat="43.40057" lon="6.71331">
        <ele>3.9</ele>
        <time>2012-10-14T13:22:58.534Z</time>
      </trkpt>
      <trkpt lat="43.40048" lon="6.71341">
        <ele>3.972</ele>
        <time>2012-10-14T13:23:00.403Z</time>
      </trkpt>
      <trkpt lat="43.4004" lon="6.71354">
        <ele>3.954</ele>
        <time>2012-10-14T13:23:02.512Z</time>
      </trkpt>
      <trkpt lat="43.40032" lon="6.71373">
        <ele>3.498</ele>
        <time>2012-10-14T13:23:05.240Z</time>
      </trkpt>
      <trkpt lat="43.40026" lon="6.71385">
        <ele>2.338</ele>
        <time>2012-10-14T13:23:07.068Z</time>
      </trkpt>
      <trkpt lat="43.40018" lon="6.71404">
        <ele>1.019</ele>
        <time>2012-10-14T13:23:09.856Z</time>
      </trkpt>
      <trkpt lat="43.40013" lon="6.71415">
        <ele>0.176</ele>
        <time>2012-10-14T13:23:11.649Z</time>
      </trkpt>
      <trkpt lat="43.40007" lon="6.71427">
        <ele>1.7</ele>
        <time>2012-10-14T13:23:13.438Z</time>
      </trkpt>
      <trkpt lat="43.40001" lon="6.71438">
        <ele>2</ele>
        <time>2012-10-14T13:23:15.276Z</time>
      </trkpt>
      <trkpt lat="43.39992" lon="6.71453">
        <ele>0.231</ele>
        <time>2012-10-14T13:23:17.926Z</time>
      </trkpt>
      <trkpt lat="43.39982" lon="6.71471">
        <ele>0.544</ele>
        <time>2012-10-14T13:23:21.084Z</time>
      </trkpt>
      <trkpt lat="43.39978" lon="6.71482">
        <ele>0.712</ele>
        <time>2012-10-14T13:23:23.082Z</time>
      </trkpt>
      <trkpt lat="43.39977" lon="6.71495">
        <ele>0.761</ele>
        <time>2012-10-14T13:23:25.148Z</time>
      </trkpt>
      <trkpt lat="43.39979" lon="6.7151">
        <ele>0.75</ele>
        <time>2012-10-14T13:23:27.454Z</time>
      </trkpt>
      <trkpt lat="43.39981" lon="6.71534">
        <ele>0.727</ele>
        <time>2012-10-14T13:23:30.716Z</time>
      </trkpt>
      <trkpt lat="43.39983" lon="6.71547">
        <ele>0.696</ele>
        <time>2012-10-14T13:23:32.585Z</time>
      </trkpt>
      <trkpt lat="43.39987" lon="6.71565">
        <ele>0.615</ele>
        <time>2012-10-14T13:23:35.199Z</time>
      </trkpt>
      <trkpt lat="43.39991" lon="6.71584">
        <ele>0.489</ele>
        <time>2012-10-14T13:23:38.020Z</time>
      </trkpt>
      <trkpt lat="43.39992" lon="6.71601">
        <ele>0.418</ele>
        <time>2012-10-14T13:23:40.606Z</time>
      </trkpt>
      <trkpt lat="43.39988" lon="6.71615">
        <ele>0.456</ele>
        <time>2012-10-14T13:23:43.285Z</time>
      </trkpt>
      <trkpt lat="43.39981" lon="6.71627">
        <ele>0.455</ele>
        <time>2012-10-14T13:23:46.086Z</time>
      </trkpt>
      <trkpt lat="43.39981" lon="6.71627">
        <ele>0.293</ele>
        <time>2012-10-14T13:23:52.083Z</time>
      </trkpt>
      <trkpt lat="43.39981" lon="6.71627">
        <ele>0.131</ele>
        <time>2012-10-14T13:23:52.183Z</time>
      </trkpt>
      <trkpt lat="43.39987" lon="6.71659">
        <ele>0.153</ele>
        <time>2012-10-14T13:24:38.594Z</time>
      </trkpt>
      <trkpt lat="43.39992" lon="6.71672">
        <ele>0.297</ele>
        <time>2012-10-14T13:24:42.356Z</time>
      </trkpt>
      <trkpt lat="43.39989" lon="6.71687">
        <ele>0.422</ele>
        <time>2012-10-14T13:24:45.594Z</time>
      </trkpt>
      <trkpt lat="43.39986" lon="6.71702">
        <ele>0.748</ele>
        <time>2012-10-14T13:24:48.511Z</time>
      </trkpt>
      <trkpt lat="43.39982" lon="6.71718">
        <ele>1.465</ele>
        <time>2012-10-14T13:24:51.512Z</time>
      </trkpt>
      <trkpt lat="43.39974" lon="6.71736">
        <ele>2.345</ele>
        <time>2012-10-14T13:24:55.366Z</time>
      </trkpt>
      <trkpt lat="43.39968" lon="6.7175">
        <ele>3.104</ele>
        <time>2012-10-14T13:24:58.811Z</time>
      </trkpt>
      <trkpt lat="43.3996" lon="6.71763">
        <ele>3.587</ele>
        <time>2012-10-14T13:25:02.763Z</time>
      </trkpt>
      <trkpt lat="43.39953" lon="6.71773">
        <ele>3.731</ele>
        <time>2012-10-14T13:25:05.753Z</time>
      </trkpt>
      <trkpt lat="43.39947" lon="6.71785">
        <ele>3.689</ele>
        <time>2012-10-14T13:25:08.723Z</time>
      </trkpt>
      <trkpt lat="43.39942" lon="6.718">
        <ele>3.604</ele>
        <time>2012-10-14T13:25:11.860Z</time>
      </trkpt>
      <trkpt lat="43.39935" lon="6.71811">
        <ele>3.545</ele>
        <time>2012-10-14T13:25:14.422Z</time>
      </trkpt>
      <trkpt lat="43.39926" lon="6.7182">
        <ele>3.525</ele>
        <time>2012-10-14T13:25:16.886Z</time>
      </trkpt>
      <trkpt lat="43.39915" lon="6.71829">
        <ele>3.526</ele>
        <time>2012-10-14T13:25:19.630Z</time>
      </trkpt>
      <trkpt lat="43.39903" lon="6.71837">
        <ele>3.733</ele>
        <time>2012-10-14T13:25:22.333Z</time>
      </trkpt>
      <trkpt lat="43.39889" lon="6.71845">
        <ele>4.429</ele>
        <time>2012-10-14T13:25:25.451Z</time>
      </trkpt>
      <trkpt lat="43.39875" lon="6.71851">
        <ele>5.449</ele>
        <time>2012-10-14T13:25:28.449Z</time>
      </trkpt>
      <trkpt lat="43.39863" lon="6.71856">
        <ele>6.283</ele>
        <time>2012-10-14T13:25:31.090Z</time>
      </trkpt>
      <trkpt lat="43.39853" lon="6.71858">
        <ele>6.756</ele>
        <time>2012-10-14T13:25:33.090Z</time>
      </trkpt>
      <trkpt lat="43.39839" lon="6.71861">
        <ele>6.998</ele>
        <time>2012-10-14T13:25:35.889Z</time>
      </trkpt>
      <trkpt lat="43.39826" lon="6.71866">
        <ele>7.045</ele>
        <time>2012-10-14T13:25:38.669Z</time>
      </trkpt>
      <trkpt lat="43.39817" lon="6.71869">
        <ele>6.887</ele>
        <time>2012-10-14T13:25:40.544Z</time>
      </trkpt>
      <trkpt lat="43.39805" lon="6.71872">
        <ele>6.659</ele>
        <time>2012-10-14T13:25:43.099Z</time>
      </trkpt>
      <trkpt lat="43.39795" lon="6.71874">
        <ele>6.315</ele>
        <time>2012-10-14T13:25:45.209Z</time>
      </trkpt>
      <trkpt lat="43.39783" lon="6.71875">
        <ele>5.76</ele>
        <time>2012-10-14T13:25:47.876Z</time>
      </trkpt>
      <trkpt lat="43.39771" lon="6.71878">
        <ele>5.245</ele>
        <time>2012-10-14T13:25:50.519Z</time>
      </trkpt>
      <trkpt lat="43.39761" lon="6.7188">
        <ele>5.016</ele>
        <time>2012-10-14T13:25:52.916Z</time>
      </trkpt>
      <trkpt lat="43.3975" lon="6.71884">
        <ele>5.002</ele>
        <time>2012-10-14T13:25:55.433Z</time>
      </trkpt>
      <trkpt lat="43.39737" lon="6.71888">
        <ele>5.077</ele>
        <time>2012-10-14T13:25:58.701Z</time>
      </trkpt>
      <trkpt lat="43.39726" lon="6.7189">
        <ele>5.348</ele>
        <time>2012-10-14T13:26:01.303Z</time>
      </trkpt>
      <trkpt lat="43.39716" lon="6.71892">
        <ele>6.069</ele>
        <time>2012-10-14T13:26:04.049Z</time>
      </trkpt>
      <trkpt lat="43.39705" lon="6.71892">
        <ele>6.878</ele>
        <time>2012-10-14T13:26:08.057Z</time>
      </trkpt>
      <trkpt lat="43.39705" lon="6.71892">
        <ele>7.136</ele>
        <time>2012-10-14T13:26:11.057Z</time>
      </trkpt>
      <trkpt lat="43.39705" lon="6.71892">
        <ele>6.928</ele>
        <time>2012-10-14T13:26:12.020Z</time>
      </trkpt>
      <trkpt lat="43.397" lon="6.71914">
        <ele>6.699</ele>
        <time>2012-10-14T13:26:17.774Z</time>
      </trkpt>
      <trkpt lat="43.39698" lon="6.71931">
        <ele>6.585</ele>
        <time>2012-10-14T13:26:20.377Z</time>
      </trkpt>
      <trkpt lat="43.39695" lon="6.71956">
        <ele>6.48</ele>
        <time>2012-10-14T13:26:24.154Z</time>
      </trkpt>
      <trkpt lat="43.39693" lon="6.7197">
        <ele>6.197</ele>
        <time>2012-10-14T13:26:26.237Z</time>
      </trkpt>
      <trkpt lat="43.39692" lon="6.71991">
        <ele>5.689</ele>
        <time>2012-10-14T13:26:29.182Z</time>
      </trkpt>
      <trkpt lat="43.3969" lon="6.72005">
        <ele>5.048</ele>
        <time>2012-10-14T13:26:31.054Z</time>
      </trkpt>
      <trkpt lat="43.39688" lon="6.72017">
        <ele>4.466</ele>
        <time>2012-10-14T13:26:32.748Z</time>
      </trkpt>
      <trkpt lat="43.39683" lon="6.72043">
        <ele>4.132</ele>
        <time>2012-10-14T13:26:36.232Z</time>
      </trkpt>
      <trkpt lat="43.39681" lon="6.72059">
        <ele>4.048</ele>
        <time>2012-10-14T13:26:38.438Z</time>
      </trkpt>
      <trkpt lat="43.39677" lon="6.72081">
        <ele>4.685</ele>
        <time>2012-10-14T13:26:41.864Z</time>
      </trkpt>
      <trkpt lat="43.39675" lon="6.72098">
        <ele>6.31</ele>
        <time>2012-10-14T13:26:44.518Z</time>
      </trkpt>
      <trkpt lat="43.39673" lon="6.72113">
        <ele>7.957</ele>
        <time>2012-10-14T13:26:46.621Z</time>
      </trkpt>
      <trkpt lat="43.3967" lon="6.72132">
        <ele>8.732</ele>
        <time>2012-10-14T13:26:49.075Z</time>
      </trkpt>
      <trkpt lat="43.39667" lon="6.72151">
        <ele>8.735</ele>
        <time>2012-10-14T13:26:51.687Z</time>
      </trkpt>
      <trkpt lat="43.39663" lon="6.72173">
        <ele>8.002</ele>
        <time>2012-10-14T13:26:54.548Z</time>
      </trkpt>
      <trkpt lat="43.3966" lon="6.72196">
        <ele>6.728</ele>
        <time>2012-10-14T13:26:57.571Z</time>
      </trkpt>
      <trkpt lat="43.39657" lon="6.72213">
        <ele>5.138</ele>
        <time>2012-10-14T13:27:00.066Z</time>
      </trkpt>
      <trkpt lat="43.39654" lon="6.72227">
        <ele>3.421</ele>
        <time>2012-10-14T13:27:02.308Z</time>
      </trkpt>
      <trkpt lat="43.39651" lon="6.72248">
        <ele>2.126</ele>
        <time>2012-10-14T13:27:05.440Z</time>
      </trkpt>
      <trkpt lat="43.39649" lon="6.72261">
        <ele>1.724</ele>
        <time>2012-10-14T13:27:07.283Z</time>
      </trkpt>
      <trkpt lat="43.39645" lon="6.72284">
        <ele>1.999</ele>
        <time>2012-10-14T13:27:10.575Z</time>
      </trkpt>
      <trkpt lat="43.39641" lon="6.72301">
        <ele>2.451</ele>
        <time>2012-10-14T13:27:13.026Z</time>
      </trkpt>
      <trkpt lat="43.39637" lon="6.72313">
        <ele>2.664</ele>
        <time>2012-10-14T13:27:14.770Z</time>
      </trkpt>
      <trkpt lat="43.39635" lon="6.7233">
        <ele>2.639</ele>
        <time>2012-10-14T13:27:16.949Z</time>
      </trkpt>
      <trkpt lat="43.39632" lon="6.7235">
        <ele>2.559</ele>
        <time>2012-10-14T13:27:19.744Z</time>
      </trkpt>
      <trkpt lat="43.3963" lon="6.72364">
        <ele>2.352</ele>
        <time>2012-10-14T13:27:21.542Z</time>
      </trkpt>
      <trkpt lat="43.39627" lon="6.72386">
        <ele>1.934</ele>
        <time>2012-10-14T13:27:24.504Z</time>
      </trkpt>
      <trkpt lat="43.39625" lon="6.72401">
        <ele>1.524</ele>
        <time>2012-10-14T13:27:26.479Z</time>
      </trkpt>
      <trkpt lat="43.3962" lon="6.72422">
        <ele>1.335</ele>
        <time>2012-10-14T13:27:29.446Z</time>
      </trkpt>
      <trkpt lat="43.39616" lon="6.72442">
        <ele>1.441</ele>
        <time>2012-10-14T13:27:32.449Z</time>
      </trkpt>
      <trkpt lat="43.39613" lon="6.72461">
        <ele>1.865</ele>
        <time>2012-10-14T13:27:35.207Z</time>
      </trkpt>
      <trkpt lat="43.39611" lon="6.7248">
        <ele>2.525</ele>
        <time>2012-10-14T13:27:37.972Z</time>
      </trkpt>
      <trkpt lat="43.39608" lon="6.72495">
        <ele>3.228</ele>
        <time>2012-10-14T13:27:40.109Z</time>
      </trkpt>
      <trkpt lat="43.39605" lon="6.72517">
        <ele>3.521</ele>
        <time>2012-10-14T13:27:43.249Z</time>
      </trkpt>
      <trkpt lat="43.39602" lon="6.72535">
        <ele>3.172</ele>
        <time>2012-10-14T13:27:45.967Z</time>
      </trkpt>
      <trkpt lat="43.396" lon="6.72549">
        <ele>2.794</ele>
        <time>2012-10-14T13:27:47.923Z</time>
      </trkpt>
      <trkpt lat="43.39596" lon="6.72565">
        <ele>2.951</ele>
        <time>2012-10-14T13:27:50.512Z</time>
      </trkpt>
      <trkpt lat="43.39593" lon="6.72584">
        <ele>3.403</ele>
        <time>2012-10-14T13:27:53.198Z</time>
      </trkpt>
      <trkpt lat="43.39589" lon="6.72599">
        <ele>3.699</ele>
        <time>2012-10-14T13:27:55.459Z</time>
      </trkpt>
      <trkpt lat="43.39584" lon="6.72613">
        <ele>3.733</ele>
        <time>2012-10-14T13:27:57.747Z</time>
      </trkpt>
      <trkpt lat="43.39569" lon="6.7262">
        <ele>3.643</ele>
        <time>2012-10-14T13:28:00.923Z</time>
      </trkpt>
      <trkpt lat="43.39552" lon="6.72614">
        <ele>3.514</ele>
        <time>2012-10-14T13:28:04.125Z</time>
      </trkpt>
      <trkpt lat="43.39541" lon="6.7261">
        <ele>3.348</ele>
        <time>2012-10-14T13:28:06.163Z</time>
      </trkpt>
      <trkpt lat="43.39531" lon="6.72605">
        <ele>3.208</ele>
        <time>2012-10-14T13:28:08.144Z</time>
      </trkpt>
      <trkpt lat="43.39516" lon="6.72598">
        <ele>3.15</ele>
        <time>2012-10-14T13:28:11.095Z</time>
      </trkpt>
      <trkpt lat="43.39506" lon="6.72595">
        <ele>3.136</ele>
        <time>2012-10-14T13:28:12.997Z</time>
      </trkpt>
      <trkpt lat="43.39491" lon="6.72595">
        <ele>3.123</ele>
        <time>2012-10-14T13:28:15.822Z</time>
      </trkpt>
      <trkpt lat="43.39481" lon="6.72598">
        <ele>3.205</ele>
        <time>2012-10-14T13:28:17.692Z</time>
      </trkpt>
      <trkpt lat="43.39467" lon="6.72603">
        <ele>3.453</ele>
        <time>2012-10-14T13:28:20.430Z</time>
      </trkpt>
      <trkpt lat="43.39452" lon="6.72608">
        <ele>3.717</ele>
        <time>2012-10-14T13:28:23.290Z</time>
      </trkpt>
      <trkpt lat="43.39441" lon="6.72613">
        <ele>3.847</ele>
        <time>2012-10-14T13:28:25.653Z</time>
      </trkpt>
      <trkpt lat="43.39431" lon="6.72617">
        <ele>3.906</ele>
        <time>2012-10-14T13:28:27.569Z</time>
      </trkpt>
      <trkpt lat="43.39415" lon="6.72622">
        <ele>4.022</ele>
        <time>2012-10-14T13:28:30.635Z</time>
      </trkpt>
      <trkpt lat="43.39405" lon="6.72625">
        <ele>4.51</ele>
        <time>2012-10-14T13:28:32.618Z</time>
      </trkpt>
      <trkpt lat="43.3939" lon="6.7263">
        <ele>5.455</ele>
        <time>2012-10-14T13:28:35.443Z</time>
      </trkpt>
      <trkpt lat="43.39379" lon="6.72634">
        <ele>6.425</ele>
        <time>2012-10-14T13:28:37.836Z</time>
      </trkpt>
      <trkpt lat="43.39367" lon="6.72638">
        <ele>7.056</ele>
        <time>2012-10-14T13:28:40.216Z</time>
      </trkpt>
      <trkpt lat="43.39354" lon="6.72643">
        <ele>7.253</ele>
        <time>2012-10-14T13:28:43.129Z</time>
      </trkpt>
      <trkpt lat="43.39343" lon="6.72649">
        <ele>6.977</ele>
        <time>2012-10-14T13:28:45.805Z</time>
      </trkpt>
      <trkpt lat="43.3933" lon="6.72654">
        <ele>6.267</ele>
        <time>2012-10-14T13:28:48.695Z</time>
      </trkpt>
      <trkpt lat="43.39318" lon="6.72661">
        <ele>5.184</ele>
        <time>2012-10-14T13:28:51.445Z</time>
      </trkpt>
      <trkpt lat="43.39306" lon="6.72668">
        <ele>4.075</ele>
        <time>2012-10-14T13:28:54.251Z</time>
      </trkpt>
      <trkpt lat="43.39297" lon="6.72669">
        <ele>3.398</ele>
        <time>2012-10-14T13:28:56.312Z</time>
      </trkpt>
      <trkpt lat="43.39284" lon="6.72669">
        <ele>3.206</ele>
        <time>2012-10-14T13:28:59.081Z</time>
      </trkpt>
      <trkpt lat="43.39272" lon="6.72669">
        <ele>3.598</ele>
        <time>2012-10-14T13:29:01.715Z</time>
      </trkpt>
      <trkpt lat="43.39259" lon="6.7267">
        <ele>4.59</ele>
        <time>2012-10-14T13:29:04.648Z</time>
      </trkpt>
      <trkpt lat="43.39249" lon="6.72675">
        <ele>5.606</ele>
        <time>2012-10-14T13:29:06.960Z</time>
      </trkpt>
      <trkpt lat="43.39246" lon="6.72687">
        <ele>6.154</ele>
        <time>2012-10-14T13:29:09.180Z</time>
      </trkpt>
      <trkpt lat="43.39252" lon="6.727">
        <ele>6.469</ele>
        <time>2012-10-14T13:29:11.902Z</time>
      </trkpt>
      <trkpt lat="43.39263" lon="6.7271">
        <ele>6.87</ele>
        <time>2012-10-14T13:29:15.233Z</time>
      </trkpt>
      <trkpt lat="43.39273" lon="6.7272">
        <ele>7.357</ele>
        <time>2012-10-14T13:29:18.340Z</time>
      </trkpt>
      <trkpt lat="43.39281" lon="6.72735">
        <ele>7.879</ele>
        <time>2012-10-14T13:29:21.420Z</time>
      </trkpt>
      <trkpt lat="43.39284" lon="6.7275">
        <ele>8.3</ele>
        <time>2012-10-14T13:29:24.194Z</time>
      </trkpt>
      <trkpt lat="43.39282" lon="6.72764">
        <ele>8.369</ele>
        <time>2012-10-14T13:29:26.825Z</time>
      </trkpt>
      <trkpt lat="43.39277" lon="6.72778">
        <ele>8.184</ele>
        <time>2012-10-14T13:29:29.844Z</time>
      </trkpt>
      <trkpt lat="43.39273" lon="6.72793">
        <ele>7.633</ele>
        <time>2012-10-14T13:29:33.146Z</time>
      </trkpt>
      <trkpt lat="43.3927" lon="6.72808">
        <ele>6.482</ele>
        <time>2012-10-14T13:29:36.130Z</time>
      </trkpt>
      <trkpt lat="43.39267" lon="6.72824">
        <ele>5.256</ele>
        <time>2012-10-14T13:29:39.158Z</time>
      </trkpt>
      <trkpt lat="43.39264" lon="6.72838">
        <ele>4.562</ele>
        <time>2012-10-14T13:29:41.826Z</time>
      </trkpt>
      <trkpt lat="43.39257" lon="6.72848">
        <ele>4.283</ele>
        <time>2012-10-14T13:29:44.391Z</time>
      </trkpt>
      <trkpt lat="43.39248" lon="6.72848">
        <ele>4.143</ele>
        <time>2012-10-14T13:29:46.960Z</time>
      </trkpt>
      <trkpt lat="43.39239" lon="6.72849">
        <ele>3.882</ele>
        <time>2012-10-14T13:29:50.239Z</time>
      </trkpt>
      <trkpt lat="43.39229" lon="6.72847">
        <ele>3.397</ele>
        <time>2012-10-14T13:29:53.778Z</time>
      </trkpt>
      <trkpt lat="43.39224" lon="6.72836">
        <ele>3.037</ele>
        <time>2012-10-14T13:29:58.030Z</time>
      </trkpt>
      <trkpt lat="43.39222" lon="6.72822">
        <ele>3.174</ele>
        <time>2012-10-14T13:30:03.490Z</time>
      </trkpt>
      <trkpt lat="43.39212" lon="6.72815">
        <ele>3.657</ele>
        <time>2012-10-14T13:30:10.338Z</time>
      </trkpt>
      <trkpt lat="43.39202" lon="6.72813">
        <ele>4.357</ele>
        <time>2012-10-14T13:30:17.566Z</time>
      </trkpt>
      <trkpt lat="43.39193" lon="6.72812">
        <ele>5.308</ele>
        <time>2012-10-14T13:30:24.421Z</time>
      </trkpt>
      <trkpt lat="43.39184" lon="6.72809">
        <ele>6.26</ele>
        <time>2012-10-14T13:30:31.049Z</time>
      </trkpt>
      <trkpt lat="43.39174" lon="6.72807">
        <ele>6.887</ele>
        <time>2012-10-14T13:30:38.546Z</time>
      </trkpt>
      <trkpt lat="43.39165" lon="6.72812">
        <ele>7.395</ele>
        <time>2012-10-14T13:30:46.539Z</time>
      </trkpt>
      <trkpt lat="43.39155" lon="6.72813">
        <ele>8.034</ele>
        <time>2012-10-14T13:30:53.723Z</time>
      </trkpt>
      <trkpt lat="43.39145" lon="6.72819">
        <ele>8.723</ele>
        <time>2012-10-14T13:30:59.188Z</time>
      </trkpt>
      <trkpt lat="43.39135" lon="6.72827">
        <ele>9.453</ele>
        <time>2012-10-14T13:31:04.523Z</time>
      </trkpt>
      <trkpt lat="43.39126" lon="6.72837">
        <ele>10.372</ele>
        <time>2012-10-14T13:31:09.624Z</time>
      </trkpt>
      <trkpt lat="43.39119" lon="6.72845">
        <ele>11.298</ele>
        <time>2012-10-14T13:31:13.303Z</time>
      </trkpt>
      <trkpt lat="43.39109" lon="6.72851">
        <ele>12.18</ele>
        <time>2012-10-14T13:31:17.583Z</time>
      </trkpt>
      <trkpt lat="43.391" lon="6.72859">
        <ele>13.112</ele>
        <time>2012-10-14T13:31:21.353Z</time>
      </trkpt>
      <trkpt lat="43.39092" lon="6.72867">
        <ele>13.943</ele>
        <time>2012-10-14T13:31:24.466Z</time>
      </trkpt>
      <trkpt lat="43.39083" lon="6.72875">
        <ele>14.477</ele>
        <time>2012-10-14T13:31:27.802Z</time>
      </trkpt>
      <trkpt lat="43.39073" lon="6.72883">
        <ele>14.734</ele>
        <time>2012-10-14T13:31:31.014Z</time>
      </trkpt>
      <trkpt lat="43.39062" lon="6.72886">
        <ele>14.777</ele>
        <time>2012-10-14T13:31:34.249Z</time>
      </trkpt>
      <trkpt lat="43.39051" lon="6.72882">
        <ele>14.735</ele>
        <time>2012-10-14T13:31:37.385Z</time>
      </trkpt>
      <trkpt lat="43.39042" lon="6.72876">
        <ele>14.695</ele>
        <time>2012-10-14T13:31:40.280Z</time>
      </trkpt>
      <trkpt lat="43.39035" lon="6.72869">
        <ele>14.684</ele>
        <time>2012-10-14T13:31:42.912Z</time>
      </trkpt>
      <trkpt lat="43.39024" lon="6.72861">
        <ele>14.691</ele>
        <time>2012-10-14T13:31:46.373Z</time>
      </trkpt>
      <trkpt lat="43.39015" lon="6.72855">
        <ele>14.73</ele>
        <time>2012-10-14T13:31:49.258Z</time>
      </trkpt>
      <trkpt lat="43.39006" lon="6.72851">
        <ele>14.813</ele>
        <time>2012-10-14T13:31:52.258Z</time>
      </trkpt>
      <trkpt lat="43.38997" lon="6.72845">
        <ele>15.02</ele>
        <time>2012-10-14T13:31:55.181Z</time>
      </trkpt>
      <trkpt lat="43.38987" lon="6.72837">
        <ele>15.596</ele>
        <time>2012-10-14T13:31:58.575Z</time>
      </trkpt>
      <trkpt lat="43.38979" lon="6.72831">
        <ele>16.497</ele>
        <time>2012-10-14T13:32:01.315Z</time>
      </trkpt>
      <trkpt lat="43.38971" lon="6.72826">
        <ele>17.329</ele>
        <time>2012-10-14T13:32:04.153Z</time>
      </trkpt>
      <trkpt lat="43.38962" lon="6.72819">
        <ele>17.896</ele>
        <time>2012-10-14T13:32:07.277Z</time>
      </trkpt>
      <trkpt lat="43.38951" lon="6.72812">
        <ele>18.222</ele>
        <time>2012-10-14T13:32:10.998Z</time>
      </trkpt>
      <trkpt lat="43.38943" lon="6.72806">
        <ele>18.388</ele>
        <time>2012-10-14T13:32:13.945Z</time>
      </trkpt>
      <trkpt lat="43.38934" lon="6.728">
        <ele>18.536</ele>
        <time>2012-10-14T13:32:17.015Z</time>
      </trkpt>
      <trkpt lat="43.38926" lon="6.72795">
        <ele>18.684</ele>
        <time>2012-10-14T13:32:19.917Z</time>
      </trkpt>
      <trkpt lat="43.38916" lon="6.72789">
        <ele>18.769</ele>
        <time>2012-10-14T13:32:23.101Z</time>
      </trkpt>
      <trkpt lat="43.38907" lon="6.72783">
        <ele>18.836</ele>
        <time>2012-10-14T13:32:26.210Z</time>
      </trkpt>
      <trkpt lat="43.38897" lon="6.72779">
        <ele>18.945</ele>
        <time>2012-10-14T13:32:29.398Z</time>
      </trkpt>
      <trkpt lat="43.38887" lon="6.72785">
        <ele>19.285</ele>
        <time>2012-10-14T13:32:32.808Z</time>
      </trkpt>
      <trkpt lat="43.38881" lon="6.72796">
        <ele>19.94</ele>
        <time>2012-10-14T13:32:35.930Z</time>
      </trkpt>
      <trkpt lat="43.38876" lon="6.7281">
        <ele>20.568</ele>
        <time>2012-10-14T13:32:39.470Z</time>
      </trkpt>
      <trkpt lat="43.38872" lon="6.72823">
        <ele>20.853</ele>
        <time>2012-10-14T13:32:42.918Z</time>
      </trkpt>
      <trkpt lat="43.38867" lon="6.72838">
        <ele>20.889</ele>
        <time>2012-10-14T13:32:46.716Z</time>
      </trkpt>
      <trkpt lat="43.38863" lon="6.72851">
        <ele>20.756</ele>
        <time>2012-10-14T13:32:49.801Z</time>
      </trkpt>
      <trkpt lat="43.38855" lon="6.72875">
        <ele>20.39</ele>
        <time>2012-10-14T13:32:55.103Z</time>
      </trkpt>
      <trkpt lat="43.38843" lon="6.72906">
        <ele>19.55</ele>
        <time>2012-10-14T13:33:00.450Z</time>
      </trkpt>
      <trkpt lat="43.38831" lon="6.72934">
        <ele>18.278</ele>
        <time>2012-10-14T13:33:04.431Z</time>
      </trkpt>
      <trkpt lat="43.38822" lon="6.72961">
        <ele>16.777</ele>
        <time>2012-10-14T13:33:07.656Z</time>
      </trkpt>
      <trkpt lat="43.38816" lon="6.72976">
        <ele>15.222</ele>
        <time>2012-10-14T13:33:09.567Z</time>
      </trkpt>
      <trkpt lat="43.3881" lon="6.72994">
        <ele>13.905</ele>
        <time>2012-10-14T13:33:12.447Z</time>
      </trkpt>
      <trkpt lat="43.38803" lon="6.73007">
        <ele>12.654</ele>
        <time>2012-10-14T13:33:15.090Z</time>
      </trkpt>
      <trkpt lat="43.38803" lon="6.73007">
        <ele>11.158</ele>
        <time>2012-10-14T13:33:20.093Z</time>
      </trkpt>
      <trkpt lat="43.38803" lon="6.73007">
        <ele>9.957</ele>
        <time>2012-10-14T13:33:33.192Z</time>
      </trkpt>
      <trkpt lat="43.38806" lon="6.73031">
        <ele>9.447</ele>
        <time>2012-10-14T13:33:44.373Z</time>
      </trkpt>
      <trkpt lat="43.3881" lon="6.73044">
        <ele>9.272</ele>
        <time>2012-10-14T13:33:47.779Z</time>
      </trkpt>
      <trkpt lat="43.38817" lon="6.73053">
        <ele>8.949</ele>
        <time>2012-10-14T13:33:50.954Z</time>
      </trkpt>
      <trkpt lat="43.38828" lon="6.73055">
        <ele>8.173</ele>
        <time>2012-10-14T13:33:55.754Z</time>
      </trkpt>
      <trkpt lat="43.38834" lon="6.73043">
        <ele>6.872</ele>
        <time>2012-10-14T13:34:00.448Z</time>
      </trkpt>
      <trkpt lat="43.38836" lon="6.73029">
        <ele>5.403</ele>
        <time>2012-10-14T13:34:05.671Z</time>
      </trkpt>
      <trkpt lat="43.38841" lon="6.73017">
        <ele>4.387</ele>
        <time>2012-10-14T13:34:12.319Z</time>
      </trkpt>
      <trkpt lat="43.38851" lon="6.73028">
        <ele>4.222</ele>
        <time>2012-10-14T13:34:21.507Z</time>
      </trkpt>
      <trkpt lat="43.38858" lon="6.7304">
        <ele>4.822</ele>
        <time>2012-10-14T13:34:32.254Z</time>
      </trkpt>
      <trkpt lat="43.38865" lon="6.73049">
        <ele>5.707</ele>
        <time>2012-10-14T13:34:38.894Z</time>
      </trkpt>
      <trkpt lat="43.38876" lon="6.7305">
        <ele>6.385</ele>
        <time>2012-10-14T13:34:43.348Z</time>
      </trkpt>
      <trkpt lat="43.38887" lon="6.73056">
        <ele>6.997</ele>
        <time>2012-10-14T13:34:47.660Z</time>
      </trkpt>
      <trkpt lat="43.38895" lon="6.73061">
        <ele>8.072</ele>
        <time>2012-10-14T13:34:50.733Z</time>
      </trkpt>
      <trkpt lat="43.38905" lon="6.73065">
        <ele>9.51</ele>
        <time>2012-10-14T13:34:54.188Z</time>
      </trkpt>
      <trkpt lat="43.38916" lon="6.73063">
        <ele>10.582</ele>
        <time>2012-10-14T13:34:57.981Z</time>
      </trkpt>
      <trkpt lat="43.38926" lon="6.73057">
        <ele>10.978</ele>
        <time>2012-10-14T13:35:02.293Z</time>
      </trkpt>
      <trkpt lat="43.38933" lon="6.73066">
        <ele>10.591</ele>
        <time>2012-10-14T13:35:07.988Z</time>
      </trkpt>
      <trkpt lat="43.38934" lon="6.7308">
        <ele>9.483</ele>
        <time>2012-10-14T13:35:16.075Z</time>
      </trkpt>
      <trkpt lat="43.38929" lon="6.73092">
        <ele>8.379</ele>
        <time>2012-10-14T13:35:24.909Z</time>
      </trkpt>
      <trkpt lat="43.38933" lon="6.73105">
        <ele>7.789</ele>
        <time>2012-10-14T13:35:32.328Z</time>
      </trkpt>
      <trkpt lat="43.38939" lon="6.73114">
        <ele>7.519</ele>
        <time>2012-10-14T13:35:38.953Z</time>
      </trkpt>
      <trkpt lat="43.38949" lon="6.73119">
        <ele>7.606</ele>
        <time>2012-10-14T13:35:46.423Z</time>
      </trkpt>
      <trkpt lat="43.38956" lon="6.7313">
        <ele>8.145</ele>
        <time>2012-10-14T13:35:52.691Z</time>
      </trkpt>
      <trkpt lat="43.38962" lon="6.73144">
        <ele>8.782</ele>
        <time>2012-10-14T13:35:56.942Z</time>
      </trkpt>
      <trkpt lat="43.38968" lon="6.73156">
        <ele>9.138</ele>
        <time>2012-10-14T13:36:00.715Z</time>
      </trkpt>
      <trkpt lat="43.38971" lon="6.73169">
        <ele>8.995</ele>
        <time>2012-10-14T13:36:04.691Z</time>
      </trkpt>
      <trkpt lat="43.3898" lon="6.73168">
        <ele>8.564</ele>
        <time>2012-10-14T13:36:09.822Z</time>
      </trkpt>
      <trkpt lat="43.38989" lon="6.73173">
        <ele>8.424</ele>
        <time>2012-10-14T13:36:15.236Z</time>
      </trkpt>
      <trkpt lat="43.38997" lon="6.73184">
        <ele>8.643</ele>
        <time>2012-10-14T13:36:21.537Z</time>
      </trkpt>
      <trkpt lat="43.39004" lon="6.73197">
        <ele>8.641</ele>
        <time>2012-10-14T13:36:26.495Z</time>
      </trkpt>
      <trkpt lat="43.39011" lon="6.73205">
        <ele>8.195</ele>
        <time>2012-10-14T13:36:30.649Z</time>
      </trkpt>
      <trkpt lat="43.39021" lon="6.73205">
        <ele>7.653</ele>
        <time>2012-10-14T13:36:35.035Z</time>
      </trkpt>
      <trkpt lat="43.39032" lon="6.732">
        <ele>7.373</ele>
        <time>2012-10-14T13:36:40.285Z</time>
      </trkpt>
      <trkpt lat="43.39039" lon="6.73188">
        <ele>7.317</ele>
        <time>2012-10-14T13:36:45.228Z</time>
      </trkpt>
      <trkpt lat="43.39048" lon="6.73182">
        <ele>7.354</ele>
        <time>2012-10-14T13:36:50.667Z</time>
      </trkpt>
      <trkpt lat="43.39058" lon="6.73181">
        <ele>7.398</ele>
        <time>2012-10-14T13:36:56.823Z</time>
      </trkpt>
      <trkpt lat="43.39069" lon="6.73187">
        <ele>7.561</ele>
        <time>2012-10-14T13:37:04.904Z</time>
      </trkpt>
      <trkpt lat="43.3908" lon="6.73187">
        <ele>7.929</ele>
        <time>2012-10-14T13:37:10.758Z</time>
      </trkpt>
      <trkpt lat="43.39089" lon="6.73185">
        <ele>8.299</ele>
        <time>2012-10-14T13:37:14.744Z</time>
      </trkpt>
      <trkpt lat="43.391" lon="6.73178">
        <ele>8.472</ele>
        <time>2012-10-14T13:37:19.210Z</time>
      </trkpt>
      <trkpt lat="43.39109" lon="6.73169">
        <ele>8.448</ele>
        <time>2012-10-14T13:37:22.617Z</time>
      </trkpt>
      <trkpt lat="43.39117" lon="6.73159">
        <ele>8.226</ele>
        <time>2012-10-14T13:37:25.721Z</time>
      </trkpt>
      <trkpt lat="43.39119" lon="6.73146">
        <ele>7.721</ele>
        <time>2012-10-14T13:37:28.597Z</time>
      </trkpt>
      <trkpt lat="43.39119" lon="6.73131">
        <ele>6.962</ele>
        <time>2012-10-14T13:37:32.835Z</time>
      </trkpt>
      <trkpt lat="43.39118" lon="6.73118">
        <ele>6.2</ele>
        <time>2012-10-14T13:37:36.329Z</time>
      </trkpt>
      <trkpt lat="43.39115" lon="6.73103">
        <ele>5.599</ele>
        <time>2012-10-14T13:37:40.426Z</time>
      </trkpt>
      <trkpt lat="43.39118" lon="6.73089">
        <ele>5.164</ele>
        <time>2012-10-14T13:37:43.989Z</time>
      </trkpt>
      <trkpt lat="43.39121" lon="6.73076">
        <ele>4.932</ele>
        <time>2012-10-14T13:37:47.254Z</time>
      </trkpt>
      <trkpt lat="43.39123" lon="6.73062">
        <ele>4.88</ele>
        <time>2012-10-14T13:37:50.306Z</time>
      </trkpt>
      <trkpt lat="43.39129" lon="6.73052">
        <ele>4.98</ele>
        <time>2012-10-14T13:37:53.233Z</time>
      </trkpt>
      <trkpt lat="43.39136" lon="6.73041">
        <ele>5.285</ele>
        <time>2012-10-14T13:37:56.333Z</time>
      </trkpt>
      <trkpt lat="43.39147" lon="6.73018">
        <ele>5.747</ele>
        <time>2012-10-14T13:38:00.448Z</time>
      </trkpt>
      <trkpt lat="43.39156" lon="6.72996">
        <ele>6.228</ele>
        <time>2012-10-14T13:38:03.765Z</time>
      </trkpt>
      <trkpt lat="43.39163" lon="6.72982">
        <ele>6.703</ele>
        <time>2012-10-14T13:38:05.844Z</time>
      </trkpt>
      <trkpt lat="43.39174" lon="6.72967">
        <ele>7.151</ele>
        <time>2012-10-14T13:38:08.787Z</time>
      </trkpt>
      <trkpt lat="43.39181" lon="6.72956">
        <ele>7.442</ele>
        <time>2012-10-14T13:38:10.930Z</time>
      </trkpt>
      <trkpt lat="43.3919" lon="6.72943">
        <ele>7.444</ele>
        <time>2012-10-14T13:38:13.802Z</time>
      </trkpt>
      <trkpt lat="43.39198" lon="6.7293">
        <ele>6.729</ele>
        <time>2012-10-14T13:38:16.781Z</time>
      </trkpt>
      <trkpt lat="43.39208" lon="6.72925">
        <ele>5.233</ele>
        <time>2012-10-14T13:38:19.747Z</time>
      </trkpt>
      <trkpt lat="43.39217" lon="6.72921">
        <ele>3.688</ele>
        <time>2012-10-14T13:38:23.089Z</time>
      </trkpt>
      <trkpt lat="43.39217" lon="6.72921">
        <ele>2.666</ele>
        <time>2012-10-14T13:38:27.067Z</time>
      </trkpt>
      <trkpt lat="43.39217" lon="6.72921">
        <ele>2.183</ele>
        <time>2012-10-14T13:38:28.871Z</time>
      </trkpt>
      <trkpt lat="43.39229" lon="6.72899">
        <ele>2.111</ele>
        <time>2012-10-14T13:38:47.616Z</time>
      </trkpt>
      <trkpt lat="43.39235" lon="6.72889">
        <ele>2.194</ele>
        <time>2012-10-14T13:38:53.386Z</time>
      </trkpt>
      <trkpt lat="43.3924" lon="6.72878">
        <ele>2.126</ele>
        <time>2012-10-14T13:39:00.075Z</time>
      </trkpt>
      <trkpt lat="43.39246" lon="6.72867">
        <ele>1.65</ele>
        <time>2012-10-14T13:39:06.576Z</time>
      </trkpt>
      <trkpt lat="43.39253" lon="6.72859">
        <ele>1.057</ele>
        <time>2012-10-14T13:39:13.086Z</time>
      </trkpt>
      <trkpt lat="43.39253" lon="6.72859">
        <ele>0.828</ele>
        <time>2012-10-14T13:39:30.066Z</time>
      </trkpt>
      <trkpt lat="43.39253" lon="6.72859">
        <ele>0.874</ele>
        <time>2012-10-14T13:40:34.302Z</time>
      </trkpt>
      <trkpt lat="43.3927" lon="6.72838">
        <ele>0.827</ele>
        <time>2012-10-14T13:40:53.466Z</time>
      </trkpt>
      <trkpt lat="43.39275" lon="6.72827">
        <ele>0.622</ele>
        <time>2012-10-14T13:40:58.675Z</time>
      </trkpt>
      <trkpt lat="43.39274" lon="6.72809">
        <ele>0.378</ele>
        <time>2012-10-14T13:41:05.342Z</time>
      </trkpt>
      <trkpt lat="43.3928" lon="6.72796">
        <ele>0.289</ele>
        <time>2012-10-14T13:41:09.265Z</time>
      </trkpt>
      <trkpt lat="43.39287" lon="6.72787">
        <ele>0.447</ele>
        <time>2012-10-14T13:41:12.256Z</time>
      </trkpt>
      <trkpt lat="43.39293" lon="6.72775">
        <ele>0.695</ele>
        <time>2012-10-14T13:41:15.931Z</time>
      </trkpt>
      <trkpt lat="43.39302" lon="6.72766">
        <ele>0.843</ele>
        <time>2012-10-14T13:41:19.900Z</time>
      </trkpt>
      <trkpt lat="43.39313" lon="6.72764">
        <ele>0.918</ele>
        <time>2012-10-14T13:41:23.684Z</time>
      </trkpt>
      <trkpt lat="43.39323" lon="6.72768">
        <ele>1.133</ele>
        <time>2012-10-14T13:41:27.267Z</time>
      </trkpt>
      <trkpt lat="43.39332" lon="6.72773">
        <ele>1.584</ele>
        <time>2012-10-14T13:41:30.577Z</time>
      </trkpt>
      <trkpt lat="43.39344" lon="6.72777">
        <ele>2.018</ele>
        <time>2012-10-14T13:41:34.520Z</time>
      </trkpt>
      <trkpt lat="43.39356" lon="6.72781">
        <ele>2.166</ele>
        <time>2012-10-14T13:41:38.533Z</time>
      </trkpt>
      <trkpt lat="43.39366" lon="6.72783">
        <ele>2.064</ele>
        <time>2012-10-14T13:41:41.593Z</time>
      </trkpt>
      <trkpt lat="43.39378" lon="6.72783">
        <ele>1.896</ele>
        <time>2012-10-14T13:41:45.256Z</time>
      </trkpt>
      <trkpt lat="43.3939" lon="6.72783">
        <ele>1.791</ele>
        <time>2012-10-14T13:41:48.452Z</time>
      </trkpt>
      <trkpt lat="43.39401" lon="6.72783">
        <ele>1.735</ele>
        <time>2012-10-14T13:41:51.488Z</time>
      </trkpt>
      <trkpt lat="43.39413" lon="6.72789">
        <ele>1.692</ele>
        <time>2012-10-14T13:41:55.039Z</time>
      </trkpt>
      <trkpt lat="43.39423" lon="6.72794">
        <ele>1.665</ele>
        <time>2012-10-14T13:41:58.154Z</time>
      </trkpt>
      <trkpt lat="43.39432" lon="6.72797">
        <ele>1.656</ele>
        <time>2012-10-14T13:42:00.933Z</time>
      </trkpt>
      <trkpt lat="43.39444" lon="6.72801">
        <ele>1.657</ele>
        <time>2012-10-14T13:42:04.671Z</time>
      </trkpt>
      <trkpt lat="43.39454" lon="6.72806">
        <ele>1.925</ele>
        <time>2012-10-14T13:42:08.006Z</time>
      </trkpt>
      <trkpt lat="43.39465" lon="6.7281">
        <ele>2.618</ele>
        <time>2012-10-14T13:42:11.196Z</time>
      </trkpt>
      <trkpt lat="43.39473" lon="6.72814">
        <ele>3.327</ele>
        <time>2012-10-14T13:42:13.854Z</time>
      </trkpt>
      <trkpt lat="43.39487" lon="6.72818">
        <ele>3.698</ele>
        <time>2012-10-14T13:42:17.426Z</time>
      </trkpt>
      <trkpt lat="43.39497" lon="6.72822">
        <ele>3.84</ele>
        <time>2012-10-14T13:42:20.103Z</time>
      </trkpt>
      <trkpt lat="43.39509" lon="6.72826">
        <ele>3.842</ele>
        <time>2012-10-14T13:42:22.992Z</time>
      </trkpt>
      <trkpt lat="43.3952" lon="6.7283">
        <ele>3.681</ele>
        <time>2012-10-14T13:42:26.274Z</time>
      </trkpt>
      <trkpt lat="43.39531" lon="6.72834">
        <ele>3.422</ele>
        <time>2012-10-14T13:42:29.391Z</time>
      </trkpt>
      <trkpt lat="43.39541" lon="6.72837">
        <ele>3.308</ele>
        <time>2012-10-14T13:42:32.400Z</time>
      </trkpt>
      <trkpt lat="43.39552" lon="6.72841">
        <ele>3.464</ele>
        <time>2012-10-14T13:42:36.095Z</time>
      </trkpt>
      <trkpt lat="43.39552" lon="6.72841">
        <ele>3.654</ele>
        <time>2012-10-14T13:42:42.097Z</time>
      </trkpt>
      <trkpt lat="43.39552" lon="6.72841">
        <ele>3.656</ele>
        <time>2012-10-14T13:46:29.499Z</time>
      </trkpt>
      <trkpt lat="43.39577" lon="6.72849">
        <ele>3.579</ele>
        <time>2012-10-14T13:46:54.892Z</time>
      </trkpt>
      <trkpt lat="43.39589" lon="6.72852">
        <ele>3.766</ele>
        <time>2012-10-14T13:46:58.880Z</time>
      </trkpt>
      <trkpt lat="43.39599" lon="6.72856">
        <ele>4.511</ele>
        <time>2012-10-14T13:47:01.430Z</time>
      </trkpt>
      <trkpt lat="43.39609" lon="6.7286">
        <ele>5.474</ele>
        <time>2012-10-14T13:47:03.961Z</time>
      </trkpt>
      <trkpt lat="43.39619" lon="6.72864">
        <ele>6.11</ele>
        <time>2012-10-14T13:47:06.208Z</time>
      </trkpt>
      <trkpt lat="43.39629" lon="6.72869">
        <ele>6.465</ele>
        <time>2012-10-14T13:47:08.301Z</time>
      </trkpt>
      <trkpt lat="43.39643" lon="6.72874">
        <ele>6.747</ele>
        <time>2012-10-14T13:47:11.074Z</time>
      </trkpt>
      <trkpt lat="43.39653" lon="6.72877">
        <ele>6.857</ele>
        <time>2012-10-14T13:47:13.114Z</time>
      </trkpt>
      <trkpt lat="43.39669" lon="6.72883">
        <ele>6.665</ele>
        <time>2012-10-14T13:47:16.199Z</time>
      </trkpt>
      <trkpt lat="43.3968" lon="6.72887">
        <ele>6.141</ele>
        <time>2012-10-14T13:47:18.152Z</time>
      </trkpt>
      <trkpt lat="43.3969" lon="6.72891">
        <ele>5.451</ele>
        <time>2012-10-14T13:47:20.108Z</time>
      </trkpt>
      <trkpt lat="43.39707" lon="6.72897">
        <ele>4.88</ele>
        <time>2012-10-14T13:47:23.109Z</time>
      </trkpt>
      <trkpt lat="43.39718" lon="6.72901">
        <ele>4.592</ele>
        <time>2012-10-14T13:47:25.113Z</time>
      </trkpt>
      <trkpt lat="43.39734" lon="6.72907">
        <ele>4.538</ele>
        <time>2012-10-14T13:47:27.969Z</time>
      </trkpt>
      <trkpt lat="43.3975" lon="6.72913">
        <ele>4.647</ele>
        <time>2012-10-14T13:47:30.735Z</time>
      </trkpt>
      <trkpt lat="43.39761" lon="6.72917">
        <ele>4.892</ele>
        <time>2012-10-14T13:47:32.564Z</time>
      </trkpt>
      <trkpt lat="43.39779" lon="6.72923">
        <ele>5.16</ele>
        <time>2012-10-14T13:47:35.460Z</time>
      </trkpt>
      <trkpt lat="43.39791" lon="6.72927">
        <ele>5.317</ele>
        <time>2012-10-14T13:47:37.443Z</time>
      </trkpt>
      <trkpt lat="43.39809" lon="6.72934">
        <ele>5.359</ele>
        <time>2012-10-14T13:47:40.379Z</time>
      </trkpt>
      <trkpt lat="43.3982" lon="6.72938">
        <ele>5.259</ele>
        <time>2012-10-14T13:47:42.217Z</time>
      </trkpt>
      <trkpt lat="43.39832" lon="6.72942">
        <ele>5.01</ele>
        <time>2012-10-14T13:47:44.041Z</time>
      </trkpt>
      <trkpt lat="43.39849" lon="6.72948">
        <ele>4.725</ele>
        <time>2012-10-14T13:47:46.865Z</time>
      </trkpt>
      <trkpt lat="43.39867" lon="6.72953">
        <ele>4.506</ele>
        <time>2012-10-14T13:47:49.696Z</time>
      </trkpt>
      <trkpt lat="43.39881" lon="6.72958">
        <ele>4.382</ele>
        <time>2012-10-14T13:47:51.831Z</time>
      </trkpt>
      <trkpt lat="43.39894" lon="6.72962">
        <ele>4.352</ele>
        <time>2012-10-14T13:47:53.819Z</time>
      </trkpt>
      <trkpt lat="43.3991" lon="6.72968">
        <ele>4.404</ele>
        <time>2012-10-14T13:47:56.332Z</time>
      </trkpt>
      <trkpt lat="43.39931" lon="6.72974">
        <ele>4.546</ele>
        <time>2012-10-14T13:47:59.535Z</time>
      </trkpt>
      <trkpt lat="43.3995" lon="6.72978">
        <ele>4.654</ele>
        <time>2012-10-14T13:48:02.490Z</time>
      </trkpt>
      <trkpt lat="43.39968" lon="6.7298">
        <ele>4.547</ele>
        <time>2012-10-14T13:48:05.391Z</time>
      </trkpt>
      <trkpt lat="43.39987" lon="6.72981">
        <ele>4.269</ele>
        <time>2012-10-14T13:48:08.690Z</time>
      </trkpt>
      <trkpt lat="43.4" lon="6.72982">
        <ele>4.033</ele>
        <time>2012-10-14T13:48:10.847Z</time>
      </trkpt>
      <trkpt lat="43.40017" lon="6.72983">
        <ele>3.84</ele>
        <time>2012-10-14T13:48:13.908Z</time>
      </trkpt>
      <trkpt lat="43.40033" lon="6.72984">
        <ele>3.457</ele>
        <time>2012-10-14T13:48:16.809Z</time>
      </trkpt>
      <trkpt lat="43.40043" lon="6.72984">
        <ele>2.888</ele>
        <time>2012-10-14T13:48:18.481Z</time>
      </trkpt>
      <trkpt lat="43.40061" lon="6.72984">
        <ele>2.57</ele>
        <time>2012-10-14T13:48:21.467Z</time>
      </trkpt>
      <trkpt lat="43.40071" lon="6.72985">
        <ele>2.733</ele>
        <time>2012-10-14T13:48:23.109Z</time>
      </trkpt>
      <trkpt lat="43.40089" lon="6.72987">
        <ele>3.076</ele>
        <time>2012-10-14T13:48:26.050Z</time>
      </trkpt>
      <trkpt lat="43.401" lon="6.72988">
        <ele>3.331</ele>
        <time>2012-10-14T13:48:27.852Z</time>
      </trkpt>
      <trkpt lat="43.40116" lon="6.72988">
        <ele>3.619</ele>
        <time>2012-10-14T13:48:30.540Z</time>
      </trkpt>
      <trkpt lat="43.40133" lon="6.72988">
        <ele>4.014</ele>
        <time>2012-10-14T13:48:33.277Z</time>
      </trkpt>
      <trkpt lat="43.40147" lon="6.72989">
        <ele>4.229</ele>
        <time>2012-10-14T13:48:35.462Z</time>
      </trkpt>
      <trkpt lat="43.40163" lon="6.72991">
        <ele>3.98</ele>
        <time>2012-10-14T13:48:38.123Z</time>
      </trkpt>
      <trkpt lat="43.40182" lon="6.72992">
        <ele>3.542</ele>
        <time>2012-10-14T13:48:41.172Z</time>
      </trkpt>
      <trkpt lat="43.40193" lon="6.72992">
        <ele>3.248</ele>
        <time>2012-10-14T13:48:42.974Z</time>
      </trkpt>
      <trkpt lat="43.40205" lon="6.72991">
        <ele>3.032</ele>
        <time>2012-10-14T13:48:44.898Z</time>
      </trkpt>
      <trkpt lat="43.40223" lon="6.72988">
        <ele>2.841</ele>
        <time>2012-10-14T13:48:47.948Z</time>
      </trkpt>
      <trkpt lat="43.40233" lon="6.72988">
        <ele>2.869</ele>
        <time>2012-10-14T13:48:49.681Z</time>
      </trkpt>
      <trkpt lat="43.40251" lon="6.72986">
        <ele>3.149</ele>
        <time>2012-10-14T13:48:52.496Z</time>
      </trkpt>
      <trkpt lat="43.4027" lon="6.7298">
        <ele>3.463</ele>
        <time>2012-10-14T13:48:55.538Z</time>
      </trkpt>
      <trkpt lat="43.40288" lon="6.72974">
        <ele>3.509</ele>
        <time>2012-10-14T13:48:58.285Z</time>
      </trkpt>
      <trkpt lat="43.403" lon="6.7297">
        <ele>2.993</ele>
        <time>2012-10-14T13:49:00.272Z</time>
      </trkpt>
      <trkpt lat="43.40317" lon="6.72963">
        <ele>2.01</ele>
        <time>2012-10-14T13:49:03.000Z</time>
      </trkpt>
      <trkpt lat="43.4033" lon="6.72957">
        <ele>1.162</ele>
        <time>2012-10-14T13:49:05.054Z</time>
      </trkpt>
      <trkpt lat="43.40347" lon="6.72949">
        <ele>0.805</ele>
        <time>2012-10-14T13:49:07.941Z</time>
      </trkpt>
      <trkpt lat="43.40366" lon="6.72938">
        <ele>0.778</ele>
        <time>2012-10-14T13:49:11.118Z</time>
      </trkpt>
      <trkpt lat="43.40377" lon="6.72931">
        <ele>0.859</ele>
        <time>2012-10-14T13:49:12.992Z</time>
      </trkpt>
      <trkpt lat="43.40391" lon="6.72922">
        <ele>1.024</ele>
        <time>2012-10-14T13:49:15.542Z</time>
      </trkpt>
      <trkpt lat="43.40403" lon="6.72915">
        <ele>1.542</ele>
        <time>2012-10-14T13:49:17.572Z</time>
      </trkpt>
      <trkpt lat="43.4042" lon="6.72902">
        <ele>2.57</ele>
        <time>2012-10-14T13:49:20.666Z</time>
      </trkpt>
      <trkpt lat="43.4043" lon="6.72894">
        <ele>3.319</ele>
        <time>2012-10-14T13:49:22.606Z</time>
      </trkpt>
      <trkpt lat="43.40445" lon="6.72882">
        <ele>3.021</ele>
        <time>2012-10-14T13:49:25.458Z</time>
      </trkpt>
      <trkpt lat="43.40454" lon="6.72872">
        <ele>2.198</ele>
        <time>2012-10-14T13:49:27.380Z</time>
      </trkpt>
      <trkpt lat="43.4047" lon="6.72856">
        <ele>1.875</ele>
        <time>2012-10-14T13:49:30.461Z</time>
      </trkpt>
      <trkpt lat="43.40482" lon="6.72844">
        <ele>2.259</ele>
        <time>2012-10-14T13:49:32.727Z</time>
      </trkpt>
      <trkpt lat="43.40496" lon="6.72829">
        <ele>2.85</ele>
        <time>2012-10-14T13:49:35.562Z</time>
      </trkpt>
      <trkpt lat="43.40511" lon="6.72813">
        <ele>3.014</ele>
        <time>2012-10-14T13:49:38.799Z</time>
      </trkpt>
      <trkpt lat="43.40521" lon="6.72803">
        <ele>2.649</ele>
        <time>2012-10-14T13:49:40.833Z</time>
      </trkpt>
      <trkpt lat="43.40534" lon="6.72791">
        <ele>2.084</ele>
        <time>2012-10-14T13:49:43.382Z</time>
      </trkpt>
      <trkpt lat="43.40543" lon="6.72782">
        <ele>1.656</ele>
        <time>2012-10-14T13:49:45.274Z</time>
      </trkpt>
      <trkpt lat="43.40554" lon="6.72773">
        <ele>1.472</ele>
        <time>2012-10-14T13:49:47.270Z</time>
      </trkpt>
      <trkpt lat="43.40565" lon="6.72764">
        <ele>1.527</ele>
        <time>2012-10-14T13:49:49.184Z</time>
      </trkpt>
      <trkpt lat="43.40581" lon="6.72746">
        <ele>1.661</ele>
        <time>2012-10-14T13:49:52.350Z</time>
      </trkpt>
      <trkpt lat="43.40592" lon="6.72734">
        <ele>1.706</ele>
        <time>2012-10-14T13:49:54.532Z</time>
      </trkpt>
      <trkpt lat="43.40607" lon="6.72718">
        <ele>1.684</ele>
        <time>2012-10-14T13:49:57.534Z</time>
      </trkpt>
      <trkpt lat="43.40617" lon="6.72707">
        <ele>1.772</ele>
        <time>2012-10-14T13:49:59.473Z</time>
      </trkpt>
      <trkpt lat="43.40632" lon="6.7269">
        <ele>2.109</ele>
        <time>2012-10-14T13:50:02.652Z</time>
      </trkpt>
      <trkpt lat="43.40646" lon="6.72676">
        <ele>2.557</ele>
        <time>2012-10-14T13:50:05.761Z</time>
      </trkpt>
      <trkpt lat="43.40661" lon="6.72661">
        <ele>2.805</ele>
        <time>2012-10-14T13:50:08.907Z</time>
      </trkpt>
      <trkpt lat="43.40677" lon="6.72646">
        <ele>2.845</ele>
        <time>2012-10-14T13:50:12.162Z</time>
      </trkpt>
      <trkpt lat="43.40693" lon="6.72628">
        <ele>2.84</ele>
        <time>2012-10-14T13:50:15.656Z</time>
      </trkpt>
      <trkpt lat="43.40703" lon="6.7262">
        <ele>2.79</ele>
        <time>2012-10-14T13:50:17.575Z</time>
      </trkpt>
      <trkpt lat="43.40711" lon="6.72611">
        <ele>2.713</ele>
        <time>2012-10-14T13:50:19.384Z</time>
      </trkpt>
      <trkpt lat="43.40727" lon="6.72595">
        <ele>2.53</ele>
        <time>2012-10-14T13:50:22.727Z</time>
      </trkpt>
      <trkpt lat="43.40737" lon="6.72586">
        <ele>2.157</ele>
        <time>2012-10-14T13:50:24.705Z</time>
      </trkpt>
      <trkpt lat="43.40747" lon="6.72577">
        <ele>1.958</ele>
        <time>2012-10-14T13:50:26.644Z</time>
      </trkpt>
      <trkpt lat="43.40762" lon="6.7256">
        <ele>2.186</ele>
        <time>2012-10-14T13:50:29.972Z</time>
      </trkpt>
      <trkpt lat="43.40772" lon="6.7255">
        <ele>2.546</ele>
        <time>2012-10-14T13:50:32.036Z</time>
      </trkpt>
      <trkpt lat="43.40787" lon="6.72536">
        <ele>2.809</ele>
        <time>2012-10-14T13:50:35.045Z</time>
      </trkpt>
      <trkpt lat="43.408" lon="6.72522">
        <ele>2.983</ele>
        <time>2012-10-14T13:50:38.033Z</time>
      </trkpt>
      <trkpt lat="43.40815" lon="6.7251">
        <ele>3.058</ele>
        <time>2012-10-14T13:50:41.134Z</time>
      </trkpt>
      <trkpt lat="43.40827" lon="6.725">
        <ele>3.065</ele>
        <time>2012-10-14T13:50:43.684Z</time>
      </trkpt>
      <trkpt lat="43.40841" lon="6.72485">
        <ele>2.987</ele>
        <time>2012-10-14T13:50:47.146Z</time>
      </trkpt>
      <trkpt lat="43.40856" lon="6.72472">
        <ele>2.691</ele>
        <time>2012-10-14T13:50:50.568Z</time>
      </trkpt>
      <trkpt lat="43.4087" lon="6.72459">
        <ele>2.063</ele>
        <time>2012-10-14T13:50:54.330Z</time>
      </trkpt>
      <trkpt lat="43.40883" lon="6.72448">
        <ele>1.269</ele>
        <time>2012-10-14T13:50:58.091Z</time>
      </trkpt>
      <trkpt lat="43.40895" lon="6.72436">
        <ele>0.679</ele>
        <time>2012-10-14T13:51:01.269Z</time>
      </trkpt>
      <trkpt lat="43.40905" lon="6.72426">
        <ele>0.447</ele>
        <time>2012-10-14T13:51:04.037Z</time>
      </trkpt>
      <trkpt lat="43.40917" lon="6.72427">
        <ele>0.602</ele>
        <time>2012-10-14T13:51:06.479Z</time>
      </trkpt>
      <trkpt lat="43.4093" lon="6.72427">
        <ele>1.483</ele>
        <time>2012-10-14T13:51:09.033Z</time>
      </trkpt>
      <trkpt lat="43.40945" lon="6.72424">
        <ele>3.193</ele>
        <time>2012-10-14T13:51:11.822Z</time>
      </trkpt>
      <trkpt lat="43.4096" lon="6.7242">
        <ele>4.976</ele>
        <time>2012-10-14T13:51:14.609Z</time>
      </trkpt>
      <trkpt lat="43.4097" lon="6.72418">
        <ele>6.019</ele>
        <time>2012-10-14T13:51:16.432Z</time>
      </trkpt>
      <trkpt lat="43.40987" lon="6.72416">
        <ele>6.312</ele>
        <time>2012-10-14T13:51:19.458Z</time>
      </trkpt>
      <trkpt lat="43.41005" lon="6.72418">
        <ele>6.268</ele>
        <time>2012-10-14T13:51:22.654Z</time>
      </trkpt>
      <trkpt lat="43.41015" lon="6.72421">
        <ele>6</ele>
        <time>2012-10-14T13:51:24.542Z</time>
      </trkpt>
      <trkpt lat="43.41026" lon="6.72424">
        <ele>5.461</ele>
        <time>2012-10-14T13:51:26.442Z</time>
      </trkpt>
      <trkpt lat="43.4104" lon="6.72429">
        <ele>4.899</ele>
        <time>2012-10-14T13:51:29.076Z</time>
      </trkpt>
      <trkpt lat="43.41052" lon="6.72435">
        <ele>4.594</ele>
        <time>2012-10-14T13:51:31.343Z</time>
      </trkpt>
      <trkpt lat="43.41069" lon="6.72445">
        <ele>4.392</ele>
        <time>2012-10-14T13:51:34.890Z</time>
      </trkpt>
      <trkpt lat="43.41081" lon="6.72455">
        <ele>3.971</ele>
        <time>2012-10-14T13:51:37.633Z</time>
      </trkpt>
      <trkpt lat="43.41096" lon="6.72466">
        <ele>3.396</ele>
        <time>2012-10-14T13:51:40.906Z</time>
      </trkpt>
      <trkpt lat="43.41108" lon="6.72474">
        <ele>3.098</ele>
        <time>2012-10-14T13:51:43.516Z</time>
      </trkpt>
      <trkpt lat="43.41118" lon="6.72481">
        <ele>3.133</ele>
        <time>2012-10-14T13:51:45.644Z</time>
      </trkpt>
      <trkpt lat="43.41126" lon="6.72486">
        <ele>3.167</ele>
        <time>2012-10-14T13:51:47.452Z</time>
      </trkpt>
      <trkpt lat="43.41139" lon="6.72494">
        <ele>3.092</ele>
        <time>2012-10-14T13:51:50.658Z</time>
      </trkpt>
      <trkpt lat="43.41153" lon="6.72503">
        <ele>3.23</ele>
        <time>2012-10-14T13:51:54.140Z</time>
      </trkpt>
      <trkpt lat="43.41163" lon="6.72508">
        <ele>3.734</ele>
        <time>2012-10-14T13:51:56.529Z</time>
      </trkpt>
      <trkpt lat="43.41178" lon="6.72505">
        <ele>4.278</ele>
        <time>2012-10-14T13:52:00.366Z</time>
      </trkpt>
      <trkpt lat="43.41188" lon="6.72496">
        <ele>4.517</ele>
        <time>2012-10-14T13:52:03.463Z</time>
      </trkpt>
      <trkpt lat="43.41196" lon="6.72487">
        <ele>4.491</ele>
        <time>2012-10-14T13:52:06.033Z</time>
      </trkpt>
      <trkpt lat="43.41205" lon="6.72475">
        <ele>4.318</ele>
        <time>2012-10-14T13:52:08.800Z</time>
      </trkpt>
      <trkpt lat="43.41215" lon="6.72473">
        <ele>4.083</ele>
        <time>2012-10-14T13:52:10.982Z</time>
      </trkpt>
      <trkpt lat="43.41225" lon="6.72475">
        <ele>3.896</ele>
        <time>2012-10-14T13:52:12.895Z</time>
      </trkpt>
      <trkpt lat="43.4124" lon="6.72474">
        <ele>3.882</ele>
        <time>2012-10-14T13:52:15.926Z</time>
      </trkpt>
      <trkpt lat="43.41249" lon="6.72472">
        <ele>4.223</ele>
        <time>2012-10-14T13:52:17.866Z</time>
      </trkpt>
      <trkpt lat="43.41264" lon="6.7247">
        <ele>4.905</ele>
        <time>2012-10-14T13:52:20.955Z</time>
      </trkpt>
      <trkpt lat="43.41278" lon="6.72467">
        <ele>5.776</ele>
        <time>2012-10-14T13:52:23.639Z</time>
      </trkpt>
      <trkpt lat="43.41292" lon="6.7246">
        <ele>6.752</ele>
        <time>2012-10-14T13:52:26.657Z</time>
      </trkpt>
      <trkpt lat="43.41302" lon="6.72455">
        <ele>7.585</ele>
        <time>2012-10-14T13:52:28.803Z</time>
      </trkpt>
      <trkpt lat="43.41316" lon="6.7245">
        <ele>7.994</ele>
        <time>2012-10-14T13:52:31.671Z</time>
      </trkpt>
      <trkpt lat="43.41325" lon="6.72448">
        <ele>8.063</ele>
        <time>2012-10-14T13:52:33.450Z</time>
      </trkpt>
      <trkpt lat="43.41339" lon="6.72451">
        <ele>7.511</ele>
        <time>2012-10-14T13:52:36.045Z</time>
      </trkpt>
      <trkpt lat="43.41353" lon="6.72461">
        <ele>6.096</ele>
        <time>2012-10-14T13:52:39.197Z</time>
      </trkpt>
      <trkpt lat="43.41367" lon="6.72472">
        <ele>4.493</ele>
        <time>2012-10-14T13:52:42.333Z</time>
      </trkpt>
      <trkpt lat="43.41376" lon="6.72481">
        <ele>3.202</ele>
        <time>2012-10-14T13:52:44.546Z</time>
      </trkpt>
      <trkpt lat="43.41386" lon="6.72495">
        <ele>1.921</ele>
        <time>2012-10-14T13:52:47.780Z</time>
      </trkpt>
      <trkpt lat="43.41395" lon="6.72509">
        <ele>0.723</ele>
        <time>2012-10-14T13:52:50.703Z</time>
      </trkpt>
      <trkpt lat="43.41404" lon="6.72522">
        <ele>0.006</ele>
        <time>2012-10-14T13:52:53.538Z</time>
      </trkpt>
      <trkpt lat="43.4141" lon="6.72541">
        <ele>2.7</ele>
        <time>2012-10-14T13:52:56.676Z</time>
      </trkpt>
      <trkpt lat="43.41416" lon="6.72557">
        <ele>3</ele>
        <time>2012-10-14T13:52:59.659Z</time>
      </trkpt>
      <trkpt lat="43.41423" lon="6.72572">
        <ele>2.5</ele>
        <time>2012-10-14T13:53:02.922Z</time>
      </trkpt>
      <trkpt lat="43.4143" lon="6.72585">
        <ele>2.5</ele>
        <time>2012-10-14T13:53:06.067Z</time>
      </trkpt>
      <trkpt lat="43.41434" lon="6.72602">
        <ele>0.017</ele>
        <time>2012-10-14T13:53:09.273Z</time>
      </trkpt>
      <trkpt lat="43.41442" lon="6.72613">
        <ele>0.012</ele>
        <time>2012-10-14T13:53:12.041Z</time>
      </trkpt>
      <trkpt lat="43.41455" lon="6.7262">
        <ele>0.005</ele>
        <time>2012-10-14T13:53:15.225Z</time>
      </trkpt>
      <trkpt lat="43.41466" lon="6.72628">
        <ele>2.4</ele>
        <time>2012-10-14T13:53:18.171Z</time>
      </trkpt>
      <trkpt lat="43.41478" lon="6.72635">
        <ele>2</ele>
        <time>2012-10-14T13:53:21.044Z</time>
      </trkpt>
      <trkpt lat="43.41489" lon="6.72641">
        <ele>0.126</ele>
        <time>2012-10-14T13:53:23.926Z</time>
      </trkpt>
      <trkpt lat="43.41502" lon="6.72648">
        <ele>0.905</ele>
        <time>2012-10-14T13:53:27.501Z</time>
      </trkpt>
      <trkpt lat="43.41511" lon="6.72651">
        <ele>3.007</ele>
        <time>2012-10-14T13:53:30.257Z</time>
      </trkpt>
      <trkpt lat="43.41523" lon="6.72654">
        <ele>6.024</ele>
        <time>2012-10-14T13:53:34.106Z</time>
      </trkpt>
      <trkpt lat="43.41534" lon="6.72656">
        <ele>8.485</ele>
        <time>2012-10-14T13:53:37.737Z</time>
      </trkpt>
      <trkpt lat="43.4153" lon="6.7267">
        <ele>9.582</ele>
        <time>2012-10-14T13:53:41.932Z</time>
      </trkpt>
      <trkpt lat="43.41521" lon="6.7268">
        <ele>9.705</ele>
        <time>2012-10-14T13:53:45.729Z</time>
      </trkpt>
      <trkpt lat="43.41526" lon="6.72691">
        <ele>9.184</ele>
        <time>2012-10-14T13:53:48.308Z</time>
      </trkpt>
      <trkpt lat="43.41534" lon="6.72695">
        <ele>8.198</ele>
        <time>2012-10-14T13:53:50.522Z</time>
      </trkpt>
      <trkpt lat="43.41546" lon="6.72701">
        <ele>7.305</ele>
        <time>2012-10-14T13:53:53.390Z</time>
      </trkpt>
      <trkpt lat="43.41557" lon="6.72708">
        <ele>6.913</ele>
        <time>2012-10-14T13:53:56.567Z</time>
      </trkpt>
      <trkpt lat="43.41569" lon="6.72707">
        <ele>6.798</ele>
        <time>2012-10-14T13:53:59.722Z</time>
      </trkpt>
      <trkpt lat="43.41577" lon="6.72696">
        <ele>6.681</ele>
        <time>2012-10-14T13:54:02.566Z</time>
      </trkpt>
      <trkpt lat="43.41578" lon="6.7271">
        <ele>6.551</ele>
        <time>2012-10-14T13:54:05.317Z</time>
      </trkpt>
      <trkpt lat="43.41572" lon="6.72721">
        <ele>6.486</ele>
        <time>2012-10-14T13:54:07.906Z</time>
      </trkpt>
      <trkpt lat="43.41571" lon="6.72735">
        <ele>6.429</ele>
        <time>2012-10-14T13:54:10.750Z</time>
      </trkpt>
      <trkpt lat="43.41564" lon="6.72747">
        <ele>6.268</ele>
        <time>2012-10-14T13:54:13.873Z</time>
      </trkpt>
      <trkpt lat="43.41555" lon="6.72762">
        <ele>6.021</ele>
        <time>2012-10-14T13:54:17.526Z</time>
      </trkpt>
      <trkpt lat="43.41546" lon="6.72776">
        <ele>5.821</ele>
        <time>2012-10-14T13:54:20.731Z</time>
      </trkpt>
      <trkpt lat="43.41539" lon="6.72786">
        <ele>5.725</ele>
        <time>2012-10-14T13:54:22.858Z</time>
      </trkpt>
      <trkpt lat="43.4153" lon="6.72795">
        <ele>5.47</ele>
        <time>2012-10-14T13:54:25.063Z</time>
      </trkpt>
      <trkpt lat="43.4153" lon="6.72795">
        <ele>5.071</ele>
        <time>2012-10-14T13:54:30.032Z</time>
      </trkpt>
      <trkpt lat="43.4153" lon="6.72795">
        <ele>4.917</ele>
        <time>2012-10-14T13:54:33.242Z</time>
      </trkpt>
      <trkpt lat="43.41541" lon="6.72794">
        <ele>5.007</ele>
        <time>2012-10-14T13:54:37.442Z</time>
      </trkpt>
      <trkpt lat="43.41554" lon="6.72791">
        <ele>5.064</ele>
        <time>2012-10-14T13:54:41.506Z</time>
      </trkpt>
      <trkpt lat="43.4156" lon="6.72802">
        <ele>5.081</ele>
        <time>2012-10-14T13:54:45.369Z</time>
      </trkpt>
      <trkpt lat="43.41559" lon="6.72817">
        <ele>5.077</ele>
        <time>2012-10-14T13:54:48.815Z</time>
      </trkpt>
      <trkpt lat="43.41568" lon="6.72825">
        <ele>5.07</ele>
        <time>2012-10-14T13:54:51.606Z</time>
      </trkpt>
      <trkpt lat="43.41578" lon="6.72821">
        <ele>5.065</ele>
        <time>2012-10-14T13:54:54.232Z</time>
      </trkpt>
      <trkpt lat="43.41591" lon="6.72809">
        <ele>5.117</ele>
        <time>2012-10-14T13:54:57.716Z</time>
      </trkpt>
      <trkpt lat="43.416" lon="6.72803">
        <ele>5.297</ele>
        <time>2012-10-14T13:54:59.892Z</time>
      </trkpt>
      <trkpt lat="43.41612" lon="6.72802">
        <ele>5.645</ele>
        <time>2012-10-14T13:55:02.592Z</time>
      </trkpt>
      <trkpt lat="43.41622" lon="6.72802">
        <ele>6.155</ele>
        <time>2012-10-14T13:55:04.570Z</time>
      </trkpt>
      <trkpt lat="43.41635" lon="6.72805">
        <ele>6.942</ele>
        <time>2012-10-14T13:55:07.469Z</time>
      </trkpt>
      <trkpt lat="43.41645" lon="6.72808">
        <ele>7.959</ele>
        <time>2012-10-14T13:55:09.624Z</time>
      </trkpt>
      <trkpt lat="43.41659" lon="6.72813">
        <ele>8.823</ele>
        <time>2012-10-14T13:55:12.776Z</time>
      </trkpt>
      <trkpt lat="43.41673" lon="6.7282">
        <ele>9.276</ele>
        <time>2012-10-14T13:55:16.125Z</time>
      </trkpt>
      <trkpt lat="43.41681" lon="6.72832">
        <ele>9.418</ele>
        <time>2012-10-14T13:55:19.235Z</time>
      </trkpt>
      <trkpt lat="43.41675" lon="6.72846">
        <ele>9.348</ele>
        <time>2012-10-14T13:55:22.258Z</time>
      </trkpt>
      <trkpt lat="43.41663" lon="6.72852">
        <ele>8.786</ele>
        <time>2012-10-14T13:55:25.607Z</time>
      </trkpt>
      <trkpt lat="43.41654" lon="6.72855">
        <ele>7.629</ele>
        <time>2012-10-14T13:55:27.971Z</time>
      </trkpt>
      <trkpt lat="43.41641" lon="6.72862">
        <ele>6.233</ele>
        <time>2012-10-14T13:55:31.407Z</time>
      </trkpt>
      <trkpt lat="43.41624" lon="6.7287">
        <ele>4.831</ele>
        <time>2012-10-14T13:55:35.168Z</time>
      </trkpt>
      <trkpt lat="43.41614" lon="6.72875">
        <ele>3.6</ele>
        <time>2012-10-14T13:55:37.371Z</time>
      </trkpt>
      <trkpt lat="43.41606" lon="6.7288">
        <ele>2.85</ele>
        <time>2012-10-14T13:55:39.320Z</time>
      </trkpt>
      <trkpt lat="43.41594" lon="6.72889">
        <ele>2.554</ele>
        <time>2012-10-14T13:55:42.226Z</time>
      </trkpt>
      <trkpt lat="43.4158" lon="6.72899">
        <ele>2.526</ele>
        <time>2012-10-14T13:55:45.778Z</time>
      </trkpt>
      <trkpt lat="43.41575" lon="6.72914">
        <ele>2.589</ele>
        <time>2012-10-14T13:55:48.832Z</time>
      </trkpt>
      <trkpt lat="43.41578" lon="6.72929">
        <ele>2.982</ele>
        <time>2012-10-14T13:55:51.820Z</time>
      </trkpt>
      <trkpt lat="43.41572" lon="6.72946">
        <ele>3.886</ele>
        <time>2012-10-14T13:55:55.225Z</time>
      </trkpt>
      <trkpt lat="43.41562" lon="6.72957">
        <ele>4.791</ele>
        <time>2012-10-14T13:55:58.354Z</time>
      </trkpt>
      <trkpt lat="43.41553" lon="6.72961">
        <ele>5.214</ele>
        <time>2012-10-14T13:56:00.649Z</time>
      </trkpt>
      <trkpt lat="43.41547" lon="6.7297">
        <ele>5.092</ele>
        <time>2012-10-14T13:56:02.926Z</time>
      </trkpt>
      <trkpt lat="43.41536" lon="6.72982">
        <ele>4.528</ele>
        <time>2012-10-14T13:56:06.111Z</time>
      </trkpt>
      <trkpt lat="43.41524" lon="6.72982">
        <ele>3.935</ele>
        <time>2012-10-14T13:56:09.125Z</time>
      </trkpt>
      <trkpt lat="43.41514" lon="6.72981">
        <ele>3.638</ele>
        <time>2012-10-14T13:56:11.662Z</time>
      </trkpt>
      <trkpt lat="43.41502" lon="6.72979">
        <ele>3.584</ele>
        <time>2012-10-14T13:56:14.604Z</time>
      </trkpt>
      <trkpt lat="43.41496" lon="6.72988">
        <ele>3.786</ele>
        <time>2012-10-14T13:56:16.962Z</time>
      </trkpt>
      <trkpt lat="43.41494" lon="6.73007">
        <ele>4.246</ele>
        <time>2012-10-14T13:56:20.152Z</time>
      </trkpt>
      <trkpt lat="43.41492" lon="6.73021">
        <ele>4.692</ele>
        <time>2012-10-14T13:56:22.663Z</time>
      </trkpt>
      <trkpt lat="43.41484" lon="6.73039">
        <ele>4.897</ele>
        <time>2012-10-14T13:56:26.204Z</time>
      </trkpt>
      <trkpt lat="43.41473" lon="6.73045">
        <ele>4.732</ele>
        <time>2012-10-14T13:56:29.082Z</time>
      </trkpt>
      <trkpt lat="43.41461" lon="6.73043">
        <ele>4.195</ele>
        <time>2012-10-14T13:56:32.378Z</time>
      </trkpt>
      <trkpt lat="43.4145" lon="6.73038">
        <ele>3.646</ele>
        <time>2012-10-14T13:56:35.462Z</time>
      </trkpt>
      <trkpt lat="43.4144" lon="6.7304">
        <ele>3.387</ele>
        <time>2012-10-14T13:56:37.901Z</time>
      </trkpt>
      <trkpt lat="43.41434" lon="6.73052">
        <ele>3.437</ele>
        <time>2012-10-14T13:56:40.667Z</time>
      </trkpt>
      <trkpt lat="43.4143" lon="6.73069">
        <ele>3.715</ele>
        <time>2012-10-14T13:56:43.723Z</time>
      </trkpt>
      <trkpt lat="43.41428" lon="6.73088">
        <ele>3.998</ele>
        <time>2012-10-14T13:56:46.877Z</time>
      </trkpt>
      <trkpt lat="43.41427" lon="6.73107">
        <ele>4.132</ele>
        <time>2012-10-14T13:56:50.288Z</time>
      </trkpt>
      <trkpt lat="43.41433" lon="6.73122">
        <ele>4.039</ele>
        <time>2012-10-14T13:56:53.477Z</time>
      </trkpt>
      <trkpt lat="43.41442" lon="6.73128">
        <ele>3.719</ele>
        <time>2012-10-14T13:56:56.283Z</time>
      </trkpt>
      <trkpt lat="43.41454" lon="6.7313">
        <ele>3.392</ele>
        <time>2012-10-14T13:56:59.581Z</time>
      </trkpt>
      <trkpt lat="43.41457" lon="6.73142">
        <ele>3.237</ele>
        <time>2012-10-14T13:57:02.537Z</time>
      </trkpt>
      <trkpt lat="43.41451" lon="6.73154">
        <ele>3.077</ele>
        <time>2012-10-14T13:57:05.590Z</time>
      </trkpt>
      <trkpt lat="43.41441" lon="6.73158">
        <ele>2.742</ele>
        <time>2012-10-14T13:57:08.820Z</time>
      </trkpt>
      <trkpt lat="43.41443" lon="6.73171">
        <ele>2.402</ele>
        <time>2012-10-14T13:57:11.822Z</time>
      </trkpt>
      <trkpt lat="43.41447" lon="6.73182">
        <ele>2.367</ele>
        <time>2012-10-14T13:57:14.505Z</time>
      </trkpt>
      <trkpt lat="43.41446" lon="6.73202">
        <ele>2.54</ele>
        <time>2012-10-14T13:57:18.520Z</time>
      </trkpt>
      <trkpt lat="43.4144" lon="6.73214">
        <ele>2.578</ele>
        <time>2012-10-14T13:57:21.417Z</time>
      </trkpt>
      <trkpt lat="43.41429" lon="6.73223">
        <ele>2.417</ele>
        <time>2012-10-14T13:57:24.857Z</time>
      </trkpt>
      <trkpt lat="43.41418" lon="6.73229">
        <ele>2.263</ele>
        <time>2012-10-14T13:57:28.149Z</time>
      </trkpt>
      <trkpt lat="43.41405" lon="6.73232">
        <ele>2.202</ele>
        <time>2012-10-14T13:57:31.690Z</time>
      </trkpt>
      <trkpt lat="43.41399" lon="6.73243">
        <ele>2.202</ele>
        <time>2012-10-14T13:57:34.093Z</time>
      </trkpt>
      <trkpt lat="43.41396" lon="6.73255">
        <ele>2.203</ele>
        <time>2012-10-14T13:57:36.216Z</time>
      </trkpt>
      <trkpt lat="43.41394" lon="6.73269">
        <ele>2.203</ele>
        <time>2012-10-14T13:57:38.534Z</time>
      </trkpt>
      <trkpt lat="43.41391" lon="6.73291">
        <ele>2.223</ele>
        <time>2012-10-14T13:57:41.965Z</time>
      </trkpt>
      <trkpt lat="43.41391" lon="6.73304">
        <ele>2.248</ele>
        <time>2012-10-14T13:57:43.935Z</time>
      </trkpt>
      <trkpt lat="43.41392" lon="6.73324">
        <ele>2.145</ele>
        <time>2012-10-14T13:57:47.094Z</time>
      </trkpt>
      <trkpt lat="43.41391" lon="6.73344">
        <ele>1.844</ele>
        <time>2012-10-14T13:57:50.126Z</time>
      </trkpt>
      <trkpt lat="43.41392" lon="6.73358">
        <ele>1.658</ele>
        <time>2012-10-14T13:57:52.159Z</time>
      </trkpt>
      <trkpt lat="43.41396" lon="6.73377">
        <ele>1.793</ele>
        <time>2012-10-14T13:57:55.179Z</time>
      </trkpt>
      <trkpt lat="43.414" lon="6.7339">
        <ele>1.957</ele>
        <time>2012-10-14T13:57:57.261Z</time>
      </trkpt>
      <trkpt lat="43.41407" lon="6.73408">
        <ele>1.968</ele>
        <time>2012-10-14T13:58:00.225Z</time>
      </trkpt>
      <trkpt lat="43.41412" lon="6.7342">
        <ele>1.959</ele>
        <time>2012-10-14T13:58:02.208Z</time>
      </trkpt>
      <trkpt lat="43.41418" lon="6.73438">
        <ele>1.982</ele>
        <time>2012-10-14T13:58:05.320Z</time>
      </trkpt>
      <trkpt lat="43.41425" lon="6.73455">
        <ele>1.968</ele>
        <time>2012-10-14T13:58:08.321Z</time>
      </trkpt>
      <trkpt lat="43.41436" lon="6.73465">
        <ele>1.88</ele>
        <time>2012-10-14T13:58:11.110Z</time>
      </trkpt>
      <trkpt lat="43.4145" lon="6.73468">
        <ele>1.605</ele>
        <time>2012-10-14T13:58:13.998Z</time>
      </trkpt>
      <trkpt lat="43.41459" lon="6.7347">
        <ele>1.114</ele>
        <time>2012-10-14T13:58:15.974Z</time>
      </trkpt>
      <trkpt lat="43.41468" lon="6.73472">
        <ele>0.661</ele>
        <time>2012-10-14T13:58:17.988Z</time>
      </trkpt>
      <trkpt lat="43.4148" lon="6.73475">
        <ele>0.453</ele>
        <time>2012-10-14T13:58:20.803Z</time>
      </trkpt>
      <trkpt lat="43.41493" lon="6.73478">
        <ele>0.414</ele>
        <time>2012-10-14T13:58:23.718Z</time>
      </trkpt>
      <trkpt lat="43.41506" lon="6.73481">
        <ele>0.446</ele>
        <time>2012-10-14T13:58:26.657Z</time>
      </trkpt>
      <trkpt lat="43.41519" lon="6.73484">
        <ele>0.493</ele>
        <time>2012-10-14T13:58:29.654Z</time>
      </trkpt>
      <trkpt lat="43.41532" lon="6.73487">
        <ele>0.525</ele>
        <time>2012-10-14T13:58:32.590Z</time>
      </trkpt>
      <trkpt lat="43.41545" lon="6.7349">
        <ele>0.548</ele>
        <time>2012-10-14T13:58:35.544Z</time>
      </trkpt>
      <trkpt lat="43.41554" lon="6.73492">
        <ele>0.59</ele>
        <time>2012-10-14T13:58:37.616Z</time>
      </trkpt>
      <trkpt lat="43.41567" lon="6.73494">
        <ele>0.65</ele>
        <time>2012-10-14T13:58:40.602Z</time>
      </trkpt>
      <trkpt lat="43.4158" lon="6.73497">
        <ele>0.714</ele>
        <time>2012-10-14T13:58:43.654Z</time>
      </trkpt>
      <trkpt lat="43.41591" lon="6.735">
        <ele>0.781</ele>
        <time>2012-10-14T13:58:46.803Z</time>
      </trkpt>
      <trkpt lat="43.41598" lon="6.73508">
        <ele>0.834</ele>
        <time>2012-10-14T13:58:49.213Z</time>
      </trkpt>
      <trkpt lat="43.41597" lon="6.73523">
        <ele>0.863</ele>
        <time>2012-10-14T13:58:51.993Z</time>
      </trkpt>
      <trkpt lat="43.41594" lon="6.7354">
        <ele>0.877</ele>
        <time>2012-10-14T13:58:55.099Z</time>
      </trkpt>
      <trkpt lat="43.41592" lon="6.73556">
        <ele>0.897</ele>
        <time>2012-10-14T13:58:58.035Z</time>
      </trkpt>
      <trkpt lat="43.41594" lon="6.73573">
        <ele>0.935</ele>
        <time>2012-10-14T13:59:01.116Z</time>
      </trkpt>
      <trkpt lat="43.41599" lon="6.73589">
        <ele>0.974</ele>
        <time>2012-10-14T13:59:04.160Z</time>
      </trkpt>
      <trkpt lat="43.41607" lon="6.73603">
        <ele>0.992</ele>
        <time>2012-10-14T13:59:07.207Z</time>
      </trkpt>
      <trkpt lat="43.41614" lon="6.73617">
        <ele>0.967</ele>
        <time>2012-10-14T13:59:10.110Z</time>
      </trkpt>
      <trkpt lat="43.41621" lon="6.7363">
        <ele>0.89</ele>
        <time>2012-10-14T13:59:13.138Z</time>
      </trkpt>
      <trkpt lat="43.41629" lon="6.73643">
        <ele>0.798</ele>
        <time>2012-10-14T13:59:16.124Z</time>
      </trkpt>
      <trkpt lat="43.41637" lon="6.73654">
        <ele>0.728</ele>
        <time>2012-10-14T13:59:19.133Z</time>
      </trkpt>
      <trkpt lat="43.41643" lon="6.73665">
        <ele>0.692</ele>
        <time>2012-10-14T13:59:21.909Z</time>
      </trkpt>
      <trkpt lat="43.4164" lon="6.73678">
        <ele>0.684</ele>
        <time>2012-10-14T13:59:24.424Z</time>
      </trkpt>
      <trkpt lat="43.41631" lon="6.73687">
        <ele>0.689</ele>
        <time>2012-10-14T13:59:27.428Z</time>
      </trkpt>
      <trkpt lat="43.41623" lon="6.73698">
        <ele>0.687</ele>
        <time>2012-10-14T13:59:30.523Z</time>
      </trkpt>
      <trkpt lat="43.41615" lon="6.7371">
        <ele>0.641</ele>
        <time>2012-10-14T13:59:33.566Z</time>
      </trkpt>
      <trkpt lat="43.41608" lon="6.7372">
        <ele>0.585</ele>
        <time>2012-10-14T13:59:36.091Z</time>
      </trkpt>
      <trkpt lat="43.416" lon="6.73731">
        <ele>0.598</ele>
        <time>2012-10-14T13:59:39.146Z</time>
      </trkpt>
      <trkpt lat="43.41593" lon="6.73742">
        <ele>0.623</ele>
        <time>2012-10-14T13:59:42.150Z</time>
      </trkpt>
      <trkpt lat="43.41585" lon="6.73753">
        <ele>0.564</ele>
        <time>2012-10-14T13:59:44.987Z</time>
      </trkpt>
      <trkpt lat="43.41579" lon="6.73763">
        <ele>0.513</ele>
        <time>2012-10-14T13:59:47.718Z</time>
      </trkpt>
      <trkpt lat="43.41571" lon="6.73774">
        <ele>0.588</ele>
        <time>2012-10-14T13:59:50.620Z</time>
      </trkpt>
      <trkpt lat="43.41563" lon="6.73786">
        <ele>0.745</ele>
        <time>2012-10-14T13:59:53.727Z</time>
      </trkpt>
      <trkpt lat="43.41555" lon="6.73799">
        <ele>0.869</ele>
        <time>2012-10-14T13:59:56.952Z</time>
      </trkpt>
      <trkpt lat="43.4155" lon="6.7381">
        <ele>0.918</ele>
        <time>2012-10-14T13:59:59.942Z</time>
      </trkpt>
      <trkpt lat="43.41552" lon="6.73823">
        <ele>0.921</ele>
        <time>2012-10-14T14:00:02.945Z</time>
      </trkpt>
      <trkpt lat="43.41561" lon="6.73831">
        <ele>0.944</ele>
        <time>2012-10-14T14:00:05.904Z</time>
      </trkpt>
      <trkpt lat="43.41571" lon="6.73838">
        <ele>0.987</ele>
        <time>2012-10-14T14:00:09.088Z</time>
      </trkpt>
      <trkpt lat="43.41583" lon="6.73845">
        <ele>0.98</ele>
        <time>2012-10-14T14:00:12.482Z</time>
      </trkpt>
      <trkpt lat="43.41592" lon="6.73852">
        <ele>0.834</ele>
        <time>2012-10-14T14:00:15.471Z</time>
      </trkpt>
      <trkpt lat="43.41601" lon="6.73856">
        <ele>0.649</ele>
        <time>2012-10-14T14:00:18.839Z</time>
      </trkpt>
      <trkpt lat="43.4161" lon="6.73856">
        <ele>0.623</ele>
        <time>2012-10-14T14:00:22.063Z</time>
      </trkpt>
      <trkpt lat="43.4161" lon="6.73856">
        <ele>0.741</ele>
        <time>2012-10-14T14:00:32.095Z</time>
      </trkpt>
      <trkpt lat="43.4161" lon="6.73856">
        <ele>0.821</ele>
        <time>2012-10-14T14:01:10.168Z</time>
      </trkpt>
      <trkpt lat="43.41629" lon="6.73859">
        <ele>0.833</ele>
        <time>2012-10-14T14:01:39.064Z</time>
      </trkpt>
      <trkpt lat="43.41629" lon="6.73859">
        <ele>0.83</ele>
        <time>2012-10-14T14:01:57.063Z</time>
      </trkpt>
      <trkpt lat="43.41629" lon="6.73859">
        <ele>0.861</ele>
        <time>2012-10-14T14:03:41.753Z</time>
      </trkpt>
    </trkseg>
  </trk>
</gpx>